<?xml version="1.0" encoding="UTF-8" standalone="no" ?>
<gpx xmlns="http://www.topografix.com/GPX/1/1" xmlns:xsi="http://www.w3.org/2001/XMLSchema-instance" xsi:schemaLocation="http://www.topografix.com/GPX/1/1 http://www.topografix.com/GPX/1/1/gpx.xsd" version="1.1" creator="VisuGPX - https://www.visugpx.com">
  <metadata>
    <name>BPM - Merville Franceville</name>
    <desc><![CDATA[Merville Franceville 25]]></desc>
  </metadata>
  <trk>
    <name><![CDATA[BPM - Merville Franceville_1]]></name>
    <trkseg>
      <trkpt lat="49.28216" lon="-0.17031">
        <ele>33.7</ele>
        <time>2017-05-25T08:19:00Z</time>
      </trkpt>
      <trkpt lat="49.28216" lon="-0.17031">
        <ele>33.1</ele>
        <time>2017-05-25T08:19:01Z</time>
      </trkpt>
      <trkpt lat="49.28213" lon="-0.1703">
        <ele>28.3</ele>
        <time>2017-05-25T08:19:08Z</time>
      </trkpt>
      <trkpt lat="49.28213" lon="-0.17029">
        <ele>20.5</ele>
        <time>2017-05-25T08:19:15Z</time>
      </trkpt>
      <trkpt lat="49.28214" lon="-0.17027">
        <ele>12.6</ele>
        <time>2017-05-25T08:19:22Z</time>
      </trkpt>
      <trkpt lat="49.28208" lon="-0.1703">
        <ele>8.4</ele>
        <time>2017-05-25T08:19:29Z</time>
      </trkpt>
      <trkpt lat="49.28204" lon="-0.17038">
        <ele>10</ele>
        <time>2017-05-25T08:19:35Z</time>
      </trkpt>
      <trkpt lat="49.28203" lon="-0.1704">
        <ele>10.3</ele>
        <time>2017-05-25T08:19:42Z</time>
      </trkpt>
      <trkpt lat="49.28199" lon="-0.17043">
        <ele>13.2</ele>
        <time>2017-05-25T08:19:49Z</time>
      </trkpt>
      <trkpt lat="49.28193" lon="-0.17036">
        <ele>10.7</ele>
        <time>2017-05-25T08:20:47Z</time>
      </trkpt>
      <trkpt lat="49.28186" lon="-0.17038">
        <ele>10.2</ele>
        <time>2017-05-25T08:20:54Z</time>
      </trkpt>
      <trkpt lat="49.28179" lon="-0.1704">
        <ele>9.8</ele>
        <time>2017-05-25T08:21:00Z</time>
      </trkpt>
      <trkpt lat="49.28171" lon="-0.17043">
        <ele>9.3</ele>
        <time>2017-05-25T08:21:07Z</time>
      </trkpt>
      <trkpt lat="49.28164" lon="-0.17044">
        <ele>8.8</ele>
        <time>2017-05-25T08:21:14Z</time>
      </trkpt>
      <trkpt lat="49.28157" lon="-0.17045">
        <ele>8.3</ele>
        <time>2017-05-25T08:21:20Z</time>
      </trkpt>
      <trkpt lat="49.28149" lon="-0.17049">
        <ele>7.8</ele>
        <time>2017-05-25T08:21:26Z</time>
      </trkpt>
      <trkpt lat="49.28141" lon="-0.17052">
        <ele>7.2</ele>
        <time>2017-05-25T08:21:32Z</time>
      </trkpt>
      <trkpt lat="49.28134" lon="-0.17056">
        <ele>5.6</ele>
        <time>2017-05-25T08:21:39Z</time>
      </trkpt>
      <trkpt lat="49.28127" lon="-0.17061">
        <ele>4.9</ele>
        <time>2017-05-25T08:21:46Z</time>
      </trkpt>
      <trkpt lat="49.2812" lon="-0.17064">
        <ele>4.4</ele>
        <time>2017-05-25T08:21:51Z</time>
      </trkpt>
      <trkpt lat="49.28112" lon="-0.17067">
        <ele>3.5</ele>
        <time>2017-05-25T08:21:57Z</time>
      </trkpt>
      <trkpt lat="49.28104" lon="-0.17068">
        <ele>2.6</ele>
        <time>2017-05-25T08:22:04Z</time>
      </trkpt>
      <trkpt lat="49.28096" lon="-0.17069">
        <ele>2.3</ele>
        <time>2017-05-25T08:22:11Z</time>
      </trkpt>
      <trkpt lat="49.28089" lon="-0.17071">
        <ele>2.2</ele>
        <time>2017-05-25T08:22:17Z</time>
      </trkpt>
      <trkpt lat="49.2808" lon="-0.17072">
        <ele>1.8</ele>
        <time>2017-05-25T08:22:24Z</time>
      </trkpt>
      <trkpt lat="49.28072" lon="-0.17071">
        <ele>1.6</ele>
        <time>2017-05-25T08:22:30Z</time>
      </trkpt>
      <trkpt lat="49.28065" lon="-0.17069">
        <ele>1.5</ele>
        <time>2017-05-25T08:22:36Z</time>
      </trkpt>
      <trkpt lat="49.28057" lon="-0.1707">
        <ele>1.2</ele>
        <time>2017-05-25T08:22:43Z</time>
      </trkpt>
      <trkpt lat="49.28052" lon="-0.17068">
        <ele>0.9</ele>
        <time>2017-05-25T08:22:50Z</time>
      </trkpt>
      <trkpt lat="49.28048" lon="-0.17063">
        <ele>1</ele>
        <time>2017-05-25T08:22:57Z</time>
      </trkpt>
      <trkpt lat="49.28045" lon="-0.17059">
        <ele>0.9</ele>
        <time>2017-05-25T08:23:04Z</time>
      </trkpt>
      <trkpt lat="49.28043" lon="-0.17055">
        <ele>0.7</ele>
        <time>2017-05-25T08:23:11Z</time>
      </trkpt>
      <trkpt lat="49.28037" lon="-0.1705">
        <ele>0.7</ele>
        <time>2017-05-25T08:23:18Z</time>
      </trkpt>
      <trkpt lat="49.28031" lon="-0.17053">
        <ele>0.8</ele>
        <time>2017-05-25T08:23:25Z</time>
      </trkpt>
      <trkpt lat="49.28025" lon="-0.17057">
        <ele>0.6</ele>
        <time>2017-05-25T08:23:32Z</time>
      </trkpt>
      <trkpt lat="49.28019" lon="-0.17059">
        <ele>3.3</ele>
        <time>2017-05-25T08:23:39Z</time>
      </trkpt>
      <trkpt lat="49.28015" lon="-0.17059">
        <ele>-1</ele>
        <time>2017-05-25T08:23:46Z</time>
      </trkpt>
      <trkpt lat="49.28009" lon="-0.17064">
        <ele>-0.4</ele>
        <time>2017-05-25T08:23:53Z</time>
      </trkpt>
      <trkpt lat="49.28003" lon="-0.17066">
        <ele>-0.8</ele>
        <time>2017-05-25T08:24:00Z</time>
      </trkpt>
      <trkpt lat="49.27999" lon="-0.17063">
        <ele>-5.5</ele>
        <time>2017-05-25T08:24:55Z</time>
      </trkpt>
      <trkpt lat="49.27989" lon="-0.17059">
        <ele>-10.1</ele>
        <time>2017-05-25T08:25:24Z</time>
      </trkpt>
      <trkpt lat="49.27984" lon="-0.17059">
        <ele>-11.1</ele>
        <time>2017-05-25T08:25:31Z</time>
      </trkpt>
      <trkpt lat="49.27981" lon="-0.1706">
        <ele>-9.5</ele>
        <time>2017-05-25T08:25:38Z</time>
      </trkpt>
      <trkpt lat="49.27977" lon="-0.17063">
        <ele>-10.2</ele>
        <time>2017-05-25T08:25:45Z</time>
      </trkpt>
      <trkpt lat="49.27972" lon="-0.17066">
        <ele>-10.3</ele>
        <time>2017-05-25T08:25:52Z</time>
      </trkpt>
      <trkpt lat="49.27969" lon="-0.17069">
        <ele>-9.9</ele>
        <time>2017-05-25T08:25:59Z</time>
      </trkpt>
      <trkpt lat="49.27965" lon="-0.17074">
        <ele>-7.2</ele>
        <time>2017-05-25T08:26:06Z</time>
      </trkpt>
      <trkpt lat="49.27964" lon="-0.17084">
        <ele>-5.4</ele>
        <time>2017-05-25T08:26:30Z</time>
      </trkpt>
      <trkpt lat="49.27964" lon="-0.17078">
        <ele>-1.5</ele>
        <time>2017-05-25T08:27:00Z</time>
      </trkpt>
      <trkpt lat="49.27963" lon="-0.17084">
        <ele>3.6</ele>
        <time>2017-05-25T08:28:14Z</time>
      </trkpt>
      <trkpt lat="49.27961" lon="-0.17078">
        <ele>3.6</ele>
        <time>2017-05-25T08:29:36Z</time>
      </trkpt>
      <trkpt lat="49.27961" lon="-0.17084">
        <ele>2.7</ele>
        <time>2017-05-25T08:33:02Z</time>
      </trkpt>
      <trkpt lat="49.27963" lon="-0.17085">
        <ele>2.2</ele>
        <time>2017-05-25T08:33:09Z</time>
      </trkpt>
      <trkpt lat="49.27955" lon="-0.17087">
        <ele>2.4</ele>
        <time>2017-05-25T08:34:16Z</time>
      </trkpt>
      <trkpt lat="49.27955" lon="-0.17089">
        <ele>2.3</ele>
        <time>2017-05-25T08:34:23Z</time>
      </trkpt>
      <trkpt lat="49.27956" lon="-0.17082">
        <ele>2.3</ele>
        <time>2017-05-25T08:33:58Z</time>
      </trkpt>
      <trkpt lat="49.27959" lon="-0.1708">
        <ele>3.8</ele>
        <time>2017-05-25T08:35:31Z</time>
      </trkpt>
      <trkpt lat="49.27959" lon="-0.17077">
        <ele>-0.2</ele>
        <time>2017-05-25T08:37:45Z</time>
      </trkpt>
      <trkpt lat="49.27962" lon="-0.17082">
        <ele>2</ele>
        <time>2017-05-25T08:38:56Z</time>
      </trkpt>
      <trkpt lat="49.27969" lon="-0.17086">
        <ele>6.2</ele>
        <time>2017-05-25T08:39:09Z</time>
      </trkpt>
      <trkpt lat="49.27972" lon="-0.17086">
        <ele>4.8</ele>
        <time>2017-05-25T08:39:16Z</time>
      </trkpt>
      <trkpt lat="49.27978" lon="-0.17085">
        <ele>5.3</ele>
        <time>2017-05-25T08:39:43Z</time>
      </trkpt>
      <trkpt lat="49.27983" lon="-0.17082">
        <ele>6.7</ele>
        <time>2017-05-25T08:39:50Z</time>
      </trkpt>
      <trkpt lat="49.27989" lon="-0.17082">
        <ele>6.8</ele>
        <time>2017-05-25T08:39:57Z</time>
      </trkpt>
      <trkpt lat="49.27995" lon="-0.17079">
        <ele>6.2</ele>
        <time>2017-05-25T08:40:04Z</time>
      </trkpt>
      <trkpt lat="49.28001" lon="-0.17077">
        <ele>5.7</ele>
        <time>2017-05-25T08:40:11Z</time>
      </trkpt>
      <trkpt lat="49.28007" lon="-0.17075">
        <ele>4.7</ele>
        <time>2017-05-25T08:40:18Z</time>
      </trkpt>
      <trkpt lat="49.28013" lon="-0.17075">
        <ele>3.2</ele>
        <time>2017-05-25T08:40:25Z</time>
      </trkpt>
      <trkpt lat="49.28018" lon="-0.17073">
        <ele>3.3</ele>
        <time>2017-05-25T08:40:32Z</time>
      </trkpt>
      <trkpt lat="49.28025" lon="-0.17071">
        <ele>4</ele>
        <time>2017-05-25T08:40:39Z</time>
      </trkpt>
      <trkpt lat="49.2803" lon="-0.1707">
        <ele>3.7</ele>
        <time>2017-05-25T08:40:46Z</time>
      </trkpt>
      <trkpt lat="49.28036" lon="-0.17068">
        <ele>4.8</ele>
        <time>2017-05-25T08:40:53Z</time>
      </trkpt>
      <trkpt lat="49.28041" lon="-0.17066">
        <ele>5.9</ele>
        <time>2017-05-25T08:41:00Z</time>
      </trkpt>
      <trkpt lat="49.28046" lon="-0.17065">
        <ele>7.1</ele>
        <time>2017-05-25T08:41:07Z</time>
      </trkpt>
      <trkpt lat="49.28053" lon="-0.17063">
        <ele>6.1</ele>
        <time>2017-05-25T08:41:14Z</time>
      </trkpt>
      <trkpt lat="49.2806" lon="-0.17063">
        <ele>6.1</ele>
        <time>2017-05-25T08:41:21Z</time>
      </trkpt>
      <trkpt lat="49.28065" lon="-0.17064">
        <ele>7</ele>
        <time>2017-05-25T08:41:28Z</time>
      </trkpt>
      <trkpt lat="49.28072" lon="-0.17066">
        <ele>6.5</ele>
        <time>2017-05-25T08:41:35Z</time>
      </trkpt>
      <trkpt lat="49.28078" lon="-0.17066">
        <ele>7.6</ele>
        <time>2017-05-25T08:41:42Z</time>
      </trkpt>
      <trkpt lat="49.28084" lon="-0.17064">
        <ele>5.8</ele>
        <time>2017-05-25T08:41:49Z</time>
      </trkpt>
      <trkpt lat="49.2809" lon="-0.17063">
        <ele>6.7</ele>
        <time>2017-05-25T08:41:56Z</time>
      </trkpt>
      <trkpt lat="49.28097" lon="-0.17063">
        <ele>5.6</ele>
        <time>2017-05-25T08:42:19Z</time>
      </trkpt>
      <trkpt lat="49.28104" lon="-0.1706">
        <ele>5.8</ele>
        <time>2017-05-25T08:42:24Z</time>
      </trkpt>
      <trkpt lat="49.28111" lon="-0.17058">
        <ele>7.8</ele>
        <time>2017-05-25T08:42:30Z</time>
      </trkpt>
      <trkpt lat="49.28118" lon="-0.17055">
        <ele>8.9</ele>
        <time>2017-05-25T08:42:36Z</time>
      </trkpt>
      <trkpt lat="49.28126" lon="-0.17052">
        <ele>9.3</ele>
        <time>2017-05-25T08:42:42Z</time>
      </trkpt>
      <trkpt lat="49.28133" lon="-0.1705">
        <ele>9.8</ele>
        <time>2017-05-25T08:42:48Z</time>
      </trkpt>
      <trkpt lat="49.2814" lon="-0.17049">
        <ele>8.3</ele>
        <time>2017-05-25T08:42:55Z</time>
      </trkpt>
      <trkpt lat="49.28146" lon="-0.17045">
        <ele>8.5</ele>
        <time>2017-05-25T08:43:02Z</time>
      </trkpt>
      <trkpt lat="49.28153" lon="-0.17044">
        <ele>7.4</ele>
        <time>2017-05-25T08:43:09Z</time>
      </trkpt>
      <trkpt lat="49.2816" lon="-0.17042">
        <ele>7.5</ele>
        <time>2017-05-25T08:43:16Z</time>
      </trkpt>
      <trkpt lat="49.28167" lon="-0.17041">
        <ele>8.3</ele>
        <time>2017-05-25T08:43:23Z</time>
      </trkpt>
      <trkpt lat="49.28172" lon="-0.17038">
        <ele>9.3</ele>
        <time>2017-05-25T08:43:30Z</time>
      </trkpt>
      <trkpt lat="49.28179" lon="-0.17038">
        <ele>8.5</ele>
        <time>2017-05-25T08:43:37Z</time>
      </trkpt>
      <trkpt lat="49.28185" lon="-0.17037">
        <ele>9.3</ele>
        <time>2017-05-25T08:43:44Z</time>
      </trkpt>
      <trkpt lat="49.28191" lon="-0.17033">
        <ele>11.2</ele>
        <time>2017-05-25T08:43:51Z</time>
      </trkpt>
      <trkpt lat="49.28197" lon="-0.17031">
        <ele>11.9</ele>
        <time>2017-05-25T08:43:58Z</time>
      </trkpt>
      <trkpt lat="49.28204" lon="-0.17027">
        <ele>12.2</ele>
        <time>2017-05-25T08:44:05Z</time>
      </trkpt>
      <trkpt lat="49.28208" lon="-0.17024">
        <ele>12.3</ele>
        <time>2017-05-25T08:44:12Z</time>
      </trkpt>
      <trkpt lat="49.28213" lon="-0.1702">
        <ele>12.6</ele>
        <time>2017-05-25T08:44:19Z</time>
      </trkpt>
      <trkpt lat="49.2822" lon="-0.17016">
        <ele>11.8</ele>
        <time>2017-05-25T08:44:26Z</time>
      </trkpt>
      <trkpt lat="49.28224" lon="-0.17013">
        <ele>11.7</ele>
        <time>2017-05-25T08:44:33Z</time>
      </trkpt>
      <trkpt lat="49.28228" lon="-0.17005">
        <ele>12.2</ele>
        <time>2017-05-25T08:44:40Z</time>
      </trkpt>
      <trkpt lat="49.28231" lon="-0.16999">
        <ele>11.8</ele>
        <time>2017-05-25T08:44:47Z</time>
      </trkpt>
      <trkpt lat="49.28237" lon="-0.1699">
        <ele>10</ele>
        <time>2017-05-25T08:44:53Z</time>
      </trkpt>
      <trkpt lat="49.28242" lon="-0.16981">
        <ele>8.5</ele>
        <time>2017-05-25T08:45:00Z</time>
      </trkpt>
      <trkpt lat="49.28246" lon="-0.16975">
        <ele>7.3</ele>
        <time>2017-05-25T08:45:07Z</time>
      </trkpt>
      <trkpt lat="49.28251" lon="-0.16974">
        <ele>6.4</ele>
        <time>2017-05-25T08:45:14Z</time>
      </trkpt>
      <trkpt lat="49.28255" lon="-0.16974">
        <ele>5.8</ele>
        <time>2017-05-25T08:45:21Z</time>
      </trkpt>
      <trkpt lat="49.28261" lon="-0.16975">
        <ele>3.4</ele>
        <time>2017-05-25T08:45:28Z</time>
      </trkpt>
      <trkpt lat="49.28267" lon="-0.16978">
        <ele>2.7</ele>
        <time>2017-05-25T08:45:35Z</time>
      </trkpt>
      <trkpt lat="49.28273" lon="-0.1698">
        <ele>0.1</ele>
        <time>2017-05-25T08:45:42Z</time>
      </trkpt>
      <trkpt lat="49.28278" lon="-0.1698">
        <ele>0.4</ele>
        <time>2017-05-25T08:45:49Z</time>
      </trkpt>
      <trkpt lat="49.28284" lon="-0.1698">
        <ele>0.6</ele>
        <time>2017-05-25T08:45:56Z</time>
      </trkpt>
      <trkpt lat="49.2829" lon="-0.16983">
        <ele>2</ele>
        <time>2017-05-25T08:46:03Z</time>
      </trkpt>
      <trkpt lat="49.28296" lon="-0.16985">
        <ele>1.9</ele>
        <time>2017-05-25T08:46:10Z</time>
      </trkpt>
      <trkpt lat="49.28304" lon="-0.16988">
        <ele>1.4</ele>
        <time>2017-05-25T08:46:17Z</time>
      </trkpt>
      <trkpt lat="49.28309" lon="-0.16988">
        <ele>1.4</ele>
        <time>2017-05-25T08:46:24Z</time>
      </trkpt>
      <trkpt lat="49.28314" lon="-0.16987">
        <ele>0.5</ele>
        <time>2017-05-25T08:46:31Z</time>
      </trkpt>
      <trkpt lat="49.28319" lon="-0.1698">
        <ele>3.5</ele>
        <time>2017-05-25T08:46:38Z</time>
      </trkpt>
      <trkpt lat="49.28324" lon="-0.16974">
        <ele>6.2</ele>
        <time>2017-05-25T08:46:45Z</time>
      </trkpt>
      <trkpt lat="49.28327" lon="-0.16966">
        <ele>8.5</ele>
        <time>2017-05-25T08:46:52Z</time>
      </trkpt>
      <trkpt lat="49.2833" lon="-0.16958">
        <ele>9.3</ele>
        <time>2017-05-25T08:46:59Z</time>
      </trkpt>
      <trkpt lat="49.28333" lon="-0.1695">
        <ele>10.1</ele>
        <time>2017-05-25T08:47:06Z</time>
      </trkpt>
      <trkpt lat="49.28337" lon="-0.16941">
        <ele>9.4</ele>
        <time>2017-05-25T08:47:13Z</time>
      </trkpt>
      <trkpt lat="49.28339" lon="-0.1693">
        <ele>8.6</ele>
        <time>2017-05-25T08:47:20Z</time>
      </trkpt>
      <trkpt lat="49.28343" lon="-0.16919">
        <ele>9</ele>
        <time>2017-05-25T08:47:27Z</time>
      </trkpt>
      <trkpt lat="49.28347" lon="-0.16913">
        <ele>9</ele>
        <time>2017-05-25T08:47:34Z</time>
      </trkpt>
      <trkpt lat="49.28351" lon="-0.16909">
        <ele>8</ele>
        <time>2017-05-25T08:47:41Z</time>
      </trkpt>
      <trkpt lat="49.28358" lon="-0.16911">
        <ele>9.1</ele>
        <time>2017-05-25T08:47:48Z</time>
      </trkpt>
      <trkpt lat="49.28364" lon="-0.16911">
        <ele>11.1</ele>
        <time>2017-05-25T08:47:55Z</time>
      </trkpt>
      <trkpt lat="49.28368" lon="-0.16911">
        <ele>14</ele>
        <time>2017-05-25T08:48:02Z</time>
      </trkpt>
      <trkpt lat="49.28373" lon="-0.16914">
        <ele>14</ele>
        <time>2017-05-25T08:48:09Z</time>
      </trkpt>
      <trkpt lat="49.2838" lon="-0.16917">
        <ele>14.2</ele>
        <time>2017-05-25T08:48:16Z</time>
      </trkpt>
      <trkpt lat="49.28387" lon="-0.1692">
        <ele>13.8</ele>
        <time>2017-05-25T08:48:23Z</time>
      </trkpt>
      <trkpt lat="49.28394" lon="-0.1692">
        <ele>15</ele>
        <time>2017-05-25T08:48:30Z</time>
      </trkpt>
      <trkpt lat="49.28401" lon="-0.16922">
        <ele>16.4</ele>
        <time>2017-05-25T08:48:37Z</time>
      </trkpt>
      <trkpt lat="49.28407" lon="-0.16924">
        <ele>15.6</ele>
        <time>2017-05-25T08:48:44Z</time>
      </trkpt>
      <trkpt lat="49.28412" lon="-0.16927">
        <ele>15.7</ele>
        <time>2017-05-25T08:48:51Z</time>
      </trkpt>
      <trkpt lat="49.28417" lon="-0.16929">
        <ele>15.2</ele>
        <time>2017-05-25T08:48:58Z</time>
      </trkpt>
      <trkpt lat="49.28421" lon="-0.16936">
        <ele>13.2</ele>
        <time>2017-05-25T08:49:05Z</time>
      </trkpt>
      <trkpt lat="49.28423" lon="-0.16947">
        <ele>10.4</ele>
        <time>2017-05-25T08:49:11Z</time>
      </trkpt>
      <trkpt lat="49.28426" lon="-0.16959">
        <ele>8.5</ele>
        <time>2017-05-25T08:49:16Z</time>
      </trkpt>
      <trkpt lat="49.28428" lon="-0.1697">
        <ele>6.8</ele>
        <time>2017-05-25T08:49:22Z</time>
      </trkpt>
      <trkpt lat="49.28428" lon="-0.16982">
        <ele>3.1</ele>
        <time>2017-05-25T08:49:29Z</time>
      </trkpt>
      <trkpt lat="49.28429" lon="-0.16992">
        <ele>2.1</ele>
        <time>2017-05-25T08:49:36Z</time>
      </trkpt>
      <trkpt lat="49.2843" lon="-0.17003">
        <ele>3</ele>
        <time>2017-05-25T08:49:43Z</time>
      </trkpt>
      <trkpt lat="49.2843" lon="-0.17016">
        <ele>3.3</ele>
        <time>2017-05-25T08:49:50Z</time>
      </trkpt>
      <trkpt lat="49.28432" lon="-0.17027">
        <ele>3.4</ele>
        <time>2017-05-25T08:49:57Z</time>
      </trkpt>
      <trkpt lat="49.2843" lon="-0.17038">
        <ele>3</ele>
        <time>2017-05-25T08:50:04Z</time>
      </trkpt>
      <trkpt lat="49.28432" lon="-0.17049">
        <ele>3.1</ele>
        <time>2017-05-25T08:50:10Z</time>
      </trkpt>
      <trkpt lat="49.28433" lon="-0.17059">
        <ele>1.7</ele>
        <time>2017-05-25T08:50:17Z</time>
      </trkpt>
      <trkpt lat="49.28434" lon="-0.17071">
        <ele>2.2</ele>
        <time>2017-05-25T08:50:24Z</time>
      </trkpt>
      <trkpt lat="49.28435" lon="-0.17082">
        <ele>2.5</ele>
        <time>2017-05-25T08:50:31Z</time>
      </trkpt>
      <trkpt lat="49.28435" lon="-0.17092">
        <ele>2</ele>
        <time>2017-05-25T08:50:38Z</time>
      </trkpt>
      <trkpt lat="49.28436" lon="-0.17101">
        <ele>2.9</ele>
        <time>2017-05-25T08:50:45Z</time>
      </trkpt>
      <trkpt lat="49.28439" lon="-0.1711">
        <ele>3</ele>
        <time>2017-05-25T08:50:52Z</time>
      </trkpt>
      <trkpt lat="49.2844" lon="-0.17118">
        <ele>3.7</ele>
        <time>2017-05-25T08:50:59Z</time>
      </trkpt>
      <trkpt lat="49.28441" lon="-0.17126">
        <ele>7.1</ele>
        <time>2017-05-25T08:51:06Z</time>
      </trkpt>
      <trkpt lat="49.28442" lon="-0.17135">
        <ele>9.4</ele>
        <time>2017-05-25T08:51:13Z</time>
      </trkpt>
      <trkpt lat="49.28443" lon="-0.17147">
        <ele>8.3</ele>
        <time>2017-05-25T08:51:20Z</time>
      </trkpt>
      <trkpt lat="49.28445" lon="-0.17158">
        <ele>6.8</ele>
        <time>2017-05-25T08:51:26Z</time>
      </trkpt>
      <trkpt lat="49.28445" lon="-0.17168">
        <ele>6</ele>
        <time>2017-05-25T08:51:33Z</time>
      </trkpt>
      <trkpt lat="49.28445" lon="-0.17179">
        <ele>7.4</ele>
        <time>2017-05-25T08:51:40Z</time>
      </trkpt>
      <trkpt lat="49.28448" lon="-0.17188">
        <ele>7.3</ele>
        <time>2017-05-25T08:51:47Z</time>
      </trkpt>
      <trkpt lat="49.28449" lon="-0.17198">
        <ele>6.1</ele>
        <time>2017-05-25T08:51:54Z</time>
      </trkpt>
      <trkpt lat="49.2845" lon="-0.17209">
        <ele>5.9</ele>
        <time>2017-05-25T08:52:01Z</time>
      </trkpt>
      <trkpt lat="49.2845" lon="-0.17219">
        <ele>5.4</ele>
        <time>2017-05-25T08:52:08Z</time>
      </trkpt>
      <trkpt lat="49.28452" lon="-0.17232">
        <ele>3.3</ele>
        <time>2017-05-25T08:52:15Z</time>
      </trkpt>
      <trkpt lat="49.28454" lon="-0.17244">
        <ele>1.3</ele>
        <time>2017-05-25T08:52:22Z</time>
      </trkpt>
      <trkpt lat="49.28456" lon="-0.17255">
        <ele>1</ele>
        <time>2017-05-25T08:52:28Z</time>
      </trkpt>
      <trkpt lat="49.28458" lon="-0.17265">
        <ele>-0.5</ele>
        <time>2017-05-25T08:52:35Z</time>
      </trkpt>
      <trkpt lat="49.28459" lon="-0.17277">
        <ele>-2.7</ele>
        <time>2017-05-25T08:52:42Z</time>
      </trkpt>
      <trkpt lat="49.28462" lon="-0.17288">
        <ele>-3.9</ele>
        <time>2017-05-25T08:52:49Z</time>
      </trkpt>
      <trkpt lat="49.28463" lon="-0.17299">
        <ele>-4.5</ele>
        <time>2017-05-25T08:52:56Z</time>
      </trkpt>
      <trkpt lat="49.28465" lon="-0.17309">
        <ele>-3.8</ele>
        <time>2017-05-25T08:53:03Z</time>
      </trkpt>
      <trkpt lat="49.28466" lon="-0.17321">
        <ele>-3.9</ele>
        <time>2017-05-25T08:53:10Z</time>
      </trkpt>
      <trkpt lat="49.28466" lon="-0.17332">
        <ele>-4.4</ele>
        <time>2017-05-25T08:53:17Z</time>
      </trkpt>
      <trkpt lat="49.28469" lon="-0.17343">
        <ele>-4</ele>
        <time>2017-05-25T08:53:24Z</time>
      </trkpt>
      <trkpt lat="49.28471" lon="-0.17352">
        <ele>-3.7</ele>
        <time>2017-05-25T08:53:31Z</time>
      </trkpt>
      <trkpt lat="49.28472" lon="-0.17363">
        <ele>-6.3</ele>
        <time>2017-05-25T08:53:38Z</time>
      </trkpt>
      <trkpt lat="49.28473" lon="-0.17374">
        <ele>-7.5</ele>
        <time>2017-05-25T08:53:45Z</time>
      </trkpt>
      <trkpt lat="49.28473" lon="-0.17385">
        <ele>-7.2</ele>
        <time>2017-05-25T08:53:52Z</time>
      </trkpt>
      <trkpt lat="49.28475" lon="-0.17397">
        <ele>-7.8</ele>
        <time>2017-05-25T08:53:59Z</time>
      </trkpt>
      <trkpt lat="49.28476" lon="-0.17407">
        <ele>-7.5</ele>
        <time>2017-05-25T08:54:06Z</time>
      </trkpt>
      <trkpt lat="49.28478" lon="-0.17418">
        <ele>-6.8</ele>
        <time>2017-05-25T08:54:13Z</time>
      </trkpt>
      <trkpt lat="49.28477" lon="-0.17428">
        <ele>-5.9</ele>
        <time>2017-05-25T08:54:20Z</time>
      </trkpt>
      <trkpt lat="49.28478" lon="-0.1744">
        <ele>-5.7</ele>
        <time>2017-05-25T08:54:27Z</time>
      </trkpt>
      <trkpt lat="49.2848" lon="-0.1745">
        <ele>-5</ele>
        <time>2017-05-25T08:54:34Z</time>
      </trkpt>
      <trkpt lat="49.28481" lon="-0.17461">
        <ele>-4</ele>
        <time>2017-05-25T08:54:41Z</time>
      </trkpt>
      <trkpt lat="49.28483" lon="-0.17471">
        <ele>-3</ele>
        <time>2017-05-25T08:54:48Z</time>
      </trkpt>
      <trkpt lat="49.28484" lon="-0.17482">
        <ele>-3.4</ele>
        <time>2017-05-25T08:54:55Z</time>
      </trkpt>
      <trkpt lat="49.28487" lon="-0.17491">
        <ele>-4.4</ele>
        <time>2017-05-25T08:55:02Z</time>
      </trkpt>
      <trkpt lat="49.28488" lon="-0.17502">
        <ele>-5.5</ele>
        <time>2017-05-25T08:55:08Z</time>
      </trkpt>
      <trkpt lat="49.28489" lon="-0.17513">
        <ele>-3.5</ele>
        <time>2017-05-25T08:55:15Z</time>
      </trkpt>
      <trkpt lat="49.2849" lon="-0.17523">
        <ele>-3.2</ele>
        <time>2017-05-25T08:55:22Z</time>
      </trkpt>
      <trkpt lat="49.28491" lon="-0.17535">
        <ele>-3</ele>
        <time>2017-05-25T08:55:29Z</time>
      </trkpt>
      <trkpt lat="49.28492" lon="-0.17545">
        <ele>-1.1</ele>
        <time>2017-05-25T08:55:36Z</time>
      </trkpt>
      <trkpt lat="49.28492" lon="-0.17556">
        <ele>-0.5</ele>
        <time>2017-05-25T08:55:43Z</time>
      </trkpt>
      <trkpt lat="49.28493" lon="-0.17566">
        <ele>-0.4</ele>
        <time>2017-05-25T08:55:50Z</time>
      </trkpt>
      <trkpt lat="49.28495" lon="-0.17575">
        <ele>-0.1</ele>
        <time>2017-05-25T08:55:57Z</time>
      </trkpt>
      <trkpt lat="49.28496" lon="-0.17586">
        <ele>0.2</ele>
        <time>2017-05-25T08:56:04Z</time>
      </trkpt>
      <trkpt lat="49.28495" lon="-0.17599">
        <ele>0.1</ele>
        <time>2017-05-25T08:56:11Z</time>
      </trkpt>
      <trkpt lat="49.28495" lon="-0.17609">
        <ele>-0.5</ele>
        <time>2017-05-25T08:56:18Z</time>
      </trkpt>
      <trkpt lat="49.28495" lon="-0.1762">
        <ele>-2.9</ele>
        <time>2017-05-25T08:56:25Z</time>
      </trkpt>
      <trkpt lat="49.28494" lon="-0.1763">
        <ele>-3.5</ele>
        <time>2017-05-25T08:56:32Z</time>
      </trkpt>
      <trkpt lat="49.28493" lon="-0.17641">
        <ele>-4.4</ele>
        <time>2017-05-25T08:56:39Z</time>
      </trkpt>
      <trkpt lat="49.28493" lon="-0.17654">
        <ele>-3.9</ele>
        <time>2017-05-25T08:56:46Z</time>
      </trkpt>
      <trkpt lat="49.28492" lon="-0.17665">
        <ele>-2.1</ele>
        <time>2017-05-25T08:56:53Z</time>
      </trkpt>
      <trkpt lat="49.28491" lon="-0.17676">
        <ele>-2.5</ele>
        <time>2017-05-25T08:56:59Z</time>
      </trkpt>
      <trkpt lat="49.2849" lon="-0.17687">
        <ele>-2.5</ele>
        <time>2017-05-25T08:57:06Z</time>
      </trkpt>
      <trkpt lat="49.28488" lon="-0.17697">
        <ele>-0.5</ele>
        <time>2017-05-25T08:57:13Z</time>
      </trkpt>
      <trkpt lat="49.28487" lon="-0.17707">
        <ele>-0.1</ele>
        <time>2017-05-25T08:57:20Z</time>
      </trkpt>
      <trkpt lat="49.28485" lon="-0.17718">
        <ele>4.9</ele>
        <time>2017-05-25T08:57:27Z</time>
      </trkpt>
      <trkpt lat="49.28483" lon="-0.1773">
        <ele>4.7</ele>
        <time>2017-05-25T08:57:34Z</time>
      </trkpt>
      <trkpt lat="49.28481" lon="-0.17741">
        <ele>0.8</ele>
        <time>2017-05-25T08:57:41Z</time>
      </trkpt>
      <trkpt lat="49.2848" lon="-0.17752">
        <ele>0.4</ele>
        <time>2017-05-25T08:57:48Z</time>
      </trkpt>
      <trkpt lat="49.28479" lon="-0.17765">
        <ele>-0.4</ele>
        <time>2017-05-25T08:57:55Z</time>
      </trkpt>
      <trkpt lat="49.28478" lon="-0.17775">
        <ele>0.8</ele>
        <time>2017-05-25T08:58:02Z</time>
      </trkpt>
      <trkpt lat="49.28476" lon="-0.17781">
        <ele>1.2</ele>
        <time>2017-05-25T08:58:09Z</time>
      </trkpt>
      <trkpt lat="49.28471" lon="-0.17788">
        <ele>2.4</ele>
        <time>2017-05-25T08:58:16Z</time>
      </trkpt>
      <trkpt lat="49.28469" lon="-0.17799">
        <ele>4</ele>
        <time>2017-05-25T08:58:23Z</time>
      </trkpt>
      <trkpt lat="49.28467" lon="-0.17808">
        <ele>2.9</ele>
        <time>2017-05-25T08:58:30Z</time>
      </trkpt>
      <trkpt lat="49.2847" lon="-0.17817">
        <ele>3.5</ele>
        <time>2017-05-25T08:58:37Z</time>
      </trkpt>
      <trkpt lat="49.28471" lon="-0.17827">
        <ele>2.1</ele>
        <time>2017-05-25T08:58:44Z</time>
      </trkpt>
      <trkpt lat="49.28471" lon="-0.17837">
        <ele>2.3</ele>
        <time>2017-05-25T08:58:51Z</time>
      </trkpt>
      <trkpt lat="49.2847" lon="-0.17849">
        <ele>0.8</ele>
        <time>2017-05-25T08:58:58Z</time>
      </trkpt>
      <trkpt lat="49.28469" lon="-0.17861">
        <ele>-0.1</ele>
        <time>2017-05-25T08:59:05Z</time>
      </trkpt>
      <trkpt lat="49.2847" lon="-0.17871">
        <ele>2</ele>
        <time>2017-05-25T08:59:12Z</time>
      </trkpt>
      <trkpt lat="49.28468" lon="-0.17877">
        <ele>1.2</ele>
        <time>2017-05-25T08:59:19Z</time>
      </trkpt>
      <trkpt lat="49.28466" lon="-0.17885">
        <ele>2.6</ele>
        <time>2017-05-25T08:59:26Z</time>
      </trkpt>
      <trkpt lat="49.28469" lon="-0.17896">
        <ele>4.6</ele>
        <time>2017-05-25T08:59:33Z</time>
      </trkpt>
      <trkpt lat="49.28471" lon="-0.17907">
        <ele>5.6</ele>
        <time>2017-05-25T08:59:40Z</time>
      </trkpt>
      <trkpt lat="49.2847" lon="-0.17917">
        <ele>5.1</ele>
        <time>2017-05-25T08:59:47Z</time>
      </trkpt>
      <trkpt lat="49.28469" lon="-0.17928">
        <ele>5.1</ele>
        <time>2017-05-25T08:59:54Z</time>
      </trkpt>
      <trkpt lat="49.28466" lon="-0.17937">
        <ele>2.5</ele>
        <time>2017-05-25T08:59:59Z</time>
      </trkpt>
      <trkpt lat="49.28461" lon="-0.17946">
        <ele>-0.3</ele>
        <time>2017-05-25T09:00:04Z</time>
      </trkpt>
      <trkpt lat="49.28458" lon="-0.17957">
        <ele>-0.6</ele>
        <time>2017-05-25T09:00:10Z</time>
      </trkpt>
      <trkpt lat="49.28454" lon="-0.17968">
        <ele>-2.5</ele>
        <time>2017-05-25T09:00:16Z</time>
      </trkpt>
      <trkpt lat="49.28452" lon="-0.17979">
        <ele>-2.5</ele>
        <time>2017-05-25T09:00:23Z</time>
      </trkpt>
      <trkpt lat="49.28455" lon="-0.17989">
        <ele>-1.5</ele>
        <time>2017-05-25T09:00:30Z</time>
      </trkpt>
      <trkpt lat="49.28457" lon="-0.18001">
        <ele>-1.1</ele>
        <time>2017-05-25T09:00:37Z</time>
      </trkpt>
      <trkpt lat="49.28459" lon="-0.18014">
        <ele>-1</ele>
        <time>2017-05-25T09:00:44Z</time>
      </trkpt>
      <trkpt lat="49.28459" lon="-0.18023">
        <ele>-1.2</ele>
        <time>2017-05-25T09:00:51Z</time>
      </trkpt>
      <trkpt lat="49.28459" lon="-0.18035">
        <ele>-1.7</ele>
        <time>2017-05-25T09:00:58Z</time>
      </trkpt>
      <trkpt lat="49.2846" lon="-0.18046">
        <ele>-2.8</ele>
        <time>2017-05-25T09:01:05Z</time>
      </trkpt>
      <trkpt lat="49.28463" lon="-0.18055">
        <ele>-2.2</ele>
        <time>2017-05-25T09:01:12Z</time>
      </trkpt>
      <trkpt lat="49.28463" lon="-0.18067">
        <ele>-0.9</ele>
        <time>2017-05-25T09:01:19Z</time>
      </trkpt>
      <trkpt lat="49.28465" lon="-0.18078">
        <ele>1</ele>
        <time>2017-05-25T09:01:26Z</time>
      </trkpt>
      <trkpt lat="49.28465" lon="-0.1809">
        <ele>2.1</ele>
        <time>2017-05-25T09:01:33Z</time>
      </trkpt>
      <trkpt lat="49.28464" lon="-0.18102">
        <ele>2.2</ele>
        <time>2017-05-25T09:01:40Z</time>
      </trkpt>
      <trkpt lat="49.28462" lon="-0.18113">
        <ele>1.3</ele>
        <time>2017-05-25T09:01:47Z</time>
      </trkpt>
      <trkpt lat="49.28462" lon="-0.18123">
        <ele>1.3</ele>
        <time>2017-05-25T09:01:54Z</time>
      </trkpt>
      <trkpt lat="49.28463" lon="-0.18134">
        <ele>-2.3</ele>
        <time>2017-05-25T09:02:01Z</time>
      </trkpt>
      <trkpt lat="49.28463" lon="-0.18146">
        <ele>-3</ele>
        <time>2017-05-25T09:02:08Z</time>
      </trkpt>
      <trkpt lat="49.28463" lon="-0.18158">
        <ele>-3.7</ele>
        <time>2017-05-25T09:02:14Z</time>
      </trkpt>
      <trkpt lat="49.28465" lon="-0.18169">
        <ele>-3</ele>
        <time>2017-05-25T09:02:20Z</time>
      </trkpt>
      <trkpt lat="49.28466" lon="-0.18181">
        <ele>0.2</ele>
        <time>2017-05-25T09:02:27Z</time>
      </trkpt>
      <trkpt lat="49.28468" lon="-0.18192">
        <ele>2.3</ele>
        <time>2017-05-25T09:02:34Z</time>
      </trkpt>
      <trkpt lat="49.28469" lon="-0.18204">
        <ele>0.5</ele>
        <time>2017-05-25T09:02:41Z</time>
      </trkpt>
      <trkpt lat="49.2847" lon="-0.18215">
        <ele>1.6</ele>
        <time>2017-05-25T09:02:48Z</time>
      </trkpt>
      <trkpt lat="49.2847" lon="-0.18224">
        <ele>3.1</ele>
        <time>2017-05-25T09:02:55Z</time>
      </trkpt>
      <trkpt lat="49.28469" lon="-0.18234">
        <ele>3.7</ele>
        <time>2017-05-25T09:03:02Z</time>
      </trkpt>
      <trkpt lat="49.28469" lon="-0.18243">
        <ele>3.6</ele>
        <time>2017-05-25T09:03:09Z</time>
      </trkpt>
      <trkpt lat="49.28471" lon="-0.18254">
        <ele>3.2</ele>
        <time>2017-05-25T09:03:16Z</time>
      </trkpt>
      <trkpt lat="49.28473" lon="-0.18264">
        <ele>1.9</ele>
        <time>2017-05-25T09:03:22Z</time>
      </trkpt>
      <trkpt lat="49.28476" lon="-0.18275">
        <ele>-0.1</ele>
        <time>2017-05-25T09:03:28Z</time>
      </trkpt>
      <trkpt lat="49.28475" lon="-0.18287">
        <ele>-1.1</ele>
        <time>2017-05-25T09:03:35Z</time>
      </trkpt>
      <trkpt lat="49.28475" lon="-0.18299">
        <ele>-1.5</ele>
        <time>2017-05-25T09:03:42Z</time>
      </trkpt>
      <trkpt lat="49.28476" lon="-0.1831">
        <ele>-1.4</ele>
        <time>2017-05-25T09:03:48Z</time>
      </trkpt>
      <trkpt lat="49.28477" lon="-0.18322">
        <ele>-2.7</ele>
        <time>2017-05-25T09:03:54Z</time>
      </trkpt>
      <trkpt lat="49.28477" lon="-0.18335">
        <ele>-3.7</ele>
        <time>2017-05-25T09:04:01Z</time>
      </trkpt>
      <trkpt lat="49.28476" lon="-0.18347">
        <ele>-4.4</ele>
        <time>2017-05-25T09:04:08Z</time>
      </trkpt>
      <trkpt lat="49.28476" lon="-0.18359">
        <ele>-4.5</ele>
        <time>2017-05-25T09:04:14Z</time>
      </trkpt>
      <trkpt lat="49.28476" lon="-0.18372">
        <ele>-4</ele>
        <time>2017-05-25T09:04:21Z</time>
      </trkpt>
      <trkpt lat="49.28476" lon="-0.18384">
        <ele>-2.9</ele>
        <time>2017-05-25T09:04:28Z</time>
      </trkpt>
      <trkpt lat="49.28475" lon="-0.18396">
        <ele>-2</ele>
        <time>2017-05-25T09:04:35Z</time>
      </trkpt>
      <trkpt lat="49.28475" lon="-0.18407">
        <ele>1</ele>
        <time>2017-05-25T09:04:42Z</time>
      </trkpt>
      <trkpt lat="49.28475" lon="-0.18418">
        <ele>1.6</ele>
        <time>2017-05-25T09:04:48Z</time>
      </trkpt>
      <trkpt lat="49.28473" lon="-0.1843">
        <ele>1.5</ele>
        <time>2017-05-25T09:04:55Z</time>
      </trkpt>
      <trkpt lat="49.28472" lon="-0.18442">
        <ele>2.6</ele>
        <time>2017-05-25T09:05:02Z</time>
      </trkpt>
      <trkpt lat="49.28468" lon="-0.18453">
        <ele>0.1</ele>
        <time>2017-05-25T09:05:09Z</time>
      </trkpt>
      <trkpt lat="49.28466" lon="-0.18463">
        <ele>-2.5</ele>
        <time>2017-05-25T09:05:16Z</time>
      </trkpt>
      <trkpt lat="49.28464" lon="-0.18474">
        <ele>-2.1</ele>
        <time>2017-05-25T09:05:22Z</time>
      </trkpt>
      <trkpt lat="49.28463" lon="-0.18486">
        <ele>1.1</ele>
        <time>2017-05-25T09:05:29Z</time>
      </trkpt>
      <trkpt lat="49.28462" lon="-0.18498">
        <ele>0.6</ele>
        <time>2017-05-25T09:05:36Z</time>
      </trkpt>
      <trkpt lat="49.2846" lon="-0.18509">
        <ele>0.7</ele>
        <time>2017-05-25T09:05:43Z</time>
      </trkpt>
      <trkpt lat="49.28457" lon="-0.1852">
        <ele>-0.9</ele>
        <time>2017-05-25T09:05:50Z</time>
      </trkpt>
      <trkpt lat="49.28454" lon="-0.18531">
        <ele>-1.8</ele>
        <time>2017-05-25T09:05:57Z</time>
      </trkpt>
      <trkpt lat="49.28453" lon="-0.18543">
        <ele>-0.3</ele>
        <time>2017-05-25T09:06:04Z</time>
      </trkpt>
      <trkpt lat="49.2845" lon="-0.18553">
        <ele>1</ele>
        <time>2017-05-25T09:06:11Z</time>
      </trkpt>
      <trkpt lat="49.28448" lon="-0.18562">
        <ele>2.2</ele>
        <time>2017-05-25T09:06:18Z</time>
      </trkpt>
      <trkpt lat="49.28444" lon="-0.18572">
        <ele>3</ele>
        <time>2017-05-25T09:06:25Z</time>
      </trkpt>
      <trkpt lat="49.2844" lon="-0.18583">
        <ele>3.4</ele>
        <time>2017-05-25T09:06:32Z</time>
      </trkpt>
      <trkpt lat="49.28437" lon="-0.18592">
        <ele>4</ele>
        <time>2017-05-25T09:06:39Z</time>
      </trkpt>
      <trkpt lat="49.28434" lon="-0.18602">
        <ele>0.2</ele>
        <time>2017-05-25T09:06:46Z</time>
      </trkpt>
      <trkpt lat="49.2843" lon="-0.18612">
        <ele>1.4</ele>
        <time>2017-05-25T09:06:53Z</time>
      </trkpt>
      <trkpt lat="49.28426" lon="-0.18622">
        <ele>-0.3</ele>
        <time>2017-05-25T09:07:00Z</time>
      </trkpt>
      <trkpt lat="49.28423" lon="-0.18631">
        <ele>0.8</ele>
        <time>2017-05-25T09:07:07Z</time>
      </trkpt>
      <trkpt lat="49.28418" lon="-0.18641">
        <ele>0.3</ele>
        <time>2017-05-25T09:07:14Z</time>
      </trkpt>
      <trkpt lat="49.28414" lon="-0.18651">
        <ele>0.6</ele>
        <time>2017-05-25T09:07:20Z</time>
      </trkpt>
      <trkpt lat="49.2841" lon="-0.18662">
        <ele>-0.2</ele>
        <time>2017-05-25T09:07:27Z</time>
      </trkpt>
      <trkpt lat="49.28406" lon="-0.18671">
        <ele>-0.3</ele>
        <time>2017-05-25T09:07:34Z</time>
      </trkpt>
      <trkpt lat="49.28403" lon="-0.18681">
        <ele>-1.9</ele>
        <time>2017-05-25T09:07:41Z</time>
      </trkpt>
      <trkpt lat="49.284" lon="-0.1869">
        <ele>-2.3</ele>
        <time>2017-05-25T09:07:48Z</time>
      </trkpt>
      <trkpt lat="49.28396" lon="-0.187">
        <ele>-1.5</ele>
        <time>2017-05-25T09:07:55Z</time>
      </trkpt>
      <trkpt lat="49.28392" lon="-0.1871">
        <ele>-1.1</ele>
        <time>2017-05-25T09:08:02Z</time>
      </trkpt>
      <trkpt lat="49.28389" lon="-0.1872">
        <ele>1.3</ele>
        <time>2017-05-25T09:08:09Z</time>
      </trkpt>
      <trkpt lat="49.28386" lon="-0.18731">
        <ele>1.6</ele>
        <time>2017-05-25T09:08:16Z</time>
      </trkpt>
      <trkpt lat="49.28384" lon="-0.18742">
        <ele>2.4</ele>
        <time>2017-05-25T09:08:23Z</time>
      </trkpt>
      <trkpt lat="49.28381" lon="-0.18753">
        <ele>0.2</ele>
        <time>2017-05-25T09:08:30Z</time>
      </trkpt>
      <trkpt lat="49.28377" lon="-0.18763">
        <ele>0.1</ele>
        <time>2017-05-25T09:08:37Z</time>
      </trkpt>
      <trkpt lat="49.28374" lon="-0.18774">
        <ele>1.6</ele>
        <time>2017-05-25T09:08:44Z</time>
      </trkpt>
      <trkpt lat="49.28372" lon="-0.18786">
        <ele>1.7</ele>
        <time>2017-05-25T09:08:51Z</time>
      </trkpt>
      <trkpt lat="49.28371" lon="-0.18797">
        <ele>2.5</ele>
        <time>2017-05-25T09:08:58Z</time>
      </trkpt>
      <trkpt lat="49.28373" lon="-0.18806">
        <ele>2.3</ele>
        <time>2017-05-25T09:09:05Z</time>
      </trkpt>
      <trkpt lat="49.28372" lon="-0.18817">
        <ele>0.3</ele>
        <time>2017-05-25T09:09:12Z</time>
      </trkpt>
      <trkpt lat="49.28368" lon="-0.18828">
        <ele>0.5</ele>
        <time>2017-05-25T09:09:19Z</time>
      </trkpt>
      <trkpt lat="49.28364" lon="-0.18837">
        <ele>0.9</ele>
        <time>2017-05-25T09:09:25Z</time>
      </trkpt>
      <trkpt lat="49.28359" lon="-0.18848">
        <ele>0.5</ele>
        <time>2017-05-25T09:09:32Z</time>
      </trkpt>
      <trkpt lat="49.28356" lon="-0.18858">
        <ele>1.9</ele>
        <time>2017-05-25T09:09:39Z</time>
      </trkpt>
      <trkpt lat="49.28355" lon="-0.18867">
        <ele>3</ele>
        <time>2017-05-25T09:09:46Z</time>
      </trkpt>
      <trkpt lat="49.28353" lon="-0.18875">
        <ele>3.5</ele>
        <time>2017-05-25T09:09:53Z</time>
      </trkpt>
      <trkpt lat="49.28349" lon="-0.18884">
        <ele>5.2</ele>
        <time>2017-05-25T09:10:00Z</time>
      </trkpt>
      <trkpt lat="49.28345" lon="-0.18893">
        <ele>5.9</ele>
        <time>2017-05-25T09:10:07Z</time>
      </trkpt>
      <trkpt lat="49.28342" lon="-0.18905">
        <ele>6.5</ele>
        <time>2017-05-25T09:10:14Z</time>
      </trkpt>
      <trkpt lat="49.28341" lon="-0.18917">
        <ele>4.4</ele>
        <time>2017-05-25T09:10:21Z</time>
      </trkpt>
      <trkpt lat="49.28337" lon="-0.18928">
        <ele>3.2</ele>
        <time>2017-05-25T09:10:27Z</time>
      </trkpt>
      <trkpt lat="49.28335" lon="-0.18938">
        <ele>2.8</ele>
        <time>2017-05-25T09:10:33Z</time>
      </trkpt>
      <trkpt lat="49.28333" lon="-0.18949">
        <ele>2.5</ele>
        <time>2017-05-25T09:10:40Z</time>
      </trkpt>
      <trkpt lat="49.28329" lon="-0.1896">
        <ele>-0.1</ele>
        <time>2017-05-25T09:10:46Z</time>
      </trkpt>
      <trkpt lat="49.28326" lon="-0.18971">
        <ele>4</ele>
        <time>2017-05-25T09:10:53Z</time>
      </trkpt>
      <trkpt lat="49.28325" lon="-0.18984">
        <ele>-0.6</ele>
        <time>2017-05-25T09:11:00Z</time>
      </trkpt>
      <trkpt lat="49.28322" lon="-0.18994">
        <ele>-1.5</ele>
        <time>2017-05-25T09:11:07Z</time>
      </trkpt>
      <trkpt lat="49.2832" lon="-0.19007">
        <ele>-3.6</ele>
        <time>2017-05-25T09:11:14Z</time>
      </trkpt>
      <trkpt lat="49.28317" lon="-0.19018">
        <ele>-2.3</ele>
        <time>2017-05-25T09:11:21Z</time>
      </trkpt>
      <trkpt lat="49.28314" lon="-0.19029">
        <ele>-1.9</ele>
        <time>2017-05-25T09:11:28Z</time>
      </trkpt>
      <trkpt lat="49.28314" lon="-0.19038">
        <ele>-1.7</ele>
        <time>2017-05-25T09:11:35Z</time>
      </trkpt>
      <trkpt lat="49.28312" lon="-0.19047">
        <ele>-3.2</ele>
        <time>2017-05-25T09:11:42Z</time>
      </trkpt>
      <trkpt lat="49.2831" lon="-0.19058">
        <ele>-2.3</ele>
        <time>2017-05-25T09:11:49Z</time>
      </trkpt>
      <trkpt lat="49.28308" lon="-0.19068">
        <ele>-0.6</ele>
        <time>2017-05-25T09:11:56Z</time>
      </trkpt>
      <trkpt lat="49.28307" lon="-0.19078">
        <ele>0.8</ele>
        <time>2017-05-25T09:12:03Z</time>
      </trkpt>
      <trkpt lat="49.28304" lon="-0.19089">
        <ele>1.3</ele>
        <time>2017-05-25T09:12:10Z</time>
      </trkpt>
      <trkpt lat="49.28301" lon="-0.191">
        <ele>1.7</ele>
        <time>2017-05-25T09:12:17Z</time>
      </trkpt>
      <trkpt lat="49.28298" lon="-0.1911">
        <ele>2.6</ele>
        <time>2017-05-25T09:12:24Z</time>
      </trkpt>
      <trkpt lat="49.28295" lon="-0.1912">
        <ele>3.8</ele>
        <time>2017-05-25T09:12:31Z</time>
      </trkpt>
      <trkpt lat="49.28293" lon="-0.19127">
        <ele>5.5</ele>
        <time>2017-05-25T09:12:38Z</time>
      </trkpt>
      <trkpt lat="49.28288" lon="-0.19136">
        <ele>5.8</ele>
        <time>2017-05-25T09:12:45Z</time>
      </trkpt>
      <trkpt lat="49.28283" lon="-0.19145">
        <ele>3.4</ele>
        <time>2017-05-25T09:12:52Z</time>
      </trkpt>
      <trkpt lat="49.28279" lon="-0.19154">
        <ele>4</ele>
        <time>2017-05-25T09:12:58Z</time>
      </trkpt>
      <trkpt lat="49.28276" lon="-0.19165">
        <ele>-3.4</ele>
        <time>2017-05-25T09:13:05Z</time>
      </trkpt>
      <trkpt lat="49.28274" lon="-0.19177">
        <ele>-5.7</ele>
        <time>2017-05-25T09:13:12Z</time>
      </trkpt>
      <trkpt lat="49.28271" lon="-0.19187">
        <ele>-6.5</ele>
        <time>2017-05-25T09:13:19Z</time>
      </trkpt>
      <trkpt lat="49.28268" lon="-0.19196">
        <ele>-6</ele>
        <time>2017-05-25T09:13:26Z</time>
      </trkpt>
      <trkpt lat="49.28265" lon="-0.19208">
        <ele>-3.8</ele>
        <time>2017-05-25T09:13:33Z</time>
      </trkpt>
      <trkpt lat="49.28264" lon="-0.19219">
        <ele>-3.2</ele>
        <time>2017-05-25T09:13:40Z</time>
      </trkpt>
      <trkpt lat="49.28261" lon="-0.1923">
        <ele>-1.5</ele>
        <time>2017-05-25T09:13:47Z</time>
      </trkpt>
      <trkpt lat="49.28257" lon="-0.1924">
        <ele>-1.5</ele>
        <time>2017-05-25T09:13:54Z</time>
      </trkpt>
      <trkpt lat="49.28253" lon="-0.19249">
        <ele>-1.7</ele>
        <time>2017-05-25T09:14:01Z</time>
      </trkpt>
      <trkpt lat="49.2825" lon="-0.1926">
        <ele>-1.7</ele>
        <time>2017-05-25T09:14:08Z</time>
      </trkpt>
      <trkpt lat="49.28247" lon="-0.19267">
        <ele>-1</ele>
        <time>2017-05-25T09:14:15Z</time>
      </trkpt>
      <trkpt lat="49.28246" lon="-0.19274">
        <ele>-0.2</ele>
        <time>2017-05-25T09:14:22Z</time>
      </trkpt>
      <trkpt lat="49.28244" lon="-0.19279">
        <ele>-0.5</ele>
        <time>2017-05-25T09:14:29Z</time>
      </trkpt>
      <trkpt lat="49.28242" lon="-0.19285">
        <ele>-0.8</ele>
        <time>2017-05-25T09:14:36Z</time>
      </trkpt>
      <trkpt lat="49.28245" lon="-0.19289">
        <ele>-1.1</ele>
        <time>2017-05-25T09:14:43Z</time>
      </trkpt>
      <trkpt lat="49.2825" lon="-0.19286">
        <ele>-0.6</ele>
        <time>2017-05-25T09:14:50Z</time>
      </trkpt>
      <trkpt lat="49.28253" lon="-0.19288">
        <ele>1.1</ele>
        <time>2017-05-25T09:14:57Z</time>
      </trkpt>
      <trkpt lat="49.28257" lon="-0.19289">
        <ele>2</ele>
        <time>2017-05-25T09:15:04Z</time>
      </trkpt>
      <trkpt lat="49.28262" lon="-0.19292">
        <ele>3.9</ele>
        <time>2017-05-25T09:15:11Z</time>
      </trkpt>
      <trkpt lat="49.28269" lon="-0.19292">
        <ele>5.4</ele>
        <time>2017-05-25T09:15:18Z</time>
      </trkpt>
      <trkpt lat="49.28269" lon="-0.19292">
        <ele>6</ele>
        <time>2017-05-25T09:15:25Z</time>
      </trkpt>
      <trkpt lat="49.28262" lon="-0.19288">
        <ele>10</ele>
        <time>2017-05-25T09:16:52Z</time>
      </trkpt>
      <trkpt lat="49.28255" lon="-0.19286">
        <ele>8.5</ele>
        <time>2017-05-25T09:16:59Z</time>
      </trkpt>
      <trkpt lat="49.28247" lon="-0.19289">
        <ele>5.9</ele>
        <time>2017-05-25T09:17:05Z</time>
      </trkpt>
      <trkpt lat="49.2824" lon="-0.19291">
        <ele>5.8</ele>
        <time>2017-05-25T09:17:10Z</time>
      </trkpt>
      <trkpt lat="49.28234" lon="-0.193">
        <ele>5.3</ele>
        <time>2017-05-25T09:17:15Z</time>
      </trkpt>
      <trkpt lat="49.2823" lon="-0.19309">
        <ele>2.9</ele>
        <time>2017-05-25T09:17:20Z</time>
      </trkpt>
      <trkpt lat="49.28227" lon="-0.1932">
        <ele>1.9</ele>
        <time>2017-05-25T09:17:27Z</time>
      </trkpt>
      <trkpt lat="49.28224" lon="-0.19332">
        <ele>0.2</ele>
        <time>2017-05-25T09:17:34Z</time>
      </trkpt>
      <trkpt lat="49.28223" lon="-0.19344">
        <ele>2.2</ele>
        <time>2017-05-25T09:17:40Z</time>
      </trkpt>
      <trkpt lat="49.28219" lon="-0.19353">
        <ele>4.9</ele>
        <time>2017-05-25T09:17:46Z</time>
      </trkpt>
      <trkpt lat="49.28215" lon="-0.19363">
        <ele>9.8</ele>
        <time>2017-05-25T09:17:52Z</time>
      </trkpt>
      <trkpt lat="49.28213" lon="-0.19372">
        <ele>13.2</ele>
        <time>2017-05-25T09:17:59Z</time>
      </trkpt>
      <trkpt lat="49.28208" lon="-0.19383">
        <ele>13</ele>
        <time>2017-05-25T09:18:06Z</time>
      </trkpt>
      <trkpt lat="49.28205" lon="-0.19393">
        <ele>12.3</ele>
        <time>2017-05-25T09:18:11Z</time>
      </trkpt>
      <trkpt lat="49.28204" lon="-0.19404">
        <ele>12.5</ele>
        <time>2017-05-25T09:18:15Z</time>
      </trkpt>
      <trkpt lat="49.282" lon="-0.19416">
        <ele>10.7</ele>
        <time>2017-05-25T09:18:20Z</time>
      </trkpt>
      <trkpt lat="49.28193" lon="-0.19423">
        <ele>6.9</ele>
        <time>2017-05-25T09:18:25Z</time>
      </trkpt>
      <trkpt lat="49.28186" lon="-0.19425">
        <ele>6.9</ele>
        <time>2017-05-25T09:18:30Z</time>
      </trkpt>
      <trkpt lat="49.28179" lon="-0.19422">
        <ele>6.6</ele>
        <time>2017-05-25T09:18:36Z</time>
      </trkpt>
      <trkpt lat="49.28172" lon="-0.19419">
        <ele>6.7</ele>
        <time>2017-05-25T09:18:41Z</time>
      </trkpt>
      <trkpt lat="49.28163" lon="-0.19415">
        <ele>7.1</ele>
        <time>2017-05-25T09:18:46Z</time>
      </trkpt>
      <trkpt lat="49.28157" lon="-0.19408">
        <ele>8.5</ele>
        <time>2017-05-25T09:18:52Z</time>
      </trkpt>
      <trkpt lat="49.28149" lon="-0.19401">
        <ele>10.7</ele>
        <time>2017-05-25T09:18:58Z</time>
      </trkpt>
      <trkpt lat="49.28142" lon="-0.19397">
        <ele>9</ele>
        <time>2017-05-25T09:19:03Z</time>
      </trkpt>
      <trkpt lat="49.28135" lon="-0.19392">
        <ele>7</ele>
        <time>2017-05-25T09:19:08Z</time>
      </trkpt>
      <trkpt lat="49.28128" lon="-0.19394">
        <ele>6</ele>
        <time>2017-05-25T09:19:13Z</time>
      </trkpt>
      <trkpt lat="49.28122" lon="-0.19403">
        <ele>7.1</ele>
        <time>2017-05-25T09:19:19Z</time>
      </trkpt>
      <trkpt lat="49.28119" lon="-0.19413">
        <ele>6.6</ele>
        <time>2017-05-25T09:19:25Z</time>
      </trkpt>
      <trkpt lat="49.28115" lon="-0.19423">
        <ele>7.1</ele>
        <time>2017-05-25T09:19:31Z</time>
      </trkpt>
      <trkpt lat="49.28111" lon="-0.19433">
        <ele>8.5</ele>
        <time>2017-05-25T09:19:36Z</time>
      </trkpt>
      <trkpt lat="49.28108" lon="-0.19444">
        <ele>8.9</ele>
        <time>2017-05-25T09:19:42Z</time>
      </trkpt>
      <trkpt lat="49.28104" lon="-0.19456">
        <ele>7.9</ele>
        <time>2017-05-25T09:19:48Z</time>
      </trkpt>
      <trkpt lat="49.28101" lon="-0.19468">
        <ele>6.1</ele>
        <time>2017-05-25T09:19:54Z</time>
      </trkpt>
      <trkpt lat="49.28096" lon="-0.19478">
        <ele>4.6</ele>
        <time>2017-05-25T09:20:00Z</time>
      </trkpt>
      <trkpt lat="49.28093" lon="-0.19489">
        <ele>5.7</ele>
        <time>2017-05-25T09:20:06Z</time>
      </trkpt>
      <trkpt lat="49.28089" lon="-0.19499">
        <ele>7.3</ele>
        <time>2017-05-25T09:20:11Z</time>
      </trkpt>
      <trkpt lat="49.28085" lon="-0.1951">
        <ele>6.5</ele>
        <time>2017-05-25T09:20:18Z</time>
      </trkpt>
      <trkpt lat="49.28082" lon="-0.19521">
        <ele>5.1</ele>
        <time>2017-05-25T09:20:24Z</time>
      </trkpt>
      <trkpt lat="49.28078" lon="-0.19531">
        <ele>4.7</ele>
        <time>2017-05-25T09:20:29Z</time>
      </trkpt>
      <trkpt lat="49.28075" lon="-0.19541">
        <ele>3.2</ele>
        <time>2017-05-25T09:20:35Z</time>
      </trkpt>
      <trkpt lat="49.28071" lon="-0.19552">
        <ele>1</ele>
        <time>2017-05-25T09:20:41Z</time>
      </trkpt>
      <trkpt lat="49.28067" lon="-0.19563">
        <ele>1.5</ele>
        <time>2017-05-25T09:20:47Z</time>
      </trkpt>
      <trkpt lat="49.28064" lon="-0.19574">
        <ele>3.4</ele>
        <time>2017-05-25T09:20:53Z</time>
      </trkpt>
      <trkpt lat="49.2806" lon="-0.19584">
        <ele>3.8</ele>
        <time>2017-05-25T09:20:59Z</time>
      </trkpt>
      <trkpt lat="49.28056" lon="-0.19596">
        <ele>5</ele>
        <time>2017-05-25T09:21:05Z</time>
      </trkpt>
      <trkpt lat="49.28053" lon="-0.19608">
        <ele>7.1</ele>
        <time>2017-05-25T09:21:11Z</time>
      </trkpt>
      <trkpt lat="49.28049" lon="-0.19619">
        <ele>4.3</ele>
        <time>2017-05-25T09:21:17Z</time>
      </trkpt>
      <trkpt lat="49.28045" lon="-0.19628">
        <ele>4.3</ele>
        <time>2017-05-25T09:21:23Z</time>
      </trkpt>
      <trkpt lat="49.28041" lon="-0.19638">
        <ele>3.1</ele>
        <time>2017-05-25T09:21:29Z</time>
      </trkpt>
      <trkpt lat="49.28033" lon="-0.19638">
        <ele>2.6</ele>
        <time>2017-05-25T09:21:35Z</time>
      </trkpt>
      <trkpt lat="49.28026" lon="-0.19633">
        <ele>4.7</ele>
        <time>2017-05-25T09:21:41Z</time>
      </trkpt>
      <trkpt lat="49.28019" lon="-0.19628">
        <ele>2.5</ele>
        <time>2017-05-25T09:21:46Z</time>
      </trkpt>
      <trkpt lat="49.28013" lon="-0.19623">
        <ele>1.5</ele>
        <time>2017-05-25T09:21:52Z</time>
      </trkpt>
      <trkpt lat="49.28006" lon="-0.19619">
        <ele>4.8</ele>
        <time>2017-05-25T09:21:58Z</time>
      </trkpt>
      <trkpt lat="49.27997" lon="-0.19615">
        <ele>5.7</ele>
        <time>2017-05-25T09:22:04Z</time>
      </trkpt>
      <trkpt lat="49.2799" lon="-0.19619">
        <ele>5.5</ele>
        <time>2017-05-25T09:22:09Z</time>
      </trkpt>
      <trkpt lat="49.27986" lon="-0.19628">
        <ele>4.2</ele>
        <time>2017-05-25T09:22:15Z</time>
      </trkpt>
      <trkpt lat="49.27984" lon="-0.19639">
        <ele>4.4</ele>
        <time>2017-05-25T09:22:21Z</time>
      </trkpt>
      <trkpt lat="49.2798" lon="-0.19651">
        <ele>6.2</ele>
        <time>2017-05-25T09:22:27Z</time>
      </trkpt>
      <trkpt lat="49.27977" lon="-0.19663">
        <ele>4.4</ele>
        <time>2017-05-25T09:22:34Z</time>
      </trkpt>
      <trkpt lat="49.27973" lon="-0.19672">
        <ele>5</ele>
        <time>2017-05-25T09:22:39Z</time>
      </trkpt>
      <trkpt lat="49.27972" lon="-0.19684">
        <ele>5.9</ele>
        <time>2017-05-25T09:22:45Z</time>
      </trkpt>
      <trkpt lat="49.27969" lon="-0.19696">
        <ele>3.1</ele>
        <time>2017-05-25T09:22:51Z</time>
      </trkpt>
      <trkpt lat="49.27965" lon="-0.19708">
        <ele>3.6</ele>
        <time>2017-05-25T09:22:57Z</time>
      </trkpt>
      <trkpt lat="49.27963" lon="-0.19719">
        <ele>2.6</ele>
        <time>2017-05-25T09:23:03Z</time>
      </trkpt>
      <trkpt lat="49.27959" lon="-0.1973">
        <ele>1.4</ele>
        <time>2017-05-25T09:23:09Z</time>
      </trkpt>
      <trkpt lat="49.27957" lon="-0.19742">
        <ele>2</ele>
        <time>2017-05-25T09:23:15Z</time>
      </trkpt>
      <trkpt lat="49.27954" lon="-0.19752">
        <ele>0.8</ele>
        <time>2017-05-25T09:23:21Z</time>
      </trkpt>
      <trkpt lat="49.27951" lon="-0.19763">
        <ele>3.1</ele>
        <time>2017-05-25T09:23:27Z</time>
      </trkpt>
      <trkpt lat="49.27947" lon="-0.19773">
        <ele>2.1</ele>
        <time>2017-05-25T09:23:33Z</time>
      </trkpt>
      <trkpt lat="49.27944" lon="-0.19785">
        <ele>1.7</ele>
        <time>2017-05-25T09:23:39Z</time>
      </trkpt>
      <trkpt lat="49.2794" lon="-0.19794">
        <ele>1.7</ele>
        <time>2017-05-25T09:23:45Z</time>
      </trkpt>
      <trkpt lat="49.27937" lon="-0.19807">
        <ele>4</ele>
        <time>2017-05-25T09:23:51Z</time>
      </trkpt>
      <trkpt lat="49.27934" lon="-0.19817">
        <ele>5.2</ele>
        <time>2017-05-25T09:23:57Z</time>
      </trkpt>
      <trkpt lat="49.27928" lon="-0.19827">
        <ele>4.9</ele>
        <time>2017-05-25T09:24:03Z</time>
      </trkpt>
      <trkpt lat="49.27921" lon="-0.19827">
        <ele>5</ele>
        <time>2017-05-25T09:24:09Z</time>
      </trkpt>
      <trkpt lat="49.27913" lon="-0.19825">
        <ele>5.2</ele>
        <time>2017-05-25T09:24:14Z</time>
      </trkpt>
      <trkpt lat="49.27906" lon="-0.19822">
        <ele>5.6</ele>
        <time>2017-05-25T09:24:19Z</time>
      </trkpt>
      <trkpt lat="49.27899" lon="-0.19818">
        <ele>7</ele>
        <time>2017-05-25T09:24:25Z</time>
      </trkpt>
      <trkpt lat="49.27892" lon="-0.19814">
        <ele>6.9</ele>
        <time>2017-05-25T09:24:31Z</time>
      </trkpt>
      <trkpt lat="49.27885" lon="-0.19808">
        <ele>7.2</ele>
        <time>2017-05-25T09:24:37Z</time>
      </trkpt>
      <trkpt lat="49.27878" lon="-0.19803">
        <ele>7.3</ele>
        <time>2017-05-25T09:24:42Z</time>
      </trkpt>
      <trkpt lat="49.27871" lon="-0.198">
        <ele>6.5</ele>
        <time>2017-05-25T09:24:48Z</time>
      </trkpt>
      <trkpt lat="49.27863" lon="-0.19795">
        <ele>7.1</ele>
        <time>2017-05-25T09:24:54Z</time>
      </trkpt>
      <trkpt lat="49.27855" lon="-0.19792">
        <ele>6.4</ele>
        <time>2017-05-25T09:25:00Z</time>
      </trkpt>
      <trkpt lat="49.27848" lon="-0.19789">
        <ele>7.2</ele>
        <time>2017-05-25T09:25:06Z</time>
      </trkpt>
      <trkpt lat="49.2784" lon="-0.19784">
        <ele>6.2</ele>
        <time>2017-05-25T09:25:12Z</time>
      </trkpt>
      <trkpt lat="49.27833" lon="-0.19779">
        <ele>6.9</ele>
        <time>2017-05-25T09:25:18Z</time>
      </trkpt>
      <trkpt lat="49.27826" lon="-0.19775">
        <ele>6.1</ele>
        <time>2017-05-25T09:25:24Z</time>
      </trkpt>
      <trkpt lat="49.27818" lon="-0.19772">
        <ele>6.2</ele>
        <time>2017-05-25T09:25:31Z</time>
      </trkpt>
      <trkpt lat="49.27809" lon="-0.19769">
        <ele>6.7</ele>
        <time>2017-05-25T09:25:37Z</time>
      </trkpt>
      <trkpt lat="49.27801" lon="-0.19766">
        <ele>9.8</ele>
        <time>2017-05-25T09:25:44Z</time>
      </trkpt>
      <trkpt lat="49.27794" lon="-0.19761">
        <ele>8.5</ele>
        <time>2017-05-25T09:25:49Z</time>
      </trkpt>
      <trkpt lat="49.27787" lon="-0.19755">
        <ele>9.5</ele>
        <time>2017-05-25T09:25:56Z</time>
      </trkpt>
      <trkpt lat="49.2778" lon="-0.19752">
        <ele>11.7</ele>
        <time>2017-05-25T09:26:02Z</time>
      </trkpt>
      <trkpt lat="49.27772" lon="-0.19749">
        <ele>12.3</ele>
        <time>2017-05-25T09:26:09Z</time>
      </trkpt>
      <trkpt lat="49.27768" lon="-0.19748">
        <ele>11.5</ele>
        <time>2017-05-25T09:26:16Z</time>
      </trkpt>
      <trkpt lat="49.2776" lon="-0.19747">
        <ele>9.5</ele>
        <time>2017-05-25T09:26:22Z</time>
      </trkpt>
      <trkpt lat="49.27754" lon="-0.19753">
        <ele>7.9</ele>
        <time>2017-05-25T09:26:29Z</time>
      </trkpt>
      <trkpt lat="49.27747" lon="-0.19758">
        <ele>8.8</ele>
        <time>2017-05-25T09:26:36Z</time>
      </trkpt>
      <trkpt lat="49.27742" lon="-0.19762">
        <ele>7.1</ele>
        <time>2017-05-25T09:26:43Z</time>
      </trkpt>
      <trkpt lat="49.27735" lon="-0.19769">
        <ele>5</ele>
        <time>2017-05-25T09:26:50Z</time>
      </trkpt>
      <trkpt lat="49.27729" lon="-0.19776">
        <ele>5.2</ele>
        <time>2017-05-25T09:26:56Z</time>
      </trkpt>
      <trkpt lat="49.27723" lon="-0.19784">
        <ele>4.3</ele>
        <time>2017-05-25T09:27:03Z</time>
      </trkpt>
      <trkpt lat="49.27716" lon="-0.19789">
        <ele>4.9</ele>
        <time>2017-05-25T09:27:09Z</time>
      </trkpt>
      <trkpt lat="49.27709" lon="-0.19797">
        <ele>5.1</ele>
        <time>2017-05-25T09:27:15Z</time>
      </trkpt>
      <trkpt lat="49.27704" lon="-0.19804">
        <ele>5</ele>
        <time>2017-05-25T09:27:21Z</time>
      </trkpt>
      <trkpt lat="49.277" lon="-0.19816">
        <ele>3.8</ele>
        <time>2017-05-25T09:27:27Z</time>
      </trkpt>
      <trkpt lat="49.27697" lon="-0.19827">
        <ele>2</ele>
        <time>2017-05-25T09:27:33Z</time>
      </trkpt>
      <trkpt lat="49.27694" lon="-0.19837">
        <ele>4.7</ele>
        <time>2017-05-25T09:27:39Z</time>
      </trkpt>
      <trkpt lat="49.2769" lon="-0.19848">
        <ele>2.5</ele>
        <time>2017-05-25T09:27:46Z</time>
      </trkpt>
      <trkpt lat="49.27688" lon="-0.19859">
        <ele>4.1</ele>
        <time>2017-05-25T09:27:51Z</time>
      </trkpt>
      <trkpt lat="49.27686" lon="-0.19872">
        <ele>4.9</ele>
        <time>2017-05-25T09:27:57Z</time>
      </trkpt>
      <trkpt lat="49.27684" lon="-0.19883">
        <ele>3.6</ele>
        <time>2017-05-25T09:28:03Z</time>
      </trkpt>
      <trkpt lat="49.27684" lon="-0.19894">
        <ele>5.6</ele>
        <time>2017-05-25T09:28:08Z</time>
      </trkpt>
      <trkpt lat="49.27683" lon="-0.19905">
        <ele>5.9</ele>
        <time>2017-05-25T09:28:14Z</time>
      </trkpt>
      <trkpt lat="49.2768" lon="-0.19916">
        <ele>7.9</ele>
        <time>2017-05-25T09:28:20Z</time>
      </trkpt>
      <trkpt lat="49.27677" lon="-0.19927">
        <ele>7.5</ele>
        <time>2017-05-25T09:28:26Z</time>
      </trkpt>
      <trkpt lat="49.27675" lon="-0.19938">
        <ele>7.7</ele>
        <time>2017-05-25T09:28:32Z</time>
      </trkpt>
      <trkpt lat="49.27674" lon="-0.19945">
        <ele>6.9</ele>
        <time>2017-05-25T09:28:39Z</time>
      </trkpt>
      <trkpt lat="49.27675" lon="-0.19957">
        <ele>7</ele>
        <time>2017-05-25T09:28:46Z</time>
      </trkpt>
      <trkpt lat="49.27676" lon="-0.19969">
        <ele>7.2</ele>
        <time>2017-05-25T09:28:53Z</time>
      </trkpt>
      <trkpt lat="49.27682" lon="-0.1998">
        <ele>5.3</ele>
        <time>2017-05-25T09:29:00Z</time>
      </trkpt>
      <trkpt lat="49.27685" lon="-0.19988">
        <ele>4.3</ele>
        <time>2017-05-25T09:29:06Z</time>
      </trkpt>
      <trkpt lat="49.2769" lon="-0.19998">
        <ele>5.4</ele>
        <time>2017-05-25T09:29:12Z</time>
      </trkpt>
      <trkpt lat="49.27694" lon="-0.20009">
        <ele>4.6</ele>
        <time>2017-05-25T09:29:19Z</time>
      </trkpt>
      <trkpt lat="49.277" lon="-0.20017">
        <ele>2.9</ele>
        <time>2017-05-25T09:29:25Z</time>
      </trkpt>
      <trkpt lat="49.27705" lon="-0.20028">
        <ele>2.4</ele>
        <time>2017-05-25T09:29:31Z</time>
      </trkpt>
      <trkpt lat="49.27709" lon="-0.20037">
        <ele>3.1</ele>
        <time>2017-05-25T09:29:37Z</time>
      </trkpt>
      <trkpt lat="49.27714" lon="-0.20047">
        <ele>2.4</ele>
        <time>2017-05-25T09:29:43Z</time>
      </trkpt>
      <trkpt lat="49.27719" lon="-0.20056">
        <ele>2.1</ele>
        <time>2017-05-25T09:29:49Z</time>
      </trkpt>
      <trkpt lat="49.27723" lon="-0.20066">
        <ele>2.6</ele>
        <time>2017-05-25T09:29:55Z</time>
      </trkpt>
      <trkpt lat="49.27729" lon="-0.20077">
        <ele>2.3</ele>
        <time>2017-05-25T09:30:01Z</time>
      </trkpt>
      <trkpt lat="49.27734" lon="-0.20086">
        <ele>2.8</ele>
        <time>2017-05-25T09:30:07Z</time>
      </trkpt>
      <trkpt lat="49.27739" lon="-0.20094">
        <ele>2.3</ele>
        <time>2017-05-25T09:30:13Z</time>
      </trkpt>
      <trkpt lat="49.27743" lon="-0.20103">
        <ele>0.7</ele>
        <time>2017-05-25T09:30:20Z</time>
      </trkpt>
      <trkpt lat="49.27748" lon="-0.20113">
        <ele>1.9</ele>
        <time>2017-05-25T09:30:26Z</time>
      </trkpt>
      <trkpt lat="49.27752" lon="-0.20122">
        <ele>-1.8</ele>
        <time>2017-05-25T09:30:33Z</time>
      </trkpt>
      <trkpt lat="49.27757" lon="-0.20132">
        <ele>-1.4</ele>
        <time>2017-05-25T09:30:39Z</time>
      </trkpt>
      <trkpt lat="49.27757" lon="-0.20142">
        <ele>-4</ele>
        <time>2017-05-25T09:30:45Z</time>
      </trkpt>
      <trkpt lat="49.27758" lon="-0.20155">
        <ele>-0.6</ele>
        <time>2017-05-25T09:30:50Z</time>
      </trkpt>
      <trkpt lat="49.27753" lon="-0.20163">
        <ele>-0.5</ele>
        <time>2017-05-25T09:30:57Z</time>
      </trkpt>
      <trkpt lat="49.27747" lon="-0.20172">
        <ele>3.9</ele>
        <time>2017-05-25T09:31:04Z</time>
      </trkpt>
      <trkpt lat="49.27742" lon="-0.2018">
        <ele>5.1</ele>
        <time>2017-05-25T09:31:11Z</time>
      </trkpt>
      <trkpt lat="49.27736" lon="-0.2019">
        <ele>3.6</ele>
        <time>2017-05-25T09:31:18Z</time>
      </trkpt>
      <trkpt lat="49.2773" lon="-0.20199">
        <ele>3.8</ele>
        <time>2017-05-25T09:31:24Z</time>
      </trkpt>
      <trkpt lat="49.27726" lon="-0.20207">
        <ele>4.6</ele>
        <time>2017-05-25T09:31:30Z</time>
      </trkpt>
      <trkpt lat="49.27723" lon="-0.20219">
        <ele>5.8</ele>
        <time>2017-05-25T09:31:36Z</time>
      </trkpt>
      <trkpt lat="49.27719" lon="-0.20227">
        <ele>5.6</ele>
        <time>2017-05-25T09:31:42Z</time>
      </trkpt>
      <trkpt lat="49.27713" lon="-0.20235">
        <ele>4.8</ele>
        <time>2017-05-25T09:31:49Z</time>
      </trkpt>
      <trkpt lat="49.2771" lon="-0.20237">
        <ele>5</ele>
        <time>2017-05-25T09:31:56Z</time>
      </trkpt>
      <trkpt lat="49.27702" lon="-0.20234">
        <ele>5.5</ele>
        <time>2017-05-25T09:32:51Z</time>
      </trkpt>
      <trkpt lat="49.27696" lon="-0.2023">
        <ele>4.5</ele>
        <time>2017-05-25T09:32:57Z</time>
      </trkpt>
      <trkpt lat="49.27689" lon="-0.20224">
        <ele>4.8</ele>
        <time>2017-05-25T09:33:03Z</time>
      </trkpt>
      <trkpt lat="49.27683" lon="-0.20216">
        <ele>3.5</ele>
        <time>2017-05-25T09:33:09Z</time>
      </trkpt>
      <trkpt lat="49.27676" lon="-0.20211">
        <ele>4.4</ele>
        <time>2017-05-25T09:33:15Z</time>
      </trkpt>
      <trkpt lat="49.27668" lon="-0.20206">
        <ele>3.2</ele>
        <time>2017-05-25T09:33:21Z</time>
      </trkpt>
      <trkpt lat="49.27661" lon="-0.202">
        <ele>2.4</ele>
        <time>2017-05-25T09:33:27Z</time>
      </trkpt>
      <trkpt lat="49.27653" lon="-0.20194">
        <ele>1.8</ele>
        <time>2017-05-25T09:33:33Z</time>
      </trkpt>
      <trkpt lat="49.27646" lon="-0.20191">
        <ele>2.9</ele>
        <time>2017-05-25T09:33:38Z</time>
      </trkpt>
      <trkpt lat="49.27639" lon="-0.20185">
        <ele>3</ele>
        <time>2017-05-25T09:33:43Z</time>
      </trkpt>
      <trkpt lat="49.27632" lon="-0.2018">
        <ele>0.9</ele>
        <time>2017-05-25T09:33:49Z</time>
      </trkpt>
      <trkpt lat="49.27624" lon="-0.20176">
        <ele>1.3</ele>
        <time>2017-05-25T09:33:55Z</time>
      </trkpt>
      <trkpt lat="49.27617" lon="-0.20169">
        <ele>1.8</ele>
        <time>2017-05-25T09:34:02Z</time>
      </trkpt>
      <trkpt lat="49.27609" lon="-0.20163">
        <ele>0.7</ele>
        <time>2017-05-25T09:34:08Z</time>
      </trkpt>
      <trkpt lat="49.27602" lon="-0.20158">
        <ele>0.8</ele>
        <time>2017-05-25T09:34:15Z</time>
      </trkpt>
      <trkpt lat="49.27595" lon="-0.20152">
        <ele>2.3</ele>
        <time>2017-05-25T09:34:21Z</time>
      </trkpt>
      <trkpt lat="49.27588" lon="-0.20148">
        <ele>1.6</ele>
        <time>2017-05-25T09:34:27Z</time>
      </trkpt>
      <trkpt lat="49.27581" lon="-0.20143">
        <ele>1.8</ele>
        <time>2017-05-25T09:34:33Z</time>
      </trkpt>
      <trkpt lat="49.27575" lon="-0.20139">
        <ele>2.5</ele>
        <time>2017-05-25T09:34:38Z</time>
      </trkpt>
      <trkpt lat="49.27568" lon="-0.20133">
        <ele>2.8</ele>
        <time>2017-05-25T09:34:44Z</time>
      </trkpt>
      <trkpt lat="49.27561" lon="-0.20128">
        <ele>3.5</ele>
        <time>2017-05-25T09:34:50Z</time>
      </trkpt>
      <trkpt lat="49.27553" lon="-0.20122">
        <ele>4.6</ele>
        <time>2017-05-25T09:34:56Z</time>
      </trkpt>
      <trkpt lat="49.27546" lon="-0.20116">
        <ele>5</ele>
        <time>2017-05-25T09:35:02Z</time>
      </trkpt>
      <trkpt lat="49.27538" lon="-0.20111">
        <ele>6.3</ele>
        <time>2017-05-25T09:35:09Z</time>
      </trkpt>
      <trkpt lat="49.27532" lon="-0.20105">
        <ele>7.6</ele>
        <time>2017-05-25T09:35:15Z</time>
      </trkpt>
      <trkpt lat="49.27524" lon="-0.201">
        <ele>4.5</ele>
        <time>2017-05-25T09:35:22Z</time>
      </trkpt>
      <trkpt lat="49.27517" lon="-0.20096">
        <ele>3.3</ele>
        <time>2017-05-25T09:35:29Z</time>
      </trkpt>
      <trkpt lat="49.27509" lon="-0.20091">
        <ele>2.6</ele>
        <time>2017-05-25T09:35:36Z</time>
      </trkpt>
      <trkpt lat="49.27502" lon="-0.20086">
        <ele>2.9</ele>
        <time>2017-05-25T09:35:41Z</time>
      </trkpt>
      <trkpt lat="49.27494" lon="-0.2008">
        <ele>2.4</ele>
        <time>2017-05-25T09:35:47Z</time>
      </trkpt>
      <trkpt lat="49.27488" lon="-0.20075">
        <ele>3.2</ele>
        <time>2017-05-25T09:35:53Z</time>
      </trkpt>
      <trkpt lat="49.27481" lon="-0.20072">
        <ele>5.7</ele>
        <time>2017-05-25T09:35:59Z</time>
      </trkpt>
      <trkpt lat="49.27473" lon="-0.20066">
        <ele>5.8</ele>
        <time>2017-05-25T09:36:05Z</time>
      </trkpt>
      <trkpt lat="49.27466" lon="-0.20063">
        <ele>7.5</ele>
        <time>2017-05-25T09:36:11Z</time>
      </trkpt>
      <trkpt lat="49.27459" lon="-0.20058">
        <ele>8</ele>
        <time>2017-05-25T09:36:16Z</time>
      </trkpt>
      <trkpt lat="49.27453" lon="-0.20053">
        <ele>9.1</ele>
        <time>2017-05-25T09:36:21Z</time>
      </trkpt>
      <trkpt lat="49.27445" lon="-0.20049">
        <ele>9.1</ele>
        <time>2017-05-25T09:36:27Z</time>
      </trkpt>
      <trkpt lat="49.27438" lon="-0.20045">
        <ele>9.4</ele>
        <time>2017-05-25T09:36:32Z</time>
      </trkpt>
      <trkpt lat="49.27431" lon="-0.20039">
        <ele>10.1</ele>
        <time>2017-05-25T09:36:38Z</time>
      </trkpt>
      <trkpt lat="49.27425" lon="-0.20035">
        <ele>11.6</ele>
        <time>2017-05-25T09:36:43Z</time>
      </trkpt>
      <trkpt lat="49.27418" lon="-0.2003">
        <ele>11.6</ele>
        <time>2017-05-25T09:36:48Z</time>
      </trkpt>
      <trkpt lat="49.27411" lon="-0.20024">
        <ele>11.3</ele>
        <time>2017-05-25T09:36:55Z</time>
      </trkpt>
      <trkpt lat="49.27404" lon="-0.20019">
        <ele>11.7</ele>
        <time>2017-05-25T09:37:01Z</time>
      </trkpt>
      <trkpt lat="49.27397" lon="-0.20014">
        <ele>10.3</ele>
        <time>2017-05-25T09:37:07Z</time>
      </trkpt>
      <trkpt lat="49.2739" lon="-0.20009">
        <ele>8.5</ele>
        <time>2017-05-25T09:37:13Z</time>
      </trkpt>
      <trkpt lat="49.27384" lon="-0.20002">
        <ele>6.6</ele>
        <time>2017-05-25T09:37:19Z</time>
      </trkpt>
      <trkpt lat="49.27377" lon="-0.19997">
        <ele>5.4</ele>
        <time>2017-05-25T09:37:26Z</time>
      </trkpt>
      <trkpt lat="49.27369" lon="-0.19991">
        <ele>3.5</ele>
        <time>2017-05-25T09:37:33Z</time>
      </trkpt>
      <trkpt lat="49.27362" lon="-0.19986">
        <ele>3.5</ele>
        <time>2017-05-25T09:37:38Z</time>
      </trkpt>
      <trkpt lat="49.27356" lon="-0.19982">
        <ele>3.6</ele>
        <time>2017-05-25T09:37:44Z</time>
      </trkpt>
      <trkpt lat="49.27349" lon="-0.19976">
        <ele>3.5</ele>
        <time>2017-05-25T09:37:50Z</time>
      </trkpt>
      <trkpt lat="49.27344" lon="-0.19969">
        <ele>2.2</ele>
        <time>2017-05-25T09:37:56Z</time>
      </trkpt>
      <trkpt lat="49.27339" lon="-0.19959">
        <ele>5.2</ele>
        <time>2017-05-25T09:38:01Z</time>
      </trkpt>
      <trkpt lat="49.27337" lon="-0.19947">
        <ele>5.7</ele>
        <time>2017-05-25T09:38:07Z</time>
      </trkpt>
      <trkpt lat="49.27333" lon="-0.19936">
        <ele>7.2</ele>
        <time>2017-05-25T09:38:13Z</time>
      </trkpt>
      <trkpt lat="49.27332" lon="-0.19924">
        <ele>7.2</ele>
        <time>2017-05-25T09:38:18Z</time>
      </trkpt>
      <trkpt lat="49.2733" lon="-0.19913">
        <ele>8.2</ele>
        <time>2017-05-25T09:38:24Z</time>
      </trkpt>
      <trkpt lat="49.27329" lon="-0.19901">
        <ele>11.7</ele>
        <time>2017-05-25T09:38:31Z</time>
      </trkpt>
      <trkpt lat="49.2733" lon="-0.19897">
        <ele>14.4</ele>
        <time>2017-05-25T09:38:38Z</time>
      </trkpt>
      <trkpt lat="49.27326" lon="-0.19894">
        <ele>19.5</ele>
        <time>2017-05-25T09:39:25Z</time>
      </trkpt>
      <trkpt lat="49.27318" lon="-0.19898">
        <ele>18.8</ele>
        <time>2017-05-25T09:39:31Z</time>
      </trkpt>
      <trkpt lat="49.27311" lon="-0.19901">
        <ele>19.3</ele>
        <time>2017-05-25T09:39:37Z</time>
      </trkpt>
      <trkpt lat="49.27303" lon="-0.19903">
        <ele>18.8</ele>
        <time>2017-05-25T09:39:43Z</time>
      </trkpt>
      <trkpt lat="49.27295" lon="-0.19905">
        <ele>19.2</ele>
        <time>2017-05-25T09:39:49Z</time>
      </trkpt>
      <trkpt lat="49.27288" lon="-0.19908">
        <ele>17.7</ele>
        <time>2017-05-25T09:39:54Z</time>
      </trkpt>
      <trkpt lat="49.2728" lon="-0.19913">
        <ele>16.6</ele>
        <time>2017-05-25T09:40:00Z</time>
      </trkpt>
      <trkpt lat="49.27271" lon="-0.19915">
        <ele>16.9</ele>
        <time>2017-05-25T09:40:06Z</time>
      </trkpt>
      <trkpt lat="49.27264" lon="-0.19916">
        <ele>17</ele>
        <time>2017-05-25T09:40:11Z</time>
      </trkpt>
      <trkpt lat="49.27256" lon="-0.1992">
        <ele>15.6</ele>
        <time>2017-05-25T09:40:17Z</time>
      </trkpt>
      <trkpt lat="49.27248" lon="-0.19924">
        <ele>15.8</ele>
        <time>2017-05-25T09:40:23Z</time>
      </trkpt>
      <trkpt lat="49.2724" lon="-0.19929">
        <ele>17.2</ele>
        <time>2017-05-25T09:40:29Z</time>
      </trkpt>
      <trkpt lat="49.27232" lon="-0.19933">
        <ele>17.1</ele>
        <time>2017-05-25T09:40:35Z</time>
      </trkpt>
      <trkpt lat="49.27225" lon="-0.19936">
        <ele>16.6</ele>
        <time>2017-05-25T09:40:41Z</time>
      </trkpt>
      <trkpt lat="49.27218" lon="-0.1994">
        <ele>17.1</ele>
        <time>2017-05-25T09:40:46Z</time>
      </trkpt>
      <trkpt lat="49.27211" lon="-0.19943">
        <ele>18.3</ele>
        <time>2017-05-25T09:40:52Z</time>
      </trkpt>
      <trkpt lat="49.27203" lon="-0.19947">
        <ele>18.1</ele>
        <time>2017-05-25T09:40:58Z</time>
      </trkpt>
      <trkpt lat="49.27194" lon="-0.19949">
        <ele>17.6</ele>
        <time>2017-05-25T09:41:04Z</time>
      </trkpt>
      <trkpt lat="49.27187" lon="-0.19955">
        <ele>18.7</ele>
        <time>2017-05-25T09:41:10Z</time>
      </trkpt>
      <trkpt lat="49.2718" lon="-0.19961">
        <ele>19.2</ele>
        <time>2017-05-25T09:41:17Z</time>
      </trkpt>
      <trkpt lat="49.27174" lon="-0.19967">
        <ele>17.7</ele>
        <time>2017-05-25T09:41:23Z</time>
      </trkpt>
      <trkpt lat="49.27168" lon="-0.19975">
        <ele>19.9</ele>
        <time>2017-05-25T09:41:30Z</time>
      </trkpt>
      <trkpt lat="49.27161" lon="-0.19982">
        <ele>20.7</ele>
        <time>2017-05-25T09:41:36Z</time>
      </trkpt>
      <trkpt lat="49.27154" lon="-0.19975">
        <ele>19.7</ele>
        <time>2017-05-25T09:41:42Z</time>
      </trkpt>
      <trkpt lat="49.27149" lon="-0.19966">
        <ele>19</ele>
        <time>2017-05-25T09:41:48Z</time>
      </trkpt>
      <trkpt lat="49.27145" lon="-0.19956">
        <ele>18.8</ele>
        <time>2017-05-25T09:41:54Z</time>
      </trkpt>
      <trkpt lat="49.27141" lon="-0.19944">
        <ele>19.2</ele>
        <time>2017-05-25T09:42:00Z</time>
      </trkpt>
      <trkpt lat="49.27138" lon="-0.19933">
        <ele>19.7</ele>
        <time>2017-05-25T09:42:05Z</time>
      </trkpt>
      <trkpt lat="49.27136" lon="-0.19922">
        <ele>19.7</ele>
        <time>2017-05-25T09:42:10Z</time>
      </trkpt>
      <trkpt lat="49.27134" lon="-0.19911">
        <ele>19.4</ele>
        <time>2017-05-25T09:42:15Z</time>
      </trkpt>
      <trkpt lat="49.27132" lon="-0.19899">
        <ele>17.4</ele>
        <time>2017-05-25T09:42:21Z</time>
      </trkpt>
      <trkpt lat="49.27131" lon="-0.19887">
        <ele>18.6</ele>
        <time>2017-05-25T09:42:27Z</time>
      </trkpt>
      <trkpt lat="49.2713" lon="-0.19875">
        <ele>16.7</ele>
        <time>2017-05-25T09:42:33Z</time>
      </trkpt>
      <trkpt lat="49.27129" lon="-0.19863">
        <ele>14.9</ele>
        <time>2017-05-25T09:42:39Z</time>
      </trkpt>
      <trkpt lat="49.27127" lon="-0.19858">
        <ele>15.5</ele>
        <time>2017-05-25T09:42:46Z</time>
      </trkpt>
      <trkpt lat="49.27127" lon="-0.19845">
        <ele>16.8</ele>
        <time>2017-05-25T09:43:25Z</time>
      </trkpt>
      <trkpt lat="49.27125" lon="-0.19832">
        <ele>17.1</ele>
        <time>2017-05-25T09:43:31Z</time>
      </trkpt>
      <trkpt lat="49.27125" lon="-0.19821">
        <ele>16.4</ele>
        <time>2017-05-25T09:43:36Z</time>
      </trkpt>
      <trkpt lat="49.27125" lon="-0.19809">
        <ele>14.9</ele>
        <time>2017-05-25T09:43:41Z</time>
      </trkpt>
      <trkpt lat="49.27124" lon="-0.19799">
        <ele>14.3</ele>
        <time>2017-05-25T09:43:47Z</time>
      </trkpt>
      <trkpt lat="49.27123" lon="-0.19785">
        <ele>13.4</ele>
        <time>2017-05-25T09:43:53Z</time>
      </trkpt>
      <trkpt lat="49.27123" lon="-0.19772">
        <ele>12.4</ele>
        <time>2017-05-25T09:43:59Z</time>
      </trkpt>
      <trkpt lat="49.27123" lon="-0.19761">
        <ele>11.4</ele>
        <time>2017-05-25T09:44:04Z</time>
      </trkpt>
      <trkpt lat="49.27121" lon="-0.19748">
        <ele>11.7</ele>
        <time>2017-05-25T09:44:10Z</time>
      </trkpt>
      <trkpt lat="49.2712" lon="-0.19737">
        <ele>12.9</ele>
        <time>2017-05-25T09:44:16Z</time>
      </trkpt>
      <trkpt lat="49.27118" lon="-0.19725">
        <ele>14.7</ele>
        <time>2017-05-25T09:44:22Z</time>
      </trkpt>
      <trkpt lat="49.27118" lon="-0.19712">
        <ele>14.8</ele>
        <time>2017-05-25T09:44:28Z</time>
      </trkpt>
      <trkpt lat="49.27118" lon="-0.197">
        <ele>14.8</ele>
        <time>2017-05-25T09:44:34Z</time>
      </trkpt>
      <trkpt lat="49.27118" lon="-0.19689">
        <ele>16.7</ele>
        <time>2017-05-25T09:44:40Z</time>
      </trkpt>
      <trkpt lat="49.27119" lon="-0.19676">
        <ele>16.4</ele>
        <time>2017-05-25T09:44:46Z</time>
      </trkpt>
      <trkpt lat="49.2712" lon="-0.19664">
        <ele>14.1</ele>
        <time>2017-05-25T09:44:52Z</time>
      </trkpt>
      <trkpt lat="49.27121" lon="-0.19652">
        <ele>13.4</ele>
        <time>2017-05-25T09:44:58Z</time>
      </trkpt>
      <trkpt lat="49.27121" lon="-0.19641">
        <ele>13</ele>
        <time>2017-05-25T09:45:05Z</time>
      </trkpt>
      <trkpt lat="49.27129" lon="-0.19639">
        <ele>13.3</ele>
        <time>2017-05-25T09:45:27Z</time>
      </trkpt>
      <trkpt lat="49.27137" lon="-0.19641">
        <ele>14.5</ele>
        <time>2017-05-25T09:45:34Z</time>
      </trkpt>
      <trkpt lat="49.27144" lon="-0.19641">
        <ele>14.9</ele>
        <time>2017-05-25T09:45:40Z</time>
      </trkpt>
      <trkpt lat="49.27152" lon="-0.19642">
        <ele>15.5</ele>
        <time>2017-05-25T09:45:46Z</time>
      </trkpt>
      <trkpt lat="49.27159" lon="-0.19644">
        <ele>14.3</ele>
        <time>2017-05-25T09:45:52Z</time>
      </trkpt>
      <trkpt lat="49.27167" lon="-0.19647">
        <ele>11.7</ele>
        <time>2017-05-25T09:45:58Z</time>
      </trkpt>
      <trkpt lat="49.27175" lon="-0.19645">
        <ele>10.9</ele>
        <time>2017-05-25T09:46:04Z</time>
      </trkpt>
      <trkpt lat="49.27182" lon="-0.19647">
        <ele>10.3</ele>
        <time>2017-05-25T09:46:10Z</time>
      </trkpt>
      <trkpt lat="49.2719" lon="-0.1965">
        <ele>8.6</ele>
        <time>2017-05-25T09:46:16Z</time>
      </trkpt>
      <trkpt lat="49.27198" lon="-0.1965">
        <ele>8.5</ele>
        <time>2017-05-25T09:46:22Z</time>
      </trkpt>
      <trkpt lat="49.27205" lon="-0.1965">
        <ele>8.9</ele>
        <time>2017-05-25T09:46:28Z</time>
      </trkpt>
      <trkpt lat="49.27213" lon="-0.19651">
        <ele>9.3</ele>
        <time>2017-05-25T09:46:35Z</time>
      </trkpt>
      <trkpt lat="49.27221" lon="-0.1965">
        <ele>9.1</ele>
        <time>2017-05-25T09:46:40Z</time>
      </trkpt>
      <trkpt lat="49.27227" lon="-0.19654">
        <ele>9.7</ele>
        <time>2017-05-25T09:46:46Z</time>
      </trkpt>
      <trkpt lat="49.27228" lon="-0.19656">
        <ele>12.5</ele>
        <time>2017-05-25T09:46:53Z</time>
      </trkpt>
      <trkpt lat="49.27235" lon="-0.19664">
        <ele>13.3</ele>
        <time>2017-05-25T09:47:18Z</time>
      </trkpt>
      <trkpt lat="49.27239" lon="-0.19675">
        <ele>14.2</ele>
        <time>2017-05-25T09:47:24Z</time>
      </trkpt>
      <trkpt lat="49.27237" lon="-0.19676">
        <ele>15.7</ele>
        <time>2017-05-25T09:47:31Z</time>
      </trkpt>
      <trkpt lat="49.27235" lon="-0.19669">
        <ele>15.3</ele>
        <time>2017-05-25T09:47:39Z</time>
      </trkpt>
      <trkpt lat="49.27233" lon="-0.19654">
        <ele>16.3</ele>
        <time>2017-05-25T09:48:54Z</time>
      </trkpt>
      <trkpt lat="49.27232" lon="-0.19644">
        <ele>13.2</ele>
        <time>2017-05-25T09:49:01Z</time>
      </trkpt>
      <trkpt lat="49.27229" lon="-0.19633">
        <ele>11.8</ele>
        <time>2017-05-25T09:49:07Z</time>
      </trkpt>
      <trkpt lat="49.27227" lon="-0.19622">
        <ele>9</ele>
        <time>2017-05-25T09:49:14Z</time>
      </trkpt>
      <trkpt lat="49.27224" lon="-0.19611">
        <ele>6.7</ele>
        <time>2017-05-25T09:49:21Z</time>
      </trkpt>
      <trkpt lat="49.27221" lon="-0.196">
        <ele>5.1</ele>
        <time>2017-05-25T09:49:28Z</time>
      </trkpt>
      <trkpt lat="49.27219" lon="-0.19589">
        <ele>2.5</ele>
        <time>2017-05-25T09:49:35Z</time>
      </trkpt>
      <trkpt lat="49.27217" lon="-0.19577">
        <ele>1.1</ele>
        <time>2017-05-25T09:49:40Z</time>
      </trkpt>
      <trkpt lat="49.27214" lon="-0.19566">
        <ele>0.8</ele>
        <time>2017-05-25T09:49:46Z</time>
      </trkpt>
      <trkpt lat="49.27212" lon="-0.19554">
        <ele>-0.3</ele>
        <time>2017-05-25T09:49:52Z</time>
      </trkpt>
      <trkpt lat="49.27211" lon="-0.19541">
        <ele>2.2</ele>
        <time>2017-05-25T09:49:57Z</time>
      </trkpt>
      <trkpt lat="49.27209" lon="-0.1953">
        <ele>3.9</ele>
        <time>2017-05-25T09:50:01Z</time>
      </trkpt>
      <trkpt lat="49.27207" lon="-0.19519">
        <ele>5.3</ele>
        <time>2017-05-25T09:50:07Z</time>
      </trkpt>
      <trkpt lat="49.27206" lon="-0.19507">
        <ele>4.6</ele>
        <time>2017-05-25T09:50:14Z</time>
      </trkpt>
      <trkpt lat="49.27205" lon="-0.19496">
        <ele>3.5</ele>
        <time>2017-05-25T09:50:20Z</time>
      </trkpt>
      <trkpt lat="49.27203" lon="-0.19484">
        <ele>3.9</ele>
        <time>2017-05-25T09:50:26Z</time>
      </trkpt>
      <trkpt lat="49.27201" lon="-0.19472">
        <ele>6.8</ele>
        <time>2017-05-25T09:50:32Z</time>
      </trkpt>
      <trkpt lat="49.272" lon="-0.1946">
        <ele>8.2</ele>
        <time>2017-05-25T09:50:37Z</time>
      </trkpt>
      <trkpt lat="49.27197" lon="-0.1945">
        <ele>9.3</ele>
        <time>2017-05-25T09:50:42Z</time>
      </trkpt>
      <trkpt lat="49.27195" lon="-0.19438">
        <ele>11.8</ele>
        <time>2017-05-25T09:50:49Z</time>
      </trkpt>
      <trkpt lat="49.27192" lon="-0.19428">
        <ele>12.1</ele>
        <time>2017-05-25T09:50:54Z</time>
      </trkpt>
      <trkpt lat="49.2719" lon="-0.19414">
        <ele>14.1</ele>
        <time>2017-05-25T09:51:00Z</time>
      </trkpt>
      <trkpt lat="49.27185" lon="-0.19404">
        <ele>15.3</ele>
        <time>2017-05-25T09:51:05Z</time>
      </trkpt>
      <trkpt lat="49.27184" lon="-0.19393">
        <ele>15.1</ele>
        <time>2017-05-25T09:51:12Z</time>
      </trkpt>
      <trkpt lat="49.27181" lon="-0.19382">
        <ele>15.9</ele>
        <time>2017-05-25T09:51:18Z</time>
      </trkpt>
      <trkpt lat="49.27177" lon="-0.19372">
        <ele>13.3</ele>
        <time>2017-05-25T09:51:23Z</time>
      </trkpt>
      <trkpt lat="49.27181" lon="-0.1936">
        <ele>11.1</ele>
        <time>2017-05-25T09:51:28Z</time>
      </trkpt>
      <trkpt lat="49.27186" lon="-0.19353">
        <ele>8.4</ele>
        <time>2017-05-25T09:51:33Z</time>
      </trkpt>
      <trkpt lat="49.27188" lon="-0.19353">
        <ele>7.5</ele>
        <time>2017-05-25T09:51:40Z</time>
      </trkpt>
      <trkpt lat="49.27181" lon="-0.19349">
        <ele>8.3</ele>
        <time>2017-05-25T09:52:09Z</time>
      </trkpt>
      <trkpt lat="49.27178" lon="-0.19347">
        <ele>11</ele>
        <time>2017-05-25T09:52:16Z</time>
      </trkpt>
      <trkpt lat="49.27175" lon="-0.19336">
        <ele>10.8</ele>
        <time>2017-05-25T09:52:57Z</time>
      </trkpt>
      <trkpt lat="49.27175" lon="-0.1933">
        <ele>12</ele>
        <time>2017-05-25T09:53:04Z</time>
      </trkpt>
      <trkpt lat="49.27174" lon="-0.19319">
        <ele>13</ele>
        <time>2017-05-25T09:53:11Z</time>
      </trkpt>
      <trkpt lat="49.27173" lon="-0.19307">
        <ele>13.9</ele>
        <time>2017-05-25T09:53:17Z</time>
      </trkpt>
      <trkpt lat="49.27172" lon="-0.193">
        <ele>15</ele>
        <time>2017-05-25T09:53:24Z</time>
      </trkpt>
      <trkpt lat="49.27172" lon="-0.19293">
        <ele>16.6</ele>
        <time>2017-05-25T09:53:31Z</time>
      </trkpt>
      <trkpt lat="49.27171" lon="-0.19283">
        <ele>16.6</ele>
        <time>2017-05-25T09:53:37Z</time>
      </trkpt>
      <trkpt lat="49.2717" lon="-0.1927">
        <ele>15.4</ele>
        <time>2017-05-25T09:53:42Z</time>
      </trkpt>
      <trkpt lat="49.27168" lon="-0.19258">
        <ele>16.3</ele>
        <time>2017-05-25T09:53:47Z</time>
      </trkpt>
      <trkpt lat="49.27167" lon="-0.19247">
        <ele>16.3</ele>
        <time>2017-05-25T09:53:52Z</time>
      </trkpt>
      <trkpt lat="49.27165" lon="-0.19235">
        <ele>16</ele>
        <time>2017-05-25T09:53:57Z</time>
      </trkpt>
      <trkpt lat="49.27163" lon="-0.19223">
        <ele>16</ele>
        <time>2017-05-25T09:54:03Z</time>
      </trkpt>
      <trkpt lat="49.27162" lon="-0.1921">
        <ele>15.4</ele>
        <time>2017-05-25T09:54:09Z</time>
      </trkpt>
      <trkpt lat="49.27159" lon="-0.19198">
        <ele>13</ele>
        <time>2017-05-25T09:54:14Z</time>
      </trkpt>
      <trkpt lat="49.27157" lon="-0.19186">
        <ele>13.5</ele>
        <time>2017-05-25T09:54:20Z</time>
      </trkpt>
      <trkpt lat="49.27154" lon="-0.19175">
        <ele>13.8</ele>
        <time>2017-05-25T09:54:25Z</time>
      </trkpt>
      <trkpt lat="49.27152" lon="-0.19164">
        <ele>14.4</ele>
        <time>2017-05-25T09:54:31Z</time>
      </trkpt>
      <trkpt lat="49.27148" lon="-0.19152">
        <ele>14.1</ele>
        <time>2017-05-25T09:54:36Z</time>
      </trkpt>
      <trkpt lat="49.27145" lon="-0.19142">
        <ele>13.8</ele>
        <time>2017-05-25T09:54:43Z</time>
      </trkpt>
      <trkpt lat="49.27141" lon="-0.19131">
        <ele>14.2</ele>
        <time>2017-05-25T09:54:49Z</time>
      </trkpt>
      <trkpt lat="49.27137" lon="-0.19121">
        <ele>14.3</ele>
        <time>2017-05-25T09:54:55Z</time>
      </trkpt>
      <trkpt lat="49.27134" lon="-0.1911">
        <ele>14.1</ele>
        <time>2017-05-25T09:55:00Z</time>
      </trkpt>
      <trkpt lat="49.27133" lon="-0.19098">
        <ele>12.7</ele>
        <time>2017-05-25T09:55:05Z</time>
      </trkpt>
      <trkpt lat="49.27132" lon="-0.19086">
        <ele>12.9</ele>
        <time>2017-05-25T09:55:11Z</time>
      </trkpt>
      <trkpt lat="49.27132" lon="-0.19075">
        <ele>13</ele>
        <time>2017-05-25T09:55:17Z</time>
      </trkpt>
      <trkpt lat="49.27129" lon="-0.19064">
        <ele>12.1</ele>
        <time>2017-05-25T09:55:23Z</time>
      </trkpt>
      <trkpt lat="49.27128" lon="-0.19064">
        <ele>13.4</ele>
        <time>2017-05-25T09:55:30Z</time>
      </trkpt>
      <trkpt lat="49.27128" lon="-0.1905">
        <ele>14.5</ele>
        <time>2017-05-25T09:56:49Z</time>
      </trkpt>
      <trkpt lat="49.27129" lon="-0.19039">
        <ele>11.2</ele>
        <time>2017-05-25T09:56:55Z</time>
      </trkpt>
      <trkpt lat="49.27128" lon="-0.19027">
        <ele>12</ele>
        <time>2017-05-25T09:57:01Z</time>
      </trkpt>
      <trkpt lat="49.27126" lon="-0.19015">
        <ele>11.4</ele>
        <time>2017-05-25T09:57:07Z</time>
      </trkpt>
      <trkpt lat="49.27124" lon="-0.19004">
        <ele>10.4</ele>
        <time>2017-05-25T09:57:13Z</time>
      </trkpt>
      <trkpt lat="49.27122" lon="-0.18992">
        <ele>9.5</ele>
        <time>2017-05-25T09:57:20Z</time>
      </trkpt>
      <trkpt lat="49.27118" lon="-0.1898">
        <ele>9.8</ele>
        <time>2017-05-25T09:57:26Z</time>
      </trkpt>
      <trkpt lat="49.27117" lon="-0.18969">
        <ele>10.5</ele>
        <time>2017-05-25T09:57:32Z</time>
      </trkpt>
      <trkpt lat="49.27116" lon="-0.18957">
        <ele>11.1</ele>
        <time>2017-05-25T09:57:37Z</time>
      </trkpt>
      <trkpt lat="49.27115" lon="-0.18945">
        <ele>10.8</ele>
        <time>2017-05-25T09:57:42Z</time>
      </trkpt>
      <trkpt lat="49.27115" lon="-0.18934">
        <ele>9.9</ele>
        <time>2017-05-25T09:57:47Z</time>
      </trkpt>
      <trkpt lat="49.27114" lon="-0.18923">
        <ele>9.5</ele>
        <time>2017-05-25T09:57:52Z</time>
      </trkpt>
      <trkpt lat="49.27114" lon="-0.18911">
        <ele>7.3</ele>
        <time>2017-05-25T09:57:57Z</time>
      </trkpt>
      <trkpt lat="49.27116" lon="-0.189">
        <ele>8.5</ele>
        <time>2017-05-25T09:58:04Z</time>
      </trkpt>
      <trkpt lat="49.27117" lon="-0.18887">
        <ele>9.6</ele>
        <time>2017-05-25T09:58:10Z</time>
      </trkpt>
      <trkpt lat="49.27117" lon="-0.18875">
        <ele>8.7</ele>
        <time>2017-05-25T09:58:15Z</time>
      </trkpt>
      <trkpt lat="49.27118" lon="-0.18862">
        <ele>6.9</ele>
        <time>2017-05-25T09:58:20Z</time>
      </trkpt>
      <trkpt lat="49.27122" lon="-0.18853">
        <ele>10</ele>
        <time>2017-05-25T09:58:26Z</time>
      </trkpt>
      <trkpt lat="49.27124" lon="-0.1884">
        <ele>11.5</ele>
        <time>2017-05-25T09:58:32Z</time>
      </trkpt>
      <trkpt lat="49.27124" lon="-0.18828">
        <ele>11.6</ele>
        <time>2017-05-25T09:58:37Z</time>
      </trkpt>
      <trkpt lat="49.27125" lon="-0.18817">
        <ele>9</ele>
        <time>2017-05-25T09:58:42Z</time>
      </trkpt>
      <trkpt lat="49.27132" lon="-0.18811">
        <ele>9.1</ele>
        <time>2017-05-25T09:58:47Z</time>
      </trkpt>
      <trkpt lat="49.27133" lon="-0.188">
        <ele>7</ele>
        <time>2017-05-25T09:58:52Z</time>
      </trkpt>
      <trkpt lat="49.27134" lon="-0.18789">
        <ele>6.4</ele>
        <time>2017-05-25T09:58:57Z</time>
      </trkpt>
      <trkpt lat="49.27132" lon="-0.18776">
        <ele>4.8</ele>
        <time>2017-05-25T09:59:02Z</time>
      </trkpt>
      <trkpt lat="49.27132" lon="-0.18772">
        <ele>6.1</ele>
        <time>2017-05-25T09:59:09Z</time>
      </trkpt>
      <trkpt lat="49.27129" lon="-0.18765">
        <ele>6.7</ele>
        <time>2017-05-25T09:59:16Z</time>
      </trkpt>
      <trkpt lat="49.27129" lon="-0.18764">
        <ele>7.2</ele>
        <time>2017-05-25T09:59:23Z</time>
      </trkpt>
      <trkpt lat="49.27132" lon="-0.18752">
        <ele>5.3</ele>
        <time>2017-05-25T09:59:10Z</time>
      </trkpt>
      <trkpt lat="49.27132" lon="-0.18753">
        <ele>2.7</ele>
        <time>2017-05-25T10:00:23Z</time>
      </trkpt>
      <trkpt lat="49.27129" lon="-0.18762">
        <ele>1.4</ele>
        <time>2017-05-25T10:00:30Z</time>
      </trkpt>
      <trkpt lat="49.27123" lon="-0.18766">
        <ele>-0.5</ele>
        <time>2017-05-25T10:00:37Z</time>
      </trkpt>
      <trkpt lat="49.27116" lon="-0.18766">
        <ele>-3.1</ele>
        <time>2017-05-25T10:00:44Z</time>
      </trkpt>
      <trkpt lat="49.27108" lon="-0.18763">
        <ele>-3.9</ele>
        <time>2017-05-25T10:00:50Z</time>
      </trkpt>
      <trkpt lat="49.27102" lon="-0.18754">
        <ele>-1.7</ele>
        <time>2017-05-25T10:00:56Z</time>
      </trkpt>
      <trkpt lat="49.27101" lon="-0.18744">
        <ele>-0.9</ele>
        <time>2017-05-25T10:01:01Z</time>
      </trkpt>
      <trkpt lat="49.27099" lon="-0.18733">
        <ele>1.2</ele>
        <time>2017-05-25T10:01:06Z</time>
      </trkpt>
      <trkpt lat="49.27098" lon="-0.18722">
        <ele>1.8</ele>
        <time>2017-05-25T10:01:11Z</time>
      </trkpt>
      <trkpt lat="49.27096" lon="-0.18709">
        <ele>0.9</ele>
        <time>2017-05-25T10:01:17Z</time>
      </trkpt>
      <trkpt lat="49.27094" lon="-0.18698">
        <ele>1.2</ele>
        <time>2017-05-25T10:01:22Z</time>
      </trkpt>
      <trkpt lat="49.27094" lon="-0.18687">
        <ele>1.8</ele>
        <time>2017-05-25T10:01:28Z</time>
      </trkpt>
      <trkpt lat="49.27092" lon="-0.18675">
        <ele>1.8</ele>
        <time>2017-05-25T10:01:33Z</time>
      </trkpt>
      <trkpt lat="49.2709" lon="-0.18664">
        <ele>1.5</ele>
        <time>2017-05-25T10:01:38Z</time>
      </trkpt>
      <trkpt lat="49.27088" lon="-0.18653">
        <ele>1.3</ele>
        <time>2017-05-25T10:01:43Z</time>
      </trkpt>
      <trkpt lat="49.27086" lon="-0.18642">
        <ele>1.3</ele>
        <time>2017-05-25T10:01:48Z</time>
      </trkpt>
      <trkpt lat="49.27083" lon="-0.18631">
        <ele>3</ele>
        <time>2017-05-25T10:01:55Z</time>
      </trkpt>
      <trkpt lat="49.27079" lon="-0.1862">
        <ele>4.6</ele>
        <time>2017-05-25T10:02:01Z</time>
      </trkpt>
      <trkpt lat="49.27076" lon="-0.18609">
        <ele>5.9</ele>
        <time>2017-05-25T10:02:06Z</time>
      </trkpt>
      <trkpt lat="49.27073" lon="-0.18599">
        <ele>6.9</ele>
        <time>2017-05-25T10:02:11Z</time>
      </trkpt>
      <trkpt lat="49.2707" lon="-0.18587">
        <ele>6.5</ele>
        <time>2017-05-25T10:02:18Z</time>
      </trkpt>
      <trkpt lat="49.27071" lon="-0.18575">
        <ele>5.2</ele>
        <time>2017-05-25T10:02:23Z</time>
      </trkpt>
      <trkpt lat="49.27075" lon="-0.18565">
        <ele>4</ele>
        <time>2017-05-25T10:02:29Z</time>
      </trkpt>
      <trkpt lat="49.27079" lon="-0.18555">
        <ele>2.1</ele>
        <time>2017-05-25T10:02:35Z</time>
      </trkpt>
      <trkpt lat="49.27081" lon="-0.18543">
        <ele>3.6</ele>
        <time>2017-05-25T10:02:42Z</time>
      </trkpt>
      <trkpt lat="49.27081" lon="-0.18531">
        <ele>4.3</ele>
        <time>2017-05-25T10:02:48Z</time>
      </trkpt>
      <trkpt lat="49.2708" lon="-0.1852">
        <ele>3.2</ele>
        <time>2017-05-25T10:02:54Z</time>
      </trkpt>
      <trkpt lat="49.2708" lon="-0.18509">
        <ele>1.5</ele>
        <time>2017-05-25T10:02:59Z</time>
      </trkpt>
      <trkpt lat="49.27078" lon="-0.18498">
        <ele>3.7</ele>
        <time>2017-05-25T10:03:06Z</time>
      </trkpt>
      <trkpt lat="49.27077" lon="-0.18487">
        <ele>2.8</ele>
        <time>2017-05-25T10:03:12Z</time>
      </trkpt>
      <trkpt lat="49.27072" lon="-0.18477">
        <ele>3.4</ele>
        <time>2017-05-25T10:03:18Z</time>
      </trkpt>
      <trkpt lat="49.27064" lon="-0.18476">
        <ele>2.7</ele>
        <time>2017-05-25T10:03:24Z</time>
      </trkpt>
      <trkpt lat="49.27056" lon="-0.18479">
        <ele>4.6</ele>
        <time>2017-05-25T10:03:30Z</time>
      </trkpt>
      <trkpt lat="49.27049" lon="-0.18483">
        <ele>4.9</ele>
        <time>2017-05-25T10:03:36Z</time>
      </trkpt>
      <trkpt lat="49.27042" lon="-0.18487">
        <ele>5.4</ele>
        <time>2017-05-25T10:03:43Z</time>
      </trkpt>
      <trkpt lat="49.27035" lon="-0.18491">
        <ele>7</ele>
        <time>2017-05-25T10:03:50Z</time>
      </trkpt>
      <trkpt lat="49.27028" lon="-0.18498">
        <ele>6.6</ele>
        <time>2017-05-25T10:03:57Z</time>
      </trkpt>
      <trkpt lat="49.27021" lon="-0.18504">
        <ele>5.9</ele>
        <time>2017-05-25T10:04:03Z</time>
      </trkpt>
      <trkpt lat="49.27013" lon="-0.18509">
        <ele>6.7</ele>
        <time>2017-05-25T10:04:08Z</time>
      </trkpt>
      <trkpt lat="49.27007" lon="-0.18515">
        <ele>7.6</ele>
        <time>2017-05-25T10:04:13Z</time>
      </trkpt>
      <trkpt lat="49.27001" lon="-0.18521">
        <ele>8.5</ele>
        <time>2017-05-25T10:04:18Z</time>
      </trkpt>
      <trkpt lat="49.26994" lon="-0.18528">
        <ele>8.2</ele>
        <time>2017-05-25T10:04:23Z</time>
      </trkpt>
      <trkpt lat="49.26988" lon="-0.18532">
        <ele>6.5</ele>
        <time>2017-05-25T10:04:29Z</time>
      </trkpt>
      <trkpt lat="49.2698" lon="-0.18538">
        <ele>7.2</ele>
        <time>2017-05-25T10:04:35Z</time>
      </trkpt>
      <trkpt lat="49.26973" lon="-0.18543">
        <ele>7.3</ele>
        <time>2017-05-25T10:04:40Z</time>
      </trkpt>
      <trkpt lat="49.26966" lon="-0.18549">
        <ele>7.7</ele>
        <time>2017-05-25T10:04:46Z</time>
      </trkpt>
      <trkpt lat="49.26959" lon="-0.18553">
        <ele>7.6</ele>
        <time>2017-05-25T10:04:51Z</time>
      </trkpt>
      <trkpt lat="49.26952" lon="-0.18557">
        <ele>7.7</ele>
        <time>2017-05-25T10:04:56Z</time>
      </trkpt>
      <trkpt lat="49.26945" lon="-0.18562">
        <ele>7.2</ele>
        <time>2017-05-25T10:05:02Z</time>
      </trkpt>
      <trkpt lat="49.26937" lon="-0.18569">
        <ele>6.1</ele>
        <time>2017-05-25T10:05:08Z</time>
      </trkpt>
      <trkpt lat="49.2693" lon="-0.18576">
        <ele>5.7</ele>
        <time>2017-05-25T10:05:15Z</time>
      </trkpt>
      <trkpt lat="49.26923" lon="-0.18581">
        <ele>6.3</ele>
        <time>2017-05-25T10:05:21Z</time>
      </trkpt>
      <trkpt lat="49.26917" lon="-0.18588">
        <ele>6.1</ele>
        <time>2017-05-25T10:05:27Z</time>
      </trkpt>
      <trkpt lat="49.2691" lon="-0.18595">
        <ele>6.9</ele>
        <time>2017-05-25T10:05:33Z</time>
      </trkpt>
      <trkpt lat="49.26903" lon="-0.18601">
        <ele>7.6</ele>
        <time>2017-05-25T10:05:39Z</time>
      </trkpt>
      <trkpt lat="49.26896" lon="-0.18606">
        <ele>8.5</ele>
        <time>2017-05-25T10:05:44Z</time>
      </trkpt>
      <trkpt lat="49.2689" lon="-0.18613">
        <ele>8.8</ele>
        <time>2017-05-25T10:05:50Z</time>
      </trkpt>
      <trkpt lat="49.26883" lon="-0.1862">
        <ele>8.7</ele>
        <time>2017-05-25T10:05:57Z</time>
      </trkpt>
      <trkpt lat="49.26876" lon="-0.18627">
        <ele>7.6</ele>
        <time>2017-05-25T10:06:03Z</time>
      </trkpt>
      <trkpt lat="49.26871" lon="-0.18634">
        <ele>8.7</ele>
        <time>2017-05-25T10:06:09Z</time>
      </trkpt>
      <trkpt lat="49.26865" lon="-0.18642">
        <ele>7.9</ele>
        <time>2017-05-25T10:06:15Z</time>
      </trkpt>
      <trkpt lat="49.26858" lon="-0.1865">
        <ele>8.2</ele>
        <time>2017-05-25T10:06:21Z</time>
      </trkpt>
      <trkpt lat="49.26852" lon="-0.18657">
        <ele>10.9</ele>
        <time>2017-05-25T10:06:27Z</time>
      </trkpt>
      <trkpt lat="49.26846" lon="-0.18664">
        <ele>11.2</ele>
        <time>2017-05-25T10:06:32Z</time>
      </trkpt>
      <trkpt lat="49.2684" lon="-0.18668">
        <ele>11.9</ele>
        <time>2017-05-25T10:06:37Z</time>
      </trkpt>
      <trkpt lat="49.26833" lon="-0.18675">
        <ele>12</ele>
        <time>2017-05-25T10:06:43Z</time>
      </trkpt>
      <trkpt lat="49.26827" lon="-0.18683">
        <ele>12.6</ele>
        <time>2017-05-25T10:06:49Z</time>
      </trkpt>
      <trkpt lat="49.2682" lon="-0.1869">
        <ele>12.8</ele>
        <time>2017-05-25T10:06:55Z</time>
      </trkpt>
      <trkpt lat="49.26814" lon="-0.18696">
        <ele>11.9</ele>
        <time>2017-05-25T10:07:00Z</time>
      </trkpt>
      <trkpt lat="49.26807" lon="-0.18703">
        <ele>10.7</ele>
        <time>2017-05-25T10:07:06Z</time>
      </trkpt>
      <trkpt lat="49.26801" lon="-0.1871">
        <ele>11.9</ele>
        <time>2017-05-25T10:07:12Z</time>
      </trkpt>
      <trkpt lat="49.26793" lon="-0.18716">
        <ele>11.8</ele>
        <time>2017-05-25T10:07:18Z</time>
      </trkpt>
      <trkpt lat="49.26787" lon="-0.18722">
        <ele>11.9</ele>
        <time>2017-05-25T10:07:24Z</time>
      </trkpt>
      <trkpt lat="49.2678" lon="-0.18727">
        <ele>12.9</ele>
        <time>2017-05-25T10:07:30Z</time>
      </trkpt>
      <trkpt lat="49.26775" lon="-0.18736">
        <ele>13.3</ele>
        <time>2017-05-25T10:07:36Z</time>
      </trkpt>
      <trkpt lat="49.26775" lon="-0.18749">
        <ele>12.9</ele>
        <time>2017-05-25T10:07:42Z</time>
      </trkpt>
      <trkpt lat="49.26778" lon="-0.18759">
        <ele>14.1</ele>
        <time>2017-05-25T10:07:49Z</time>
      </trkpt>
      <trkpt lat="49.26782" lon="-0.1877">
        <ele>14.9</ele>
        <time>2017-05-25T10:07:56Z</time>
      </trkpt>
      <trkpt lat="49.26786" lon="-0.1878">
        <ele>15</ele>
        <time>2017-05-25T10:08:02Z</time>
      </trkpt>
      <trkpt lat="49.26789" lon="-0.18791">
        <ele>15</ele>
        <time>2017-05-25T10:08:08Z</time>
      </trkpt>
      <trkpt lat="49.26791" lon="-0.18803">
        <ele>14.8</ele>
        <time>2017-05-25T10:08:15Z</time>
      </trkpt>
      <trkpt lat="49.26788" lon="-0.18814">
        <ele>12.4</ele>
        <time>2017-05-25T10:08:22Z</time>
      </trkpt>
      <trkpt lat="49.2678" lon="-0.18817">
        <ele>13.4</ele>
        <time>2017-05-25T10:08:28Z</time>
      </trkpt>
      <trkpt lat="49.26772" lon="-0.18823">
        <ele>11.5</ele>
        <time>2017-05-25T10:08:34Z</time>
      </trkpt>
      <trkpt lat="49.26765" lon="-0.18826">
        <ele>10.7</ele>
        <time>2017-05-25T10:08:40Z</time>
      </trkpt>
      <trkpt lat="49.26758" lon="-0.18831">
        <ele>10.4</ele>
        <time>2017-05-25T10:08:46Z</time>
      </trkpt>
      <trkpt lat="49.26751" lon="-0.18832">
        <ele>8.6</ele>
        <time>2017-05-25T10:08:52Z</time>
      </trkpt>
      <trkpt lat="49.26743" lon="-0.18837">
        <ele>8.9</ele>
        <time>2017-05-25T10:08:59Z</time>
      </trkpt>
      <trkpt lat="49.26736" lon="-0.1884">
        <ele>9</ele>
        <time>2017-05-25T10:09:05Z</time>
      </trkpt>
      <trkpt lat="49.26728" lon="-0.18842">
        <ele>10.5</ele>
        <time>2017-05-25T10:09:11Z</time>
      </trkpt>
      <trkpt lat="49.26721" lon="-0.18845">
        <ele>10.4</ele>
        <time>2017-05-25T10:09:17Z</time>
      </trkpt>
      <trkpt lat="49.26713" lon="-0.18846">
        <ele>8.6</ele>
        <time>2017-05-25T10:09:23Z</time>
      </trkpt>
      <trkpt lat="49.26706" lon="-0.1885">
        <ele>6.1</ele>
        <time>2017-05-25T10:09:29Z</time>
      </trkpt>
      <trkpt lat="49.26698" lon="-0.18853">
        <ele>6.3</ele>
        <time>2017-05-25T10:09:35Z</time>
      </trkpt>
      <trkpt lat="49.26691" lon="-0.18857">
        <ele>7.1</ele>
        <time>2017-05-25T10:09:41Z</time>
      </trkpt>
      <trkpt lat="49.26685" lon="-0.18861">
        <ele>9.6</ele>
        <time>2017-05-25T10:09:47Z</time>
      </trkpt>
      <trkpt lat="49.26677" lon="-0.18864">
        <ele>10.4</ele>
        <time>2017-05-25T10:09:52Z</time>
      </trkpt>
      <trkpt lat="49.2667" lon="-0.18869">
        <ele>12</ele>
        <time>2017-05-25T10:09:58Z</time>
      </trkpt>
      <trkpt lat="49.26663" lon="-0.18872">
        <ele>10.9</ele>
        <time>2017-05-25T10:10:03Z</time>
      </trkpt>
      <trkpt lat="49.26656" lon="-0.18872">
        <ele>11.9</ele>
        <time>2017-05-25T10:10:10Z</time>
      </trkpt>
      <trkpt lat="49.26648" lon="-0.18874">
        <ele>11.4</ele>
        <time>2017-05-25T10:10:17Z</time>
      </trkpt>
      <trkpt lat="49.26642" lon="-0.18878">
        <ele>12</ele>
        <time>2017-05-25T10:10:24Z</time>
      </trkpt>
      <trkpt lat="49.26635" lon="-0.18881">
        <ele>10.9</ele>
        <time>2017-05-25T10:10:30Z</time>
      </trkpt>
      <trkpt lat="49.26627" lon="-0.18883">
        <ele>8.8</ele>
        <time>2017-05-25T10:10:36Z</time>
      </trkpt>
      <trkpt lat="49.2662" lon="-0.18888">
        <ele>9.5</ele>
        <time>2017-05-25T10:10:42Z</time>
      </trkpt>
      <trkpt lat="49.26613" lon="-0.18895">
        <ele>9.6</ele>
        <time>2017-05-25T10:10:47Z</time>
      </trkpt>
      <trkpt lat="49.26605" lon="-0.18898">
        <ele>10.3</ele>
        <time>2017-05-25T10:10:53Z</time>
      </trkpt>
      <trkpt lat="49.26597" lon="-0.189">
        <ele>11.1</ele>
        <time>2017-05-25T10:10:59Z</time>
      </trkpt>
      <trkpt lat="49.26588" lon="-0.18903">
        <ele>10.2</ele>
        <time>2017-05-25T10:11:04Z</time>
      </trkpt>
      <trkpt lat="49.26581" lon="-0.18904">
        <ele>8.7</ele>
        <time>2017-05-25T10:11:08Z</time>
      </trkpt>
      <trkpt lat="49.26572" lon="-0.18908">
        <ele>7.1</ele>
        <time>2017-05-25T10:11:14Z</time>
      </trkpt>
      <trkpt lat="49.26565" lon="-0.18909">
        <ele>5.9</ele>
        <time>2017-05-25T10:11:19Z</time>
      </trkpt>
      <trkpt lat="49.26558" lon="-0.18914">
        <ele>4.5</ele>
        <time>2017-05-25T10:11:25Z</time>
      </trkpt>
      <trkpt lat="49.26549" lon="-0.18919">
        <ele>4.3</ele>
        <time>2017-05-25T10:11:32Z</time>
      </trkpt>
      <trkpt lat="49.26542" lon="-0.18923">
        <ele>4.4</ele>
        <time>2017-05-25T10:11:37Z</time>
      </trkpt>
      <trkpt lat="49.26534" lon="-0.18923">
        <ele>3.9</ele>
        <time>2017-05-25T10:11:42Z</time>
      </trkpt>
      <trkpt lat="49.26526" lon="-0.18926">
        <ele>6.7</ele>
        <time>2017-05-25T10:11:47Z</time>
      </trkpt>
      <trkpt lat="49.26525" lon="-0.18928">
        <ele>7.2</ele>
        <time>2017-05-25T10:11:54Z</time>
      </trkpt>
      <trkpt lat="49.26519" lon="-0.18923">
        <ele>8.2</ele>
        <time>2017-05-25T10:12:24Z</time>
      </trkpt>
      <trkpt lat="49.26515" lon="-0.18913">
        <ele>8.1</ele>
        <time>2017-05-25T10:12:29Z</time>
      </trkpt>
      <trkpt lat="49.2651" lon="-0.18902">
        <ele>7.8</ele>
        <time>2017-05-25T10:12:36Z</time>
      </trkpt>
      <trkpt lat="49.26505" lon="-0.18892">
        <ele>7.1</ele>
        <time>2017-05-25T10:12:41Z</time>
      </trkpt>
      <trkpt lat="49.265" lon="-0.18885">
        <ele>6.1</ele>
        <time>2017-05-25T10:12:45Z</time>
      </trkpt>
      <trkpt lat="49.26496" lon="-0.18874">
        <ele>5.3</ele>
        <time>2017-05-25T10:12:50Z</time>
      </trkpt>
      <trkpt lat="49.26492" lon="-0.18864">
        <ele>3.3</ele>
        <time>2017-05-25T10:12:55Z</time>
      </trkpt>
      <trkpt lat="49.26487" lon="-0.18856">
        <ele>5.2</ele>
        <time>2017-05-25T10:13:01Z</time>
      </trkpt>
      <trkpt lat="49.26482" lon="-0.18848">
        <ele>4.3</ele>
        <time>2017-05-25T10:13:06Z</time>
      </trkpt>
      <trkpt lat="49.26477" lon="-0.18839">
        <ele>4.5</ele>
        <time>2017-05-25T10:13:12Z</time>
      </trkpt>
      <trkpt lat="49.26472" lon="-0.18828">
        <ele>2.8</ele>
        <time>2017-05-25T10:13:19Z</time>
      </trkpt>
      <trkpt lat="49.26467" lon="-0.18819">
        <ele>5.3</ele>
        <time>2017-05-25T10:13:25Z</time>
      </trkpt>
      <trkpt lat="49.26463" lon="-0.1881">
        <ele>5.9</ele>
        <time>2017-05-25T10:13:31Z</time>
      </trkpt>
      <trkpt lat="49.26458" lon="-0.188">
        <ele>7.3</ele>
        <time>2017-05-25T10:13:37Z</time>
      </trkpt>
      <trkpt lat="49.26453" lon="-0.18791">
        <ele>6</ele>
        <time>2017-05-25T10:13:42Z</time>
      </trkpt>
      <trkpt lat="49.26449" lon="-0.1878">
        <ele>4.7</ele>
        <time>2017-05-25T10:13:48Z</time>
      </trkpt>
      <trkpt lat="49.26444" lon="-0.1877">
        <ele>3.4</ele>
        <time>2017-05-25T10:13:54Z</time>
      </trkpt>
      <trkpt lat="49.2644" lon="-0.18762">
        <ele>3.5</ele>
        <time>2017-05-25T10:13:59Z</time>
      </trkpt>
      <trkpt lat="49.26434" lon="-0.18752">
        <ele>3.4</ele>
        <time>2017-05-25T10:14:05Z</time>
      </trkpt>
      <trkpt lat="49.26427" lon="-0.18746">
        <ele>2.9</ele>
        <time>2017-05-25T10:14:11Z</time>
      </trkpt>
      <trkpt lat="49.2642" lon="-0.18743">
        <ele>1.1</ele>
        <time>2017-05-25T10:14:16Z</time>
      </trkpt>
      <trkpt lat="49.26416" lon="-0.18745">
        <ele>-0.4</ele>
        <time>2017-05-25T10:14:23Z</time>
      </trkpt>
      <trkpt lat="49.2641" lon="-0.1875">
        <ele>-0.8</ele>
        <time>2017-05-25T10:14:30Z</time>
      </trkpt>
      <trkpt lat="49.26404" lon="-0.18756">
        <ele>-1.1</ele>
        <time>2017-05-25T10:14:36Z</time>
      </trkpt>
      <trkpt lat="49.26397" lon="-0.18762">
        <ele>-0.8</ele>
        <time>2017-05-25T10:14:42Z</time>
      </trkpt>
      <trkpt lat="49.26391" lon="-0.1877">
        <ele>2.4</ele>
        <time>2017-05-25T10:14:49Z</time>
      </trkpt>
      <trkpt lat="49.26385" lon="-0.18777">
        <ele>3.5</ele>
        <time>2017-05-25T10:14:56Z</time>
      </trkpt>
      <trkpt lat="49.26379" lon="-0.18787">
        <ele>4.4</ele>
        <time>2017-05-25T10:15:02Z</time>
      </trkpt>
      <trkpt lat="49.26375" lon="-0.18795">
        <ele>5.6</ele>
        <time>2017-05-25T10:15:08Z</time>
      </trkpt>
      <trkpt lat="49.2637" lon="-0.18805">
        <ele>5.9</ele>
        <time>2017-05-25T10:15:14Z</time>
      </trkpt>
      <trkpt lat="49.26365" lon="-0.18814">
        <ele>5.9</ele>
        <time>2017-05-25T10:15:20Z</time>
      </trkpt>
      <trkpt lat="49.26359" lon="-0.18825">
        <ele>6.6</ele>
        <time>2017-05-25T10:15:26Z</time>
      </trkpt>
      <trkpt lat="49.26356" lon="-0.18834">
        <ele>6</ele>
        <time>2017-05-25T10:15:31Z</time>
      </trkpt>
      <trkpt lat="49.26351" lon="-0.18845">
        <ele>6.1</ele>
        <time>2017-05-25T10:15:37Z</time>
      </trkpt>
      <trkpt lat="49.26346" lon="-0.18853">
        <ele>7.8</ele>
        <time>2017-05-25T10:15:43Z</time>
      </trkpt>
      <trkpt lat="49.26341" lon="-0.1886">
        <ele>8.1</ele>
        <time>2017-05-25T10:15:50Z</time>
      </trkpt>
      <trkpt lat="49.26336" lon="-0.18865">
        <ele>8.2</ele>
        <time>2017-05-25T10:15:57Z</time>
      </trkpt>
      <trkpt lat="49.26334" lon="-0.18865">
        <ele>7.8</ele>
        <time>2017-05-25T10:16:04Z</time>
      </trkpt>
      <trkpt lat="49.26329" lon="-0.18875">
        <ele>12.5</ele>
        <time>2017-05-25T10:16:54Z</time>
      </trkpt>
      <trkpt lat="49.26325" lon="-0.18884">
        <ele>11.4</ele>
        <time>2017-05-25T10:17:00Z</time>
      </trkpt>
      <trkpt lat="49.2632" lon="-0.18892">
        <ele>9.8</ele>
        <time>2017-05-25T10:17:06Z</time>
      </trkpt>
      <trkpt lat="49.26314" lon="-0.189">
        <ele>7.1</ele>
        <time>2017-05-25T10:17:13Z</time>
      </trkpt>
      <trkpt lat="49.26308" lon="-0.18909">
        <ele>5.1</ele>
        <time>2017-05-25T10:17:19Z</time>
      </trkpt>
      <trkpt lat="49.26303" lon="-0.18916">
        <ele>4.8</ele>
        <time>2017-05-25T10:17:26Z</time>
      </trkpt>
      <trkpt lat="49.26298" lon="-0.18925">
        <ele>4.6</ele>
        <time>2017-05-25T10:17:33Z</time>
      </trkpt>
      <trkpt lat="49.26291" lon="-0.18934">
        <ele>6.4</ele>
        <time>2017-05-25T10:17:39Z</time>
      </trkpt>
      <trkpt lat="49.26285" lon="-0.18943">
        <ele>8.1</ele>
        <time>2017-05-25T10:17:44Z</time>
      </trkpt>
      <trkpt lat="49.26281" lon="-0.18953">
        <ele>9.1</ele>
        <time>2017-05-25T10:17:49Z</time>
      </trkpt>
      <trkpt lat="49.26275" lon="-0.18961">
        <ele>10.7</ele>
        <time>2017-05-25T10:17:56Z</time>
      </trkpt>
      <trkpt lat="49.2627" lon="-0.18971">
        <ele>11.1</ele>
        <time>2017-05-25T10:18:03Z</time>
      </trkpt>
      <trkpt lat="49.26264" lon="-0.18979">
        <ele>10.3</ele>
        <time>2017-05-25T10:18:09Z</time>
      </trkpt>
      <trkpt lat="49.26257" lon="-0.18987">
        <ele>8.6</ele>
        <time>2017-05-25T10:18:15Z</time>
      </trkpt>
      <trkpt lat="49.26251" lon="-0.18995">
        <ele>7.8</ele>
        <time>2017-05-25T10:18:20Z</time>
      </trkpt>
      <trkpt lat="49.26244" lon="-0.19002">
        <ele>6.9</ele>
        <time>2017-05-25T10:18:25Z</time>
      </trkpt>
      <trkpt lat="49.26238" lon="-0.19011">
        <ele>6.2</ele>
        <time>2017-05-25T10:18:30Z</time>
      </trkpt>
      <trkpt lat="49.26234" lon="-0.1902">
        <ele>5</ele>
        <time>2017-05-25T10:18:36Z</time>
      </trkpt>
      <trkpt lat="49.26228" lon="-0.19027">
        <ele>6.2</ele>
        <time>2017-05-25T10:18:43Z</time>
      </trkpt>
      <trkpt lat="49.26221" lon="-0.19034">
        <ele>4.8</ele>
        <time>2017-05-25T10:18:50Z</time>
      </trkpt>
      <trkpt lat="49.26216" lon="-0.19043">
        <ele>2.8</ele>
        <time>2017-05-25T10:18:55Z</time>
      </trkpt>
      <trkpt lat="49.26209" lon="-0.1905">
        <ele>1.7</ele>
        <time>2017-05-25T10:18:59Z</time>
      </trkpt>
      <trkpt lat="49.26202" lon="-0.19056">
        <ele>2.9</ele>
        <time>2017-05-25T10:19:05Z</time>
      </trkpt>
      <trkpt lat="49.26194" lon="-0.19059">
        <ele>3</ele>
        <time>2017-05-25T10:19:10Z</time>
      </trkpt>
      <trkpt lat="49.26187" lon="-0.19064">
        <ele>2.8</ele>
        <time>2017-05-25T10:19:15Z</time>
      </trkpt>
      <trkpt lat="49.2618" lon="-0.1907">
        <ele>2.8</ele>
        <time>2017-05-25T10:19:20Z</time>
      </trkpt>
      <trkpt lat="49.26171" lon="-0.19075">
        <ele>3.1</ele>
        <time>2017-05-25T10:19:25Z</time>
      </trkpt>
      <trkpt lat="49.26164" lon="-0.1908">
        <ele>3.1</ele>
        <time>2017-05-25T10:19:31Z</time>
      </trkpt>
      <trkpt lat="49.26156" lon="-0.19081">
        <ele>2.9</ele>
        <time>2017-05-25T10:19:36Z</time>
      </trkpt>
      <trkpt lat="49.26148" lon="-0.19084">
        <ele>2.3</ele>
        <time>2017-05-25T10:19:42Z</time>
      </trkpt>
      <trkpt lat="49.26141" lon="-0.19087">
        <ele>3</ele>
        <time>2017-05-25T10:19:49Z</time>
      </trkpt>
      <trkpt lat="49.26133" lon="-0.19089">
        <ele>2</ele>
        <time>2017-05-25T10:19:55Z</time>
      </trkpt>
      <trkpt lat="49.26126" lon="-0.19086">
        <ele>0.4</ele>
        <time>2017-05-25T10:20:00Z</time>
      </trkpt>
      <trkpt lat="49.26118" lon="-0.19082">
        <ele>-1.4</ele>
        <time>2017-05-25T10:20:05Z</time>
      </trkpt>
      <trkpt lat="49.26111" lon="-0.19081">
        <ele>-2.4</ele>
        <time>2017-05-25T10:20:11Z</time>
      </trkpt>
      <trkpt lat="49.26103" lon="-0.19079">
        <ele>-1.3</ele>
        <time>2017-05-25T10:20:16Z</time>
      </trkpt>
      <trkpt lat="49.26095" lon="-0.19078">
        <ele>0.7</ele>
        <time>2017-05-25T10:20:21Z</time>
      </trkpt>
      <trkpt lat="49.26088" lon="-0.1908">
        <ele>2.6</ele>
        <time>2017-05-25T10:20:26Z</time>
      </trkpt>
      <trkpt lat="49.26081" lon="-0.19084">
        <ele>4.7</ele>
        <time>2017-05-25T10:20:31Z</time>
      </trkpt>
      <trkpt lat="49.26073" lon="-0.19089">
        <ele>8</ele>
        <time>2017-05-25T10:20:37Z</time>
      </trkpt>
      <trkpt lat="49.26066" lon="-0.19092">
        <ele>11</ele>
        <time>2017-05-25T10:20:42Z</time>
      </trkpt>
      <trkpt lat="49.26058" lon="-0.19096">
        <ele>13</ele>
        <time>2017-05-25T10:20:48Z</time>
      </trkpt>
      <trkpt lat="49.2605" lon="-0.191">
        <ele>14.5</ele>
        <time>2017-05-25T10:20:54Z</time>
      </trkpt>
      <trkpt lat="49.26043" lon="-0.19105">
        <ele>13.8</ele>
        <time>2017-05-25T10:20:59Z</time>
      </trkpt>
      <trkpt lat="49.26036" lon="-0.1911">
        <ele>11.8</ele>
        <time>2017-05-25T10:21:04Z</time>
      </trkpt>
      <trkpt lat="49.26029" lon="-0.19117">
        <ele>13.8</ele>
        <time>2017-05-25T10:21:11Z</time>
      </trkpt>
      <trkpt lat="49.26021" lon="-0.19117">
        <ele>14</ele>
        <time>2017-05-25T10:21:16Z</time>
      </trkpt>
      <trkpt lat="49.26014" lon="-0.19114">
        <ele>12.2</ele>
        <time>2017-05-25T10:21:20Z</time>
      </trkpt>
      <trkpt lat="49.26006" lon="-0.19112">
        <ele>12.5</ele>
        <time>2017-05-25T10:21:26Z</time>
      </trkpt>
      <trkpt lat="49.25999" lon="-0.19109">
        <ele>11.7</ele>
        <time>2017-05-25T10:21:31Z</time>
      </trkpt>
      <trkpt lat="49.25991" lon="-0.19105">
        <ele>10.4</ele>
        <time>2017-05-25T10:21:37Z</time>
      </trkpt>
      <trkpt lat="49.25984" lon="-0.19101">
        <ele>10.9</ele>
        <time>2017-05-25T10:21:43Z</time>
      </trkpt>
      <trkpt lat="49.25976" lon="-0.19101">
        <ele>12.6</ele>
        <time>2017-05-25T10:21:49Z</time>
      </trkpt>
      <trkpt lat="49.25968" lon="-0.19103">
        <ele>12.7</ele>
        <time>2017-05-25T10:21:54Z</time>
      </trkpt>
      <trkpt lat="49.25961" lon="-0.19108">
        <ele>12.3</ele>
        <time>2017-05-25T10:21:59Z</time>
      </trkpt>
      <trkpt lat="49.25954" lon="-0.19113">
        <ele>13</ele>
        <time>2017-05-25T10:22:04Z</time>
      </trkpt>
      <trkpt lat="49.25948" lon="-0.1912">
        <ele>12.7</ele>
        <time>2017-05-25T10:22:09Z</time>
      </trkpt>
      <trkpt lat="49.25941" lon="-0.19126">
        <ele>13.9</ele>
        <time>2017-05-25T10:22:14Z</time>
      </trkpt>
      <trkpt lat="49.25934" lon="-0.19132">
        <ele>14</ele>
        <time>2017-05-25T10:22:20Z</time>
      </trkpt>
      <trkpt lat="49.25928" lon="-0.19138">
        <ele>12.5</ele>
        <time>2017-05-25T10:22:26Z</time>
      </trkpt>
      <trkpt lat="49.25922" lon="-0.19147">
        <ele>13</ele>
        <time>2017-05-25T10:22:32Z</time>
      </trkpt>
      <trkpt lat="49.25915" lon="-0.19151">
        <ele>11.9</ele>
        <time>2017-05-25T10:22:37Z</time>
      </trkpt>
      <trkpt lat="49.25908" lon="-0.19158">
        <ele>12.2</ele>
        <time>2017-05-25T10:22:42Z</time>
      </trkpt>
      <trkpt lat="49.25901" lon="-0.19167">
        <ele>12.1</ele>
        <time>2017-05-25T10:22:48Z</time>
      </trkpt>
      <trkpt lat="49.25895" lon="-0.19175">
        <ele>13</ele>
        <time>2017-05-25T10:22:54Z</time>
      </trkpt>
      <trkpt lat="49.25889" lon="-0.19183">
        <ele>14.5</ele>
        <time>2017-05-25T10:22:59Z</time>
      </trkpt>
      <trkpt lat="49.25883" lon="-0.19191">
        <ele>14.8</ele>
        <time>2017-05-25T10:23:06Z</time>
      </trkpt>
      <trkpt lat="49.25877" lon="-0.19198">
        <ele>15</ele>
        <time>2017-05-25T10:23:12Z</time>
      </trkpt>
      <trkpt lat="49.2587" lon="-0.19205">
        <ele>14.5</ele>
        <time>2017-05-25T10:23:17Z</time>
      </trkpt>
      <trkpt lat="49.25865" lon="-0.19211">
        <ele>15.6</ele>
        <time>2017-05-25T10:23:22Z</time>
      </trkpt>
      <trkpt lat="49.25859" lon="-0.19219">
        <ele>15.3</ele>
        <time>2017-05-25T10:23:27Z</time>
      </trkpt>
      <trkpt lat="49.25853" lon="-0.19226">
        <ele>14.8</ele>
        <time>2017-05-25T10:23:33Z</time>
      </trkpt>
      <trkpt lat="49.25845" lon="-0.19233">
        <ele>12.6</ele>
        <time>2017-05-25T10:23:39Z</time>
      </trkpt>
      <trkpt lat="49.25839" lon="-0.1924">
        <ele>14.3</ele>
        <time>2017-05-25T10:23:44Z</time>
      </trkpt>
      <trkpt lat="49.25834" lon="-0.19247">
        <ele>13.3</ele>
        <time>2017-05-25T10:23:49Z</time>
      </trkpt>
      <trkpt lat="49.25828" lon="-0.19253">
        <ele>14.1</ele>
        <time>2017-05-25T10:23:54Z</time>
      </trkpt>
      <trkpt lat="49.25821" lon="-0.1926">
        <ele>14.3</ele>
        <time>2017-05-25T10:23:59Z</time>
      </trkpt>
      <trkpt lat="49.25815" lon="-0.19267">
        <ele>12</ele>
        <time>2017-05-25T10:24:05Z</time>
      </trkpt>
      <trkpt lat="49.25809" lon="-0.19276">
        <ele>12.9</ele>
        <time>2017-05-25T10:24:11Z</time>
      </trkpt>
      <trkpt lat="49.25803" lon="-0.19283">
        <ele>13.5</ele>
        <time>2017-05-25T10:24:16Z</time>
      </trkpt>
      <trkpt lat="49.25796" lon="-0.1929">
        <ele>13.3</ele>
        <time>2017-05-25T10:24:21Z</time>
      </trkpt>
      <trkpt lat="49.2579" lon="-0.19297">
        <ele>12.7</ele>
        <time>2017-05-25T10:24:26Z</time>
      </trkpt>
      <trkpt lat="49.25784" lon="-0.19306">
        <ele>13.8</ele>
        <time>2017-05-25T10:24:31Z</time>
      </trkpt>
      <trkpt lat="49.2578" lon="-0.19315">
        <ele>14.2</ele>
        <time>2017-05-25T10:24:37Z</time>
      </trkpt>
      <trkpt lat="49.25775" lon="-0.19325">
        <ele>13</ele>
        <time>2017-05-25T10:24:43Z</time>
      </trkpt>
      <trkpt lat="49.2577" lon="-0.19336">
        <ele>13</ele>
        <time>2017-05-25T10:24:49Z</time>
      </trkpt>
      <trkpt lat="49.25766" lon="-0.19345">
        <ele>12.6</ele>
        <time>2017-05-25T10:24:55Z</time>
      </trkpt>
      <trkpt lat="49.25763" lon="-0.19357">
        <ele>14.9</ele>
        <time>2017-05-25T10:25:02Z</time>
      </trkpt>
      <trkpt lat="49.2576" lon="-0.19367">
        <ele>14.5</ele>
        <time>2017-05-25T10:25:07Z</time>
      </trkpt>
      <trkpt lat="49.25755" lon="-0.19378">
        <ele>14.6</ele>
        <time>2017-05-25T10:25:13Z</time>
      </trkpt>
      <trkpt lat="49.25751" lon="-0.19389">
        <ele>14.8</ele>
        <time>2017-05-25T10:25:19Z</time>
      </trkpt>
      <trkpt lat="49.25746" lon="-0.194">
        <ele>17.2</ele>
        <time>2017-05-25T10:25:25Z</time>
      </trkpt>
      <trkpt lat="49.25743" lon="-0.1941">
        <ele>17.3</ele>
        <time>2017-05-25T10:25:30Z</time>
      </trkpt>
      <trkpt lat="49.25739" lon="-0.1942">
        <ele>17.4</ele>
        <time>2017-05-25T10:25:36Z</time>
      </trkpt>
      <trkpt lat="49.25735" lon="-0.19431">
        <ele>17.5</ele>
        <time>2017-05-25T10:25:42Z</time>
      </trkpt>
      <trkpt lat="49.25731" lon="-0.19441">
        <ele>19.2</ele>
        <time>2017-05-25T10:25:48Z</time>
      </trkpt>
      <trkpt lat="49.25727" lon="-0.19451">
        <ele>20</ele>
        <time>2017-05-25T10:25:53Z</time>
      </trkpt>
      <trkpt lat="49.25721" lon="-0.19459">
        <ele>19.7</ele>
        <time>2017-05-25T10:25:58Z</time>
      </trkpt>
      <trkpt lat="49.25716" lon="-0.19469">
        <ele>18.2</ele>
        <time>2017-05-25T10:26:04Z</time>
      </trkpt>
      <trkpt lat="49.25712" lon="-0.1948">
        <ele>16.3</ele>
        <time>2017-05-25T10:26:10Z</time>
      </trkpt>
      <trkpt lat="49.25707" lon="-0.19489">
        <ele>17.1</ele>
        <time>2017-05-25T10:26:16Z</time>
      </trkpt>
      <trkpt lat="49.257" lon="-0.19496">
        <ele>16.4</ele>
        <time>2017-05-25T10:26:21Z</time>
      </trkpt>
      <trkpt lat="49.25692" lon="-0.19501">
        <ele>15.3</ele>
        <time>2017-05-25T10:26:26Z</time>
      </trkpt>
      <trkpt lat="49.25687" lon="-0.19508">
        <ele>13.6</ele>
        <time>2017-05-25T10:26:31Z</time>
      </trkpt>
      <trkpt lat="49.25682" lon="-0.19517">
        <ele>12.7</ele>
        <time>2017-05-25T10:26:36Z</time>
      </trkpt>
      <trkpt lat="49.25677" lon="-0.19527">
        <ele>11.9</ele>
        <time>2017-05-25T10:26:42Z</time>
      </trkpt>
      <trkpt lat="49.2567" lon="-0.19537">
        <ele>12.9</ele>
        <time>2017-05-25T10:26:48Z</time>
      </trkpt>
      <trkpt lat="49.25664" lon="-0.19543">
        <ele>13.7</ele>
        <time>2017-05-25T10:26:53Z</time>
      </trkpt>
      <trkpt lat="49.25658" lon="-0.19549">
        <ele>12.8</ele>
        <time>2017-05-25T10:26:58Z</time>
      </trkpt>
      <trkpt lat="49.25651" lon="-0.19556">
        <ele>13.8</ele>
        <time>2017-05-25T10:27:04Z</time>
      </trkpt>
      <trkpt lat="49.25644" lon="-0.19561">
        <ele>17.2</ele>
        <time>2017-05-25T10:27:10Z</time>
      </trkpt>
      <trkpt lat="49.25638" lon="-0.19569">
        <ele>18.6</ele>
        <time>2017-05-25T10:27:16Z</time>
      </trkpt>
      <trkpt lat="49.25632" lon="-0.19578">
        <ele>19.2</ele>
        <time>2017-05-25T10:27:22Z</time>
      </trkpt>
      <trkpt lat="49.25628" lon="-0.19588">
        <ele>19.7</ele>
        <time>2017-05-25T10:27:27Z</time>
      </trkpt>
      <trkpt lat="49.25623" lon="-0.19596">
        <ele>21.1</ele>
        <time>2017-05-25T10:27:32Z</time>
      </trkpt>
      <trkpt lat="49.25616" lon="-0.19605">
        <ele>21</ele>
        <time>2017-05-25T10:27:38Z</time>
      </trkpt>
      <trkpt lat="49.25612" lon="-0.19614">
        <ele>21</ele>
        <time>2017-05-25T10:27:43Z</time>
      </trkpt>
      <trkpt lat="49.25607" lon="-0.19622">
        <ele>21.3</ele>
        <time>2017-05-25T10:27:48Z</time>
      </trkpt>
      <trkpt lat="49.25603" lon="-0.19631">
        <ele>22</ele>
        <time>2017-05-25T10:27:53Z</time>
      </trkpt>
      <trkpt lat="49.25598" lon="-0.1964">
        <ele>21.6</ele>
        <time>2017-05-25T10:27:58Z</time>
      </trkpt>
      <trkpt lat="49.25592" lon="-0.19647">
        <ele>21.3</ele>
        <time>2017-05-25T10:28:03Z</time>
      </trkpt>
      <trkpt lat="49.25586" lon="-0.19655">
        <ele>19.3</ele>
        <time>2017-05-25T10:28:08Z</time>
      </trkpt>
      <trkpt lat="49.2558" lon="-0.19665">
        <ele>17.6</ele>
        <time>2017-05-25T10:28:14Z</time>
      </trkpt>
      <trkpt lat="49.25575" lon="-0.19675">
        <ele>16.3</ele>
        <time>2017-05-25T10:28:20Z</time>
      </trkpt>
      <trkpt lat="49.2557" lon="-0.19683">
        <ele>16.9</ele>
        <time>2017-05-25T10:28:26Z</time>
      </trkpt>
      <trkpt lat="49.25566" lon="-0.19692">
        <ele>16.2</ele>
        <time>2017-05-25T10:28:32Z</time>
      </trkpt>
      <trkpt lat="49.2556" lon="-0.197">
        <ele>17.1</ele>
        <time>2017-05-25T10:28:37Z</time>
      </trkpt>
      <trkpt lat="49.25555" lon="-0.19707">
        <ele>17.9</ele>
        <time>2017-05-25T10:28:43Z</time>
      </trkpt>
      <trkpt lat="49.25548" lon="-0.19713">
        <ele>17</ele>
        <time>2017-05-25T10:28:49Z</time>
      </trkpt>
      <trkpt lat="49.25541" lon="-0.1972">
        <ele>18.4</ele>
        <time>2017-05-25T10:28:55Z</time>
      </trkpt>
      <trkpt lat="49.25535" lon="-0.19727">
        <ele>19.7</ele>
        <time>2017-05-25T10:29:00Z</time>
      </trkpt>
      <trkpt lat="49.2553" lon="-0.19735">
        <ele>21.4</ele>
        <time>2017-05-25T10:29:05Z</time>
      </trkpt>
      <trkpt lat="49.25524" lon="-0.19744">
        <ele>20.2</ele>
        <time>2017-05-25T10:29:10Z</time>
      </trkpt>
      <trkpt lat="49.25521" lon="-0.19749">
        <ele>18.6</ele>
        <time>2017-05-25T10:29:17Z</time>
      </trkpt>
      <trkpt lat="49.25521" lon="-0.19762">
        <ele>19.6</ele>
        <time>2017-05-25T10:29:48Z</time>
      </trkpt>
      <trkpt lat="49.25524" lon="-0.19774">
        <ele>20.5</ele>
        <time>2017-05-25T10:29:54Z</time>
      </trkpt>
      <trkpt lat="49.25528" lon="-0.19783">
        <ele>21</ele>
        <time>2017-05-25T10:29:59Z</time>
      </trkpt>
      <trkpt lat="49.25531" lon="-0.19794">
        <ele>21.7</ele>
        <time>2017-05-25T10:30:05Z</time>
      </trkpt>
      <trkpt lat="49.25532" lon="-0.19805">
        <ele>21.9</ele>
        <time>2017-05-25T10:30:11Z</time>
      </trkpt>
      <trkpt lat="49.25533" lon="-0.19817">
        <ele>21.5</ele>
        <time>2017-05-25T10:30:17Z</time>
      </trkpt>
      <trkpt lat="49.25533" lon="-0.19829">
        <ele>22.7</ele>
        <time>2017-05-25T10:30:22Z</time>
      </trkpt>
      <trkpt lat="49.25535" lon="-0.19841">
        <ele>23.8</ele>
        <time>2017-05-25T10:30:28Z</time>
      </trkpt>
      <trkpt lat="49.25535" lon="-0.19852">
        <ele>22.6</ele>
        <time>2017-05-25T10:30:34Z</time>
      </trkpt>
      <trkpt lat="49.25536" lon="-0.19864">
        <ele>22.5</ele>
        <time>2017-05-25T10:30:40Z</time>
      </trkpt>
      <trkpt lat="49.25538" lon="-0.19877">
        <ele>20.7</ele>
        <time>2017-05-25T10:30:47Z</time>
      </trkpt>
      <trkpt lat="49.25539" lon="-0.19889">
        <ele>18.4</ele>
        <time>2017-05-25T10:30:54Z</time>
      </trkpt>
      <trkpt lat="49.25541" lon="-0.19901">
        <ele>16</ele>
        <time>2017-05-25T10:31:00Z</time>
      </trkpt>
      <trkpt lat="49.25544" lon="-0.19913">
        <ele>16.9</ele>
        <time>2017-05-25T10:31:05Z</time>
      </trkpt>
      <trkpt lat="49.25546" lon="-0.19924">
        <ele>18.2</ele>
        <time>2017-05-25T10:31:11Z</time>
      </trkpt>
      <trkpt lat="49.25548" lon="-0.19936">
        <ele>18.1</ele>
        <time>2017-05-25T10:31:17Z</time>
      </trkpt>
      <trkpt lat="49.25551" lon="-0.19946">
        <ele>18.3</ele>
        <time>2017-05-25T10:31:22Z</time>
      </trkpt>
      <trkpt lat="49.25554" lon="-0.19957">
        <ele>19.3</ele>
        <time>2017-05-25T10:31:28Z</time>
      </trkpt>
      <trkpt lat="49.25556" lon="-0.1997">
        <ele>19.6</ele>
        <time>2017-05-25T10:31:34Z</time>
      </trkpt>
      <trkpt lat="49.25558" lon="-0.19983">
        <ele>20.9</ele>
        <time>2017-05-25T10:31:40Z</time>
      </trkpt>
      <trkpt lat="49.25552" lon="-0.19991">
        <ele>20</ele>
        <time>2017-05-25T10:31:47Z</time>
      </trkpt>
      <trkpt lat="49.25551" lon="-0.19991">
        <ele>19.9</ele>
        <time>2017-05-25T10:31:54Z</time>
      </trkpt>
      <trkpt lat="49.25556" lon="-0.19994">
        <ele>18.6</ele>
        <time>2017-05-25T10:37:48Z</time>
      </trkpt>
      <trkpt lat="49.2556" lon="-0.19999">
        <ele>18.1</ele>
        <time>2017-05-25T10:37:55Z</time>
      </trkpt>
      <trkpt lat="49.25559" lon="-0.2">
        <ele>18.5</ele>
        <time>2017-05-25T10:38:02Z</time>
      </trkpt>
      <trkpt lat="49.25559" lon="-0.20003">
        <ele>13.6</ele>
        <time>2017-05-25T10:42:16Z</time>
      </trkpt>
      <trkpt lat="49.25562" lon="-0.20014">
        <ele>16.3</ele>
        <time>2017-05-25T10:42:21Z</time>
      </trkpt>
      <trkpt lat="49.25563" lon="-0.20026">
        <ele>17</ele>
        <time>2017-05-25T10:42:28Z</time>
      </trkpt>
      <trkpt lat="49.25565" lon="-0.20037">
        <ele>16.4</ele>
        <time>2017-05-25T10:42:35Z</time>
      </trkpt>
      <trkpt lat="49.25569" lon="-0.20047">
        <ele>15.9</ele>
        <time>2017-05-25T10:42:41Z</time>
      </trkpt>
      <trkpt lat="49.25571" lon="-0.20059">
        <ele>16.6</ele>
        <time>2017-05-25T10:42:48Z</time>
      </trkpt>
      <trkpt lat="49.25572" lon="-0.20071">
        <ele>15.9</ele>
        <time>2017-05-25T10:42:55Z</time>
      </trkpt>
      <trkpt lat="49.25574" lon="-0.20081">
        <ele>17.3</ele>
        <time>2017-05-25T10:43:02Z</time>
      </trkpt>
      <trkpt lat="49.25576" lon="-0.20093">
        <ele>17.5</ele>
        <time>2017-05-25T10:43:09Z</time>
      </trkpt>
      <trkpt lat="49.25576" lon="-0.20105">
        <ele>17.2</ele>
        <time>2017-05-25T10:43:15Z</time>
      </trkpt>
      <trkpt lat="49.25578" lon="-0.20114">
        <ele>19.3</ele>
        <time>2017-05-25T10:43:22Z</time>
      </trkpt>
      <trkpt lat="49.2558" lon="-0.20126">
        <ele>19.5</ele>
        <time>2017-05-25T10:43:28Z</time>
      </trkpt>
      <trkpt lat="49.25582" lon="-0.20137">
        <ele>19.9</ele>
        <time>2017-05-25T10:43:34Z</time>
      </trkpt>
      <trkpt lat="49.25583" lon="-0.2015">
        <ele>19.3</ele>
        <time>2017-05-25T10:43:41Z</time>
      </trkpt>
      <trkpt lat="49.25585" lon="-0.2016">
        <ele>19.4</ele>
        <time>2017-05-25T10:43:48Z</time>
      </trkpt>
      <trkpt lat="49.25587" lon="-0.20171">
        <ele>19.6</ele>
        <time>2017-05-25T10:43:55Z</time>
      </trkpt>
      <trkpt lat="49.2559" lon="-0.20181">
        <ele>20.1</ele>
        <time>2017-05-25T10:44:01Z</time>
      </trkpt>
      <trkpt lat="49.25592" lon="-0.20192">
        <ele>21.4</ele>
        <time>2017-05-25T10:44:08Z</time>
      </trkpt>
      <trkpt lat="49.25596" lon="-0.20204">
        <ele>23</ele>
        <time>2017-05-25T10:44:15Z</time>
      </trkpt>
      <trkpt lat="49.25598" lon="-0.20214">
        <ele>24.3</ele>
        <time>2017-05-25T10:44:22Z</time>
      </trkpt>
      <trkpt lat="49.256" lon="-0.20227">
        <ele>24.9</ele>
        <time>2017-05-25T10:44:29Z</time>
      </trkpt>
      <trkpt lat="49.25601" lon="-0.20236">
        <ele>25.2</ele>
        <time>2017-05-25T10:44:36Z</time>
      </trkpt>
      <trkpt lat="49.25604" lon="-0.20244">
        <ele>26.8</ele>
        <time>2017-05-25T10:44:43Z</time>
      </trkpt>
      <trkpt lat="49.25605" lon="-0.20251">
        <ele>28.5</ele>
        <time>2017-05-25T10:44:50Z</time>
      </trkpt>
      <trkpt lat="49.25607" lon="-0.2026">
        <ele>29.6</ele>
        <time>2017-05-25T10:44:57Z</time>
      </trkpt>
      <trkpt lat="49.25609" lon="-0.20271">
        <ele>28.2</ele>
        <time>2017-05-25T10:45:04Z</time>
      </trkpt>
      <trkpt lat="49.25611" lon="-0.20282">
        <ele>26.8</ele>
        <time>2017-05-25T10:45:19Z</time>
      </trkpt>
      <trkpt lat="49.25612" lon="-0.2029">
        <ele>26</ele>
        <time>2017-05-25T10:45:26Z</time>
      </trkpt>
      <trkpt lat="49.25613" lon="-0.20294">
        <ele>24.9</ele>
        <time>2017-05-25T10:45:33Z</time>
      </trkpt>
      <trkpt lat="49.25616" lon="-0.20306">
        <ele>23.2</ele>
        <time>2017-05-25T10:45:44Z</time>
      </trkpt>
      <trkpt lat="49.25618" lon="-0.20315">
        <ele>22.3</ele>
        <time>2017-05-25T10:45:51Z</time>
      </trkpt>
      <trkpt lat="49.2562" lon="-0.20322">
        <ele>21.7</ele>
        <time>2017-05-25T10:45:58Z</time>
      </trkpt>
      <trkpt lat="49.25623" lon="-0.20331">
        <ele>22.7</ele>
        <time>2017-05-25T10:46:05Z</time>
      </trkpt>
      <trkpt lat="49.25624" lon="-0.2034">
        <ele>25.1</ele>
        <time>2017-05-25T10:46:12Z</time>
      </trkpt>
      <trkpt lat="49.25626" lon="-0.20349">
        <ele>24.5</ele>
        <time>2017-05-25T10:46:19Z</time>
      </trkpt>
      <trkpt lat="49.25629" lon="-0.20361">
        <ele>25.2</ele>
        <time>2017-05-25T10:46:26Z</time>
      </trkpt>
      <trkpt lat="49.2563" lon="-0.20372">
        <ele>23.6</ele>
        <time>2017-05-25T10:46:32Z</time>
      </trkpt>
      <trkpt lat="49.25631" lon="-0.20382">
        <ele>23.9</ele>
        <time>2017-05-25T10:46:39Z</time>
      </trkpt>
      <trkpt lat="49.25631" lon="-0.20393">
        <ele>24.9</ele>
        <time>2017-05-25T10:46:46Z</time>
      </trkpt>
      <trkpt lat="49.25632" lon="-0.20401">
        <ele>25.5</ele>
        <time>2017-05-25T10:46:53Z</time>
      </trkpt>
      <trkpt lat="49.25634" lon="-0.20411">
        <ele>26.4</ele>
        <time>2017-05-25T10:47:00Z</time>
      </trkpt>
      <trkpt lat="49.25635" lon="-0.20421">
        <ele>27</ele>
        <time>2017-05-25T10:47:07Z</time>
      </trkpt>
      <trkpt lat="49.25636" lon="-0.20423">
        <ele>27.1</ele>
        <time>2017-05-25T10:47:14Z</time>
      </trkpt>
      <trkpt lat="49.25638" lon="-0.20435">
        <ele>25.1</ele>
        <time>2017-05-25T10:47:24Z</time>
      </trkpt>
      <trkpt lat="49.25641" lon="-0.20446">
        <ele>26.7</ele>
        <time>2017-05-25T10:47:30Z</time>
      </trkpt>
      <trkpt lat="49.25642" lon="-0.20456">
        <ele>27.5</ele>
        <time>2017-05-25T10:47:37Z</time>
      </trkpt>
      <trkpt lat="49.25645" lon="-0.20468">
        <ele>27.7</ele>
        <time>2017-05-25T10:47:43Z</time>
      </trkpt>
      <trkpt lat="49.25646" lon="-0.20477">
        <ele>26.6</ele>
        <time>2017-05-25T10:47:50Z</time>
      </trkpt>
      <trkpt lat="49.25646" lon="-0.20486">
        <ele>25.9</ele>
        <time>2017-05-25T10:47:57Z</time>
      </trkpt>
      <trkpt lat="49.25649" lon="-0.20493">
        <ele>25.7</ele>
        <time>2017-05-25T10:48:04Z</time>
      </trkpt>
      <trkpt lat="49.25653" lon="-0.20504">
        <ele>26.3</ele>
        <time>2017-05-25T10:48:11Z</time>
      </trkpt>
      <trkpt lat="49.25654" lon="-0.20512">
        <ele>26</ele>
        <time>2017-05-25T10:48:18Z</time>
      </trkpt>
      <trkpt lat="49.25662" lon="-0.20511">
        <ele>24.2</ele>
        <time>2017-05-25T10:48:40Z</time>
      </trkpt>
      <trkpt lat="49.25669" lon="-0.20506">
        <ele>22.7</ele>
        <time>2017-05-25T10:48:46Z</time>
      </trkpt>
      <trkpt lat="49.25674" lon="-0.205">
        <ele>21.6</ele>
        <time>2017-05-25T10:48:53Z</time>
      </trkpt>
      <trkpt lat="49.25682" lon="-0.20493">
        <ele>20.7</ele>
        <time>2017-05-25T10:48:59Z</time>
      </trkpt>
      <trkpt lat="49.2569" lon="-0.20487">
        <ele>20.6</ele>
        <time>2017-05-25T10:49:05Z</time>
      </trkpt>
      <trkpt lat="49.25696" lon="-0.20482">
        <ele>21.6</ele>
        <time>2017-05-25T10:49:10Z</time>
      </trkpt>
      <trkpt lat="49.25701" lon="-0.20473">
        <ele>22</ele>
        <time>2017-05-25T10:49:15Z</time>
      </trkpt>
      <trkpt lat="49.25707" lon="-0.20465">
        <ele>21</ele>
        <time>2017-05-25T10:49:20Z</time>
      </trkpt>
      <trkpt lat="49.25713" lon="-0.20457">
        <ele>19.6</ele>
        <time>2017-05-25T10:49:26Z</time>
      </trkpt>
      <trkpt lat="49.2572" lon="-0.20451">
        <ele>19.5</ele>
        <time>2017-05-25T10:49:32Z</time>
      </trkpt>
      <trkpt lat="49.25726" lon="-0.20443">
        <ele>20.3</ele>
        <time>2017-05-25T10:49:38Z</time>
      </trkpt>
      <trkpt lat="49.25732" lon="-0.20436">
        <ele>19.5</ele>
        <time>2017-05-25T10:49:44Z</time>
      </trkpt>
      <trkpt lat="49.25737" lon="-0.20428">
        <ele>20.1</ele>
        <time>2017-05-25T10:49:49Z</time>
      </trkpt>
      <trkpt lat="49.25744" lon="-0.20419">
        <ele>21.4</ele>
        <time>2017-05-25T10:49:55Z</time>
      </trkpt>
      <trkpt lat="49.25751" lon="-0.20412">
        <ele>20.5</ele>
        <time>2017-05-25T10:50:01Z</time>
      </trkpt>
      <trkpt lat="49.25756" lon="-0.20403">
        <ele>20.1</ele>
        <time>2017-05-25T10:50:07Z</time>
      </trkpt>
      <trkpt lat="49.25761" lon="-0.20394">
        <ele>20.6</ele>
        <time>2017-05-25T10:50:12Z</time>
      </trkpt>
      <trkpt lat="49.25767" lon="-0.20387">
        <ele>21.1</ele>
        <time>2017-05-25T10:50:18Z</time>
      </trkpt>
      <trkpt lat="49.25773" lon="-0.2038">
        <ele>19.8</ele>
        <time>2017-05-25T10:50:24Z</time>
      </trkpt>
      <trkpt lat="49.2578" lon="-0.20372">
        <ele>19</ele>
        <time>2017-05-25T10:50:29Z</time>
      </trkpt>
      <trkpt lat="49.25786" lon="-0.20366">
        <ele>17.9</ele>
        <time>2017-05-25T10:50:34Z</time>
      </trkpt>
      <trkpt lat="49.25792" lon="-0.20357">
        <ele>19.3</ele>
        <time>2017-05-25T10:50:40Z</time>
      </trkpt>
      <trkpt lat="49.25798" lon="-0.20349">
        <ele>20.4</ele>
        <time>2017-05-25T10:50:45Z</time>
      </trkpt>
      <trkpt lat="49.25805" lon="-0.20342">
        <ele>19.1</ele>
        <time>2017-05-25T10:50:51Z</time>
      </trkpt>
      <trkpt lat="49.25812" lon="-0.20335">
        <ele>17.2</ele>
        <time>2017-05-25T10:50:56Z</time>
      </trkpt>
      <trkpt lat="49.25819" lon="-0.20329">
        <ele>16.5</ele>
        <time>2017-05-25T10:51:02Z</time>
      </trkpt>
      <trkpt lat="49.25824" lon="-0.20321">
        <ele>17</ele>
        <time>2017-05-25T10:51:08Z</time>
      </trkpt>
      <trkpt lat="49.25831" lon="-0.20313">
        <ele>16.8</ele>
        <time>2017-05-25T10:51:14Z</time>
      </trkpt>
      <trkpt lat="49.25837" lon="-0.20305">
        <ele>16.9</ele>
        <time>2017-05-25T10:51:20Z</time>
      </trkpt>
      <trkpt lat="49.25843" lon="-0.20299">
        <ele>15.3</ele>
        <time>2017-05-25T10:51:26Z</time>
      </trkpt>
      <trkpt lat="49.2585" lon="-0.20292">
        <ele>12.5</ele>
        <time>2017-05-25T10:51:33Z</time>
      </trkpt>
      <trkpt lat="49.25857" lon="-0.20288">
        <ele>11.5</ele>
        <time>2017-05-25T10:51:38Z</time>
      </trkpt>
      <trkpt lat="49.25864" lon="-0.20283">
        <ele>11.2</ele>
        <time>2017-05-25T10:51:44Z</time>
      </trkpt>
      <trkpt lat="49.2587" lon="-0.20276">
        <ele>11.1</ele>
        <time>2017-05-25T10:51:49Z</time>
      </trkpt>
      <trkpt lat="49.25876" lon="-0.20269">
        <ele>11.5</ele>
        <time>2017-05-25T10:51:54Z</time>
      </trkpt>
      <trkpt lat="49.25882" lon="-0.20262">
        <ele>12.9</ele>
        <time>2017-05-25T10:51:59Z</time>
      </trkpt>
      <trkpt lat="49.25888" lon="-0.20255">
        <ele>14.9</ele>
        <time>2017-05-25T10:52:05Z</time>
      </trkpt>
      <trkpt lat="49.25896" lon="-0.20248">
        <ele>14.2</ele>
        <time>2017-05-25T10:52:11Z</time>
      </trkpt>
      <trkpt lat="49.25902" lon="-0.20241">
        <ele>15</ele>
        <time>2017-05-25T10:52:17Z</time>
      </trkpt>
      <trkpt lat="49.25909" lon="-0.20234">
        <ele>15.6</ele>
        <time>2017-05-25T10:52:22Z</time>
      </trkpt>
      <trkpt lat="49.25916" lon="-0.20227">
        <ele>11.9</ele>
        <time>2017-05-25T10:52:27Z</time>
      </trkpt>
      <trkpt lat="49.25921" lon="-0.20219">
        <ele>10.4</ele>
        <time>2017-05-25T10:52:32Z</time>
      </trkpt>
      <trkpt lat="49.25927" lon="-0.20209">
        <ele>9.4</ele>
        <time>2017-05-25T10:52:38Z</time>
      </trkpt>
      <trkpt lat="49.25933" lon="-0.20202">
        <ele>9</ele>
        <time>2017-05-25T10:52:44Z</time>
      </trkpt>
      <trkpt lat="49.25939" lon="-0.20193">
        <ele>9.1</ele>
        <time>2017-05-25T10:52:50Z</time>
      </trkpt>
      <trkpt lat="49.25944" lon="-0.20185">
        <ele>9.5</ele>
        <time>2017-05-25T10:52:55Z</time>
      </trkpt>
      <trkpt lat="49.2595" lon="-0.20177">
        <ele>8.9</ele>
        <time>2017-05-25T10:53:00Z</time>
      </trkpt>
      <trkpt lat="49.25956" lon="-0.20169">
        <ele>9.7</ele>
        <time>2017-05-25T10:53:06Z</time>
      </trkpt>
      <trkpt lat="49.25963" lon="-0.20162">
        <ele>11.1</ele>
        <time>2017-05-25T10:53:12Z</time>
      </trkpt>
      <trkpt lat="49.25969" lon="-0.20153">
        <ele>11.4</ele>
        <time>2017-05-25T10:53:18Z</time>
      </trkpt>
      <trkpt lat="49.25976" lon="-0.20146">
        <ele>11.9</ele>
        <time>2017-05-25T10:53:24Z</time>
      </trkpt>
      <trkpt lat="49.25983" lon="-0.20138">
        <ele>11.7</ele>
        <time>2017-05-25T10:53:30Z</time>
      </trkpt>
      <trkpt lat="49.25989" lon="-0.20132">
        <ele>8.3</ele>
        <time>2017-05-25T10:53:36Z</time>
      </trkpt>
      <trkpt lat="49.25995" lon="-0.20124">
        <ele>7.3</ele>
        <time>2017-05-25T10:53:42Z</time>
      </trkpt>
      <trkpt lat="49.26001" lon="-0.20114">
        <ele>6.9</ele>
        <time>2017-05-25T10:53:48Z</time>
      </trkpt>
      <trkpt lat="49.26006" lon="-0.20106">
        <ele>11</ele>
        <time>2017-05-25T10:53:54Z</time>
      </trkpt>
      <trkpt lat="49.2601" lon="-0.20098">
        <ele>12.5</ele>
        <time>2017-05-25T10:54:00Z</time>
      </trkpt>
      <trkpt lat="49.26018" lon="-0.20091">
        <ele>14.7</ele>
        <time>2017-05-25T10:54:07Z</time>
      </trkpt>
      <trkpt lat="49.26021" lon="-0.2008">
        <ele>17.7</ele>
        <time>2017-05-25T10:54:13Z</time>
      </trkpt>
      <trkpt lat="49.26022" lon="-0.20073">
        <ele>18.1</ele>
        <time>2017-05-25T10:54:20Z</time>
      </trkpt>
      <trkpt lat="49.26028" lon="-0.20064">
        <ele>18</ele>
        <time>2017-05-25T10:54:27Z</time>
      </trkpt>
      <trkpt lat="49.26031" lon="-0.20053">
        <ele>17.4</ele>
        <time>2017-05-25T10:54:32Z</time>
      </trkpt>
      <trkpt lat="49.26036" lon="-0.20045">
        <ele>16</ele>
        <time>2017-05-25T10:54:37Z</time>
      </trkpt>
      <trkpt lat="49.26041" lon="-0.20038">
        <ele>16.2</ele>
        <time>2017-05-25T10:54:43Z</time>
      </trkpt>
      <trkpt lat="49.26047" lon="-0.20027">
        <ele>15.2</ele>
        <time>2017-05-25T10:54:50Z</time>
      </trkpt>
      <trkpt lat="49.26052" lon="-0.20017">
        <ele>15.9</ele>
        <time>2017-05-25T10:54:56Z</time>
      </trkpt>
      <trkpt lat="49.26057" lon="-0.20008">
        <ele>13.5</ele>
        <time>2017-05-25T10:55:01Z</time>
      </trkpt>
      <trkpt lat="49.26062" lon="-0.19999">
        <ele>16.2</ele>
        <time>2017-05-25T10:55:07Z</time>
      </trkpt>
      <trkpt lat="49.26068" lon="-0.19991">
        <ele>16.1</ele>
        <time>2017-05-25T10:55:12Z</time>
      </trkpt>
      <trkpt lat="49.26073" lon="-0.19983">
        <ele>15</ele>
        <time>2017-05-25T10:55:17Z</time>
      </trkpt>
      <trkpt lat="49.26078" lon="-0.19973">
        <ele>18.3</ele>
        <time>2017-05-25T10:55:23Z</time>
      </trkpt>
      <trkpt lat="49.26084" lon="-0.19966">
        <ele>15.7</ele>
        <time>2017-05-25T10:55:28Z</time>
      </trkpt>
      <trkpt lat="49.2609" lon="-0.19957">
        <ele>13.2</ele>
        <time>2017-05-25T10:55:34Z</time>
      </trkpt>
      <trkpt lat="49.26095" lon="-0.1995">
        <ele>12.6</ele>
        <time>2017-05-25T10:55:39Z</time>
      </trkpt>
      <trkpt lat="49.26101" lon="-0.1994">
        <ele>13.2</ele>
        <time>2017-05-25T10:55:45Z</time>
      </trkpt>
      <trkpt lat="49.26107" lon="-0.19931">
        <ele>11</ele>
        <time>2017-05-25T10:55:51Z</time>
      </trkpt>
      <trkpt lat="49.26112" lon="-0.19922">
        <ele>11.9</ele>
        <time>2017-05-25T10:55:57Z</time>
      </trkpt>
      <trkpt lat="49.26117" lon="-0.19912">
        <ele>11.4</ele>
        <time>2017-05-25T10:56:03Z</time>
      </trkpt>
      <trkpt lat="49.26123" lon="-0.19902">
        <ele>11.6</ele>
        <time>2017-05-25T10:56:10Z</time>
      </trkpt>
      <trkpt lat="49.26129" lon="-0.19894">
        <ele>13.1</ele>
        <time>2017-05-25T10:56:16Z</time>
      </trkpt>
      <trkpt lat="49.26135" lon="-0.19886">
        <ele>13.8</ele>
        <time>2017-05-25T10:56:22Z</time>
      </trkpt>
      <trkpt lat="49.2614" lon="-0.19877">
        <ele>13.7</ele>
        <time>2017-05-25T10:56:28Z</time>
      </trkpt>
      <trkpt lat="49.26145" lon="-0.19868">
        <ele>15.3</ele>
        <time>2017-05-25T10:56:34Z</time>
      </trkpt>
      <trkpt lat="49.2615" lon="-0.1986">
        <ele>15.4</ele>
        <time>2017-05-25T10:56:40Z</time>
      </trkpt>
      <trkpt lat="49.26156" lon="-0.1985">
        <ele>14.4</ele>
        <time>2017-05-25T10:56:46Z</time>
      </trkpt>
      <trkpt lat="49.26162" lon="-0.19843">
        <ele>14.3</ele>
        <time>2017-05-25T10:56:52Z</time>
      </trkpt>
      <trkpt lat="49.26168" lon="-0.19834">
        <ele>14.1</ele>
        <time>2017-05-25T10:56:58Z</time>
      </trkpt>
      <trkpt lat="49.26174" lon="-0.19827">
        <ele>13.7</ele>
        <time>2017-05-25T10:57:04Z</time>
      </trkpt>
      <trkpt lat="49.2618" lon="-0.19818">
        <ele>15</ele>
        <time>2017-05-25T10:57:10Z</time>
      </trkpt>
      <trkpt lat="49.26185" lon="-0.19811">
        <ele>13.9</ele>
        <time>2017-05-25T10:57:16Z</time>
      </trkpt>
      <trkpt lat="49.26192" lon="-0.19802">
        <ele>14.9</ele>
        <time>2017-05-25T10:57:22Z</time>
      </trkpt>
      <trkpt lat="49.26198" lon="-0.19794">
        <ele>15.4</ele>
        <time>2017-05-25T10:57:28Z</time>
      </trkpt>
      <trkpt lat="49.26204" lon="-0.19788">
        <ele>14.1</ele>
        <time>2017-05-25T10:57:34Z</time>
      </trkpt>
      <trkpt lat="49.26209" lon="-0.19783">
        <ele>17.1</ele>
        <time>2017-05-25T10:57:40Z</time>
      </trkpt>
      <trkpt lat="49.26216" lon="-0.19788">
        <ele>17.7</ele>
        <time>2017-05-25T10:57:47Z</time>
      </trkpt>
      <trkpt lat="49.2622" lon="-0.19799">
        <ele>17.3</ele>
        <time>2017-05-25T10:57:53Z</time>
      </trkpt>
      <trkpt lat="49.26222" lon="-0.19809">
        <ele>17.4</ele>
        <time>2017-05-25T10:57:58Z</time>
      </trkpt>
      <trkpt lat="49.26226" lon="-0.1982">
        <ele>18</ele>
        <time>2017-05-25T10:58:04Z</time>
      </trkpt>
      <trkpt lat="49.26228" lon="-0.1983">
        <ele>16.9</ele>
        <time>2017-05-25T10:58:09Z</time>
      </trkpt>
      <trkpt lat="49.26229" lon="-0.19841">
        <ele>14.1</ele>
        <time>2017-05-25T10:58:14Z</time>
      </trkpt>
      <trkpt lat="49.2623" lon="-0.19853">
        <ele>14.6</ele>
        <time>2017-05-25T10:58:20Z</time>
      </trkpt>
      <trkpt lat="49.26233" lon="-0.19866">
        <ele>15.4</ele>
        <time>2017-05-25T10:58:26Z</time>
      </trkpt>
      <trkpt lat="49.26235" lon="-0.19876">
        <ele>15.4</ele>
        <time>2017-05-25T10:58:31Z</time>
      </trkpt>
      <trkpt lat="49.26238" lon="-0.19887">
        <ele>15.8</ele>
        <time>2017-05-25T10:58:37Z</time>
      </trkpt>
      <trkpt lat="49.2624" lon="-0.19899">
        <ele>14.9</ele>
        <time>2017-05-25T10:58:43Z</time>
      </trkpt>
      <trkpt lat="49.26243" lon="-0.19911">
        <ele>14.3</ele>
        <time>2017-05-25T10:58:48Z</time>
      </trkpt>
      <trkpt lat="49.26245" lon="-0.19921">
        <ele>14.2</ele>
        <time>2017-05-25T10:58:53Z</time>
      </trkpt>
      <trkpt lat="49.26248" lon="-0.19933">
        <ele>15</ele>
        <time>2017-05-25T10:58:59Z</time>
      </trkpt>
      <trkpt lat="49.26252" lon="-0.19944">
        <ele>16.3</ele>
        <time>2017-05-25T10:59:05Z</time>
      </trkpt>
      <trkpt lat="49.26253" lon="-0.19955">
        <ele>17.6</ele>
        <time>2017-05-25T10:59:10Z</time>
      </trkpt>
      <trkpt lat="49.26256" lon="-0.19968">
        <ele>18.1</ele>
        <time>2017-05-25T10:59:16Z</time>
      </trkpt>
      <trkpt lat="49.26258" lon="-0.1998">
        <ele>18.7</ele>
        <time>2017-05-25T10:59:22Z</time>
      </trkpt>
      <trkpt lat="49.26261" lon="-0.19992">
        <ele>19.2</ele>
        <time>2017-05-25T10:59:28Z</time>
      </trkpt>
      <trkpt lat="49.26263" lon="-0.20003">
        <ele>20.2</ele>
        <time>2017-05-25T10:59:33Z</time>
      </trkpt>
      <trkpt lat="49.26262" lon="-0.20015">
        <ele>21</ele>
        <time>2017-05-25T10:59:39Z</time>
      </trkpt>
      <trkpt lat="49.26263" lon="-0.20027">
        <ele>20.9</ele>
        <time>2017-05-25T10:59:45Z</time>
      </trkpt>
      <trkpt lat="49.26264" lon="-0.20038">
        <ele>20.1</ele>
        <time>2017-05-25T10:59:50Z</time>
      </trkpt>
      <trkpt lat="49.26266" lon="-0.20051">
        <ele>22.5</ele>
        <time>2017-05-25T10:59:55Z</time>
      </trkpt>
      <trkpt lat="49.26268" lon="-0.20063">
        <ele>23.4</ele>
        <time>2017-05-25T11:00:01Z</time>
      </trkpt>
      <trkpt lat="49.2627" lon="-0.20075">
        <ele>24.2</ele>
        <time>2017-05-25T11:00:07Z</time>
      </trkpt>
      <trkpt lat="49.26271" lon="-0.20085">
        <ele>24.9</ele>
        <time>2017-05-25T11:00:12Z</time>
      </trkpt>
      <trkpt lat="49.26271" lon="-0.20097">
        <ele>25.8</ele>
        <time>2017-05-25T11:00:17Z</time>
      </trkpt>
      <trkpt lat="49.2627" lon="-0.20108">
        <ele>24.1</ele>
        <time>2017-05-25T11:00:22Z</time>
      </trkpt>
      <trkpt lat="49.26272" lon="-0.20121">
        <ele>27.8</ele>
        <time>2017-05-25T11:00:28Z</time>
      </trkpt>
      <trkpt lat="49.26271" lon="-0.20132">
        <ele>30.2</ele>
        <time>2017-05-25T11:00:34Z</time>
      </trkpt>
      <trkpt lat="49.26271" lon="-0.20144">
        <ele>29.3</ele>
        <time>2017-05-25T11:00:39Z</time>
      </trkpt>
      <trkpt lat="49.2627" lon="-0.20155">
        <ele>26.8</ele>
        <time>2017-05-25T11:00:44Z</time>
      </trkpt>
      <trkpt lat="49.26271" lon="-0.20166">
        <ele>27.4</ele>
        <time>2017-05-25T11:00:50Z</time>
      </trkpt>
      <trkpt lat="49.26273" lon="-0.20178">
        <ele>27.6</ele>
        <time>2017-05-25T11:00:56Z</time>
      </trkpt>
      <trkpt lat="49.26272" lon="-0.20191">
        <ele>27.2</ele>
        <time>2017-05-25T11:01:02Z</time>
      </trkpt>
      <trkpt lat="49.26271" lon="-0.20202">
        <ele>26.4</ele>
        <time>2017-05-25T11:01:08Z</time>
      </trkpt>
      <trkpt lat="49.2627" lon="-0.20216">
        <ele>27.5</ele>
        <time>2017-05-25T11:01:14Z</time>
      </trkpt>
      <trkpt lat="49.26271" lon="-0.20227">
        <ele>27.3</ele>
        <time>2017-05-25T11:01:19Z</time>
      </trkpt>
      <trkpt lat="49.2627" lon="-0.20238">
        <ele>26.2</ele>
        <time>2017-05-25T11:01:25Z</time>
      </trkpt>
      <trkpt lat="49.2627" lon="-0.2025">
        <ele>26.2</ele>
        <time>2017-05-25T11:01:30Z</time>
      </trkpt>
      <trkpt lat="49.2627" lon="-0.20262">
        <ele>26.5</ele>
        <time>2017-05-25T11:01:36Z</time>
      </trkpt>
      <trkpt lat="49.2627" lon="-0.20274">
        <ele>26.8</ele>
        <time>2017-05-25T11:01:41Z</time>
      </trkpt>
      <trkpt lat="49.26271" lon="-0.20285">
        <ele>25.8</ele>
        <time>2017-05-25T11:01:46Z</time>
      </trkpt>
      <trkpt lat="49.26271" lon="-0.20296">
        <ele>25.6</ele>
        <time>2017-05-25T11:01:52Z</time>
      </trkpt>
      <trkpt lat="49.26271" lon="-0.20309">
        <ele>23.6</ele>
        <time>2017-05-25T11:01:58Z</time>
      </trkpt>
      <trkpt lat="49.26273" lon="-0.2032">
        <ele>22.7</ele>
        <time>2017-05-25T11:02:03Z</time>
      </trkpt>
      <trkpt lat="49.26275" lon="-0.20331">
        <ele>21.2</ele>
        <time>2017-05-25T11:02:09Z</time>
      </trkpt>
      <trkpt lat="49.26278" lon="-0.20343">
        <ele>20.9</ele>
        <time>2017-05-25T11:02:15Z</time>
      </trkpt>
      <trkpt lat="49.2628" lon="-0.20355">
        <ele>20.8</ele>
        <time>2017-05-25T11:02:21Z</time>
      </trkpt>
      <trkpt lat="49.2628" lon="-0.20366">
        <ele>18.9</ele>
        <time>2017-05-25T11:02:26Z</time>
      </trkpt>
      <trkpt lat="49.26281" lon="-0.20379">
        <ele>19.7</ele>
        <time>2017-05-25T11:02:33Z</time>
      </trkpt>
      <trkpt lat="49.26283" lon="-0.2039">
        <ele>19.6</ele>
        <time>2017-05-25T11:02:38Z</time>
      </trkpt>
      <trkpt lat="49.26285" lon="-0.204">
        <ele>19.7</ele>
        <time>2017-05-25T11:02:42Z</time>
      </trkpt>
      <trkpt lat="49.26287" lon="-0.20412">
        <ele>21.7</ele>
        <time>2017-05-25T11:02:48Z</time>
      </trkpt>
      <trkpt lat="49.26288" lon="-0.20424">
        <ele>21.1</ele>
        <time>2017-05-25T11:02:54Z</time>
      </trkpt>
      <trkpt lat="49.26289" lon="-0.20436">
        <ele>20.2</ele>
        <time>2017-05-25T11:02:59Z</time>
      </trkpt>
      <trkpt lat="49.2629" lon="-0.20447">
        <ele>19.2</ele>
        <time>2017-05-25T11:03:05Z</time>
      </trkpt>
      <trkpt lat="49.26292" lon="-0.20459">
        <ele>19.2</ele>
        <time>2017-05-25T11:03:11Z</time>
      </trkpt>
      <trkpt lat="49.26292" lon="-0.2047">
        <ele>20.5</ele>
        <time>2017-05-25T11:03:16Z</time>
      </trkpt>
      <trkpt lat="49.26296" lon="-0.20481">
        <ele>21.8</ele>
        <time>2017-05-25T11:03:21Z</time>
      </trkpt>
      <trkpt lat="49.26297" lon="-0.20491">
        <ele>20.1</ele>
        <time>2017-05-25T11:03:27Z</time>
      </trkpt>
      <trkpt lat="49.26298" lon="-0.20503">
        <ele>20.7</ele>
        <time>2017-05-25T11:03:33Z</time>
      </trkpt>
      <trkpt lat="49.26299" lon="-0.20514">
        <ele>19.8</ele>
        <time>2017-05-25T11:03:39Z</time>
      </trkpt>
      <trkpt lat="49.26299" lon="-0.20527">
        <ele>19.2</ele>
        <time>2017-05-25T11:03:45Z</time>
      </trkpt>
      <trkpt lat="49.26299" lon="-0.2054">
        <ele>19</ele>
        <time>2017-05-25T11:03:51Z</time>
      </trkpt>
      <trkpt lat="49.26295" lon="-0.20546">
        <ele>17.5</ele>
        <time>2017-05-25T11:03:58Z</time>
      </trkpt>
      <trkpt lat="49.26287" lon="-0.20548">
        <ele>14.9</ele>
        <time>2017-05-25T11:04:04Z</time>
      </trkpt>
      <trkpt lat="49.26279" lon="-0.2055">
        <ele>13.4</ele>
        <time>2017-05-25T11:04:11Z</time>
      </trkpt>
      <trkpt lat="49.26272" lon="-0.20558">
        <ele>11.8</ele>
        <time>2017-05-25T11:04:17Z</time>
      </trkpt>
      <trkpt lat="49.26271" lon="-0.2057">
        <ele>12.4</ele>
        <time>2017-05-25T11:04:22Z</time>
      </trkpt>
      <trkpt lat="49.26273" lon="-0.20582">
        <ele>14.2</ele>
        <time>2017-05-25T11:04:27Z</time>
      </trkpt>
      <trkpt lat="49.26275" lon="-0.20593">
        <ele>15.6</ele>
        <time>2017-05-25T11:04:33Z</time>
      </trkpt>
      <trkpt lat="49.26279" lon="-0.20604">
        <ele>18.5</ele>
        <time>2017-05-25T11:04:40Z</time>
      </trkpt>
      <trkpt lat="49.26282" lon="-0.20615">
        <ele>20</ele>
        <time>2017-05-25T11:04:47Z</time>
      </trkpt>
      <trkpt lat="49.26287" lon="-0.20625">
        <ele>18.8</ele>
        <time>2017-05-25T11:04:53Z</time>
      </trkpt>
      <trkpt lat="49.2629" lon="-0.20637">
        <ele>18.7</ele>
        <time>2017-05-25T11:04:59Z</time>
      </trkpt>
      <trkpt lat="49.26294" lon="-0.20648">
        <ele>18</ele>
        <time>2017-05-25T11:05:05Z</time>
      </trkpt>
      <trkpt lat="49.26298" lon="-0.2066">
        <ele>16</ele>
        <time>2017-05-25T11:05:11Z</time>
      </trkpt>
      <trkpt lat="49.263" lon="-0.20671">
        <ele>15.2</ele>
        <time>2017-05-25T11:05:16Z</time>
      </trkpt>
      <trkpt lat="49.26304" lon="-0.2068">
        <ele>15</ele>
        <time>2017-05-25T11:05:21Z</time>
      </trkpt>
      <trkpt lat="49.26308" lon="-0.20691">
        <ele>14.8</ele>
        <time>2017-05-25T11:05:26Z</time>
      </trkpt>
      <trkpt lat="49.26313" lon="-0.20702">
        <ele>14</ele>
        <time>2017-05-25T11:05:31Z</time>
      </trkpt>
      <trkpt lat="49.26317" lon="-0.20711">
        <ele>14.1</ele>
        <time>2017-05-25T11:05:36Z</time>
      </trkpt>
      <trkpt lat="49.26321" lon="-0.20721">
        <ele>13.5</ele>
        <time>2017-05-25T11:05:41Z</time>
      </trkpt>
      <trkpt lat="49.26325" lon="-0.20732">
        <ele>13.4</ele>
        <time>2017-05-25T11:05:46Z</time>
      </trkpt>
      <trkpt lat="49.26329" lon="-0.20743">
        <ele>13.6</ele>
        <time>2017-05-25T11:05:52Z</time>
      </trkpt>
      <trkpt lat="49.26333" lon="-0.20752">
        <ele>13.9</ele>
        <time>2017-05-25T11:05:57Z</time>
      </trkpt>
      <trkpt lat="49.26337" lon="-0.20762">
        <ele>15.9</ele>
        <time>2017-05-25T11:06:03Z</time>
      </trkpt>
      <trkpt lat="49.26341" lon="-0.20774">
        <ele>17.6</ele>
        <time>2017-05-25T11:06:09Z</time>
      </trkpt>
      <trkpt lat="49.26345" lon="-0.20784">
        <ele>16.8</ele>
        <time>2017-05-25T11:06:15Z</time>
      </trkpt>
      <trkpt lat="49.26349" lon="-0.20794">
        <ele>16.8</ele>
        <time>2017-05-25T11:06:21Z</time>
      </trkpt>
      <trkpt lat="49.26347" lon="-0.20806">
        <ele>18.5</ele>
        <time>2017-05-25T11:06:28Z</time>
      </trkpt>
      <trkpt lat="49.26341" lon="-0.20815">
        <ele>19.4</ele>
        <time>2017-05-25T11:06:34Z</time>
      </trkpt>
      <trkpt lat="49.26337" lon="-0.20824">
        <ele>19.4</ele>
        <time>2017-05-25T11:06:40Z</time>
      </trkpt>
      <trkpt lat="49.2633" lon="-0.20831">
        <ele>19</ele>
        <time>2017-05-25T11:06:46Z</time>
      </trkpt>
      <trkpt lat="49.26325" lon="-0.20837">
        <ele>19</ele>
        <time>2017-05-25T11:06:53Z</time>
      </trkpt>
      <trkpt lat="49.26321" lon="-0.20846">
        <ele>18.3</ele>
        <time>2017-05-25T11:07:00Z</time>
      </trkpt>
      <trkpt lat="49.26315" lon="-0.20852">
        <ele>18.8</ele>
        <time>2017-05-25T11:07:07Z</time>
      </trkpt>
      <trkpt lat="49.2631" lon="-0.20861">
        <ele>19.2</ele>
        <time>2017-05-25T11:07:14Z</time>
      </trkpt>
      <trkpt lat="49.26303" lon="-0.20867">
        <ele>18.6</ele>
        <time>2017-05-25T11:07:20Z</time>
      </trkpt>
      <trkpt lat="49.26297" lon="-0.20874">
        <ele>15.9</ele>
        <time>2017-05-25T11:07:25Z</time>
      </trkpt>
      <trkpt lat="49.2629" lon="-0.20879">
        <ele>15.1</ele>
        <time>2017-05-25T11:07:29Z</time>
      </trkpt>
      <trkpt lat="49.26283" lon="-0.20885">
        <ele>14.9</ele>
        <time>2017-05-25T11:07:34Z</time>
      </trkpt>
      <trkpt lat="49.26275" lon="-0.2089">
        <ele>14.3</ele>
        <time>2017-05-25T11:07:40Z</time>
      </trkpt>
      <trkpt lat="49.26269" lon="-0.20896">
        <ele>13.5</ele>
        <time>2017-05-25T11:07:46Z</time>
      </trkpt>
      <trkpt lat="49.26259" lon="-0.20904">
        <ele>10.4</ele>
        <time>2017-05-25T11:07:52Z</time>
      </trkpt>
      <trkpt lat="49.26252" lon="-0.20908">
        <ele>8.3</ele>
        <time>2017-05-25T11:07:56Z</time>
      </trkpt>
      <trkpt lat="49.26245" lon="-0.20913">
        <ele>7.1</ele>
        <time>2017-05-25T11:08:00Z</time>
      </trkpt>
      <trkpt lat="49.26239" lon="-0.20921">
        <ele>7.8</ele>
        <time>2017-05-25T11:08:06Z</time>
      </trkpt>
      <trkpt lat="49.26233" lon="-0.20928">
        <ele>8.7</ele>
        <time>2017-05-25T11:08:13Z</time>
      </trkpt>
      <trkpt lat="49.26225" lon="-0.20935">
        <ele>9</ele>
        <time>2017-05-25T11:08:20Z</time>
      </trkpt>
      <trkpt lat="49.26218" lon="-0.20937">
        <ele>10.1</ele>
        <time>2017-05-25T11:08:25Z</time>
      </trkpt>
      <trkpt lat="49.2621" lon="-0.20944">
        <ele>12.1</ele>
        <time>2017-05-25T11:08:30Z</time>
      </trkpt>
      <trkpt lat="49.26203" lon="-0.20951">
        <ele>12.1</ele>
        <time>2017-05-25T11:08:36Z</time>
      </trkpt>
      <trkpt lat="49.26197" lon="-0.20959">
        <ele>12.6</ele>
        <time>2017-05-25T11:08:41Z</time>
      </trkpt>
      <trkpt lat="49.26189" lon="-0.20963">
        <ele>14.6</ele>
        <time>2017-05-25T11:08:47Z</time>
      </trkpt>
      <trkpt lat="49.26183" lon="-0.20968">
        <ele>15.5</ele>
        <time>2017-05-25T11:08:53Z</time>
      </trkpt>
      <trkpt lat="49.26177" lon="-0.20977">
        <ele>16.7</ele>
        <time>2017-05-25T11:08:59Z</time>
      </trkpt>
      <trkpt lat="49.26171" lon="-0.20983">
        <ele>18.5</ele>
        <time>2017-05-25T11:09:05Z</time>
      </trkpt>
      <trkpt lat="49.26164" lon="-0.20991">
        <ele>22.2</ele>
        <time>2017-05-25T11:09:11Z</time>
      </trkpt>
      <trkpt lat="49.26163" lon="-0.21002">
        <ele>25</ele>
        <time>2017-05-25T11:09:17Z</time>
      </trkpt>
      <trkpt lat="49.26165" lon="-0.21014">
        <ele>22.6</ele>
        <time>2017-05-25T11:09:24Z</time>
      </trkpt>
      <trkpt lat="49.26169" lon="-0.21024">
        <ele>22</ele>
        <time>2017-05-25T11:09:31Z</time>
      </trkpt>
      <trkpt lat="49.26174" lon="-0.21033">
        <ele>23.3</ele>
        <time>2017-05-25T11:09:38Z</time>
      </trkpt>
      <trkpt lat="49.26179" lon="-0.21042">
        <ele>23</ele>
        <time>2017-05-25T11:09:44Z</time>
      </trkpt>
      <trkpt lat="49.26185" lon="-0.21051">
        <ele>23.3</ele>
        <time>2017-05-25T11:09:50Z</time>
      </trkpt>
      <trkpt lat="49.2619" lon="-0.2106">
        <ele>23.2</ele>
        <time>2017-05-25T11:09:55Z</time>
      </trkpt>
      <trkpt lat="49.26192" lon="-0.21071">
        <ele>24.9</ele>
        <time>2017-05-25T11:10:00Z</time>
      </trkpt>
      <trkpt lat="49.26189" lon="-0.21082">
        <ele>25.2</ele>
        <time>2017-05-25T11:10:05Z</time>
      </trkpt>
      <trkpt lat="49.26186" lon="-0.21093">
        <ele>26.2</ele>
        <time>2017-05-25T11:10:10Z</time>
      </trkpt>
      <trkpt lat="49.26182" lon="-0.21102">
        <ele>28.2</ele>
        <time>2017-05-25T11:10:16Z</time>
      </trkpt>
      <trkpt lat="49.26178" lon="-0.21113">
        <ele>26.5</ele>
        <time>2017-05-25T11:10:22Z</time>
      </trkpt>
      <trkpt lat="49.26171" lon="-0.21121">
        <ele>26.2</ele>
        <time>2017-05-25T11:10:27Z</time>
      </trkpt>
      <trkpt lat="49.26166" lon="-0.2113">
        <ele>24.3</ele>
        <time>2017-05-25T11:10:33Z</time>
      </trkpt>
      <trkpt lat="49.26161" lon="-0.2114">
        <ele>23.9</ele>
        <time>2017-05-25T11:10:39Z</time>
      </trkpt>
      <trkpt lat="49.26157" lon="-0.21149">
        <ele>25.8</ele>
        <time>2017-05-25T11:10:45Z</time>
      </trkpt>
      <trkpt lat="49.26153" lon="-0.21159">
        <ele>29</ele>
        <time>2017-05-25T11:10:50Z</time>
      </trkpt>
      <trkpt lat="49.26148" lon="-0.21168">
        <ele>30.4</ele>
        <time>2017-05-25T11:10:56Z</time>
      </trkpt>
      <trkpt lat="49.26144" lon="-0.21178">
        <ele>32.3</ele>
        <time>2017-05-25T11:11:02Z</time>
      </trkpt>
      <trkpt lat="49.2614" lon="-0.2119">
        <ele>29.9</ele>
        <time>2017-05-25T11:11:08Z</time>
      </trkpt>
      <trkpt lat="49.26137" lon="-0.21201">
        <ele>28.5</ele>
        <time>2017-05-25T11:11:14Z</time>
      </trkpt>
      <trkpt lat="49.26133" lon="-0.21212">
        <ele>26.2</ele>
        <time>2017-05-25T11:11:19Z</time>
      </trkpt>
      <trkpt lat="49.26134" lon="-0.21223">
        <ele>24.9</ele>
        <time>2017-05-25T11:11:25Z</time>
      </trkpt>
      <trkpt lat="49.26137" lon="-0.21233">
        <ele>23.3</ele>
        <time>2017-05-25T11:11:31Z</time>
      </trkpt>
      <trkpt lat="49.26141" lon="-0.21243">
        <ele>22.1</ele>
        <time>2017-05-25T11:11:36Z</time>
      </trkpt>
      <trkpt lat="49.26144" lon="-0.21255">
        <ele>21</ele>
        <time>2017-05-25T11:11:41Z</time>
      </trkpt>
      <trkpt lat="49.26147" lon="-0.21265">
        <ele>20.5</ele>
        <time>2017-05-25T11:11:46Z</time>
      </trkpt>
      <trkpt lat="49.26153" lon="-0.21274">
        <ele>20.5</ele>
        <time>2017-05-25T11:11:52Z</time>
      </trkpt>
      <trkpt lat="49.26157" lon="-0.21284">
        <ele>20.2</ele>
        <time>2017-05-25T11:11:58Z</time>
      </trkpt>
      <trkpt lat="49.26164" lon="-0.21292">
        <ele>19.4</ele>
        <time>2017-05-25T11:12:04Z</time>
      </trkpt>
      <trkpt lat="49.2617" lon="-0.21301">
        <ele>17.7</ele>
        <time>2017-05-25T11:12:10Z</time>
      </trkpt>
      <trkpt lat="49.26176" lon="-0.21307">
        <ele>15.9</ele>
        <time>2017-05-25T11:12:16Z</time>
      </trkpt>
      <trkpt lat="49.26182" lon="-0.21315">
        <ele>15.5</ele>
        <time>2017-05-25T11:12:21Z</time>
      </trkpt>
      <trkpt lat="49.26188" lon="-0.21321">
        <ele>14.2</ele>
        <time>2017-05-25T11:12:26Z</time>
      </trkpt>
      <trkpt lat="49.26193" lon="-0.21329">
        <ele>14.8</ele>
        <time>2017-05-25T11:12:31Z</time>
      </trkpt>
      <trkpt lat="49.26199" lon="-0.21337">
        <ele>14.4</ele>
        <time>2017-05-25T11:12:36Z</time>
      </trkpt>
      <trkpt lat="49.26204" lon="-0.21346">
        <ele>14.4</ele>
        <time>2017-05-25T11:12:41Z</time>
      </trkpt>
      <trkpt lat="49.26207" lon="-0.21356">
        <ele>14.3</ele>
        <time>2017-05-25T11:12:46Z</time>
      </trkpt>
      <trkpt lat="49.26212" lon="-0.21365">
        <ele>15.4</ele>
        <time>2017-05-25T11:12:51Z</time>
      </trkpt>
      <trkpt lat="49.26216" lon="-0.21376">
        <ele>15.3</ele>
        <time>2017-05-25T11:12:57Z</time>
      </trkpt>
      <trkpt lat="49.2622" lon="-0.21387">
        <ele>15.6</ele>
        <time>2017-05-25T11:13:03Z</time>
      </trkpt>
      <trkpt lat="49.26223" lon="-0.21398">
        <ele>16.3</ele>
        <time>2017-05-25T11:13:08Z</time>
      </trkpt>
      <trkpt lat="49.26228" lon="-0.21407">
        <ele>16.1</ele>
        <time>2017-05-25T11:13:13Z</time>
      </trkpt>
      <trkpt lat="49.2623" lon="-0.21418">
        <ele>17.4</ele>
        <time>2017-05-25T11:13:19Z</time>
      </trkpt>
      <trkpt lat="49.26234" lon="-0.21429">
        <ele>17.4</ele>
        <time>2017-05-25T11:13:24Z</time>
      </trkpt>
      <trkpt lat="49.26237" lon="-0.21441">
        <ele>17.2</ele>
        <time>2017-05-25T11:13:30Z</time>
      </trkpt>
      <trkpt lat="49.2624" lon="-0.21453">
        <ele>17.2</ele>
        <time>2017-05-25T11:13:36Z</time>
      </trkpt>
      <trkpt lat="49.26243" lon="-0.21462">
        <ele>16.6</ele>
        <time>2017-05-25T11:13:42Z</time>
      </trkpt>
      <trkpt lat="49.26247" lon="-0.21473">
        <ele>17.1</ele>
        <time>2017-05-25T11:13:48Z</time>
      </trkpt>
      <trkpt lat="49.26252" lon="-0.21482">
        <ele>16.6</ele>
        <time>2017-05-25T11:13:54Z</time>
      </trkpt>
      <trkpt lat="49.26258" lon="-0.2149">
        <ele>19.2</ele>
        <time>2017-05-25T11:14:00Z</time>
      </trkpt>
      <trkpt lat="49.26263" lon="-0.21499">
        <ele>19.2</ele>
        <time>2017-05-25T11:14:06Z</time>
      </trkpt>
      <trkpt lat="49.2627" lon="-0.21508">
        <ele>20.3</ele>
        <time>2017-05-25T11:14:12Z</time>
      </trkpt>
      <trkpt lat="49.26275" lon="-0.21517">
        <ele>20.5</ele>
        <time>2017-05-25T11:14:18Z</time>
      </trkpt>
      <trkpt lat="49.2628" lon="-0.21525">
        <ele>21</ele>
        <time>2017-05-25T11:14:24Z</time>
      </trkpt>
      <trkpt lat="49.26287" lon="-0.21534">
        <ele>20.2</ele>
        <time>2017-05-25T11:14:30Z</time>
      </trkpt>
      <trkpt lat="49.26292" lon="-0.21543">
        <ele>20.8</ele>
        <time>2017-05-25T11:14:36Z</time>
      </trkpt>
      <trkpt lat="49.26298" lon="-0.21552">
        <ele>21.8</ele>
        <time>2017-05-25T11:14:43Z</time>
      </trkpt>
      <trkpt lat="49.26303" lon="-0.21561">
        <ele>19.3</ele>
        <time>2017-05-25T11:14:49Z</time>
      </trkpt>
      <trkpt lat="49.26307" lon="-0.21566">
        <ele>18.9</ele>
        <time>2017-05-25T11:14:56Z</time>
      </trkpt>
      <trkpt lat="49.26306" lon="-0.21578">
        <ele>18.6</ele>
        <time>2017-05-25T11:17:47Z</time>
      </trkpt>
      <trkpt lat="49.26301" lon="-0.21586">
        <ele>17.9</ele>
        <time>2017-05-25T11:17:54Z</time>
      </trkpt>
      <trkpt lat="49.26298" lon="-0.21597">
        <ele>18.7</ele>
        <time>2017-05-25T11:18:01Z</time>
      </trkpt>
      <trkpt lat="49.26294" lon="-0.21604">
        <ele>18.6</ele>
        <time>2017-05-25T11:18:08Z</time>
      </trkpt>
      <trkpt lat="49.26289" lon="-0.21612">
        <ele>19.5</ele>
        <time>2017-05-25T11:18:13Z</time>
      </trkpt>
      <trkpt lat="49.26283" lon="-0.21621">
        <ele>20.1</ele>
        <time>2017-05-25T11:18:18Z</time>
      </trkpt>
      <trkpt lat="49.2628" lon="-0.2163">
        <ele>19.8</ele>
        <time>2017-05-25T11:18:25Z</time>
      </trkpt>
      <trkpt lat="49.26275" lon="-0.21638">
        <ele>19.5</ele>
        <time>2017-05-25T11:18:31Z</time>
      </trkpt>
      <trkpt lat="49.2627" lon="-0.21648">
        <ele>18.5</ele>
        <time>2017-05-25T11:18:38Z</time>
      </trkpt>
      <trkpt lat="49.26265" lon="-0.21657">
        <ele>18.7</ele>
        <time>2017-05-25T11:18:44Z</time>
      </trkpt>
      <trkpt lat="49.26259" lon="-0.21666">
        <ele>17.9</ele>
        <time>2017-05-25T11:18:51Z</time>
      </trkpt>
      <trkpt lat="49.26253" lon="-0.21674">
        <ele>20</ele>
        <time>2017-05-25T11:18:56Z</time>
      </trkpt>
      <trkpt lat="49.26248" lon="-0.21682">
        <ele>20.6</ele>
        <time>2017-05-25T11:19:01Z</time>
      </trkpt>
      <trkpt lat="49.26243" lon="-0.21692">
        <ele>20.5</ele>
        <time>2017-05-25T11:19:07Z</time>
      </trkpt>
      <trkpt lat="49.26237" lon="-0.21702">
        <ele>21.5</ele>
        <time>2017-05-25T11:19:13Z</time>
      </trkpt>
      <trkpt lat="49.26232" lon="-0.21709">
        <ele>21.7</ele>
        <time>2017-05-25T11:19:17Z</time>
      </trkpt>
      <trkpt lat="49.26227" lon="-0.21718">
        <ele>21.9</ele>
        <time>2017-05-25T11:19:22Z</time>
      </trkpt>
      <trkpt lat="49.26223" lon="-0.21727">
        <ele>21.7</ele>
        <time>2017-05-25T11:19:27Z</time>
      </trkpt>
      <trkpt lat="49.26219" lon="-0.21738">
        <ele>21.6</ele>
        <time>2017-05-25T11:19:32Z</time>
      </trkpt>
      <trkpt lat="49.26214" lon="-0.21748">
        <ele>23.5</ele>
        <time>2017-05-25T11:19:37Z</time>
      </trkpt>
      <trkpt lat="49.26209" lon="-0.21759">
        <ele>23.5</ele>
        <time>2017-05-25T11:19:43Z</time>
      </trkpt>
      <trkpt lat="49.26207" lon="-0.2177">
        <ele>24.4</ele>
        <time>2017-05-25T11:19:49Z</time>
      </trkpt>
      <trkpt lat="49.26203" lon="-0.21781">
        <ele>24.2</ele>
        <time>2017-05-25T11:19:54Z</time>
      </trkpt>
      <trkpt lat="49.26198" lon="-0.21791">
        <ele>24.9</ele>
        <time>2017-05-25T11:20:01Z</time>
      </trkpt>
      <trkpt lat="49.26192" lon="-0.21801">
        <ele>25.2</ele>
        <time>2017-05-25T11:20:07Z</time>
      </trkpt>
      <trkpt lat="49.26189" lon="-0.21812">
        <ele>24.1</ele>
        <time>2017-05-25T11:20:13Z</time>
      </trkpt>
      <trkpt lat="49.26185" lon="-0.21823">
        <ele>24.3</ele>
        <time>2017-05-25T11:20:19Z</time>
      </trkpt>
      <trkpt lat="49.26181" lon="-0.21834">
        <ele>24.8</ele>
        <time>2017-05-25T11:20:25Z</time>
      </trkpt>
      <trkpt lat="49.26179" lon="-0.21847">
        <ele>24.5</ele>
        <time>2017-05-25T11:20:31Z</time>
      </trkpt>
      <trkpt lat="49.26177" lon="-0.21858">
        <ele>23.4</ele>
        <time>2017-05-25T11:20:37Z</time>
      </trkpt>
      <trkpt lat="49.26175" lon="-0.2187">
        <ele>21.4</ele>
        <time>2017-05-25T11:20:43Z</time>
      </trkpt>
      <trkpt lat="49.26172" lon="-0.21882">
        <ele>20.7</ele>
        <time>2017-05-25T11:20:49Z</time>
      </trkpt>
      <trkpt lat="49.26169" lon="-0.21894">
        <ele>19.8</ele>
        <time>2017-05-25T11:20:55Z</time>
      </trkpt>
      <trkpt lat="49.26166" lon="-0.21906">
        <ele>20.1</ele>
        <time>2017-05-25T11:21:00Z</time>
      </trkpt>
      <trkpt lat="49.26164" lon="-0.21917">
        <ele>20.7</ele>
        <time>2017-05-25T11:21:05Z</time>
      </trkpt>
      <trkpt lat="49.26161" lon="-0.21929">
        <ele>23.9</ele>
        <time>2017-05-25T11:21:10Z</time>
      </trkpt>
      <trkpt lat="49.26162" lon="-0.21941">
        <ele>24.7</ele>
        <time>2017-05-25T11:21:16Z</time>
      </trkpt>
      <trkpt lat="49.2616" lon="-0.21953">
        <ele>21.6</ele>
        <time>2017-05-25T11:21:21Z</time>
      </trkpt>
      <trkpt lat="49.26158" lon="-0.21963">
        <ele>19</ele>
        <time>2017-05-25T11:21:27Z</time>
      </trkpt>
      <trkpt lat="49.26157" lon="-0.21976">
        <ele>18.3</ele>
        <time>2017-05-25T11:21:32Z</time>
      </trkpt>
      <trkpt lat="49.26154" lon="-0.21988">
        <ele>20.4</ele>
        <time>2017-05-25T11:21:37Z</time>
      </trkpt>
      <trkpt lat="49.26154" lon="-0.22">
        <ele>20.7</ele>
        <time>2017-05-25T11:21:42Z</time>
      </trkpt>
      <trkpt lat="49.26153" lon="-0.22013">
        <ele>22.8</ele>
        <time>2017-05-25T11:21:48Z</time>
      </trkpt>
      <trkpt lat="49.26154" lon="-0.22024">
        <ele>23.6</ele>
        <time>2017-05-25T11:21:53Z</time>
      </trkpt>
      <trkpt lat="49.26153" lon="-0.22037">
        <ele>23.5</ele>
        <time>2017-05-25T11:21:58Z</time>
      </trkpt>
      <trkpt lat="49.26151" lon="-0.22049">
        <ele>23.5</ele>
        <time>2017-05-25T11:22:03Z</time>
      </trkpt>
      <trkpt lat="49.26151" lon="-0.2206">
        <ele>24</ele>
        <time>2017-05-25T11:22:08Z</time>
      </trkpt>
      <trkpt lat="49.26151" lon="-0.22072">
        <ele>23.2</ele>
        <time>2017-05-25T11:22:13Z</time>
      </trkpt>
      <trkpt lat="49.2615" lon="-0.22084">
        <ele>21</ele>
        <time>2017-05-25T11:22:18Z</time>
      </trkpt>
      <trkpt lat="49.26147" lon="-0.22096">
        <ele>18.9</ele>
        <time>2017-05-25T11:22:23Z</time>
      </trkpt>
      <trkpt lat="49.26147" lon="-0.22107">
        <ele>22</ele>
        <time>2017-05-25T11:22:30Z</time>
      </trkpt>
      <trkpt lat="49.26146" lon="-0.22119">
        <ele>23.2</ele>
        <time>2017-05-25T11:22:36Z</time>
      </trkpt>
      <trkpt lat="49.26147" lon="-0.22132">
        <ele>24.2</ele>
        <time>2017-05-25T11:22:42Z</time>
      </trkpt>
      <trkpt lat="49.26147" lon="-0.22144">
        <ele>27.6</ele>
        <time>2017-05-25T11:22:49Z</time>
      </trkpt>
      <trkpt lat="49.26146" lon="-0.22156">
        <ele>25.6</ele>
        <time>2017-05-25T11:22:54Z</time>
      </trkpt>
      <trkpt lat="49.26146" lon="-0.22169">
        <ele>24.8</ele>
        <time>2017-05-25T11:23:00Z</time>
      </trkpt>
      <trkpt lat="49.2614" lon="-0.22178">
        <ele>24.1</ele>
        <time>2017-05-25T11:23:07Z</time>
      </trkpt>
      <trkpt lat="49.2614" lon="-0.22178">
        <ele>23.8</ele>
        <time>2017-05-25T11:23:14Z</time>
      </trkpt>
      <trkpt lat="49.26133" lon="-0.22179">
        <ele>26.2</ele>
        <time>2017-05-25T11:23:40Z</time>
      </trkpt>
      <trkpt lat="49.26126" lon="-0.22178">
        <ele>24.1</ele>
        <time>2017-05-25T11:23:46Z</time>
      </trkpt>
      <trkpt lat="49.26117" lon="-0.22175">
        <ele>23</ele>
        <time>2017-05-25T11:23:52Z</time>
      </trkpt>
      <trkpt lat="49.26109" lon="-0.22175">
        <ele>21</ele>
        <time>2017-05-25T11:23:57Z</time>
      </trkpt>
      <trkpt lat="49.26102" lon="-0.22177">
        <ele>19.9</ele>
        <time>2017-05-25T11:24:03Z</time>
      </trkpt>
      <trkpt lat="49.26094" lon="-0.22179">
        <ele>17.3</ele>
        <time>2017-05-25T11:24:08Z</time>
      </trkpt>
      <trkpt lat="49.26087" lon="-0.2218">
        <ele>14</ele>
        <time>2017-05-25T11:24:13Z</time>
      </trkpt>
      <trkpt lat="49.26079" lon="-0.22184">
        <ele>12.7</ele>
        <time>2017-05-25T11:24:19Z</time>
      </trkpt>
      <trkpt lat="49.26075" lon="-0.22187">
        <ele>14.1</ele>
        <time>2017-05-25T11:24:26Z</time>
      </trkpt>
      <trkpt lat="49.26068" lon="-0.2219">
        <ele>13.5</ele>
        <time>2017-05-25T11:24:33Z</time>
      </trkpt>
      <trkpt lat="49.2606" lon="-0.22192">
        <ele>13.2</ele>
        <time>2017-05-25T11:24:39Z</time>
      </trkpt>
      <trkpt lat="49.26053" lon="-0.22196">
        <ele>14.4</ele>
        <time>2017-05-25T11:24:44Z</time>
      </trkpt>
      <trkpt lat="49.26046" lon="-0.22198">
        <ele>14.2</ele>
        <time>2017-05-25T11:24:49Z</time>
      </trkpt>
      <trkpt lat="49.26038" lon="-0.22201">
        <ele>15.5</ele>
        <time>2017-05-25T11:24:55Z</time>
      </trkpt>
      <trkpt lat="49.26031" lon="-0.22203">
        <ele>15</ele>
        <time>2017-05-25T11:25:01Z</time>
      </trkpt>
      <trkpt lat="49.26024" lon="-0.22204">
        <ele>14.6</ele>
        <time>2017-05-25T11:25:06Z</time>
      </trkpt>
      <trkpt lat="49.26017" lon="-0.22207">
        <ele>15.2</ele>
        <time>2017-05-25T11:25:12Z</time>
      </trkpt>
      <trkpt lat="49.2601" lon="-0.22208">
        <ele>18</ele>
        <time>2017-05-25T11:25:17Z</time>
      </trkpt>
      <trkpt lat="49.26002" lon="-0.22211">
        <ele>20.1</ele>
        <time>2017-05-25T11:25:24Z</time>
      </trkpt>
      <trkpt lat="49.25995" lon="-0.22212">
        <ele>21.3</ele>
        <time>2017-05-25T11:25:31Z</time>
      </trkpt>
      <trkpt lat="49.25987" lon="-0.22216">
        <ele>23.1</ele>
        <time>2017-05-25T11:25:37Z</time>
      </trkpt>
      <trkpt lat="49.2598" lon="-0.22218">
        <ele>24.7</ele>
        <time>2017-05-25T11:25:43Z</time>
      </trkpt>
      <trkpt lat="49.25972" lon="-0.22223">
        <ele>26.8</ele>
        <time>2017-05-25T11:25:49Z</time>
      </trkpt>
      <trkpt lat="49.25966" lon="-0.22229">
        <ele>26.9</ele>
        <time>2017-05-25T11:25:54Z</time>
      </trkpt>
      <trkpt lat="49.25959" lon="-0.22234">
        <ele>25.9</ele>
        <time>2017-05-25T11:26:00Z</time>
      </trkpt>
      <trkpt lat="49.25952" lon="-0.22239">
        <ele>25.2</ele>
        <time>2017-05-25T11:26:05Z</time>
      </trkpt>
      <trkpt lat="49.25944" lon="-0.22244">
        <ele>24.3</ele>
        <time>2017-05-25T11:26:11Z</time>
      </trkpt>
      <trkpt lat="49.25936" lon="-0.2225">
        <ele>23</ele>
        <time>2017-05-25T11:26:16Z</time>
      </trkpt>
      <trkpt lat="49.25929" lon="-0.22254">
        <ele>22.8</ele>
        <time>2017-05-25T11:26:21Z</time>
      </trkpt>
      <trkpt lat="49.25922" lon="-0.22259">
        <ele>23.5</ele>
        <time>2017-05-25T11:26:27Z</time>
      </trkpt>
      <trkpt lat="49.25914" lon="-0.22265">
        <ele>25</ele>
        <time>2017-05-25T11:26:33Z</time>
      </trkpt>
      <trkpt lat="49.25907" lon="-0.22268">
        <ele>24.4</ele>
        <time>2017-05-25T11:26:38Z</time>
      </trkpt>
      <trkpt lat="49.25899" lon="-0.22272">
        <ele>23.9</ele>
        <time>2017-05-25T11:26:45Z</time>
      </trkpt>
      <trkpt lat="49.25893" lon="-0.22275">
        <ele>27.6</ele>
        <time>2017-05-25T11:26:53Z</time>
      </trkpt>
      <trkpt lat="49.25887" lon="-0.22282">
        <ele>32.9</ele>
        <time>2017-05-25T11:28:12Z</time>
      </trkpt>
      <trkpt lat="49.25881" lon="-0.22289">
        <ele>32.8</ele>
        <time>2017-05-25T11:28:19Z</time>
      </trkpt>
      <trkpt lat="49.25874" lon="-0.22293">
        <ele>31.6</ele>
        <time>2017-05-25T11:28:26Z</time>
      </trkpt>
      <trkpt lat="49.25867" lon="-0.22296">
        <ele>30.9</ele>
        <time>2017-05-25T11:28:33Z</time>
      </trkpt>
      <trkpt lat="49.2586" lon="-0.223">
        <ele>28.1</ele>
        <time>2017-05-25T11:28:38Z</time>
      </trkpt>
      <trkpt lat="49.25853" lon="-0.22305">
        <ele>26.2</ele>
        <time>2017-05-25T11:28:45Z</time>
      </trkpt>
      <trkpt lat="49.25848" lon="-0.22309">
        <ele>25</ele>
        <time>2017-05-25T11:28:52Z</time>
      </trkpt>
      <trkpt lat="49.2584" lon="-0.22314">
        <ele>23.5</ele>
        <time>2017-05-25T11:28:57Z</time>
      </trkpt>
      <trkpt lat="49.25833" lon="-0.22319">
        <ele>23.5</ele>
        <time>2017-05-25T11:29:03Z</time>
      </trkpt>
      <trkpt lat="49.25826" lon="-0.22323">
        <ele>22.7</ele>
        <time>2017-05-25T11:29:08Z</time>
      </trkpt>
      <trkpt lat="49.25818" lon="-0.22328">
        <ele>23.6</ele>
        <time>2017-05-25T11:29:13Z</time>
      </trkpt>
      <trkpt lat="49.25811" lon="-0.22334">
        <ele>26.2</ele>
        <time>2017-05-25T11:29:19Z</time>
      </trkpt>
      <trkpt lat="49.25803" lon="-0.22341">
        <ele>27</ele>
        <time>2017-05-25T11:29:24Z</time>
      </trkpt>
      <trkpt lat="49.25796" lon="-0.22345">
        <ele>27.9</ele>
        <time>2017-05-25T11:29:29Z</time>
      </trkpt>
      <trkpt lat="49.25789" lon="-0.2235">
        <ele>28</ele>
        <time>2017-05-25T11:29:35Z</time>
      </trkpt>
      <trkpt lat="49.25781" lon="-0.22355">
        <ele>25.9</ele>
        <time>2017-05-25T11:29:39Z</time>
      </trkpt>
      <trkpt lat="49.25774" lon="-0.2236">
        <ele>25.2</ele>
        <time>2017-05-25T11:29:44Z</time>
      </trkpt>
      <trkpt lat="49.25767" lon="-0.22364">
        <ele>25.2</ele>
        <time>2017-05-25T11:29:50Z</time>
      </trkpt>
      <trkpt lat="49.2576" lon="-0.22369">
        <ele>27</ele>
        <time>2017-05-25T11:29:55Z</time>
      </trkpt>
      <trkpt lat="49.25752" lon="-0.22375">
        <ele>27</ele>
        <time>2017-05-25T11:30:00Z</time>
      </trkpt>
      <trkpt lat="49.25745" lon="-0.2238">
        <ele>27.2</ele>
        <time>2017-05-25T11:30:06Z</time>
      </trkpt>
      <trkpt lat="49.25739" lon="-0.22386">
        <ele>28.2</ele>
        <time>2017-05-25T11:30:12Z</time>
      </trkpt>
      <trkpt lat="49.25732" lon="-0.22391">
        <ele>28.7</ele>
        <time>2017-05-25T11:30:19Z</time>
      </trkpt>
      <trkpt lat="49.25724" lon="-0.22396">
        <ele>27.9</ele>
        <time>2017-05-25T11:30:25Z</time>
      </trkpt>
      <trkpt lat="49.25717" lon="-0.22402">
        <ele>27</ele>
        <time>2017-05-25T11:30:31Z</time>
      </trkpt>
      <trkpt lat="49.2571" lon="-0.22409">
        <ele>27</ele>
        <time>2017-05-25T11:30:37Z</time>
      </trkpt>
      <trkpt lat="49.25704" lon="-0.22416">
        <ele>27.1</ele>
        <time>2017-05-25T11:30:41Z</time>
      </trkpt>
      <trkpt lat="49.25699" lon="-0.22424">
        <ele>27.8</ele>
        <time>2017-05-25T11:30:45Z</time>
      </trkpt>
      <trkpt lat="49.25694" lon="-0.22433">
        <ele>26</ele>
        <time>2017-05-25T11:30:51Z</time>
      </trkpt>
      <trkpt lat="49.25689" lon="-0.22443">
        <ele>27.4</ele>
        <time>2017-05-25T11:30:56Z</time>
      </trkpt>
      <trkpt lat="49.25684" lon="-0.22453">
        <ele>27.3</ele>
        <time>2017-05-25T11:31:02Z</time>
      </trkpt>
      <trkpt lat="49.2568" lon="-0.22465">
        <ele>27.6</ele>
        <time>2017-05-25T11:31:08Z</time>
      </trkpt>
      <trkpt lat="49.25676" lon="-0.22475">
        <ele>27.2</ele>
        <time>2017-05-25T11:31:13Z</time>
      </trkpt>
      <trkpt lat="49.25671" lon="-0.22484">
        <ele>27.1</ele>
        <time>2017-05-25T11:31:19Z</time>
      </trkpt>
      <trkpt lat="49.25666" lon="-0.22491">
        <ele>28.3</ele>
        <time>2017-05-25T11:31:24Z</time>
      </trkpt>
      <trkpt lat="49.25661" lon="-0.225">
        <ele>31</ele>
        <time>2017-05-25T11:31:30Z</time>
      </trkpt>
      <trkpt lat="49.25656" lon="-0.22508">
        <ele>31</ele>
        <time>2017-05-25T11:31:35Z</time>
      </trkpt>
      <trkpt lat="49.2565" lon="-0.22517">
        <ele>33.2</ele>
        <time>2017-05-25T11:31:41Z</time>
      </trkpt>
      <trkpt lat="49.25645" lon="-0.22526">
        <ele>33.3</ele>
        <time>2017-05-25T11:31:47Z</time>
      </trkpt>
      <trkpt lat="49.25639" lon="-0.22535">
        <ele>32.5</ele>
        <time>2017-05-25T11:31:53Z</time>
      </trkpt>
      <trkpt lat="49.25633" lon="-0.22541">
        <ele>32.1</ele>
        <time>2017-05-25T11:31:59Z</time>
      </trkpt>
      <trkpt lat="49.25627" lon="-0.22549">
        <ele>29.7</ele>
        <time>2017-05-25T11:32:06Z</time>
      </trkpt>
      <trkpt lat="49.2562" lon="-0.22557">
        <ele>28.9</ele>
        <time>2017-05-25T11:32:12Z</time>
      </trkpt>
      <trkpt lat="49.25614" lon="-0.22564">
        <ele>28.5</ele>
        <time>2017-05-25T11:32:17Z</time>
      </trkpt>
      <trkpt lat="49.25609" lon="-0.22573">
        <ele>26.7</ele>
        <time>2017-05-25T11:32:22Z</time>
      </trkpt>
      <trkpt lat="49.25604" lon="-0.22581">
        <ele>24.8</ele>
        <time>2017-05-25T11:32:27Z</time>
      </trkpt>
      <trkpt lat="49.25598" lon="-0.22587">
        <ele>23.5</ele>
        <time>2017-05-25T11:32:32Z</time>
      </trkpt>
      <trkpt lat="49.25596" lon="-0.22589">
        <ele>23.8</ele>
        <time>2017-05-25T11:32:39Z</time>
      </trkpt>
      <trkpt lat="49.25592" lon="-0.22596">
        <ele>24.5</ele>
        <time>2017-05-25T11:32:55Z</time>
      </trkpt>
      <trkpt lat="49.25586" lon="-0.22604">
        <ele>27.7</ele>
        <time>2017-05-25T11:33:01Z</time>
      </trkpt>
      <trkpt lat="49.25579" lon="-0.22611">
        <ele>29.1</ele>
        <time>2017-05-25T11:33:07Z</time>
      </trkpt>
      <trkpt lat="49.25573" lon="-0.22619">
        <ele>30.6</ele>
        <time>2017-05-25T11:33:13Z</time>
      </trkpt>
      <trkpt lat="49.25571" lon="-0.22623">
        <ele>32.6</ele>
        <time>2017-05-25T11:33:20Z</time>
      </trkpt>
      <trkpt lat="49.25565" lon="-0.22631">
        <ele>37</ele>
        <time>2017-05-25T11:33:45Z</time>
      </trkpt>
      <trkpt lat="49.25559" lon="-0.22638">
        <ele>38</ele>
        <time>2017-05-25T11:33:51Z</time>
      </trkpt>
      <trkpt lat="49.25551" lon="-0.22642">
        <ele>38.9</ele>
        <time>2017-05-25T11:33:57Z</time>
      </trkpt>
      <trkpt lat="49.25544" lon="-0.22647">
        <ele>39.5</ele>
        <time>2017-05-25T11:34:02Z</time>
      </trkpt>
      <trkpt lat="49.25537" lon="-0.22653">
        <ele>38.7</ele>
        <time>2017-05-25T11:34:08Z</time>
      </trkpt>
      <trkpt lat="49.2553" lon="-0.22659">
        <ele>37.4</ele>
        <time>2017-05-25T11:34:14Z</time>
      </trkpt>
      <trkpt lat="49.25523" lon="-0.22664">
        <ele>36.4</ele>
        <time>2017-05-25T11:34:20Z</time>
      </trkpt>
      <trkpt lat="49.2552" lon="-0.22668">
        <ele>35.4</ele>
        <time>2017-05-25T11:34:27Z</time>
      </trkpt>
      <trkpt lat="49.25513" lon="-0.22673">
        <ele>35.5</ele>
        <time>2017-05-25T11:34:59Z</time>
      </trkpt>
      <trkpt lat="49.25505" lon="-0.22678">
        <ele>35.6</ele>
        <time>2017-05-25T11:35:05Z</time>
      </trkpt>
      <trkpt lat="49.25498" lon="-0.22683">
        <ele>35.3</ele>
        <time>2017-05-25T11:35:11Z</time>
      </trkpt>
      <trkpt lat="49.25491" lon="-0.22688">
        <ele>35.1</ele>
        <time>2017-05-25T11:35:16Z</time>
      </trkpt>
      <trkpt lat="49.25484" lon="-0.22694">
        <ele>35.2</ele>
        <time>2017-05-25T11:35:22Z</time>
      </trkpt>
      <trkpt lat="49.25477" lon="-0.22699">
        <ele>34.1</ele>
        <time>2017-05-25T11:35:28Z</time>
      </trkpt>
      <trkpt lat="49.2547" lon="-0.22703">
        <ele>35</ele>
        <time>2017-05-25T11:35:33Z</time>
      </trkpt>
      <trkpt lat="49.25462" lon="-0.22708">
        <ele>35.7</ele>
        <time>2017-05-25T11:35:39Z</time>
      </trkpt>
      <trkpt lat="49.25455" lon="-0.22714">
        <ele>35.8</ele>
        <time>2017-05-25T11:35:45Z</time>
      </trkpt>
      <trkpt lat="49.25448" lon="-0.2272">
        <ele>36.1</ele>
        <time>2017-05-25T11:35:51Z</time>
      </trkpt>
      <trkpt lat="49.2544" lon="-0.22725">
        <ele>36</ele>
        <time>2017-05-25T11:35:57Z</time>
      </trkpt>
      <trkpt lat="49.25433" lon="-0.2273">
        <ele>36</ele>
        <time>2017-05-25T11:36:03Z</time>
      </trkpt>
      <trkpt lat="49.25425" lon="-0.22735">
        <ele>36.5</ele>
        <time>2017-05-25T11:36:09Z</time>
      </trkpt>
      <trkpt lat="49.25419" lon="-0.2274">
        <ele>35.9</ele>
        <time>2017-05-25T11:36:15Z</time>
      </trkpt>
      <trkpt lat="49.25417" lon="-0.22744">
        <ele>36.1</ele>
        <time>2017-05-25T11:36:22Z</time>
      </trkpt>
      <trkpt lat="49.25415" lon="-0.22752">
        <ele>36.4</ele>
        <time>2017-05-25T11:36:29Z</time>
      </trkpt>
      <trkpt lat="49.25419" lon="-0.22762">
        <ele>34.7</ele>
        <time>2017-05-25T11:36:35Z</time>
      </trkpt>
      <trkpt lat="49.25425" lon="-0.22771">
        <ele>33.5</ele>
        <time>2017-05-25T11:36:41Z</time>
      </trkpt>
      <trkpt lat="49.2543" lon="-0.2278">
        <ele>34.1</ele>
        <time>2017-05-25T11:36:48Z</time>
      </trkpt>
      <trkpt lat="49.25434" lon="-0.22791">
        <ele>36.3</ele>
        <time>2017-05-25T11:36:54Z</time>
      </trkpt>
      <trkpt lat="49.25438" lon="-0.22802">
        <ele>37.4</ele>
        <time>2017-05-25T11:37:00Z</time>
      </trkpt>
      <trkpt lat="49.25441" lon="-0.22813">
        <ele>38.1</ele>
        <time>2017-05-25T11:37:07Z</time>
      </trkpt>
      <trkpt lat="49.25444" lon="-0.22823">
        <ele>38.5</ele>
        <time>2017-05-25T11:37:13Z</time>
      </trkpt>
      <trkpt lat="49.25447" lon="-0.22833">
        <ele>38</ele>
        <time>2017-05-25T11:37:18Z</time>
      </trkpt>
      <trkpt lat="49.2545" lon="-0.22845">
        <ele>38.1</ele>
        <time>2017-05-25T11:37:25Z</time>
      </trkpt>
      <trkpt lat="49.25453" lon="-0.22857">
        <ele>38.4</ele>
        <time>2017-05-25T11:37:31Z</time>
      </trkpt>
      <trkpt lat="49.25457" lon="-0.22867">
        <ele>37.2</ele>
        <time>2017-05-25T11:37:36Z</time>
      </trkpt>
      <trkpt lat="49.25461" lon="-0.22877">
        <ele>37.3</ele>
        <time>2017-05-25T11:37:43Z</time>
      </trkpt>
      <trkpt lat="49.25466" lon="-0.22886">
        <ele>35.7</ele>
        <time>2017-05-25T11:37:49Z</time>
      </trkpt>
      <trkpt lat="49.25471" lon="-0.22896">
        <ele>35.6</ele>
        <time>2017-05-25T11:37:54Z</time>
      </trkpt>
      <trkpt lat="49.25473" lon="-0.22906">
        <ele>34.8</ele>
        <time>2017-05-25T11:38:00Z</time>
      </trkpt>
      <trkpt lat="49.25477" lon="-0.22917">
        <ele>33.4</ele>
        <time>2017-05-25T11:38:06Z</time>
      </trkpt>
      <trkpt lat="49.2548" lon="-0.22927">
        <ele>34</ele>
        <time>2017-05-25T11:38:11Z</time>
      </trkpt>
      <trkpt lat="49.25484" lon="-0.22938">
        <ele>35.6</ele>
        <time>2017-05-25T11:38:17Z</time>
      </trkpt>
      <trkpt lat="49.25486" lon="-0.22948">
        <ele>35.3</ele>
        <time>2017-05-25T11:38:23Z</time>
      </trkpt>
      <trkpt lat="49.25489" lon="-0.22958">
        <ele>36</ele>
        <time>2017-05-25T11:38:28Z</time>
      </trkpt>
      <trkpt lat="49.25495" lon="-0.22969">
        <ele>36.5</ele>
        <time>2017-05-25T11:38:33Z</time>
      </trkpt>
      <trkpt lat="49.25498" lon="-0.2298">
        <ele>37.2</ele>
        <time>2017-05-25T11:38:39Z</time>
      </trkpt>
      <trkpt lat="49.25504" lon="-0.22987">
        <ele>37.5</ele>
        <time>2017-05-25T11:38:46Z</time>
      </trkpt>
      <trkpt lat="49.25512" lon="-0.22989">
        <ele>37.3</ele>
        <time>2017-05-25T11:38:51Z</time>
      </trkpt>
      <trkpt lat="49.2552" lon="-0.22992">
        <ele>38.6</ele>
        <time>2017-05-25T11:38:57Z</time>
      </trkpt>
      <trkpt lat="49.25527" lon="-0.22995">
        <ele>39.8</ele>
        <time>2017-05-25T11:39:02Z</time>
      </trkpt>
      <trkpt lat="49.25534" lon="-0.22997">
        <ele>41.2</ele>
        <time>2017-05-25T11:39:08Z</time>
      </trkpt>
      <trkpt lat="49.25542" lon="-0.22999">
        <ele>42.4</ele>
        <time>2017-05-25T11:39:14Z</time>
      </trkpt>
      <trkpt lat="49.25549" lon="-0.23001">
        <ele>42.9</ele>
        <time>2017-05-25T11:39:20Z</time>
      </trkpt>
      <trkpt lat="49.25556" lon="-0.23003">
        <ele>42.2</ele>
        <time>2017-05-25T11:39:26Z</time>
      </trkpt>
      <trkpt lat="49.25565" lon="-0.23003">
        <ele>41.4</ele>
        <time>2017-05-25T11:39:32Z</time>
      </trkpt>
      <trkpt lat="49.25573" lon="-0.23001">
        <ele>40.9</ele>
        <time>2017-05-25T11:39:38Z</time>
      </trkpt>
      <trkpt lat="49.2558" lon="-0.22999">
        <ele>40.6</ele>
        <time>2017-05-25T11:39:44Z</time>
      </trkpt>
      <trkpt lat="49.25585" lon="-0.23008">
        <ele>40.3</ele>
        <time>2017-05-25T11:39:50Z</time>
      </trkpt>
      <trkpt lat="49.25589" lon="-0.23018">
        <ele>39.6</ele>
        <time>2017-05-25T11:39:54Z</time>
      </trkpt>
      <trkpt lat="49.25589" lon="-0.23031">
        <ele>38.9</ele>
        <time>2017-05-25T11:40:00Z</time>
      </trkpt>
      <trkpt lat="49.25587" lon="-0.23043">
        <ele>37.7</ele>
        <time>2017-05-25T11:40:06Z</time>
      </trkpt>
      <trkpt lat="49.25586" lon="-0.23055">
        <ele>36.6</ele>
        <time>2017-05-25T11:40:12Z</time>
      </trkpt>
      <trkpt lat="49.25585" lon="-0.23068">
        <ele>35.4</ele>
        <time>2017-05-25T11:40:18Z</time>
      </trkpt>
      <trkpt lat="49.25586" lon="-0.23078">
        <ele>34.6</ele>
        <time>2017-05-25T11:40:24Z</time>
      </trkpt>
      <trkpt lat="49.25587" lon="-0.23091">
        <ele>34</ele>
        <time>2017-05-25T11:40:31Z</time>
      </trkpt>
      <trkpt lat="49.25585" lon="-0.23097">
        <ele>34.4</ele>
        <time>2017-05-25T11:40:38Z</time>
      </trkpt>
      <trkpt lat="49.25578" lon="-0.23105">
        <ele>34.2</ele>
        <time>2017-05-25T11:40:44Z</time>
      </trkpt>
      <trkpt lat="49.25571" lon="-0.23113">
        <ele>34.5</ele>
        <time>2017-05-25T11:40:50Z</time>
      </trkpt>
      <trkpt lat="49.25566" lon="-0.2312">
        <ele>34</ele>
        <time>2017-05-25T11:40:56Z</time>
      </trkpt>
      <trkpt lat="49.2556" lon="-0.23128">
        <ele>33.2</ele>
        <time>2017-05-25T11:41:02Z</time>
      </trkpt>
      <trkpt lat="49.25555" lon="-0.23136">
        <ele>32.1</ele>
        <time>2017-05-25T11:41:08Z</time>
      </trkpt>
      <trkpt lat="49.25549" lon="-0.23146">
        <ele>31.7</ele>
        <time>2017-05-25T11:41:14Z</time>
      </trkpt>
      <trkpt lat="49.25543" lon="-0.23155">
        <ele>31.1</ele>
        <time>2017-05-25T11:41:20Z</time>
      </trkpt>
      <trkpt lat="49.25538" lon="-0.23165">
        <ele>31.2</ele>
        <time>2017-05-25T11:41:25Z</time>
      </trkpt>
      <trkpt lat="49.25534" lon="-0.23175">
        <ele>31.5</ele>
        <time>2017-05-25T11:41:31Z</time>
      </trkpt>
      <trkpt lat="49.25531" lon="-0.23186">
        <ele>31.8</ele>
        <time>2017-05-25T11:41:38Z</time>
      </trkpt>
      <trkpt lat="49.25525" lon="-0.23197">
        <ele>31.2</ele>
        <time>2017-05-25T11:41:44Z</time>
      </trkpt>
      <trkpt lat="49.25522" lon="-0.23207">
        <ele>30.2</ele>
        <time>2017-05-25T11:41:50Z</time>
      </trkpt>
      <trkpt lat="49.25521" lon="-0.23221">
        <ele>36.2</ele>
        <time>2017-05-25T11:41:57Z</time>
      </trkpt>
      <trkpt lat="49.25516" lon="-0.2323">
        <ele>34.6</ele>
        <time>2017-05-25T11:42:02Z</time>
      </trkpt>
      <trkpt lat="49.25511" lon="-0.23238">
        <ele>32.6</ele>
        <time>2017-05-25T11:42:07Z</time>
      </trkpt>
      <trkpt lat="49.25508" lon="-0.23249">
        <ele>35.7</ele>
        <time>2017-05-25T11:42:13Z</time>
      </trkpt>
      <trkpt lat="49.25504" lon="-0.2326">
        <ele>37.2</ele>
        <time>2017-05-25T11:42:19Z</time>
      </trkpt>
      <trkpt lat="49.25498" lon="-0.23268">
        <ele>35.4</ele>
        <time>2017-05-25T11:42:24Z</time>
      </trkpt>
      <trkpt lat="49.25492" lon="-0.23277">
        <ele>36</ele>
        <time>2017-05-25T11:42:29Z</time>
      </trkpt>
      <trkpt lat="49.25487" lon="-0.23286">
        <ele>39.8</ele>
        <time>2017-05-25T11:42:35Z</time>
      </trkpt>
      <trkpt lat="49.25483" lon="-0.23294">
        <ele>38.6</ele>
        <time>2017-05-25T11:42:40Z</time>
      </trkpt>
      <trkpt lat="49.25476" lon="-0.23304">
        <ele>36.6</ele>
        <time>2017-05-25T11:42:45Z</time>
      </trkpt>
      <trkpt lat="49.2547" lon="-0.23313">
        <ele>34.4</ele>
        <time>2017-05-25T11:42:50Z</time>
      </trkpt>
      <trkpt lat="49.25466" lon="-0.23322">
        <ele>39.8</ele>
        <time>2017-05-25T11:42:57Z</time>
      </trkpt>
      <trkpt lat="49.25463" lon="-0.23334">
        <ele>43.3</ele>
        <time>2017-05-25T11:43:04Z</time>
      </trkpt>
      <trkpt lat="49.25459" lon="-0.23344">
        <ele>44.4</ele>
        <time>2017-05-25T11:43:09Z</time>
      </trkpt>
      <trkpt lat="49.25455" lon="-0.23353">
        <ele>45.8</ele>
        <time>2017-05-25T11:43:14Z</time>
      </trkpt>
      <trkpt lat="49.2545" lon="-0.23362">
        <ele>45.8</ele>
        <time>2017-05-25T11:43:19Z</time>
      </trkpt>
      <trkpt lat="49.25445" lon="-0.23372">
        <ele>46.1</ele>
        <time>2017-05-25T11:43:25Z</time>
      </trkpt>
      <trkpt lat="49.25439" lon="-0.23379">
        <ele>46.4</ele>
        <time>2017-05-25T11:43:30Z</time>
      </trkpt>
      <trkpt lat="49.25434" lon="-0.23389">
        <ele>46.2</ele>
        <time>2017-05-25T11:43:36Z</time>
      </trkpt>
      <trkpt lat="49.25428" lon="-0.23399">
        <ele>47.7</ele>
        <time>2017-05-25T11:43:43Z</time>
      </trkpt>
      <trkpt lat="49.25425" lon="-0.23407">
        <ele>47.4</ele>
        <time>2017-05-25T11:43:50Z</time>
      </trkpt>
      <trkpt lat="49.25419" lon="-0.23417">
        <ele>47.5</ele>
        <time>2017-05-25T11:43:56Z</time>
      </trkpt>
      <trkpt lat="49.25419" lon="-0.2342">
        <ele>47</ele>
        <time>2017-05-25T11:44:03Z</time>
      </trkpt>
      <trkpt lat="49.25416" lon="-0.23423">
        <ele>46.9</ele>
        <time>2017-05-25T11:44:43Z</time>
      </trkpt>
      <trkpt lat="49.25404" lon="-0.23432">
        <ele>35.9</ele>
        <time>2017-05-25T12:16:22Z</time>
      </trkpt>
      <trkpt lat="49.25403" lon="-0.23438">
        <ele>37.1</ele>
        <time>2017-05-25T12:16:29Z</time>
      </trkpt>
      <trkpt lat="49.25403" lon="-0.23441">
        <ele>37.2</ele>
        <time>2017-05-25T12:16:36Z</time>
      </trkpt>
      <trkpt lat="49.25401" lon="-0.23452">
        <ele>37.1</ele>
        <time>2017-05-25T12:16:45Z</time>
      </trkpt>
      <trkpt lat="49.254" lon="-0.23465">
        <ele>37.5</ele>
        <time>2017-05-25T12:16:52Z</time>
      </trkpt>
      <trkpt lat="49.25403" lon="-0.23475">
        <ele>37.2</ele>
        <time>2017-05-25T12:16:58Z</time>
      </trkpt>
      <trkpt lat="49.25406" lon="-0.23485">
        <ele>40.6</ele>
        <time>2017-05-25T12:17:05Z</time>
      </trkpt>
      <trkpt lat="49.25408" lon="-0.23496">
        <ele>44.3</ele>
        <time>2017-05-25T12:17:11Z</time>
      </trkpt>
      <trkpt lat="49.25408" lon="-0.23507">
        <ele>45.5</ele>
        <time>2017-05-25T12:17:18Z</time>
      </trkpt>
      <trkpt lat="49.25407" lon="-0.23515">
        <ele>45.3</ele>
        <time>2017-05-25T12:17:25Z</time>
      </trkpt>
      <trkpt lat="49.25405" lon="-0.23524">
        <ele>42.6</ele>
        <time>2017-05-25T12:17:32Z</time>
      </trkpt>
      <trkpt lat="49.25404" lon="-0.23532">
        <ele>41.8</ele>
        <time>2017-05-25T12:17:39Z</time>
      </trkpt>
      <trkpt lat="49.25403" lon="-0.23539">
        <ele>40</ele>
        <time>2017-05-25T12:17:46Z</time>
      </trkpt>
      <trkpt lat="49.25403" lon="-0.23548">
        <ele>38.7</ele>
        <time>2017-05-25T12:17:53Z</time>
      </trkpt>
      <trkpt lat="49.25402" lon="-0.23557">
        <ele>37.5</ele>
        <time>2017-05-25T12:18:00Z</time>
      </trkpt>
      <trkpt lat="49.25402" lon="-0.23567">
        <ele>37.3</ele>
        <time>2017-05-25T12:18:07Z</time>
      </trkpt>
      <trkpt lat="49.25403" lon="-0.23577">
        <ele>36.7</ele>
        <time>2017-05-25T12:18:14Z</time>
      </trkpt>
      <trkpt lat="49.25404" lon="-0.23587">
        <ele>38</ele>
        <time>2017-05-25T12:18:21Z</time>
      </trkpt>
      <trkpt lat="49.25404" lon="-0.23598">
        <ele>38.7</ele>
        <time>2017-05-25T12:18:28Z</time>
      </trkpt>
      <trkpt lat="49.25406" lon="-0.23609">
        <ele>38.8</ele>
        <time>2017-05-25T12:18:35Z</time>
      </trkpt>
      <trkpt lat="49.25406" lon="-0.23618">
        <ele>38.2</ele>
        <time>2017-05-25T12:18:42Z</time>
      </trkpt>
      <trkpt lat="49.25407" lon="-0.23629">
        <ele>37.8</ele>
        <time>2017-05-25T12:18:49Z</time>
      </trkpt>
      <trkpt lat="49.25407" lon="-0.23639">
        <ele>39.7</ele>
        <time>2017-05-25T12:18:56Z</time>
      </trkpt>
      <trkpt lat="49.25408" lon="-0.2365">
        <ele>39.9</ele>
        <time>2017-05-25T12:19:03Z</time>
      </trkpt>
      <trkpt lat="49.2541" lon="-0.23661">
        <ele>40.1</ele>
        <time>2017-05-25T12:19:09Z</time>
      </trkpt>
      <trkpt lat="49.25413" lon="-0.23672">
        <ele>41.8</ele>
        <time>2017-05-25T12:19:16Z</time>
      </trkpt>
      <trkpt lat="49.25416" lon="-0.23681">
        <ele>42.5</ele>
        <time>2017-05-25T12:19:23Z</time>
      </trkpt>
      <trkpt lat="49.25419" lon="-0.23685">
        <ele>44.1</ele>
        <time>2017-05-25T12:19:30Z</time>
      </trkpt>
      <trkpt lat="49.25424" lon="-0.23691">
        <ele>44.8</ele>
        <time>2017-05-25T12:20:16Z</time>
      </trkpt>
      <trkpt lat="49.25425" lon="-0.23693">
        <ele>44.9</ele>
        <time>2017-05-25T12:23:03Z</time>
      </trkpt>
      <trkpt lat="49.25419" lon="-0.23697">
        <ele>41.9</ele>
        <time>2017-05-25T12:23:10Z</time>
      </trkpt>
      <trkpt lat="49.25418" lon="-0.23709">
        <ele>41.9</ele>
        <time>2017-05-25T12:23:17Z</time>
      </trkpt>
      <trkpt lat="49.25421" lon="-0.23717">
        <ele>42.2</ele>
        <time>2017-05-25T12:23:24Z</time>
      </trkpt>
      <trkpt lat="49.25424" lon="-0.23727">
        <ele>43.3</ele>
        <time>2017-05-25T12:23:31Z</time>
      </trkpt>
      <trkpt lat="49.25427" lon="-0.23738">
        <ele>40.7</ele>
        <time>2017-05-25T12:23:38Z</time>
      </trkpt>
      <trkpt lat="49.25429" lon="-0.23749">
        <ele>37.8</ele>
        <time>2017-05-25T12:23:45Z</time>
      </trkpt>
      <trkpt lat="49.25433" lon="-0.23757">
        <ele>38.2</ele>
        <time>2017-05-25T12:23:52Z</time>
      </trkpt>
      <trkpt lat="49.25431" lon="-0.2376">
        <ele>38.2</ele>
        <time>2017-05-25T12:23:59Z</time>
      </trkpt>
      <trkpt lat="49.25435" lon="-0.23767">
        <ele>38</ele>
        <time>2017-05-25T12:24:35Z</time>
      </trkpt>
      <trkpt lat="49.25437" lon="-0.23776">
        <ele>37.4</ele>
        <time>2017-05-25T12:24:42Z</time>
      </trkpt>
      <trkpt lat="49.2544" lon="-0.23787">
        <ele>36.2</ele>
        <time>2017-05-25T12:24:49Z</time>
      </trkpt>
      <trkpt lat="49.25443" lon="-0.23797">
        <ele>36.2</ele>
        <time>2017-05-25T12:24:56Z</time>
      </trkpt>
      <trkpt lat="49.25446" lon="-0.23807">
        <ele>35.5</ele>
        <time>2017-05-25T12:25:03Z</time>
      </trkpt>
      <trkpt lat="49.25448" lon="-0.23816">
        <ele>32.2</ele>
        <time>2017-05-25T12:25:10Z</time>
      </trkpt>
      <trkpt lat="49.2545" lon="-0.23823">
        <ele>31.1</ele>
        <time>2017-05-25T12:25:16Z</time>
      </trkpt>
      <trkpt lat="49.25452" lon="-0.23833">
        <ele>32.2</ele>
        <time>2017-05-25T12:25:23Z</time>
      </trkpt>
      <trkpt lat="49.25456" lon="-0.23845">
        <ele>32.4</ele>
        <time>2017-05-25T12:25:30Z</time>
      </trkpt>
      <trkpt lat="49.25458" lon="-0.23855">
        <ele>31</ele>
        <time>2017-05-25T12:25:37Z</time>
      </trkpt>
      <trkpt lat="49.25461" lon="-0.23864">
        <ele>29.3</ele>
        <time>2017-05-25T12:25:44Z</time>
      </trkpt>
      <trkpt lat="49.25461" lon="-0.23874">
        <ele>27</ele>
        <time>2017-05-25T12:25:51Z</time>
      </trkpt>
      <trkpt lat="49.25462" lon="-0.2388">
        <ele>25.5</ele>
        <time>2017-05-25T12:25:58Z</time>
      </trkpt>
      <trkpt lat="49.25464" lon="-0.23889">
        <ele>23.5</ele>
        <time>2017-05-25T12:26:06Z</time>
      </trkpt>
      <trkpt lat="49.25467" lon="-0.23899">
        <ele>22.5</ele>
        <time>2017-05-25T12:26:13Z</time>
      </trkpt>
      <trkpt lat="49.25468" lon="-0.2391">
        <ele>21.3</ele>
        <time>2017-05-25T12:26:20Z</time>
      </trkpt>
      <trkpt lat="49.2547" lon="-0.23915">
        <ele>21.4</ele>
        <time>2017-05-25T12:26:27Z</time>
      </trkpt>
      <trkpt lat="49.25472" lon="-0.2392">
        <ele>19.8</ele>
        <time>2017-05-25T12:26:34Z</time>
      </trkpt>
      <trkpt lat="49.25474" lon="-0.23932">
        <ele>16.3</ele>
        <time>2017-05-25T12:26:41Z</time>
      </trkpt>
      <trkpt lat="49.25476" lon="-0.23941">
        <ele>14.2</ele>
        <time>2017-05-25T12:26:48Z</time>
      </trkpt>
      <trkpt lat="49.25476" lon="-0.23952">
        <ele>14.2</ele>
        <time>2017-05-25T12:26:53Z</time>
      </trkpt>
      <trkpt lat="49.25479" lon="-0.23964">
        <ele>15.3</ele>
        <time>2017-05-25T12:26:58Z</time>
      </trkpt>
      <trkpt lat="49.25482" lon="-0.23974">
        <ele>15.5</ele>
        <time>2017-05-25T12:27:04Z</time>
      </trkpt>
      <trkpt lat="49.25485" lon="-0.23985">
        <ele>15.5</ele>
        <time>2017-05-25T12:27:10Z</time>
      </trkpt>
      <trkpt lat="49.25489" lon="-0.23994">
        <ele>14.7</ele>
        <time>2017-05-25T12:27:17Z</time>
      </trkpt>
      <trkpt lat="49.25492" lon="-0.24006">
        <ele>14.3</ele>
        <time>2017-05-25T12:27:24Z</time>
      </trkpt>
      <trkpt lat="49.25495" lon="-0.24016">
        <ele>15.6</ele>
        <time>2017-05-25T12:27:31Z</time>
      </trkpt>
      <trkpt lat="49.25499" lon="-0.24026">
        <ele>16.8</ele>
        <time>2017-05-25T12:27:38Z</time>
      </trkpt>
      <trkpt lat="49.25503" lon="-0.24037">
        <ele>16.8</ele>
        <time>2017-05-25T12:27:45Z</time>
      </trkpt>
      <trkpt lat="49.25505" lon="-0.24046">
        <ele>18.2</ele>
        <time>2017-05-25T12:27:52Z</time>
      </trkpt>
      <trkpt lat="49.25508" lon="-0.24056">
        <ele>19.4</ele>
        <time>2017-05-25T12:27:59Z</time>
      </trkpt>
      <trkpt lat="49.25511" lon="-0.24065">
        <ele>20.2</ele>
        <time>2017-05-25T12:28:06Z</time>
      </trkpt>
      <trkpt lat="49.25514" lon="-0.24075">
        <ele>19.8</ele>
        <time>2017-05-25T12:28:13Z</time>
      </trkpt>
      <trkpt lat="49.25517" lon="-0.24084">
        <ele>19.4</ele>
        <time>2017-05-25T12:28:20Z</time>
      </trkpt>
      <trkpt lat="49.25518" lon="-0.24093">
        <ele>19.7</ele>
        <time>2017-05-25T12:28:27Z</time>
      </trkpt>
      <trkpt lat="49.25521" lon="-0.241">
        <ele>19.5</ele>
        <time>2017-05-25T12:28:34Z</time>
      </trkpt>
      <trkpt lat="49.25525" lon="-0.24112">
        <ele>19</ele>
        <time>2017-05-25T12:28:49Z</time>
      </trkpt>
      <trkpt lat="49.25524" lon="-0.24123">
        <ele>18.9</ele>
        <time>2017-05-25T12:28:55Z</time>
      </trkpt>
      <trkpt lat="49.25523" lon="-0.24127">
        <ele>18.3</ele>
        <time>2017-05-25T12:29:02Z</time>
      </trkpt>
      <trkpt lat="49.25529" lon="-0.24136">
        <ele>17</ele>
        <time>2017-05-25T12:30:50Z</time>
      </trkpt>
      <trkpt lat="49.25532" lon="-0.24146">
        <ele>17.3</ele>
        <time>2017-05-25T12:30:57Z</time>
      </trkpt>
      <trkpt lat="49.25535" lon="-0.24156">
        <ele>19</ele>
        <time>2017-05-25T12:31:04Z</time>
      </trkpt>
      <trkpt lat="49.25538" lon="-0.24168">
        <ele>18.4</ele>
        <time>2017-05-25T12:31:10Z</time>
      </trkpt>
      <trkpt lat="49.2554" lon="-0.24179">
        <ele>18.6</ele>
        <time>2017-05-25T12:31:17Z</time>
      </trkpt>
      <trkpt lat="49.25543" lon="-0.2419">
        <ele>17.5</ele>
        <time>2017-05-25T12:31:24Z</time>
      </trkpt>
      <trkpt lat="49.25546" lon="-0.24201">
        <ele>19.3</ele>
        <time>2017-05-25T12:31:31Z</time>
      </trkpt>
      <trkpt lat="49.25549" lon="-0.24213">
        <ele>20.2</ele>
        <time>2017-05-25T12:31:37Z</time>
      </trkpt>
      <trkpt lat="49.25552" lon="-0.24223">
        <ele>18.9</ele>
        <time>2017-05-25T12:31:43Z</time>
      </trkpt>
      <trkpt lat="49.25555" lon="-0.24234">
        <ele>21.1</ele>
        <time>2017-05-25T12:31:49Z</time>
      </trkpt>
      <trkpt lat="49.25558" lon="-0.24245">
        <ele>19.4</ele>
        <time>2017-05-25T12:31:54Z</time>
      </trkpt>
      <trkpt lat="49.25561" lon="-0.24256">
        <ele>18.2</ele>
        <time>2017-05-25T12:32:00Z</time>
      </trkpt>
      <trkpt lat="49.25565" lon="-0.24265">
        <ele>19.1</ele>
        <time>2017-05-25T12:32:05Z</time>
      </trkpt>
      <trkpt lat="49.25567" lon="-0.24278">
        <ele>15.1</ele>
        <time>2017-05-25T12:32:11Z</time>
      </trkpt>
      <trkpt lat="49.25571" lon="-0.24289">
        <ele>14</ele>
        <time>2017-05-25T12:32:18Z</time>
      </trkpt>
      <trkpt lat="49.25576" lon="-0.24299">
        <ele>12.3</ele>
        <time>2017-05-25T12:32:24Z</time>
      </trkpt>
      <trkpt lat="49.25578" lon="-0.24308">
        <ele>12.3</ele>
        <time>2017-05-25T12:32:31Z</time>
      </trkpt>
      <trkpt lat="49.25582" lon="-0.2432">
        <ele>11.7</ele>
        <time>2017-05-25T12:32:38Z</time>
      </trkpt>
      <trkpt lat="49.25585" lon="-0.24331">
        <ele>9.5</ele>
        <time>2017-05-25T12:32:45Z</time>
      </trkpt>
      <trkpt lat="49.25585" lon="-0.24343">
        <ele>8.3</ele>
        <time>2017-05-25T12:32:52Z</time>
      </trkpt>
      <trkpt lat="49.25588" lon="-0.24354">
        <ele>7.2</ele>
        <time>2017-05-25T12:32:59Z</time>
      </trkpt>
      <trkpt lat="49.25591" lon="-0.24366">
        <ele>4.6</ele>
        <time>2017-05-25T12:33:05Z</time>
      </trkpt>
      <trkpt lat="49.25596" lon="-0.24375">
        <ele>2.6</ele>
        <time>2017-05-25T12:33:10Z</time>
      </trkpt>
      <trkpt lat="49.25592" lon="-0.24387">
        <ele>3.6</ele>
        <time>2017-05-25T12:33:15Z</time>
      </trkpt>
      <trkpt lat="49.25586" lon="-0.24395">
        <ele>3.5</ele>
        <time>2017-05-25T12:33:20Z</time>
      </trkpt>
      <trkpt lat="49.2558" lon="-0.24403">
        <ele>4.5</ele>
        <time>2017-05-25T12:33:26Z</time>
      </trkpt>
      <trkpt lat="49.25573" lon="-0.24409">
        <ele>5.4</ele>
        <time>2017-05-25T12:33:32Z</time>
      </trkpt>
      <trkpt lat="49.25568" lon="-0.24417">
        <ele>4.5</ele>
        <time>2017-05-25T12:33:38Z</time>
      </trkpt>
      <trkpt lat="49.25562" lon="-0.24424">
        <ele>3.1</ele>
        <time>2017-05-25T12:33:44Z</time>
      </trkpt>
      <trkpt lat="49.25556" lon="-0.24431">
        <ele>3.5</ele>
        <time>2017-05-25T12:33:50Z</time>
      </trkpt>
      <trkpt lat="49.25551" lon="-0.24441">
        <ele>4.9</ele>
        <time>2017-05-25T12:33:56Z</time>
      </trkpt>
      <trkpt lat="49.25545" lon="-0.2445">
        <ele>5.1</ele>
        <time>2017-05-25T12:34:03Z</time>
      </trkpt>
      <trkpt lat="49.2554" lon="-0.24456">
        <ele>7</ele>
        <time>2017-05-25T12:34:09Z</time>
      </trkpt>
      <trkpt lat="49.25534" lon="-0.24465">
        <ele>6.1</ele>
        <time>2017-05-25T12:34:16Z</time>
      </trkpt>
      <trkpt lat="49.25528" lon="-0.24473">
        <ele>6.6</ele>
        <time>2017-05-25T12:34:23Z</time>
      </trkpt>
      <trkpt lat="49.25522" lon="-0.24478">
        <ele>5.1</ele>
        <time>2017-05-25T12:34:30Z</time>
      </trkpt>
      <trkpt lat="49.25516" lon="-0.24486">
        <ele>4.7</ele>
        <time>2017-05-25T12:34:36Z</time>
      </trkpt>
      <trkpt lat="49.2551" lon="-0.24492">
        <ele>4.5</ele>
        <time>2017-05-25T12:34:42Z</time>
      </trkpt>
      <trkpt lat="49.25503" lon="-0.24499">
        <ele>4</ele>
        <time>2017-05-25T12:34:49Z</time>
      </trkpt>
      <trkpt lat="49.25497" lon="-0.24505">
        <ele>3.8</ele>
        <time>2017-05-25T12:34:55Z</time>
      </trkpt>
      <trkpt lat="49.2549" lon="-0.24512">
        <ele>4.1</ele>
        <time>2017-05-25T12:35:02Z</time>
      </trkpt>
      <trkpt lat="49.25484" lon="-0.24519">
        <ele>5</ele>
        <time>2017-05-25T12:35:08Z</time>
      </trkpt>
      <trkpt lat="49.25478" lon="-0.24528">
        <ele>6</ele>
        <time>2017-05-25T12:35:15Z</time>
      </trkpt>
      <trkpt lat="49.25472" lon="-0.24534">
        <ele>5</ele>
        <time>2017-05-25T12:35:21Z</time>
      </trkpt>
      <trkpt lat="49.25466" lon="-0.24542">
        <ele>6</ele>
        <time>2017-05-25T12:35:28Z</time>
      </trkpt>
      <trkpt lat="49.25459" lon="-0.2455">
        <ele>5.4</ele>
        <time>2017-05-25T12:35:35Z</time>
      </trkpt>
      <trkpt lat="49.25452" lon="-0.24556">
        <ele>4.5</ele>
        <time>2017-05-25T12:35:42Z</time>
      </trkpt>
      <trkpt lat="49.25446" lon="-0.24563">
        <ele>4.8</ele>
        <time>2017-05-25T12:35:49Z</time>
      </trkpt>
      <trkpt lat="49.25439" lon="-0.2457">
        <ele>4.5</ele>
        <time>2017-05-25T12:35:56Z</time>
      </trkpt>
      <trkpt lat="49.25432" lon="-0.24575">
        <ele>4.9</ele>
        <time>2017-05-25T12:36:02Z</time>
      </trkpt>
      <trkpt lat="49.25426" lon="-0.2458">
        <ele>4.3</ele>
        <time>2017-05-25T12:36:08Z</time>
      </trkpt>
      <trkpt lat="49.25419" lon="-0.24586">
        <ele>5.9</ele>
        <time>2017-05-25T12:36:15Z</time>
      </trkpt>
      <trkpt lat="49.25413" lon="-0.24593">
        <ele>6.1</ele>
        <time>2017-05-25T12:36:22Z</time>
      </trkpt>
      <trkpt lat="49.25408" lon="-0.246">
        <ele>6</ele>
        <time>2017-05-25T12:36:29Z</time>
      </trkpt>
      <trkpt lat="49.25402" lon="-0.24607">
        <ele>6.4</ele>
        <time>2017-05-25T12:36:36Z</time>
      </trkpt>
      <trkpt lat="49.25396" lon="-0.24615">
        <ele>5.6</ele>
        <time>2017-05-25T12:36:43Z</time>
      </trkpt>
      <trkpt lat="49.25392" lon="-0.24623">
        <ele>7.4</ele>
        <time>2017-05-25T12:36:50Z</time>
      </trkpt>
      <trkpt lat="49.25385" lon="-0.24626">
        <ele>7.8</ele>
        <time>2017-05-25T12:36:56Z</time>
      </trkpt>
      <trkpt lat="49.25378" lon="-0.24634">
        <ele>8.3</ele>
        <time>2017-05-25T12:37:03Z</time>
      </trkpt>
      <trkpt lat="49.25376" lon="-0.24641">
        <ele>6.7</ele>
        <time>2017-05-25T12:37:10Z</time>
      </trkpt>
      <trkpt lat="49.25379" lon="-0.24649">
        <ele>6.6</ele>
        <time>2017-05-25T12:37:17Z</time>
      </trkpt>
      <trkpt lat="49.25383" lon="-0.24659">
        <ele>7.4</ele>
        <time>2017-05-25T12:37:24Z</time>
      </trkpt>
      <trkpt lat="49.25383" lon="-0.24666">
        <ele>6.7</ele>
        <time>2017-05-25T12:37:31Z</time>
      </trkpt>
      <trkpt lat="49.25387" lon="-0.24673">
        <ele>7.1</ele>
        <time>2017-05-25T12:37:38Z</time>
      </trkpt>
      <trkpt lat="49.2539" lon="-0.24685">
        <ele>9.4</ele>
        <time>2017-05-25T12:37:45Z</time>
      </trkpt>
      <trkpt lat="49.25396" lon="-0.24695">
        <ele>9.4</ele>
        <time>2017-05-25T12:37:51Z</time>
      </trkpt>
      <trkpt lat="49.25399" lon="-0.24706">
        <ele>8.2</ele>
        <time>2017-05-25T12:37:57Z</time>
      </trkpt>
      <trkpt lat="49.25402" lon="-0.24718">
        <ele>6.7</ele>
        <time>2017-05-25T12:38:04Z</time>
      </trkpt>
      <trkpt lat="49.25407" lon="-0.24728">
        <ele>6.7</ele>
        <time>2017-05-25T12:38:10Z</time>
      </trkpt>
      <trkpt lat="49.2541" lon="-0.2474">
        <ele>5.5</ele>
        <time>2017-05-25T12:38:17Z</time>
      </trkpt>
      <trkpt lat="49.25413" lon="-0.24749">
        <ele>5.6</ele>
        <time>2017-05-25T12:38:24Z</time>
      </trkpt>
      <trkpt lat="49.25417" lon="-0.2476">
        <ele>5</ele>
        <time>2017-05-25T12:38:31Z</time>
      </trkpt>
      <trkpt lat="49.25421" lon="-0.24769">
        <ele>6.2</ele>
        <time>2017-05-25T12:38:37Z</time>
      </trkpt>
      <trkpt lat="49.25424" lon="-0.24779">
        <ele>3.9</ele>
        <time>2017-05-25T12:38:44Z</time>
      </trkpt>
      <trkpt lat="49.25427" lon="-0.24789">
        <ele>2.5</ele>
        <time>2017-05-25T12:38:51Z</time>
      </trkpt>
      <trkpt lat="49.25431" lon="-0.248">
        <ele>5.6</ele>
        <time>2017-05-25T12:38:58Z</time>
      </trkpt>
      <trkpt lat="49.25434" lon="-0.24811">
        <ele>5.1</ele>
        <time>2017-05-25T12:39:04Z</time>
      </trkpt>
      <trkpt lat="49.25438" lon="-0.24821">
        <ele>3.5</ele>
        <time>2017-05-25T12:39:10Z</time>
      </trkpt>
      <trkpt lat="49.25442" lon="-0.24833">
        <ele>3.1</ele>
        <time>2017-05-25T12:39:17Z</time>
      </trkpt>
      <trkpt lat="49.25446" lon="-0.24843">
        <ele>1.9</ele>
        <time>2017-05-25T12:39:24Z</time>
      </trkpt>
      <trkpt lat="49.2545" lon="-0.24852">
        <ele>2</ele>
        <time>2017-05-25T12:39:31Z</time>
      </trkpt>
      <trkpt lat="49.25455" lon="-0.24861">
        <ele>2.7</ele>
        <time>2017-05-25T12:39:37Z</time>
      </trkpt>
      <trkpt lat="49.25459" lon="-0.24871">
        <ele>1.8</ele>
        <time>2017-05-25T12:39:44Z</time>
      </trkpt>
      <trkpt lat="49.25462" lon="-0.24881">
        <ele>2.1</ele>
        <time>2017-05-25T12:39:51Z</time>
      </trkpt>
      <trkpt lat="49.25466" lon="-0.24891">
        <ele>2.9</ele>
        <time>2017-05-25T12:39:58Z</time>
      </trkpt>
      <trkpt lat="49.2547" lon="-0.24902">
        <ele>4.3</ele>
        <time>2017-05-25T12:40:04Z</time>
      </trkpt>
      <trkpt lat="49.25473" lon="-0.24914">
        <ele>5</ele>
        <time>2017-05-25T12:40:11Z</time>
      </trkpt>
      <trkpt lat="49.25476" lon="-0.24925">
        <ele>4.5</ele>
        <time>2017-05-25T12:40:18Z</time>
      </trkpt>
      <trkpt lat="49.25479" lon="-0.24936">
        <ele>4.6</ele>
        <time>2017-05-25T12:40:25Z</time>
      </trkpt>
      <trkpt lat="49.25482" lon="-0.24945">
        <ele>4.5</ele>
        <time>2017-05-25T12:40:32Z</time>
      </trkpt>
      <trkpt lat="49.25487" lon="-0.24956">
        <ele>4.8</ele>
        <time>2017-05-25T12:40:38Z</time>
      </trkpt>
      <trkpt lat="49.25491" lon="-0.24967">
        <ele>4</ele>
        <time>2017-05-25T12:40:45Z</time>
      </trkpt>
      <trkpt lat="49.25494" lon="-0.24978">
        <ele>4.2</ele>
        <time>2017-05-25T12:40:52Z</time>
      </trkpt>
      <trkpt lat="49.25497" lon="-0.24991">
        <ele>4.1</ele>
        <time>2017-05-25T12:40:59Z</time>
      </trkpt>
      <trkpt lat="49.255" lon="-0.25">
        <ele>3.5</ele>
        <time>2017-05-25T12:41:06Z</time>
      </trkpt>
      <trkpt lat="49.25504" lon="-0.25011">
        <ele>2.5</ele>
        <time>2017-05-25T12:41:12Z</time>
      </trkpt>
      <trkpt lat="49.25508" lon="-0.25021">
        <ele>1.6</ele>
        <time>2017-05-25T12:41:19Z</time>
      </trkpt>
      <trkpt lat="49.25513" lon="-0.2503">
        <ele>2.4</ele>
        <time>2017-05-25T12:41:24Z</time>
      </trkpt>
      <trkpt lat="49.25517" lon="-0.25042">
        <ele>3</ele>
        <time>2017-05-25T12:41:31Z</time>
      </trkpt>
      <trkpt lat="49.2552" lon="-0.25051">
        <ele>4.5</ele>
        <time>2017-05-25T12:41:37Z</time>
      </trkpt>
      <trkpt lat="49.25524" lon="-0.2506">
        <ele>3.8</ele>
        <time>2017-05-25T12:41:43Z</time>
      </trkpt>
      <trkpt lat="49.25528" lon="-0.2507">
        <ele>3</ele>
        <time>2017-05-25T12:41:49Z</time>
      </trkpt>
      <trkpt lat="49.25531" lon="-0.25082">
        <ele>1.2</ele>
        <time>2017-05-25T12:41:55Z</time>
      </trkpt>
      <trkpt lat="49.25531" lon="-0.25093">
        <ele>2.9</ele>
        <time>2017-05-25T12:42:01Z</time>
      </trkpt>
      <trkpt lat="49.25525" lon="-0.25102">
        <ele>2.1</ele>
        <time>2017-05-25T12:42:07Z</time>
      </trkpt>
      <trkpt lat="49.25518" lon="-0.25109">
        <ele>1.1</ele>
        <time>2017-05-25T12:42:13Z</time>
      </trkpt>
      <trkpt lat="49.25512" lon="-0.25114">
        <ele>1</ele>
        <time>2017-05-25T12:42:19Z</time>
      </trkpt>
      <trkpt lat="49.25504" lon="-0.25121">
        <ele>2.4</ele>
        <time>2017-05-25T12:42:26Z</time>
      </trkpt>
      <trkpt lat="49.25498" lon="-0.25127">
        <ele>2.9</ele>
        <time>2017-05-25T12:42:32Z</time>
      </trkpt>
      <trkpt lat="49.25492" lon="-0.25133">
        <ele>3.3</ele>
        <time>2017-05-25T12:42:38Z</time>
      </trkpt>
      <trkpt lat="49.25486" lon="-0.25138">
        <ele>3.3</ele>
        <time>2017-05-25T12:42:44Z</time>
      </trkpt>
      <trkpt lat="49.25479" lon="-0.25145">
        <ele>3.6</ele>
        <time>2017-05-25T12:42:50Z</time>
      </trkpt>
      <trkpt lat="49.25473" lon="-0.25151">
        <ele>3.1</ele>
        <time>2017-05-25T12:42:56Z</time>
      </trkpt>
      <trkpt lat="49.25466" lon="-0.25157">
        <ele>3.2</ele>
        <time>2017-05-25T12:43:02Z</time>
      </trkpt>
      <trkpt lat="49.25459" lon="-0.25162">
        <ele>3.5</ele>
        <time>2017-05-25T12:43:08Z</time>
      </trkpt>
      <trkpt lat="49.25452" lon="-0.25169">
        <ele>4</ele>
        <time>2017-05-25T12:43:15Z</time>
      </trkpt>
      <trkpt lat="49.25446" lon="-0.25175">
        <ele>3.9</ele>
        <time>2017-05-25T12:43:22Z</time>
      </trkpt>
      <trkpt lat="49.25439" lon="-0.25181">
        <ele>3.7</ele>
        <time>2017-05-25T12:43:28Z</time>
      </trkpt>
      <trkpt lat="49.25432" lon="-0.25187">
        <ele>3.9</ele>
        <time>2017-05-25T12:43:35Z</time>
      </trkpt>
      <trkpt lat="49.25425" lon="-0.25193">
        <ele>3.2</ele>
        <time>2017-05-25T12:43:41Z</time>
      </trkpt>
      <trkpt lat="49.25419" lon="-0.25199">
        <ele>1.6</ele>
        <time>2017-05-25T12:43:47Z</time>
      </trkpt>
      <trkpt lat="49.25412" lon="-0.25205">
        <ele>0.1</ele>
        <time>2017-05-25T12:43:54Z</time>
      </trkpt>
      <trkpt lat="49.25405" lon="-0.2521">
        <ele>-0.5</ele>
        <time>2017-05-25T12:44:01Z</time>
      </trkpt>
      <trkpt lat="49.25399" lon="-0.25216">
        <ele>0.6</ele>
        <time>2017-05-25T12:44:07Z</time>
      </trkpt>
      <trkpt lat="49.25392" lon="-0.25222">
        <ele>0.8</ele>
        <time>2017-05-25T12:44:14Z</time>
      </trkpt>
      <trkpt lat="49.25386" lon="-0.25226">
        <ele>1.1</ele>
        <time>2017-05-25T12:44:21Z</time>
      </trkpt>
      <trkpt lat="49.25379" lon="-0.25232">
        <ele>1</ele>
        <time>2017-05-25T12:44:28Z</time>
      </trkpt>
      <trkpt lat="49.25374" lon="-0.25237">
        <ele>1.9</ele>
        <time>2017-05-25T12:44:35Z</time>
      </trkpt>
      <trkpt lat="49.25368" lon="-0.25242">
        <ele>3.1</ele>
        <time>2017-05-25T12:44:42Z</time>
      </trkpt>
      <trkpt lat="49.25362" lon="-0.25247">
        <ele>2.8</ele>
        <time>2017-05-25T12:44:49Z</time>
      </trkpt>
      <trkpt lat="49.25355" lon="-0.25252">
        <ele>2</ele>
        <time>2017-05-25T12:44:55Z</time>
      </trkpt>
      <trkpt lat="49.25349" lon="-0.25259">
        <ele>1</ele>
        <time>2017-05-25T12:45:01Z</time>
      </trkpt>
      <trkpt lat="49.25343" lon="-0.25265">
        <ele>-0.5</ele>
        <time>2017-05-25T12:45:07Z</time>
      </trkpt>
      <trkpt lat="49.25336" lon="-0.2527">
        <ele>-0.5</ele>
        <time>2017-05-25T12:45:12Z</time>
      </trkpt>
      <trkpt lat="49.25329" lon="-0.25276">
        <ele>-1.3</ele>
        <time>2017-05-25T12:45:19Z</time>
      </trkpt>
      <trkpt lat="49.25322" lon="-0.2528">
        <ele>-1</ele>
        <time>2017-05-25T12:45:25Z</time>
      </trkpt>
      <trkpt lat="49.25316" lon="-0.25287">
        <ele>0.8</ele>
        <time>2017-05-25T12:45:32Z</time>
      </trkpt>
      <trkpt lat="49.25316" lon="-0.25294">
        <ele>-0.9</ele>
        <time>2017-05-25T12:45:39Z</time>
      </trkpt>
      <trkpt lat="49.25317" lon="-0.25303">
        <ele>-2.5</ele>
        <time>2017-05-25T12:45:46Z</time>
      </trkpt>
      <trkpt lat="49.25321" lon="-0.25312">
        <ele>-0.7</ele>
        <time>2017-05-25T12:45:53Z</time>
      </trkpt>
      <trkpt lat="49.25325" lon="-0.25324">
        <ele>0.8</ele>
        <time>2017-05-25T12:46:00Z</time>
      </trkpt>
      <trkpt lat="49.25329" lon="-0.25333">
        <ele>-0.4</ele>
        <time>2017-05-25T12:46:06Z</time>
      </trkpt>
      <trkpt lat="49.25333" lon="-0.25343">
        <ele>-0.3</ele>
        <time>2017-05-25T12:46:13Z</time>
      </trkpt>
      <trkpt lat="49.25336" lon="-0.25352">
        <ele>0.2</ele>
        <time>2017-05-25T12:46:20Z</time>
      </trkpt>
      <trkpt lat="49.25338" lon="-0.25361">
        <ele>0.9</ele>
        <time>2017-05-25T12:46:27Z</time>
      </trkpt>
      <trkpt lat="49.25343" lon="-0.2537">
        <ele>1.6</ele>
        <time>2017-05-25T12:46:34Z</time>
      </trkpt>
      <trkpt lat="49.25346" lon="-0.2538">
        <ele>1.5</ele>
        <time>2017-05-25T12:46:40Z</time>
      </trkpt>
      <trkpt lat="49.2535" lon="-0.25389">
        <ele>1.4</ele>
        <time>2017-05-25T12:46:46Z</time>
      </trkpt>
      <trkpt lat="49.25353" lon="-0.254">
        <ele>-0.9</ele>
        <time>2017-05-25T12:46:52Z</time>
      </trkpt>
      <trkpt lat="49.25358" lon="-0.25409">
        <ele>-1.1</ele>
        <time>2017-05-25T12:46:57Z</time>
      </trkpt>
      <trkpt lat="49.2536" lon="-0.2542">
        <ele>-0.6</ele>
        <time>2017-05-25T12:47:04Z</time>
      </trkpt>
      <trkpt lat="49.25364" lon="-0.25429">
        <ele>0.6</ele>
        <time>2017-05-25T12:47:12Z</time>
      </trkpt>
      <trkpt lat="49.25366" lon="-0.25435">
        <ele>-1.3</ele>
        <time>2017-05-25T12:47:19Z</time>
      </trkpt>
      <trkpt lat="49.25368" lon="-0.25438">
        <ele>-1.3</ele>
        <time>2017-05-25T12:47:26Z</time>
      </trkpt>
      <trkpt lat="49.25376" lon="-0.25454">
        <ele>2.4</ele>
        <time>2017-05-25T12:48:42Z</time>
      </trkpt>
      <trkpt lat="49.25376" lon="-0.25463">
        <ele>2</ele>
        <time>2017-05-25T12:48:49Z</time>
      </trkpt>
      <trkpt lat="49.25378" lon="-0.25465">
        <ele>1.6</ele>
        <time>2017-05-25T12:48:56Z</time>
      </trkpt>
      <trkpt lat="49.25373" lon="-0.25465">
        <ele>3.9</ele>
        <time>2017-05-25T12:51:21Z</time>
      </trkpt>
      <trkpt lat="49.25373" lon="-0.25456">
        <ele>6</ele>
        <time>2017-05-25T12:51:42Z</time>
      </trkpt>
      <trkpt lat="49.25378" lon="-0.2545">
        <ele>3.5</ele>
        <time>2017-05-25T12:51:49Z</time>
      </trkpt>
      <trkpt lat="49.25383" lon="-0.25443">
        <ele>0.1</ele>
        <time>2017-05-25T12:51:56Z</time>
      </trkpt>
      <trkpt lat="49.25387" lon="-0.25438">
        <ele>-0.7</ele>
        <time>2017-05-25T12:52:03Z</time>
      </trkpt>
      <trkpt lat="49.25393" lon="-0.25432">
        <ele>-1</ele>
        <time>2017-05-25T12:52:09Z</time>
      </trkpt>
      <trkpt lat="49.25399" lon="-0.25426">
        <ele>-1.7</ele>
        <time>2017-05-25T12:52:16Z</time>
      </trkpt>
      <trkpt lat="49.25406" lon="-0.2542">
        <ele>-1.1</ele>
        <time>2017-05-25T12:52:23Z</time>
      </trkpt>
      <trkpt lat="49.25412" lon="-0.25413">
        <ele>-0.3</ele>
        <time>2017-05-25T12:52:30Z</time>
      </trkpt>
      <trkpt lat="49.25419" lon="-0.25409">
        <ele>1.6</ele>
        <time>2017-05-25T12:52:36Z</time>
      </trkpt>
      <trkpt lat="49.25427" lon="-0.25405">
        <ele>2.5</ele>
        <time>2017-05-25T12:52:42Z</time>
      </trkpt>
      <trkpt lat="49.25433" lon="-0.25399">
        <ele>2.7</ele>
        <time>2017-05-25T12:52:48Z</time>
      </trkpt>
      <trkpt lat="49.25439" lon="-0.25392">
        <ele>0.2</ele>
        <time>2017-05-25T12:52:54Z</time>
      </trkpt>
      <trkpt lat="49.25445" lon="-0.25386">
        <ele>-1.7</ele>
        <time>2017-05-25T12:53:01Z</time>
      </trkpt>
      <trkpt lat="49.25452" lon="-0.25381">
        <ele>-1.6</ele>
        <time>2017-05-25T12:53:07Z</time>
      </trkpt>
      <trkpt lat="49.25459" lon="-0.25375">
        <ele>-1.4</ele>
        <time>2017-05-25T12:53:13Z</time>
      </trkpt>
      <trkpt lat="49.25465" lon="-0.2537">
        <ele>-1.1</ele>
        <time>2017-05-25T12:53:20Z</time>
      </trkpt>
      <trkpt lat="49.25471" lon="-0.25365">
        <ele>0.7</ele>
        <time>2017-05-25T12:53:27Z</time>
      </trkpt>
      <trkpt lat="49.25479" lon="-0.2536">
        <ele>0.3</ele>
        <time>2017-05-25T12:53:33Z</time>
      </trkpt>
      <trkpt lat="49.25485" lon="-0.25355">
        <ele>1.3</ele>
        <time>2017-05-25T12:53:40Z</time>
      </trkpt>
      <trkpt lat="49.25493" lon="-0.2535">
        <ele>2</ele>
        <time>2017-05-25T12:53:46Z</time>
      </trkpt>
      <trkpt lat="49.255" lon="-0.25345">
        <ele>1.9</ele>
        <time>2017-05-25T12:53:52Z</time>
      </trkpt>
      <trkpt lat="49.25506" lon="-0.25337">
        <ele>1.2</ele>
        <time>2017-05-25T12:53:59Z</time>
      </trkpt>
      <trkpt lat="49.25513" lon="-0.25332">
        <ele>1.1</ele>
        <time>2017-05-25T12:54:06Z</time>
      </trkpt>
      <trkpt lat="49.2552" lon="-0.25327">
        <ele>0.7</ele>
        <time>2017-05-25T12:54:13Z</time>
      </trkpt>
      <trkpt lat="49.25527" lon="-0.25321">
        <ele>1.7</ele>
        <time>2017-05-25T12:54:19Z</time>
      </trkpt>
      <trkpt lat="49.25533" lon="-0.25315">
        <ele>0.7</ele>
        <time>2017-05-25T12:54:24Z</time>
      </trkpt>
      <trkpt lat="49.2554" lon="-0.25309">
        <ele>-0.5</ele>
        <time>2017-05-25T12:54:30Z</time>
      </trkpt>
      <trkpt lat="49.25548" lon="-0.25303">
        <ele>-2.4</ele>
        <time>2017-05-25T12:54:36Z</time>
      </trkpt>
      <trkpt lat="49.25555" lon="-0.25299">
        <ele>-3</ele>
        <time>2017-05-25T12:54:43Z</time>
      </trkpt>
      <trkpt lat="49.25562" lon="-0.25293">
        <ele>-3</ele>
        <time>2017-05-25T12:54:49Z</time>
      </trkpt>
      <trkpt lat="49.25568" lon="-0.25286">
        <ele>-5.6</ele>
        <time>2017-05-25T12:54:55Z</time>
      </trkpt>
      <trkpt lat="49.25575" lon="-0.25278">
        <ele>-5.3</ele>
        <time>2017-05-25T12:55:01Z</time>
      </trkpt>
      <trkpt lat="49.25582" lon="-0.25272">
        <ele>-6.4</ele>
        <time>2017-05-25T12:55:07Z</time>
      </trkpt>
      <trkpt lat="49.25588" lon="-0.25267">
        <ele>-3.8</ele>
        <time>2017-05-25T12:55:13Z</time>
      </trkpt>
      <trkpt lat="49.25595" lon="-0.25261">
        <ele>-3.6</ele>
        <time>2017-05-25T12:55:19Z</time>
      </trkpt>
      <trkpt lat="49.25602" lon="-0.25255">
        <ele>-3.5</ele>
        <time>2017-05-25T12:55:25Z</time>
      </trkpt>
      <trkpt lat="49.25609" lon="-0.25249">
        <ele>-2.2</ele>
        <time>2017-05-25T12:55:31Z</time>
      </trkpt>
      <trkpt lat="49.25616" lon="-0.25245">
        <ele>-0.9</ele>
        <time>2017-05-25T12:55:37Z</time>
      </trkpt>
      <trkpt lat="49.25623" lon="-0.25238">
        <ele>-0.8</ele>
        <time>2017-05-25T12:55:43Z</time>
      </trkpt>
      <trkpt lat="49.2563" lon="-0.25233">
        <ele>-1.9</ele>
        <time>2017-05-25T12:55:48Z</time>
      </trkpt>
      <trkpt lat="49.25637" lon="-0.25226">
        <ele>-2.7</ele>
        <time>2017-05-25T12:55:54Z</time>
      </trkpt>
      <trkpt lat="49.25644" lon="-0.2522">
        <ele>-2.7</ele>
        <time>2017-05-25T12:56:00Z</time>
      </trkpt>
      <trkpt lat="49.2565" lon="-0.25214">
        <ele>-2.6</ele>
        <time>2017-05-25T12:56:07Z</time>
      </trkpt>
      <trkpt lat="49.25656" lon="-0.25207">
        <ele>-1</ele>
        <time>2017-05-25T12:56:14Z</time>
      </trkpt>
      <trkpt lat="49.25665" lon="-0.25202">
        <ele>-0.6</ele>
        <time>2017-05-25T12:56:20Z</time>
      </trkpt>
      <trkpt lat="49.25672" lon="-0.25196">
        <ele>-0.1</ele>
        <time>2017-05-25T12:56:26Z</time>
      </trkpt>
      <trkpt lat="49.25677" lon="-0.25192">
        <ele>0.8</ele>
        <time>2017-05-25T12:56:33Z</time>
      </trkpt>
      <trkpt lat="49.25683" lon="-0.25187">
        <ele>0.4</ele>
        <time>2017-05-25T12:56:40Z</time>
      </trkpt>
      <trkpt lat="49.25689" lon="-0.25181">
        <ele>-0.8</ele>
        <time>2017-05-25T12:56:47Z</time>
      </trkpt>
      <trkpt lat="49.25696" lon="-0.25176">
        <ele>-2</ele>
        <time>2017-05-25T12:56:53Z</time>
      </trkpt>
      <trkpt lat="49.25702" lon="-0.25171">
        <ele>-1.5</ele>
        <time>2017-05-25T12:57:00Z</time>
      </trkpt>
      <trkpt lat="49.2571" lon="-0.25166">
        <ele>0.2</ele>
        <time>2017-05-25T12:57:07Z</time>
      </trkpt>
      <trkpt lat="49.25716" lon="-0.2516">
        <ele>1.3</ele>
        <time>2017-05-25T12:57:14Z</time>
      </trkpt>
      <trkpt lat="49.25723" lon="-0.25154">
        <ele>0.3</ele>
        <time>2017-05-25T12:57:20Z</time>
      </trkpt>
      <trkpt lat="49.25729" lon="-0.25147">
        <ele>-1.2</ele>
        <time>2017-05-25T12:57:26Z</time>
      </trkpt>
      <trkpt lat="49.25736" lon="-0.2514">
        <ele>-2.3</ele>
        <time>2017-05-25T12:57:32Z</time>
      </trkpt>
      <trkpt lat="49.25744" lon="-0.25133">
        <ele>-3.8</ele>
        <time>2017-05-25T12:57:39Z</time>
      </trkpt>
      <trkpt lat="49.25751" lon="-0.25127">
        <ele>-4.9</ele>
        <time>2017-05-25T12:57:45Z</time>
      </trkpt>
      <trkpt lat="49.25758" lon="-0.25122">
        <ele>-5.1</ele>
        <time>2017-05-25T12:57:51Z</time>
      </trkpt>
      <trkpt lat="49.25764" lon="-0.25116">
        <ele>-4.8</ele>
        <time>2017-05-25T12:57:57Z</time>
      </trkpt>
      <trkpt lat="49.25772" lon="-0.2511">
        <ele>-3.7</ele>
        <time>2017-05-25T12:58:04Z</time>
      </trkpt>
      <trkpt lat="49.25778" lon="-0.25106">
        <ele>-3.1</ele>
        <time>2017-05-25T12:58:11Z</time>
      </trkpt>
      <trkpt lat="49.25784" lon="-0.251">
        <ele>-1.1</ele>
        <time>2017-05-25T12:58:18Z</time>
      </trkpt>
      <trkpt lat="49.25792" lon="-0.25093">
        <ele>-0.9</ele>
        <time>2017-05-25T12:58:25Z</time>
      </trkpt>
      <trkpt lat="49.258" lon="-0.25089">
        <ele>-0.9</ele>
        <time>2017-05-25T12:58:32Z</time>
      </trkpt>
      <trkpt lat="49.25806" lon="-0.25082">
        <ele>-2</ele>
        <time>2017-05-25T12:58:38Z</time>
      </trkpt>
      <trkpt lat="49.25813" lon="-0.25078">
        <ele>-2.6</ele>
        <time>2017-05-25T12:58:43Z</time>
      </trkpt>
      <trkpt lat="49.25819" lon="-0.25073">
        <ele>-3.5</ele>
        <time>2017-05-25T12:58:49Z</time>
      </trkpt>
      <trkpt lat="49.25825" lon="-0.25067">
        <ele>-3.5</ele>
        <time>2017-05-25T12:58:56Z</time>
      </trkpt>
      <trkpt lat="49.25832" lon="-0.25062">
        <ele>-3.5</ele>
        <time>2017-05-25T12:59:02Z</time>
      </trkpt>
      <trkpt lat="49.25838" lon="-0.25057">
        <ele>-3</ele>
        <time>2017-05-25T12:59:09Z</time>
      </trkpt>
      <trkpt lat="49.25844" lon="-0.25052">
        <ele>-2.5</ele>
        <time>2017-05-25T12:59:15Z</time>
      </trkpt>
      <trkpt lat="49.2585" lon="-0.25044">
        <ele>-1.4</ele>
        <time>2017-05-25T12:59:22Z</time>
      </trkpt>
      <trkpt lat="49.25855" lon="-0.25038">
        <ele>-2.5</ele>
        <time>2017-05-25T12:59:29Z</time>
      </trkpt>
      <trkpt lat="49.25862" lon="-0.25033">
        <ele>-2.6</ele>
        <time>2017-05-25T12:59:36Z</time>
      </trkpt>
      <trkpt lat="49.25869" lon="-0.25028">
        <ele>-2.4</ele>
        <time>2017-05-25T12:59:43Z</time>
      </trkpt>
      <trkpt lat="49.25877" lon="-0.25023">
        <ele>-4.1</ele>
        <time>2017-05-25T12:59:49Z</time>
      </trkpt>
      <trkpt lat="49.25884" lon="-0.25017">
        <ele>-4.7</ele>
        <time>2017-05-25T12:59:55Z</time>
      </trkpt>
      <trkpt lat="49.25891" lon="-0.25012">
        <ele>-5.1</ele>
        <time>2017-05-25T13:00:01Z</time>
      </trkpt>
      <trkpt lat="49.25898" lon="-0.25006">
        <ele>-5.2</ele>
        <time>2017-05-25T13:00:07Z</time>
      </trkpt>
      <trkpt lat="49.25905" lon="-0.25004">
        <ele>-5.1</ele>
        <time>2017-05-25T13:00:12Z</time>
      </trkpt>
      <trkpt lat="49.25907" lon="-0.25006">
        <ele>-5.3</ele>
        <time>2017-05-25T13:00:19Z</time>
      </trkpt>
      <trkpt lat="49.25911" lon="-0.24997">
        <ele>-4.5</ele>
        <time>2017-05-25T13:00:30Z</time>
      </trkpt>
      <trkpt lat="49.25918" lon="-0.24991">
        <ele>-3.2</ele>
        <time>2017-05-25T13:00:36Z</time>
      </trkpt>
      <trkpt lat="49.25926" lon="-0.24984">
        <ele>-1.3</ele>
        <time>2017-05-25T13:00:43Z</time>
      </trkpt>
      <trkpt lat="49.25933" lon="-0.24978">
        <ele>-1.1</ele>
        <time>2017-05-25T13:00:49Z</time>
      </trkpt>
      <trkpt lat="49.2594" lon="-0.24973">
        <ele>-1.2</ele>
        <time>2017-05-25T13:00:55Z</time>
      </trkpt>
      <trkpt lat="49.25947" lon="-0.24966">
        <ele>-0.8</ele>
        <time>2017-05-25T13:01:02Z</time>
      </trkpt>
      <trkpt lat="49.25954" lon="-0.2496">
        <ele>-1</ele>
        <time>2017-05-25T13:01:08Z</time>
      </trkpt>
      <trkpt lat="49.25961" lon="-0.24955">
        <ele>-1.8</ele>
        <time>2017-05-25T13:01:14Z</time>
      </trkpt>
      <trkpt lat="49.25967" lon="-0.24948">
        <ele>-2.1</ele>
        <time>2017-05-25T13:01:20Z</time>
      </trkpt>
      <trkpt lat="49.25974" lon="-0.24942">
        <ele>-2.8</ele>
        <time>2017-05-25T13:01:26Z</time>
      </trkpt>
      <trkpt lat="49.25981" lon="-0.24936">
        <ele>-3.5</ele>
        <time>2017-05-25T13:01:32Z</time>
      </trkpt>
      <trkpt lat="49.25988" lon="-0.24929">
        <ele>-2.5</ele>
        <time>2017-05-25T13:01:39Z</time>
      </trkpt>
      <trkpt lat="49.25994" lon="-0.24923">
        <ele>-2.4</ele>
        <time>2017-05-25T13:01:45Z</time>
      </trkpt>
      <trkpt lat="49.26001" lon="-0.24918">
        <ele>-2</ele>
        <time>2017-05-25T13:01:51Z</time>
      </trkpt>
      <trkpt lat="49.26008" lon="-0.24913">
        <ele>-2.8</ele>
        <time>2017-05-25T13:01:57Z</time>
      </trkpt>
      <trkpt lat="49.26014" lon="-0.24908">
        <ele>-3.4</ele>
        <time>2017-05-25T13:02:03Z</time>
      </trkpt>
      <trkpt lat="49.26021" lon="-0.24902">
        <ele>-2.3</ele>
        <time>2017-05-25T13:02:10Z</time>
      </trkpt>
      <trkpt lat="49.2603" lon="-0.24896">
        <ele>-1.3</ele>
        <time>2017-05-25T13:02:19Z</time>
      </trkpt>
      <trkpt lat="49.26036" lon="-0.24891">
        <ele>2.3</ele>
        <time>2017-05-25T13:02:25Z</time>
      </trkpt>
      <trkpt lat="49.26043" lon="-0.24886">
        <ele>-0.2</ele>
        <time>2017-05-25T13:02:31Z</time>
      </trkpt>
      <trkpt lat="49.2605" lon="-0.2488">
        <ele>-0.4</ele>
        <time>2017-05-25T13:02:37Z</time>
      </trkpt>
      <trkpt lat="49.26056" lon="-0.24874">
        <ele>-1.4</ele>
        <time>2017-05-25T13:02:44Z</time>
      </trkpt>
      <trkpt lat="49.26064" lon="-0.24868">
        <ele>-2.6</ele>
        <time>2017-05-25T13:02:51Z</time>
      </trkpt>
      <trkpt lat="49.2607" lon="-0.24863">
        <ele>-2.5</ele>
        <time>2017-05-25T13:02:57Z</time>
      </trkpt>
      <trkpt lat="49.26075" lon="-0.24857">
        <ele>-2.4</ele>
        <time>2017-05-25T13:03:04Z</time>
      </trkpt>
      <trkpt lat="49.26082" lon="-0.24852">
        <ele>-1.5</ele>
        <time>2017-05-25T13:03:11Z</time>
      </trkpt>
      <trkpt lat="49.26086" lon="-0.24845">
        <ele>-1</ele>
        <time>2017-05-25T13:03:18Z</time>
      </trkpt>
      <trkpt lat="49.26093" lon="-0.24839">
        <ele>-2.4</ele>
        <time>2017-05-25T13:03:24Z</time>
      </trkpt>
      <trkpt lat="49.26099" lon="-0.24833">
        <ele>-3.3</ele>
        <time>2017-05-25T13:03:31Z</time>
      </trkpt>
      <trkpt lat="49.26106" lon="-0.24827">
        <ele>-2.2</ele>
        <time>2017-05-25T13:03:38Z</time>
      </trkpt>
      <trkpt lat="49.26112" lon="-0.2482">
        <ele>-1.8</ele>
        <time>2017-05-25T13:03:45Z</time>
      </trkpt>
      <trkpt lat="49.26119" lon="-0.24816">
        <ele>-1.9</ele>
        <time>2017-05-25T13:03:51Z</time>
      </trkpt>
      <trkpt lat="49.26125" lon="-0.24809">
        <ele>-1.7</ele>
        <time>2017-05-25T13:03:57Z</time>
      </trkpt>
      <trkpt lat="49.26132" lon="-0.24803">
        <ele>-1.7</ele>
        <time>2017-05-25T13:04:04Z</time>
      </trkpt>
      <trkpt lat="49.26139" lon="-0.24798">
        <ele>-1.4</ele>
        <time>2017-05-25T13:04:10Z</time>
      </trkpt>
      <trkpt lat="49.26146" lon="-0.24793">
        <ele>-2.9</ele>
        <time>2017-05-25T13:04:16Z</time>
      </trkpt>
      <trkpt lat="49.26154" lon="-0.24789">
        <ele>-2.1</ele>
        <time>2017-05-25T13:04:23Z</time>
      </trkpt>
      <trkpt lat="49.26161" lon="-0.24783">
        <ele>-0.8</ele>
        <time>2017-05-25T13:04:30Z</time>
      </trkpt>
      <trkpt lat="49.26167" lon="-0.24777">
        <ele>0.9</ele>
        <time>2017-05-25T13:04:37Z</time>
      </trkpt>
      <trkpt lat="49.26173" lon="-0.24769">
        <ele>2.9</ele>
        <time>2017-05-25T13:04:44Z</time>
      </trkpt>
      <trkpt lat="49.2618" lon="-0.24765">
        <ele>5.1</ele>
        <time>2017-05-25T13:04:50Z</time>
      </trkpt>
      <trkpt lat="49.26187" lon="-0.2476">
        <ele>5.6</ele>
        <time>2017-05-25T13:04:56Z</time>
      </trkpt>
      <trkpt lat="49.26194" lon="-0.24753">
        <ele>3.8</ele>
        <time>2017-05-25T13:05:02Z</time>
      </trkpt>
      <trkpt lat="49.262" lon="-0.24748">
        <ele>2.1</ele>
        <time>2017-05-25T13:05:07Z</time>
      </trkpt>
      <trkpt lat="49.26207" lon="-0.24742">
        <ele>2.7</ele>
        <time>2017-05-25T13:05:13Z</time>
      </trkpt>
      <trkpt lat="49.26214" lon="-0.24737">
        <ele>4.1</ele>
        <time>2017-05-25T13:05:20Z</time>
      </trkpt>
      <trkpt lat="49.26221" lon="-0.24732">
        <ele>4</ele>
        <time>2017-05-25T13:05:26Z</time>
      </trkpt>
      <trkpt lat="49.26228" lon="-0.24724">
        <ele>2.4</ele>
        <time>2017-05-25T13:05:33Z</time>
      </trkpt>
      <trkpt lat="49.26234" lon="-0.24718">
        <ele>3.5</ele>
        <time>2017-05-25T13:05:40Z</time>
      </trkpt>
      <trkpt lat="49.26241" lon="-0.24711">
        <ele>3.2</ele>
        <time>2017-05-25T13:05:47Z</time>
      </trkpt>
      <trkpt lat="49.26247" lon="-0.24706">
        <ele>3.2</ele>
        <time>2017-05-25T13:05:54Z</time>
      </trkpt>
      <trkpt lat="49.26254" lon="-0.24701">
        <ele>1.9</ele>
        <time>2017-05-25T13:05:59Z</time>
      </trkpt>
      <trkpt lat="49.26262" lon="-0.24696">
        <ele>0.2</ele>
        <time>2017-05-25T13:06:05Z</time>
      </trkpt>
      <trkpt lat="49.2627" lon="-0.24692">
        <ele>-1.7</ele>
        <time>2017-05-25T13:06:11Z</time>
      </trkpt>
      <trkpt lat="49.26277" lon="-0.24685">
        <ele>-2.3</ele>
        <time>2017-05-25T13:06:18Z</time>
      </trkpt>
      <trkpt lat="49.26284" lon="-0.24681">
        <ele>-3.2</ele>
        <time>2017-05-25T13:06:24Z</time>
      </trkpt>
      <trkpt lat="49.26291" lon="-0.24673">
        <ele>-4.1</ele>
        <time>2017-05-25T13:06:31Z</time>
      </trkpt>
      <trkpt lat="49.26296" lon="-0.24668">
        <ele>-4.8</ele>
        <time>2017-05-25T13:06:38Z</time>
      </trkpt>
      <trkpt lat="49.26303" lon="-0.24662">
        <ele>-3.8</ele>
        <time>2017-05-25T13:06:45Z</time>
      </trkpt>
      <trkpt lat="49.2631" lon="-0.24655">
        <ele>-4.2</ele>
        <time>2017-05-25T13:06:52Z</time>
      </trkpt>
      <trkpt lat="49.26316" lon="-0.24651">
        <ele>-4.2</ele>
        <time>2017-05-25T13:06:58Z</time>
      </trkpt>
      <trkpt lat="49.26323" lon="-0.24645">
        <ele>-4.3</ele>
        <time>2017-05-25T13:07:04Z</time>
      </trkpt>
      <trkpt lat="49.2633" lon="-0.24639">
        <ele>-3.7</ele>
        <time>2017-05-25T13:07:11Z</time>
      </trkpt>
      <trkpt lat="49.26337" lon="-0.24634">
        <ele>-4.3</ele>
        <time>2017-05-25T13:07:17Z</time>
      </trkpt>
      <trkpt lat="49.26344" lon="-0.24629">
        <ele>-4.7</ele>
        <time>2017-05-25T13:07:24Z</time>
      </trkpt>
      <trkpt lat="49.26351" lon="-0.24623">
        <ele>-4.7</ele>
        <time>2017-05-25T13:07:30Z</time>
      </trkpt>
      <trkpt lat="49.26359" lon="-0.24617">
        <ele>-4.8</ele>
        <time>2017-05-25T13:07:37Z</time>
      </trkpt>
      <trkpt lat="49.26366" lon="-0.24611">
        <ele>-4.9</ele>
        <time>2017-05-25T13:07:44Z</time>
      </trkpt>
      <trkpt lat="49.26373" lon="-0.24604">
        <ele>-5.4</ele>
        <time>2017-05-25T13:07:50Z</time>
      </trkpt>
      <trkpt lat="49.2638" lon="-0.24599">
        <ele>-5.4</ele>
        <time>2017-05-25T13:07:57Z</time>
      </trkpt>
      <trkpt lat="49.26387" lon="-0.24593">
        <ele>-5.3</ele>
        <time>2017-05-25T13:08:04Z</time>
      </trkpt>
      <trkpt lat="49.26394" lon="-0.24586">
        <ele>-4.8</ele>
        <time>2017-05-25T13:08:11Z</time>
      </trkpt>
      <trkpt lat="49.26401" lon="-0.24581">
        <ele>-4.8</ele>
        <time>2017-05-25T13:08:17Z</time>
      </trkpt>
      <trkpt lat="49.26408" lon="-0.24576">
        <ele>-5</ele>
        <time>2017-05-25T13:08:23Z</time>
      </trkpt>
      <trkpt lat="49.26414" lon="-0.24571">
        <ele>-5</ele>
        <time>2017-05-25T13:08:29Z</time>
      </trkpt>
      <trkpt lat="49.26421" lon="-0.24564">
        <ele>-4.7</ele>
        <time>2017-05-25T13:08:36Z</time>
      </trkpt>
      <trkpt lat="49.26428" lon="-0.24557">
        <ele>-4.4</ele>
        <time>2017-05-25T13:08:43Z</time>
      </trkpt>
      <trkpt lat="49.26435" lon="-0.24552">
        <ele>-4.3</ele>
        <time>2017-05-25T13:08:50Z</time>
      </trkpt>
      <trkpt lat="49.26442" lon="-0.24547">
        <ele>-4.7</ele>
        <time>2017-05-25T13:08:56Z</time>
      </trkpt>
      <trkpt lat="49.26449" lon="-0.2454">
        <ele>-4.8</ele>
        <time>2017-05-25T13:09:03Z</time>
      </trkpt>
      <trkpt lat="49.26456" lon="-0.24534">
        <ele>-5.1</ele>
        <time>2017-05-25T13:09:10Z</time>
      </trkpt>
      <trkpt lat="49.26463" lon="-0.24528">
        <ele>-5</ele>
        <time>2017-05-25T13:09:17Z</time>
      </trkpt>
      <trkpt lat="49.26469" lon="-0.24521">
        <ele>-5.1</ele>
        <time>2017-05-25T13:09:24Z</time>
      </trkpt>
      <trkpt lat="49.26476" lon="-0.24516">
        <ele>-5.1</ele>
        <time>2017-05-25T13:09:31Z</time>
      </trkpt>
      <trkpt lat="49.26482" lon="-0.24512">
        <ele>-5.4</ele>
        <time>2017-05-25T13:09:38Z</time>
      </trkpt>
      <trkpt lat="49.26489" lon="-0.24506">
        <ele>-4.9</ele>
        <time>2017-05-25T13:09:45Z</time>
      </trkpt>
      <trkpt lat="49.26496" lon="-0.24499">
        <ele>-4.6</ele>
        <time>2017-05-25T13:09:52Z</time>
      </trkpt>
      <trkpt lat="49.26502" lon="-0.24493">
        <ele>-4.9</ele>
        <time>2017-05-25T13:09:59Z</time>
      </trkpt>
      <trkpt lat="49.26508" lon="-0.24488">
        <ele>-5.7</ele>
        <time>2017-05-25T13:10:05Z</time>
      </trkpt>
      <trkpt lat="49.26515" lon="-0.24484">
        <ele>-5.9</ele>
        <time>2017-05-25T13:10:11Z</time>
      </trkpt>
      <trkpt lat="49.26522" lon="-0.24479">
        <ele>-5.9</ele>
        <time>2017-05-25T13:10:17Z</time>
      </trkpt>
      <trkpt lat="49.26527" lon="-0.24473">
        <ele>-5.6</ele>
        <time>2017-05-25T13:10:23Z</time>
      </trkpt>
      <trkpt lat="49.26534" lon="-0.24468">
        <ele>-5.5</ele>
        <time>2017-05-25T13:10:30Z</time>
      </trkpt>
      <trkpt lat="49.26541" lon="-0.24462">
        <ele>-6</ele>
        <time>2017-05-25T13:10:37Z</time>
      </trkpt>
      <trkpt lat="49.26547" lon="-0.24458">
        <ele>-6.3</ele>
        <time>2017-05-25T13:10:44Z</time>
      </trkpt>
      <trkpt lat="49.26554" lon="-0.24452">
        <ele>-6.4</ele>
        <time>2017-05-25T13:10:50Z</time>
      </trkpt>
      <trkpt lat="49.2656" lon="-0.24445">
        <ele>-5.7</ele>
        <time>2017-05-25T13:10:57Z</time>
      </trkpt>
      <trkpt lat="49.26567" lon="-0.2444">
        <ele>-6</ele>
        <time>2017-05-25T13:11:03Z</time>
      </trkpt>
      <trkpt lat="49.26574" lon="-0.24433">
        <ele>-5.5</ele>
        <time>2017-05-25T13:11:10Z</time>
      </trkpt>
      <trkpt lat="49.26582" lon="-0.24428">
        <ele>-4.8</ele>
        <time>2017-05-25T13:11:17Z</time>
      </trkpt>
      <trkpt lat="49.26589" lon="-0.24422">
        <ele>-4.8</ele>
        <time>2017-05-25T13:11:24Z</time>
      </trkpt>
      <trkpt lat="49.26594" lon="-0.24414">
        <ele>-4.6</ele>
        <time>2017-05-25T13:11:31Z</time>
      </trkpt>
      <trkpt lat="49.26594" lon="-0.24408">
        <ele>-3.8</ele>
        <time>2017-05-25T13:11:38Z</time>
      </trkpt>
      <trkpt lat="49.26596" lon="-0.24403">
        <ele>-3.9</ele>
        <time>2017-05-25T13:11:45Z</time>
      </trkpt>
      <trkpt lat="49.26599" lon="-0.24401">
        <ele>-4.2</ele>
        <time>2017-05-25T13:11:52Z</time>
      </trkpt>
      <trkpt lat="49.26596" lon="-0.24398">
        <ele>-4.6</ele>
        <time>2017-05-25T13:12:22Z</time>
      </trkpt>
      <trkpt lat="49.26596" lon="-0.24391">
        <ele>-5.2</ele>
        <time>2017-05-25T13:12:29Z</time>
      </trkpt>
      <trkpt lat="49.26593" lon="-0.24386">
        <ele>-4.6</ele>
        <time>2017-05-25T13:12:36Z</time>
      </trkpt>
      <trkpt lat="49.26589" lon="-0.24377">
        <ele>-3.8</ele>
        <time>2017-05-25T13:12:43Z</time>
      </trkpt>
      <trkpt lat="49.26585" lon="-0.24368">
        <ele>-2.8</ele>
        <time>2017-05-25T13:12:50Z</time>
      </trkpt>
      <trkpt lat="49.26581" lon="-0.24358">
        <ele>-1.7</ele>
        <time>2017-05-25T13:12:57Z</time>
      </trkpt>
      <trkpt lat="49.26577" lon="-0.24347">
        <ele>-1.2</ele>
        <time>2017-05-25T13:13:04Z</time>
      </trkpt>
      <trkpt lat="49.26574" lon="-0.24336">
        <ele>-0.4</ele>
        <time>2017-05-25T13:13:10Z</time>
      </trkpt>
      <trkpt lat="49.2657" lon="-0.24326">
        <ele>-0.1</ele>
        <time>2017-05-25T13:13:17Z</time>
      </trkpt>
      <trkpt lat="49.26565" lon="-0.24317">
        <ele>1</ele>
        <time>2017-05-25T13:13:24Z</time>
      </trkpt>
      <trkpt lat="49.26562" lon="-0.24306">
        <ele>0.7</ele>
        <time>2017-05-25T13:13:30Z</time>
      </trkpt>
      <trkpt lat="49.26559" lon="-0.24297">
        <ele>0.5</ele>
        <time>2017-05-25T13:13:37Z</time>
      </trkpt>
      <trkpt lat="49.26555" lon="-0.24288">
        <ele>0.9</ele>
        <time>2017-05-25T13:13:43Z</time>
      </trkpt>
      <trkpt lat="49.26552" lon="-0.24278">
        <ele>0.5</ele>
        <time>2017-05-25T13:13:50Z</time>
      </trkpt>
      <trkpt lat="49.26548" lon="-0.24269">
        <ele>1.2</ele>
        <time>2017-05-25T13:13:57Z</time>
      </trkpt>
      <trkpt lat="49.26546" lon="-0.2426">
        <ele>-0.3</ele>
        <time>2017-05-25T13:14:04Z</time>
      </trkpt>
      <trkpt lat="49.26544" lon="-0.24248">
        <ele>-1</ele>
        <time>2017-05-25T13:14:11Z</time>
      </trkpt>
      <trkpt lat="49.2654" lon="-0.24242">
        <ele>-0.7</ele>
        <time>2017-05-25T13:14:18Z</time>
      </trkpt>
      <trkpt lat="49.26543" lon="-0.2423">
        <ele>0.4</ele>
        <time>2017-05-25T13:17:35Z</time>
      </trkpt>
      <trkpt lat="49.2654" lon="-0.24229">
        <ele>0.6</ele>
        <time>2017-05-25T13:17:49Z</time>
      </trkpt>
      <trkpt lat="49.26538" lon="-0.2421">
        <ele>-1.5</ele>
        <time>2017-05-25T13:18:15Z</time>
      </trkpt>
      <trkpt lat="49.26536" lon="-0.24201">
        <ele>-1.8</ele>
        <time>2017-05-25T13:18:22Z</time>
      </trkpt>
      <trkpt lat="49.26534" lon="-0.24192">
        <ele>-1.4</ele>
        <time>2017-05-25T13:18:29Z</time>
      </trkpt>
      <trkpt lat="49.2654" lon="-0.24188">
        <ele>-2.1</ele>
        <time>2017-05-25T13:18:57Z</time>
      </trkpt>
      <trkpt lat="49.26537" lon="-0.24185">
        <ele>-1.9</ele>
        <time>2017-05-25T13:22:12Z</time>
      </trkpt>
      <trkpt lat="49.26536" lon="-0.24181">
        <ele>-2.1</ele>
        <time>2017-05-25T13:22:19Z</time>
      </trkpt>
      <trkpt lat="49.26536" lon="-0.24173">
        <ele>-1.3</ele>
        <time>2017-05-25T13:22:26Z</time>
      </trkpt>
      <trkpt lat="49.26535" lon="-0.24165">
        <ele>-0.6</ele>
        <time>2017-05-25T13:22:33Z</time>
      </trkpt>
      <trkpt lat="49.26534" lon="-0.24158">
        <ele>4.5</ele>
        <time>2017-05-25T13:22:40Z</time>
      </trkpt>
      <trkpt lat="49.26532" lon="-0.24148">
        <ele>0.2</ele>
        <time>2017-05-25T13:22:47Z</time>
      </trkpt>
      <trkpt lat="49.26531" lon="-0.24137">
        <ele>-0.2</ele>
        <time>2017-05-25T13:22:55Z</time>
      </trkpt>
      <trkpt lat="49.2653" lon="-0.24127">
        <ele>0.8</ele>
        <time>2017-05-25T13:23:02Z</time>
      </trkpt>
      <trkpt lat="49.26529" lon="-0.24118">
        <ele>1.5</ele>
        <time>2017-05-25T13:23:09Z</time>
      </trkpt>
      <trkpt lat="49.26528" lon="-0.24107">
        <ele>2</ele>
        <time>2017-05-25T13:23:16Z</time>
      </trkpt>
      <trkpt lat="49.26527" lon="-0.24096">
        <ele>1.1</ele>
        <time>2017-05-25T13:23:23Z</time>
      </trkpt>
      <trkpt lat="49.26526" lon="-0.24085">
        <ele>0.3</ele>
        <time>2017-05-25T13:23:30Z</time>
      </trkpt>
      <trkpt lat="49.26525" lon="-0.24074">
        <ele>-0.1</ele>
        <time>2017-05-25T13:23:37Z</time>
      </trkpt>
      <trkpt lat="49.26524" lon="-0.24062">
        <ele>-0.2</ele>
        <time>2017-05-25T13:23:44Z</time>
      </trkpt>
      <trkpt lat="49.26523" lon="-0.24049">
        <ele>-0.4</ele>
        <time>2017-05-25T13:23:51Z</time>
      </trkpt>
      <trkpt lat="49.26522" lon="-0.24038">
        <ele>-0.2</ele>
        <time>2017-05-25T13:23:58Z</time>
      </trkpt>
      <trkpt lat="49.26519" lon="-0.24027">
        <ele>-0.6</ele>
        <time>2017-05-25T13:24:05Z</time>
      </trkpt>
      <trkpt lat="49.26518" lon="-0.24015">
        <ele>-1.2</ele>
        <time>2017-05-25T13:24:12Z</time>
      </trkpt>
      <trkpt lat="49.26517" lon="-0.24003">
        <ele>-1.6</ele>
        <time>2017-05-25T13:24:19Z</time>
      </trkpt>
      <trkpt lat="49.26516" lon="-0.2399">
        <ele>-1.3</ele>
        <time>2017-05-25T13:24:26Z</time>
      </trkpt>
      <trkpt lat="49.26516" lon="-0.23979">
        <ele>-1.5</ele>
        <time>2017-05-25T13:24:32Z</time>
      </trkpt>
      <trkpt lat="49.26514" lon="-0.23966">
        <ele>-1.8</ele>
        <time>2017-05-25T13:24:39Z</time>
      </trkpt>
      <trkpt lat="49.26513" lon="-0.23955">
        <ele>-1.8</ele>
        <time>2017-05-25T13:24:46Z</time>
      </trkpt>
      <trkpt lat="49.26511" lon="-0.23943">
        <ele>-2</ele>
        <time>2017-05-25T13:24:53Z</time>
      </trkpt>
      <trkpt lat="49.26511" lon="-0.23929">
        <ele>-1.2</ele>
        <time>2017-05-25T13:25:00Z</time>
      </trkpt>
      <trkpt lat="49.2651" lon="-0.23919">
        <ele>-1.8</ele>
        <time>2017-05-25T13:25:07Z</time>
      </trkpt>
      <trkpt lat="49.26507" lon="-0.23908">
        <ele>-4</ele>
        <time>2017-05-25T13:25:13Z</time>
      </trkpt>
      <trkpt lat="49.26505" lon="-0.23897">
        <ele>-3.9</ele>
        <time>2017-05-25T13:25:20Z</time>
      </trkpt>
      <trkpt lat="49.26504" lon="-0.23886">
        <ele>-3</ele>
        <time>2017-05-25T13:25:26Z</time>
      </trkpt>
      <trkpt lat="49.26503" lon="-0.23874">
        <ele>-3.9</ele>
        <time>2017-05-25T13:25:33Z</time>
      </trkpt>
      <trkpt lat="49.26502" lon="-0.23862">
        <ele>-2.6</ele>
        <time>2017-05-25T13:25:40Z</time>
      </trkpt>
      <trkpt lat="49.26501" lon="-0.2385">
        <ele>-3.5</ele>
        <time>2017-05-25T13:25:46Z</time>
      </trkpt>
      <trkpt lat="49.26499" lon="-0.23839">
        <ele>-3</ele>
        <time>2017-05-25T13:25:52Z</time>
      </trkpt>
      <trkpt lat="49.26498" lon="-0.23826">
        <ele>-2.1</ele>
        <time>2017-05-25T13:25:59Z</time>
      </trkpt>
      <trkpt lat="49.26498" lon="-0.23815">
        <ele>-1.7</ele>
        <time>2017-05-25T13:26:06Z</time>
      </trkpt>
      <trkpt lat="49.26496" lon="-0.23804">
        <ele>-0.9</ele>
        <time>2017-05-25T13:26:12Z</time>
      </trkpt>
      <trkpt lat="49.26494" lon="-0.23793">
        <ele>-0.9</ele>
        <time>2017-05-25T13:26:18Z</time>
      </trkpt>
      <trkpt lat="49.26493" lon="-0.2378">
        <ele>0.3</ele>
        <time>2017-05-25T13:26:25Z</time>
      </trkpt>
      <trkpt lat="49.26491" lon="-0.2377">
        <ele>0.6</ele>
        <time>2017-05-25T13:26:31Z</time>
      </trkpt>
      <trkpt lat="49.2649" lon="-0.23759">
        <ele>0.7</ele>
        <time>2017-05-25T13:26:37Z</time>
      </trkpt>
      <trkpt lat="49.26489" lon="-0.23748">
        <ele>1.1</ele>
        <time>2017-05-25T13:26:44Z</time>
      </trkpt>
      <trkpt lat="49.26489" lon="-0.23737">
        <ele>4.4</ele>
        <time>2017-05-25T13:26:50Z</time>
      </trkpt>
      <trkpt lat="49.26488" lon="-0.23724">
        <ele>-0.4</ele>
        <time>2017-05-25T13:26:57Z</time>
      </trkpt>
      <trkpt lat="49.26486" lon="-0.23712">
        <ele>-0.2</ele>
        <time>2017-05-25T13:27:03Z</time>
      </trkpt>
      <trkpt lat="49.26484" lon="-0.23701">
        <ele>0.3</ele>
        <time>2017-05-25T13:27:09Z</time>
      </trkpt>
      <trkpt lat="49.26483" lon="-0.2369">
        <ele>-0.3</ele>
        <time>2017-05-25T13:27:16Z</time>
      </trkpt>
      <trkpt lat="49.26482" lon="-0.23679">
        <ele>-0.7</ele>
        <time>2017-05-25T13:27:22Z</time>
      </trkpt>
      <trkpt lat="49.2648" lon="-0.23667">
        <ele>-0.8</ele>
        <time>2017-05-25T13:27:28Z</time>
      </trkpt>
      <trkpt lat="49.26479" lon="-0.23654">
        <ele>0.3</ele>
        <time>2017-05-25T13:27:35Z</time>
      </trkpt>
      <trkpt lat="49.26478" lon="-0.23642">
        <ele>-1.4</ele>
        <time>2017-05-25T13:27:41Z</time>
      </trkpt>
      <trkpt lat="49.26477" lon="-0.23631">
        <ele>-1.2</ele>
        <time>2017-05-25T13:27:48Z</time>
      </trkpt>
      <trkpt lat="49.26477" lon="-0.23618">
        <ele>-0.8</ele>
        <time>2017-05-25T13:27:55Z</time>
      </trkpt>
      <trkpt lat="49.26476" lon="-0.23608">
        <ele>-1.9</ele>
        <time>2017-05-25T13:28:02Z</time>
      </trkpt>
      <trkpt lat="49.26474" lon="-0.23597">
        <ele>-4.2</ele>
        <time>2017-05-25T13:28:09Z</time>
      </trkpt>
      <trkpt lat="49.26473" lon="-0.23587">
        <ele>-3.8</ele>
        <time>2017-05-25T13:28:16Z</time>
      </trkpt>
      <trkpt lat="49.26473" lon="-0.23582">
        <ele>-2.9</ele>
        <time>2017-05-25T13:28:23Z</time>
      </trkpt>
      <trkpt lat="49.26469" lon="-0.23571">
        <ele>-1.8</ele>
        <time>2017-05-25T13:29:00Z</time>
      </trkpt>
      <trkpt lat="49.26465" lon="-0.23562">
        <ele>0.2</ele>
        <time>2017-05-25T13:29:07Z</time>
      </trkpt>
      <trkpt lat="49.26463" lon="-0.2355">
        <ele>0.1</ele>
        <time>2017-05-25T13:29:14Z</time>
      </trkpt>
      <trkpt lat="49.26463" lon="-0.23539">
        <ele>-0.4</ele>
        <time>2017-05-25T13:29:21Z</time>
      </trkpt>
      <trkpt lat="49.26462" lon="-0.23527">
        <ele>-0.4</ele>
        <time>2017-05-25T13:29:28Z</time>
      </trkpt>
      <trkpt lat="49.26463" lon="-0.23516">
        <ele>-2.2</ele>
        <time>2017-05-25T13:29:35Z</time>
      </trkpt>
      <trkpt lat="49.26462" lon="-0.23505">
        <ele>-3.9</ele>
        <time>2017-05-25T13:29:42Z</time>
      </trkpt>
      <trkpt lat="49.2646" lon="-0.23493">
        <ele>-4</ele>
        <time>2017-05-25T13:29:49Z</time>
      </trkpt>
      <trkpt lat="49.26458" lon="-0.23481">
        <ele>-3.8</ele>
        <time>2017-05-25T13:29:56Z</time>
      </trkpt>
      <trkpt lat="49.26457" lon="-0.2347">
        <ele>-4.3</ele>
        <time>2017-05-25T13:30:03Z</time>
      </trkpt>
      <trkpt lat="49.26456" lon="-0.23459">
        <ele>-6.1</ele>
        <time>2017-05-25T13:30:10Z</time>
      </trkpt>
      <trkpt lat="49.26455" lon="-0.23447">
        <ele>-6</ele>
        <time>2017-05-25T13:30:16Z</time>
      </trkpt>
      <trkpt lat="49.26454" lon="-0.23436">
        <ele>-5.4</ele>
        <time>2017-05-25T13:30:22Z</time>
      </trkpt>
      <trkpt lat="49.26454" lon="-0.23424">
        <ele>-4.6</ele>
        <time>2017-05-25T13:30:29Z</time>
      </trkpt>
      <trkpt lat="49.26452" lon="-0.2341">
        <ele>-3.5</ele>
        <time>2017-05-25T13:30:36Z</time>
      </trkpt>
      <trkpt lat="49.2645" lon="-0.234">
        <ele>-2.1</ele>
        <time>2017-05-25T13:30:43Z</time>
      </trkpt>
      <trkpt lat="49.26448" lon="-0.23388">
        <ele>-2.4</ele>
        <time>2017-05-25T13:30:50Z</time>
      </trkpt>
      <trkpt lat="49.26448" lon="-0.23377">
        <ele>-2.8</ele>
        <time>2017-05-25T13:30:57Z</time>
      </trkpt>
      <trkpt lat="49.26448" lon="-0.23366">
        <ele>-2.9</ele>
        <time>2017-05-25T13:31:04Z</time>
      </trkpt>
      <trkpt lat="49.26447" lon="-0.23355">
        <ele>-1.3</ele>
        <time>2017-05-25T13:31:11Z</time>
      </trkpt>
      <trkpt lat="49.26445" lon="-0.23342">
        <ele>-0.3</ele>
        <time>2017-05-25T13:31:18Z</time>
      </trkpt>
      <trkpt lat="49.26444" lon="-0.23331">
        <ele>-0.5</ele>
        <time>2017-05-25T13:31:25Z</time>
      </trkpt>
      <trkpt lat="49.26445" lon="-0.23318">
        <ele>-2.4</ele>
        <time>2017-05-25T13:31:32Z</time>
      </trkpt>
      <trkpt lat="49.26446" lon="-0.23306">
        <ele>-3.8</ele>
        <time>2017-05-25T13:31:38Z</time>
      </trkpt>
      <trkpt lat="49.26446" lon="-0.23294">
        <ele>-3.7</ele>
        <time>2017-05-25T13:31:45Z</time>
      </trkpt>
      <trkpt lat="49.26449" lon="-0.23283">
        <ele>-3.2</ele>
        <time>2017-05-25T13:31:52Z</time>
      </trkpt>
      <trkpt lat="49.26453" lon="-0.23271">
        <ele>-4</ele>
        <time>2017-05-25T13:31:59Z</time>
      </trkpt>
      <trkpt lat="49.26455" lon="-0.23261">
        <ele>-5.4</ele>
        <time>2017-05-25T13:32:05Z</time>
      </trkpt>
      <trkpt lat="49.26455" lon="-0.23249">
        <ele>-4.8</ele>
        <time>2017-05-25T13:32:12Z</time>
      </trkpt>
      <trkpt lat="49.26456" lon="-0.23238">
        <ele>-3.4</ele>
        <time>2017-05-25T13:32:19Z</time>
      </trkpt>
      <trkpt lat="49.26456" lon="-0.23227">
        <ele>-3.5</ele>
        <time>2017-05-25T13:32:26Z</time>
      </trkpt>
      <trkpt lat="49.26456" lon="-0.23216">
        <ele>-3.8</ele>
        <time>2017-05-25T13:32:33Z</time>
      </trkpt>
      <trkpt lat="49.26457" lon="-0.23204">
        <ele>-3.3</ele>
        <time>2017-05-25T13:32:40Z</time>
      </trkpt>
      <trkpt lat="49.26458" lon="-0.23192">
        <ele>-3.4</ele>
        <time>2017-05-25T13:32:47Z</time>
      </trkpt>
      <trkpt lat="49.26458" lon="-0.23181">
        <ele>-2.8</ele>
        <time>2017-05-25T13:32:53Z</time>
      </trkpt>
      <trkpt lat="49.26458" lon="-0.23169">
        <ele>-2.3</ele>
        <time>2017-05-25T13:33:00Z</time>
      </trkpt>
      <trkpt lat="49.26457" lon="-0.23159">
        <ele>0.6</ele>
        <time>2017-05-25T13:33:07Z</time>
      </trkpt>
      <trkpt lat="49.26458" lon="-0.23147">
        <ele>1.4</ele>
        <time>2017-05-25T13:33:14Z</time>
      </trkpt>
      <trkpt lat="49.26458" lon="-0.23136">
        <ele>1.9</ele>
        <time>2017-05-25T13:33:21Z</time>
      </trkpt>
      <trkpt lat="49.26464" lon="-0.23128">
        <ele>1.5</ele>
        <time>2017-05-25T13:33:28Z</time>
      </trkpt>
      <trkpt lat="49.26471" lon="-0.23124">
        <ele>3</ele>
        <time>2017-05-25T13:33:35Z</time>
      </trkpt>
      <trkpt lat="49.26475" lon="-0.23114">
        <ele>1</ele>
        <time>2017-05-25T13:33:41Z</time>
      </trkpt>
      <trkpt lat="49.26477" lon="-0.23105">
        <ele>0.3</ele>
        <time>2017-05-25T13:33:48Z</time>
      </trkpt>
      <trkpt lat="49.2648" lon="-0.231">
        <ele>-1.9</ele>
        <time>2017-05-25T13:33:55Z</time>
      </trkpt>
      <trkpt lat="49.26485" lon="-0.23095">
        <ele>-3.7</ele>
        <time>2017-05-25T13:34:02Z</time>
      </trkpt>
      <trkpt lat="49.26492" lon="-0.23092">
        <ele>-4.8</ele>
        <time>2017-05-25T13:34:09Z</time>
      </trkpt>
      <trkpt lat="49.265" lon="-0.2309">
        <ele>-4.5</ele>
        <time>2017-05-25T13:34:15Z</time>
      </trkpt>
      <trkpt lat="49.26507" lon="-0.23089">
        <ele>-3.8</ele>
        <time>2017-05-25T13:34:21Z</time>
      </trkpt>
      <trkpt lat="49.26514" lon="-0.23087">
        <ele>-2.8</ele>
        <time>2017-05-25T13:34:27Z</time>
      </trkpt>
      <trkpt lat="49.26522" lon="-0.23084">
        <ele>-3.3</ele>
        <time>2017-05-25T13:34:33Z</time>
      </trkpt>
      <trkpt lat="49.26529" lon="-0.23082">
        <ele>-3.5</ele>
        <time>2017-05-25T13:34:38Z</time>
      </trkpt>
      <trkpt lat="49.26537" lon="-0.23077">
        <ele>-3.9</ele>
        <time>2017-05-25T13:34:45Z</time>
      </trkpt>
      <trkpt lat="49.26544" lon="-0.23072">
        <ele>-3.3</ele>
        <time>2017-05-25T13:34:52Z</time>
      </trkpt>
      <trkpt lat="49.26551" lon="-0.23066">
        <ele>-3</ele>
        <time>2017-05-25T13:34:59Z</time>
      </trkpt>
      <trkpt lat="49.26557" lon="-0.23059">
        <ele>-2.7</ele>
        <time>2017-05-25T13:35:05Z</time>
      </trkpt>
      <trkpt lat="49.26563" lon="-0.23052">
        <ele>-2.1</ele>
        <time>2017-05-25T13:35:12Z</time>
      </trkpt>
      <trkpt lat="49.26568" lon="-0.23044">
        <ele>-3.4</ele>
        <time>2017-05-25T13:35:19Z</time>
      </trkpt>
      <trkpt lat="49.26572" lon="-0.23036">
        <ele>-3.1</ele>
        <time>2017-05-25T13:35:26Z</time>
      </trkpt>
      <trkpt lat="49.26578" lon="-0.23029">
        <ele>-3.1</ele>
        <time>2017-05-25T13:35:33Z</time>
      </trkpt>
      <trkpt lat="49.26585" lon="-0.23022">
        <ele>-4.3</ele>
        <time>2017-05-25T13:35:40Z</time>
      </trkpt>
      <trkpt lat="49.2659" lon="-0.23016">
        <ele>-3.4</ele>
        <time>2017-05-25T13:35:47Z</time>
      </trkpt>
      <trkpt lat="49.26593" lon="-0.23008">
        <ele>-3.7</ele>
        <time>2017-05-25T13:35:53Z</time>
      </trkpt>
      <trkpt lat="49.26597" lon="-0.23001">
        <ele>-3.6</ele>
        <time>2017-05-25T13:36:00Z</time>
      </trkpt>
      <trkpt lat="49.26601" lon="-0.22989">
        <ele>-3.2</ele>
        <time>2017-05-25T13:36:07Z</time>
      </trkpt>
      <trkpt lat="49.26606" lon="-0.2298">
        <ele>-2.2</ele>
        <time>2017-05-25T13:36:14Z</time>
      </trkpt>
      <trkpt lat="49.26609" lon="-0.22972">
        <ele>-1.8</ele>
        <time>2017-05-25T13:36:21Z</time>
      </trkpt>
      <trkpt lat="49.26614" lon="-0.22964">
        <ele>-1.6</ele>
        <time>2017-05-25T13:36:28Z</time>
      </trkpt>
      <trkpt lat="49.26617" lon="-0.22955">
        <ele>-2.4</ele>
        <time>2017-05-25T13:36:35Z</time>
      </trkpt>
      <trkpt lat="49.26624" lon="-0.22948">
        <ele>-3.2</ele>
        <time>2017-05-25T13:36:41Z</time>
      </trkpt>
      <trkpt lat="49.2663" lon="-0.22942">
        <ele>-4.3</ele>
        <time>2017-05-25T13:36:48Z</time>
      </trkpt>
      <trkpt lat="49.26638" lon="-0.22937">
        <ele>-2</ele>
        <time>2017-05-25T13:36:55Z</time>
      </trkpt>
      <trkpt lat="49.26646" lon="-0.22933">
        <ele>1.2</ele>
        <time>2017-05-25T13:37:02Z</time>
      </trkpt>
      <trkpt lat="49.26653" lon="-0.22929">
        <ele>0.9</ele>
        <time>2017-05-25T13:37:09Z</time>
      </trkpt>
      <trkpt lat="49.26661" lon="-0.22924">
        <ele>0.6</ele>
        <time>2017-05-25T13:37:16Z</time>
      </trkpt>
      <trkpt lat="49.26668" lon="-0.22919">
        <ele>-0.1</ele>
        <time>2017-05-25T13:37:23Z</time>
      </trkpt>
      <trkpt lat="49.26674" lon="-0.22913">
        <ele>-0.3</ele>
        <time>2017-05-25T13:37:29Z</time>
      </trkpt>
      <trkpt lat="49.2668" lon="-0.22905">
        <ele>-0.1</ele>
        <time>2017-05-25T13:37:36Z</time>
      </trkpt>
      <trkpt lat="49.26686" lon="-0.22896">
        <ele>-1.2</ele>
        <time>2017-05-25T13:37:43Z</time>
      </trkpt>
      <trkpt lat="49.26691" lon="-0.22888">
        <ele>-1.7</ele>
        <time>2017-05-25T13:37:50Z</time>
      </trkpt>
      <trkpt lat="49.26696" lon="-0.22878">
        <ele>-2.4</ele>
        <time>2017-05-25T13:37:57Z</time>
      </trkpt>
      <trkpt lat="49.26702" lon="-0.22869">
        <ele>-2.8</ele>
        <time>2017-05-25T13:38:04Z</time>
      </trkpt>
      <trkpt lat="49.26706" lon="-0.2286">
        <ele>-2.7</ele>
        <time>2017-05-25T13:38:10Z</time>
      </trkpt>
      <trkpt lat="49.2671" lon="-0.22849">
        <ele>-2.7</ele>
        <time>2017-05-25T13:38:17Z</time>
      </trkpt>
      <trkpt lat="49.26713" lon="-0.2284">
        <ele>-2.4</ele>
        <time>2017-05-25T13:38:24Z</time>
      </trkpt>
      <trkpt lat="49.26717" lon="-0.2283">
        <ele>-2.4</ele>
        <time>2017-05-25T13:38:30Z</time>
      </trkpt>
      <trkpt lat="49.26721" lon="-0.22821">
        <ele>-3.4</ele>
        <time>2017-05-25T13:38:37Z</time>
      </trkpt>
      <trkpt lat="49.26724" lon="-0.2281">
        <ele>-3.2</ele>
        <time>2017-05-25T13:38:44Z</time>
      </trkpt>
      <trkpt lat="49.26728" lon="-0.228">
        <ele>-3.5</ele>
        <time>2017-05-25T13:38:51Z</time>
      </trkpt>
      <trkpt lat="49.26732" lon="-0.2279">
        <ele>-4.3</ele>
        <time>2017-05-25T13:38:58Z</time>
      </trkpt>
      <trkpt lat="49.26737" lon="-0.2278">
        <ele>-4</ele>
        <time>2017-05-25T13:39:05Z</time>
      </trkpt>
      <trkpt lat="49.26741" lon="-0.2277">
        <ele>-4.4</ele>
        <time>2017-05-25T13:39:12Z</time>
      </trkpt>
      <trkpt lat="49.26744" lon="-0.22758">
        <ele>-4.7</ele>
        <time>2017-05-25T13:39:19Z</time>
      </trkpt>
      <trkpt lat="49.26748" lon="-0.22748">
        <ele>-4.4</ele>
        <time>2017-05-25T13:39:25Z</time>
      </trkpt>
      <trkpt lat="49.2675" lon="-0.2274">
        <ele>-2.8</ele>
        <time>2017-05-25T13:39:32Z</time>
      </trkpt>
      <trkpt lat="49.26752" lon="-0.22733">
        <ele>-1.6</ele>
        <time>2017-05-25T13:39:44Z</time>
      </trkpt>
      <trkpt lat="49.26753" lon="-0.22729">
        <ele>-1.4</ele>
        <time>2017-05-25T13:39:51Z</time>
      </trkpt>
      <trkpt lat="49.26758" lon="-0.22717">
        <ele>1.1</ele>
        <time>2017-05-25T13:40:09Z</time>
      </trkpt>
      <trkpt lat="49.26759" lon="-0.22707">
        <ele>1</ele>
        <time>2017-05-25T13:40:16Z</time>
      </trkpt>
      <trkpt lat="49.2676" lon="-0.22696">
        <ele>0.7</ele>
        <time>2017-05-25T13:40:23Z</time>
      </trkpt>
      <trkpt lat="49.26762" lon="-0.22684">
        <ele>0.2</ele>
        <time>2017-05-25T13:40:30Z</time>
      </trkpt>
      <trkpt lat="49.26763" lon="-0.22674">
        <ele>0.3</ele>
        <time>2017-05-25T13:40:37Z</time>
      </trkpt>
      <trkpt lat="49.26766" lon="-0.22663">
        <ele>-1.4</ele>
        <time>2017-05-25T13:40:44Z</time>
      </trkpt>
      <trkpt lat="49.26767" lon="-0.22652">
        <ele>-1.4</ele>
        <time>2017-05-25T13:40:51Z</time>
      </trkpt>
      <trkpt lat="49.26769" lon="-0.22641">
        <ele>-0.7</ele>
        <time>2017-05-25T13:40:58Z</time>
      </trkpt>
      <trkpt lat="49.26771" lon="-0.22629">
        <ele>-0.5</ele>
        <time>2017-05-25T13:41:05Z</time>
      </trkpt>
      <trkpt lat="49.26772" lon="-0.22619">
        <ele>0.1</ele>
        <time>2017-05-25T13:41:12Z</time>
      </trkpt>
      <trkpt lat="49.26774" lon="-0.22606">
        <ele>-1</ele>
        <time>2017-05-25T13:41:19Z</time>
      </trkpt>
      <trkpt lat="49.26776" lon="-0.22596">
        <ele>-2</ele>
        <time>2017-05-25T13:41:26Z</time>
      </trkpt>
      <trkpt lat="49.26778" lon="-0.22584">
        <ele>-2.4</ele>
        <time>2017-05-25T13:41:33Z</time>
      </trkpt>
      <trkpt lat="49.2678" lon="-0.22572">
        <ele>-2.7</ele>
        <time>2017-05-25T13:41:40Z</time>
      </trkpt>
      <trkpt lat="49.26783" lon="-0.22562">
        <ele>-2.7</ele>
        <time>2017-05-25T13:41:46Z</time>
      </trkpt>
      <trkpt lat="49.26787" lon="-0.22552">
        <ele>-3.1</ele>
        <time>2017-05-25T13:41:52Z</time>
      </trkpt>
      <trkpt lat="49.2679" lon="-0.22541">
        <ele>-3.2</ele>
        <time>2017-05-25T13:41:59Z</time>
      </trkpt>
      <trkpt lat="49.26793" lon="-0.2253">
        <ele>-3.6</ele>
        <time>2017-05-25T13:42:05Z</time>
      </trkpt>
      <trkpt lat="49.26796" lon="-0.22519">
        <ele>-3.7</ele>
        <time>2017-05-25T13:42:12Z</time>
      </trkpt>
      <trkpt lat="49.268" lon="-0.22508">
        <ele>-3.7</ele>
        <time>2017-05-25T13:42:19Z</time>
      </trkpt>
      <trkpt lat="49.26802" lon="-0.22495">
        <ele>-3.9</ele>
        <time>2017-05-25T13:42:26Z</time>
      </trkpt>
      <trkpt lat="49.26804" lon="-0.22484">
        <ele>-4.4</ele>
        <time>2017-05-25T13:42:33Z</time>
      </trkpt>
      <trkpt lat="49.26806" lon="-0.22472">
        <ele>-4.2</ele>
        <time>2017-05-25T13:42:40Z</time>
      </trkpt>
      <trkpt lat="49.26807" lon="-0.2246">
        <ele>-4.4</ele>
        <time>2017-05-25T13:42:47Z</time>
      </trkpt>
      <trkpt lat="49.2681" lon="-0.22448">
        <ele>-3.6</ele>
        <time>2017-05-25T13:42:54Z</time>
      </trkpt>
      <trkpt lat="49.26812" lon="-0.22437">
        <ele>-4</ele>
        <time>2017-05-25T13:43:00Z</time>
      </trkpt>
      <trkpt lat="49.26814" lon="-0.22425">
        <ele>-4.3</ele>
        <time>2017-05-25T13:43:07Z</time>
      </trkpt>
      <trkpt lat="49.26814" lon="-0.22414">
        <ele>-3.9</ele>
        <time>2017-05-25T13:43:13Z</time>
      </trkpt>
      <trkpt lat="49.26815" lon="-0.22402">
        <ele>-3.7</ele>
        <time>2017-05-25T13:43:20Z</time>
      </trkpt>
      <trkpt lat="49.26818" lon="-0.2239">
        <ele>-4</ele>
        <time>2017-05-25T13:43:27Z</time>
      </trkpt>
      <trkpt lat="49.2682" lon="-0.22378">
        <ele>-4</ele>
        <time>2017-05-25T13:43:34Z</time>
      </trkpt>
      <trkpt lat="49.2682" lon="-0.22366">
        <ele>-3.4</ele>
        <time>2017-05-25T13:43:41Z</time>
      </trkpt>
      <trkpt lat="49.26821" lon="-0.22355">
        <ele>-2.5</ele>
        <time>2017-05-25T13:43:48Z</time>
      </trkpt>
      <trkpt lat="49.26823" lon="-0.22342">
        <ele>-2.3</ele>
        <time>2017-05-25T13:43:55Z</time>
      </trkpt>
      <trkpt lat="49.26825" lon="-0.22333">
        <ele>-2.1</ele>
        <time>2017-05-25T13:44:01Z</time>
      </trkpt>
      <trkpt lat="49.26826" lon="-0.22321">
        <ele>-1</ele>
        <time>2017-05-25T13:44:07Z</time>
      </trkpt>
      <trkpt lat="49.26829" lon="-0.2231">
        <ele>-2.4</ele>
        <time>2017-05-25T13:44:13Z</time>
      </trkpt>
      <trkpt lat="49.26833" lon="-0.223">
        <ele>-2.8</ele>
        <time>2017-05-25T13:44:19Z</time>
      </trkpt>
      <trkpt lat="49.26837" lon="-0.2229">
        <ele>-2.8</ele>
        <time>2017-05-25T13:44:25Z</time>
      </trkpt>
      <trkpt lat="49.26842" lon="-0.22281">
        <ele>-1.9</ele>
        <time>2017-05-25T13:44:31Z</time>
      </trkpt>
      <trkpt lat="49.26847" lon="-0.22271">
        <ele>-1.9</ele>
        <time>2017-05-25T13:44:37Z</time>
      </trkpt>
      <trkpt lat="49.26851" lon="-0.22261">
        <ele>-2</ele>
        <time>2017-05-25T13:44:44Z</time>
      </trkpt>
      <trkpt lat="49.26856" lon="-0.22252">
        <ele>-1.2</ele>
        <time>2017-05-25T13:44:50Z</time>
      </trkpt>
      <trkpt lat="49.26859" lon="-0.22242">
        <ele>-0.4</ele>
        <time>2017-05-25T13:44:56Z</time>
      </trkpt>
      <trkpt lat="49.26863" lon="-0.22233">
        <ele>-0.4</ele>
        <time>2017-05-25T13:45:02Z</time>
      </trkpt>
      <trkpt lat="49.26869" lon="-0.22223">
        <ele>0.2</ele>
        <time>2017-05-25T13:45:09Z</time>
      </trkpt>
      <trkpt lat="49.26874" lon="-0.22216">
        <ele>0.3</ele>
        <time>2017-05-25T13:45:16Z</time>
      </trkpt>
      <trkpt lat="49.26879" lon="-0.22208">
        <ele>-0.4</ele>
        <time>2017-05-25T13:45:23Z</time>
      </trkpt>
      <trkpt lat="49.26884" lon="-0.22203">
        <ele>0.1</ele>
        <time>2017-05-25T13:45:30Z</time>
      </trkpt>
      <trkpt lat="49.26891" lon="-0.22195">
        <ele>0.9</ele>
        <time>2017-05-25T13:45:37Z</time>
      </trkpt>
      <trkpt lat="49.26897" lon="-0.22188">
        <ele>2.6</ele>
        <time>2017-05-25T13:45:43Z</time>
      </trkpt>
      <trkpt lat="49.26904" lon="-0.2218">
        <ele>2.5</ele>
        <time>2017-05-25T13:45:49Z</time>
      </trkpt>
      <trkpt lat="49.2691" lon="-0.22175">
        <ele>3.8</ele>
        <time>2017-05-25T13:45:56Z</time>
      </trkpt>
      <trkpt lat="49.26917" lon="-0.22169">
        <ele>2.9</ele>
        <time>2017-05-25T13:46:03Z</time>
      </trkpt>
      <trkpt lat="49.26923" lon="-0.22162">
        <ele>1.9</ele>
        <time>2017-05-25T13:46:09Z</time>
      </trkpt>
      <trkpt lat="49.26928" lon="-0.22155">
        <ele>2.2</ele>
        <time>2017-05-25T13:46:16Z</time>
      </trkpt>
      <trkpt lat="49.26934" lon="-0.2215">
        <ele>3.7</ele>
        <time>2017-05-25T13:46:23Z</time>
      </trkpt>
      <trkpt lat="49.2694" lon="-0.22141">
        <ele>2.2</ele>
        <time>2017-05-25T13:46:29Z</time>
      </trkpt>
      <trkpt lat="49.26946" lon="-0.22133">
        <ele>2</ele>
        <time>2017-05-25T13:46:36Z</time>
      </trkpt>
      <trkpt lat="49.26952" lon="-0.22127">
        <ele>0.2</ele>
        <time>2017-05-25T13:46:42Z</time>
      </trkpt>
      <trkpt lat="49.26957" lon="-0.2212">
        <ele>-1.5</ele>
        <time>2017-05-25T13:46:47Z</time>
      </trkpt>
      <trkpt lat="49.26964" lon="-0.22112">
        <ele>-2.1</ele>
        <time>2017-05-25T13:46:54Z</time>
      </trkpt>
      <trkpt lat="49.26969" lon="-0.22102">
        <ele>0.8</ele>
        <time>2017-05-25T13:47:01Z</time>
      </trkpt>
      <trkpt lat="49.26974" lon="-0.22095">
        <ele>3.2</ele>
        <time>2017-05-25T13:47:08Z</time>
      </trkpt>
      <trkpt lat="49.26978" lon="-0.22085">
        <ele>4.5</ele>
        <time>2017-05-25T13:47:15Z</time>
      </trkpt>
      <trkpt lat="49.26984" lon="-0.22076">
        <ele>4.6</ele>
        <time>2017-05-25T13:47:22Z</time>
      </trkpt>
      <trkpt lat="49.2699" lon="-0.2207">
        <ele>4.1</ele>
        <time>2017-05-25T13:47:28Z</time>
      </trkpt>
      <trkpt lat="49.26997" lon="-0.22062">
        <ele>4.1</ele>
        <time>2017-05-25T13:47:34Z</time>
      </trkpt>
      <trkpt lat="49.27004" lon="-0.22055">
        <ele>3.7</ele>
        <time>2017-05-25T13:47:40Z</time>
      </trkpt>
      <trkpt lat="49.2701" lon="-0.22048">
        <ele>5</ele>
        <time>2017-05-25T13:47:46Z</time>
      </trkpt>
      <trkpt lat="49.27013" lon="-0.22041">
        <ele>5.9</ele>
        <time>2017-05-25T13:47:53Z</time>
      </trkpt>
      <trkpt lat="49.27018" lon="-0.22031">
        <ele>5</ele>
        <time>2017-05-25T13:48:00Z</time>
      </trkpt>
      <trkpt lat="49.27022" lon="-0.22022">
        <ele>5.6</ele>
        <time>2017-05-25T13:48:07Z</time>
      </trkpt>
      <trkpt lat="49.27026" lon="-0.22014">
        <ele>4.8</ele>
        <time>2017-05-25T13:48:14Z</time>
      </trkpt>
      <trkpt lat="49.27031" lon="-0.22008">
        <ele>4.5</ele>
        <time>2017-05-25T13:48:21Z</time>
      </trkpt>
      <trkpt lat="49.27038" lon="-0.22">
        <ele>3.9</ele>
        <time>2017-05-25T13:48:28Z</time>
      </trkpt>
      <trkpt lat="49.27044" lon="-0.21994">
        <ele>3.4</ele>
        <time>2017-05-25T13:48:34Z</time>
      </trkpt>
      <trkpt lat="49.2705" lon="-0.21987">
        <ele>2</ele>
        <time>2017-05-25T13:48:40Z</time>
      </trkpt>
      <trkpt lat="49.27056" lon="-0.21979">
        <ele>3.2</ele>
        <time>2017-05-25T13:48:47Z</time>
      </trkpt>
      <trkpt lat="49.27062" lon="-0.21971">
        <ele>2.3</ele>
        <time>2017-05-25T13:48:53Z</time>
      </trkpt>
      <trkpt lat="49.27068" lon="-0.21964">
        <ele>1.3</ele>
        <time>2017-05-25T13:48:59Z</time>
      </trkpt>
      <trkpt lat="49.27074" lon="-0.21959">
        <ele>1.3</ele>
        <time>2017-05-25T13:49:05Z</time>
      </trkpt>
      <trkpt lat="49.2708" lon="-0.21956">
        <ele>0.7</ele>
        <time>2017-05-25T13:49:12Z</time>
      </trkpt>
      <trkpt lat="49.27085" lon="-0.2195">
        <ele>-0.3</ele>
        <time>2017-05-25T13:49:19Z</time>
      </trkpt>
      <trkpt lat="49.27091" lon="-0.21945">
        <ele>-0.2</ele>
        <time>2017-05-25T13:49:25Z</time>
      </trkpt>
      <trkpt lat="49.27098" lon="-0.21936">
        <ele>-0.6</ele>
        <time>2017-05-25T13:49:32Z</time>
      </trkpt>
      <trkpt lat="49.27105" lon="-0.21929">
        <ele>-1.1</ele>
        <time>2017-05-25T13:49:39Z</time>
      </trkpt>
      <trkpt lat="49.2711" lon="-0.2192">
        <ele>-1.5</ele>
        <time>2017-05-25T13:49:46Z</time>
      </trkpt>
      <trkpt lat="49.27117" lon="-0.21916">
        <ele>-1.2</ele>
        <time>2017-05-25T13:49:53Z</time>
      </trkpt>
      <trkpt lat="49.27124" lon="-0.21915">
        <ele>-0.6</ele>
        <time>2017-05-25T13:49:59Z</time>
      </trkpt>
      <trkpt lat="49.27131" lon="-0.21914">
        <ele>0.3</ele>
        <time>2017-05-25T13:50:06Z</time>
      </trkpt>
      <trkpt lat="49.27137" lon="-0.2192">
        <ele>1.5</ele>
        <time>2017-05-25T13:50:13Z</time>
      </trkpt>
      <trkpt lat="49.27142" lon="-0.21925">
        <ele>3.8</ele>
        <time>2017-05-25T13:50:20Z</time>
      </trkpt>
      <trkpt lat="49.27147" lon="-0.21929">
        <ele>5.8</ele>
        <time>2017-05-25T13:50:27Z</time>
      </trkpt>
      <trkpt lat="49.27153" lon="-0.21934">
        <ele>7</ele>
        <time>2017-05-25T13:50:34Z</time>
      </trkpt>
      <trkpt lat="49.27161" lon="-0.21934">
        <ele>4.2</ele>
        <time>2017-05-25T13:50:40Z</time>
      </trkpt>
      <trkpt lat="49.27169" lon="-0.2193">
        <ele>1.7</ele>
        <time>2017-05-25T13:50:46Z</time>
      </trkpt>
      <trkpt lat="49.27175" lon="-0.21923">
        <ele>-0.1</ele>
        <time>2017-05-25T13:50:52Z</time>
      </trkpt>
      <trkpt lat="49.27181" lon="-0.21916">
        <ele>-1.4</ele>
        <time>2017-05-25T13:50:59Z</time>
      </trkpt>
      <trkpt lat="49.27187" lon="-0.2191">
        <ele>-0.5</ele>
        <time>2017-05-25T13:51:06Z</time>
      </trkpt>
      <trkpt lat="49.27193" lon="-0.21903">
        <ele>-0.2</ele>
        <time>2017-05-25T13:51:13Z</time>
      </trkpt>
      <trkpt lat="49.27199" lon="-0.21895">
        <ele>-1.2</ele>
        <time>2017-05-25T13:51:20Z</time>
      </trkpt>
      <trkpt lat="49.27206" lon="-0.21889">
        <ele>-2.6</ele>
        <time>2017-05-25T13:51:27Z</time>
      </trkpt>
      <trkpt lat="49.2721" lon="-0.21883">
        <ele>-3.4</ele>
        <time>2017-05-25T13:51:34Z</time>
      </trkpt>
      <trkpt lat="49.27213" lon="-0.21875">
        <ele>-3.8</ele>
        <time>2017-05-25T13:51:41Z</time>
      </trkpt>
      <trkpt lat="49.27215" lon="-0.21866">
        <ele>-3.7</ele>
        <time>2017-05-25T13:51:48Z</time>
      </trkpt>
      <trkpt lat="49.27215" lon="-0.21855">
        <ele>-3.2</ele>
        <time>2017-05-25T13:51:54Z</time>
      </trkpt>
      <trkpt lat="49.27216" lon="-0.21843">
        <ele>-3</ele>
        <time>2017-05-25T13:52:01Z</time>
      </trkpt>
      <trkpt lat="49.27215" lon="-0.21832">
        <ele>-2.9</ele>
        <time>2017-05-25T13:52:08Z</time>
      </trkpt>
      <trkpt lat="49.27215" lon="-0.21821">
        <ele>-1.5</ele>
        <time>2017-05-25T13:52:15Z</time>
      </trkpt>
      <trkpt lat="49.27216" lon="-0.21811">
        <ele>-0.4</ele>
        <time>2017-05-25T13:52:22Z</time>
      </trkpt>
      <trkpt lat="49.27221" lon="-0.21804">
        <ele>-0.4</ele>
        <time>2017-05-25T13:52:29Z</time>
      </trkpt>
      <trkpt lat="49.27226" lon="-0.21795">
        <ele>-0.3</ele>
        <time>2017-05-25T13:52:36Z</time>
      </trkpt>
      <trkpt lat="49.2723" lon="-0.21792">
        <ele>0.8</ele>
        <time>2017-05-25T13:52:43Z</time>
      </trkpt>
      <trkpt lat="49.27234" lon="-0.21786">
        <ele>3.6</ele>
        <time>2017-05-25T13:52:50Z</time>
      </trkpt>
      <trkpt lat="49.27242" lon="-0.21779">
        <ele>3.3</ele>
        <time>2017-05-25T13:52:56Z</time>
      </trkpt>
      <trkpt lat="49.27249" lon="-0.21773">
        <ele>2.8</ele>
        <time>2017-05-25T13:53:02Z</time>
      </trkpt>
      <trkpt lat="49.27257" lon="-0.21767">
        <ele>2.3</ele>
        <time>2017-05-25T13:53:08Z</time>
      </trkpt>
      <trkpt lat="49.27264" lon="-0.21762">
        <ele>-1.4</ele>
        <time>2017-05-25T13:53:13Z</time>
      </trkpt>
      <trkpt lat="49.27272" lon="-0.21755">
        <ele>-3.7</ele>
        <time>2017-05-25T13:53:20Z</time>
      </trkpt>
      <trkpt lat="49.27278" lon="-0.21751">
        <ele>-2.8</ele>
        <time>2017-05-25T13:53:25Z</time>
      </trkpt>
      <trkpt lat="49.27286" lon="-0.21745">
        <ele>-2</ele>
        <time>2017-05-25T13:53:31Z</time>
      </trkpt>
      <trkpt lat="49.27291" lon="-0.21737">
        <ele>-2.1</ele>
        <time>2017-05-25T13:53:38Z</time>
      </trkpt>
      <trkpt lat="49.27297" lon="-0.21731">
        <ele>-2.3</ele>
        <time>2017-05-25T13:53:44Z</time>
      </trkpt>
      <trkpt lat="49.27304" lon="-0.21724">
        <ele>-2.1</ele>
        <time>2017-05-25T13:53:51Z</time>
      </trkpt>
      <trkpt lat="49.2731" lon="-0.21717">
        <ele>-2.1</ele>
        <time>2017-05-25T13:53:57Z</time>
      </trkpt>
      <trkpt lat="49.27315" lon="-0.21708">
        <ele>-2.2</ele>
        <time>2017-05-25T13:54:04Z</time>
      </trkpt>
      <trkpt lat="49.27319" lon="-0.21699">
        <ele>-1.7</ele>
        <time>2017-05-25T13:54:11Z</time>
      </trkpt>
      <trkpt lat="49.27322" lon="-0.21689">
        <ele>-0.9</ele>
        <time>2017-05-25T13:54:19Z</time>
      </trkpt>
      <trkpt lat="49.27328" lon="-0.21681">
        <ele>4.7</ele>
        <time>2017-05-25T13:54:26Z</time>
      </trkpt>
      <trkpt lat="49.27335" lon="-0.21672">
        <ele>4.2</ele>
        <time>2017-05-25T13:54:34Z</time>
      </trkpt>
      <trkpt lat="49.27342" lon="-0.21667">
        <ele>1.9</ele>
        <time>2017-05-25T13:54:40Z</time>
      </trkpt>
      <trkpt lat="49.27346" lon="-0.21657">
        <ele>1.4</ele>
        <time>2017-05-25T13:54:47Z</time>
      </trkpt>
      <trkpt lat="49.27349" lon="-0.21649">
        <ele>1.2</ele>
        <time>2017-05-25T13:54:54Z</time>
      </trkpt>
      <trkpt lat="49.27347" lon="-0.21644">
        <ele>1.6</ele>
        <time>2017-05-25T13:55:01Z</time>
      </trkpt>
      <trkpt lat="49.27344" lon="-0.21633">
        <ele>1.6</ele>
        <time>2017-05-25T13:55:12Z</time>
      </trkpt>
      <trkpt lat="49.27343" lon="-0.21628">
        <ele>0.8</ele>
        <time>2017-05-25T13:55:19Z</time>
      </trkpt>
      <trkpt lat="49.27348" lon="-0.2162">
        <ele>2.2</ele>
        <time>2017-05-25T13:55:24Z</time>
      </trkpt>
      <trkpt lat="49.27351" lon="-0.21608">
        <ele>1</ele>
        <time>2017-05-25T13:55:30Z</time>
      </trkpt>
      <trkpt lat="49.27353" lon="-0.21597">
        <ele>1.6</ele>
        <time>2017-05-25T13:55:37Z</time>
      </trkpt>
      <trkpt lat="49.27359" lon="-0.21589">
        <ele>0.5</ele>
        <time>2017-05-25T13:55:44Z</time>
      </trkpt>
      <trkpt lat="49.27364" lon="-0.21584">
        <ele>1.3</ele>
        <time>2017-05-25T13:55:51Z</time>
      </trkpt>
      <trkpt lat="49.27367" lon="-0.21582">
        <ele>2</ele>
        <time>2017-05-25T13:55:58Z</time>
      </trkpt>
      <trkpt lat="49.27372" lon="-0.21575">
        <ele>3.6</ele>
        <time>2017-05-25T13:56:05Z</time>
      </trkpt>
      <trkpt lat="49.27375" lon="-0.21573">
        <ele>2</ele>
        <time>2017-05-25T13:56:12Z</time>
      </trkpt>
      <trkpt lat="49.27378" lon="-0.21571">
        <ele>1.9</ele>
        <time>2017-05-25T13:56:27Z</time>
      </trkpt>
      <trkpt lat="49.27386" lon="-0.21566">
        <ele>5.5</ele>
        <time>2017-05-25T14:00:28Z</time>
      </trkpt>
      <trkpt lat="49.27387" lon="-0.21566">
        <ele>4.8</ele>
        <time>2017-05-25T14:00:35Z</time>
      </trkpt>
      <trkpt lat="49.27394" lon="-0.21561">
        <ele>2.7</ele>
        <time>2017-05-25T14:00:53Z</time>
      </trkpt>
      <trkpt lat="49.27401" lon="-0.21559">
        <ele>2.4</ele>
        <time>2017-05-25T14:01:00Z</time>
      </trkpt>
      <trkpt lat="49.27409" lon="-0.21555">
        <ele>3.7</ele>
        <time>2017-05-25T14:01:06Z</time>
      </trkpt>
      <trkpt lat="49.27416" lon="-0.21552">
        <ele>4.7</ele>
        <time>2017-05-25T14:01:13Z</time>
      </trkpt>
      <trkpt lat="49.27424" lon="-0.21549">
        <ele>6.4</ele>
        <time>2017-05-25T14:01:19Z</time>
      </trkpt>
      <trkpt lat="49.27429" lon="-0.21547">
        <ele>9.6</ele>
        <time>2017-05-25T14:01:26Z</time>
      </trkpt>
      <trkpt lat="49.27436" lon="-0.21555">
        <ele>11.9</ele>
        <time>2017-05-25T14:01:33Z</time>
      </trkpt>
      <trkpt lat="49.2744" lon="-0.21564">
        <ele>13.7</ele>
        <time>2017-05-25T14:01:37Z</time>
      </trkpt>
      <trkpt lat="49.27446" lon="-0.2157">
        <ele>14.7</ele>
        <time>2017-05-25T14:01:43Z</time>
      </trkpt>
      <trkpt lat="49.27446" lon="-0.21577">
        <ele>12.9</ele>
        <time>2017-05-25T14:01:50Z</time>
      </trkpt>
      <trkpt lat="49.27446" lon="-0.21578">
        <ele>9.3</ele>
        <time>2017-05-25T14:01:57Z</time>
      </trkpt>
      <trkpt lat="49.27447" lon="-0.21584">
        <ele>4.8</ele>
        <time>2017-05-25T14:01:34Z</time>
      </trkpt>
      <trkpt lat="49.27448" lon="-0.21585">
        <ele>1.4</ele>
        <time>2017-05-25T14:04:17Z</time>
      </trkpt>
      <trkpt lat="49.27449" lon="-0.2158">
        <ele>0.5</ele>
        <time>2017-05-25T14:04:24Z</time>
      </trkpt>
      <trkpt lat="49.27452" lon="-0.21573">
        <ele>0.6</ele>
        <time>2017-05-25T14:04:31Z</time>
      </trkpt>
      <trkpt lat="49.27456" lon="-0.21573">
        <ele>-0.6</ele>
        <time>2017-05-25T14:04:38Z</time>
      </trkpt>
      <trkpt lat="49.27463" lon="-0.21579">
        <ele>-1.2</ele>
        <time>2017-05-25T14:04:45Z</time>
      </trkpt>
      <trkpt lat="49.27468" lon="-0.21582">
        <ele>-1.2</ele>
        <time>2017-05-25T14:04:52Z</time>
      </trkpt>
      <trkpt lat="49.27474" lon="-0.21578">
        <ele>0.5</ele>
        <time>2017-05-25T14:04:59Z</time>
      </trkpt>
      <trkpt lat="49.27482" lon="-0.21574">
        <ele>0.9</ele>
        <time>2017-05-25T14:05:06Z</time>
      </trkpt>
      <trkpt lat="49.27489" lon="-0.2157">
        <ele>-0.1</ele>
        <time>2017-05-25T14:05:13Z</time>
      </trkpt>
      <trkpt lat="49.27493" lon="-0.21566">
        <ele>0.2</ele>
        <time>2017-05-25T14:05:20Z</time>
      </trkpt>
      <trkpt lat="49.27499" lon="-0.21564">
        <ele>0.7</ele>
        <time>2017-05-25T14:05:27Z</time>
      </trkpt>
      <trkpt lat="49.27506" lon="-0.21564">
        <ele>3.8</ele>
        <time>2017-05-25T14:05:34Z</time>
      </trkpt>
      <trkpt lat="49.27515" lon="-0.21561">
        <ele>4.7</ele>
        <time>2017-05-25T14:05:41Z</time>
      </trkpt>
      <trkpt lat="49.27522" lon="-0.21556">
        <ele>6.6</ele>
        <time>2017-05-25T14:05:46Z</time>
      </trkpt>
      <trkpt lat="49.2753" lon="-0.21551">
        <ele>4.9</ele>
        <time>2017-05-25T14:05:52Z</time>
      </trkpt>
      <trkpt lat="49.27538" lon="-0.21548">
        <ele>4</ele>
        <time>2017-05-25T14:05:58Z</time>
      </trkpt>
      <trkpt lat="49.27545" lon="-0.21547">
        <ele>4.7</ele>
        <time>2017-05-25T14:06:05Z</time>
      </trkpt>
      <trkpt lat="49.27553" lon="-0.21547">
        <ele>5</ele>
        <time>2017-05-25T14:06:12Z</time>
      </trkpt>
      <trkpt lat="49.27561" lon="-0.21546">
        <ele>2.5</ele>
        <time>2017-05-25T14:06:17Z</time>
      </trkpt>
      <trkpt lat="49.27566" lon="-0.21546">
        <ele>3.3</ele>
        <time>2017-05-25T14:06:24Z</time>
      </trkpt>
      <trkpt lat="49.27572" lon="-0.21543">
        <ele>5.8</ele>
        <time>2017-05-25T14:06:31Z</time>
      </trkpt>
      <trkpt lat="49.27579" lon="-0.21542">
        <ele>3.7</ele>
        <time>2017-05-25T14:06:37Z</time>
      </trkpt>
      <trkpt lat="49.27586" lon="-0.21539">
        <ele>6.2</ele>
        <time>2017-05-25T14:06:44Z</time>
      </trkpt>
      <trkpt lat="49.27594" lon="-0.21537">
        <ele>5.6</ele>
        <time>2017-05-25T14:06:50Z</time>
      </trkpt>
      <trkpt lat="49.27602" lon="-0.21537">
        <ele>7.8</ele>
        <time>2017-05-25T14:06:56Z</time>
      </trkpt>
      <trkpt lat="49.27609" lon="-0.21536">
        <ele>10.6</ele>
        <time>2017-05-25T14:07:03Z</time>
      </trkpt>
      <trkpt lat="49.27617" lon="-0.21534">
        <ele>11.6</ele>
        <time>2017-05-25T14:07:09Z</time>
      </trkpt>
      <trkpt lat="49.27624" lon="-0.21536">
        <ele>10.3</ele>
        <time>2017-05-25T14:07:15Z</time>
      </trkpt>
      <trkpt lat="49.27633" lon="-0.21536">
        <ele>6.9</ele>
        <time>2017-05-25T14:07:21Z</time>
      </trkpt>
      <trkpt lat="49.27641" lon="-0.21533">
        <ele>6.2</ele>
        <time>2017-05-25T14:07:27Z</time>
      </trkpt>
      <trkpt lat="49.27649" lon="-0.21533">
        <ele>6.2</ele>
        <time>2017-05-25T14:07:33Z</time>
      </trkpt>
      <trkpt lat="49.27657" lon="-0.21533">
        <ele>6.1</ele>
        <time>2017-05-25T14:07:40Z</time>
      </trkpt>
      <trkpt lat="49.27664" lon="-0.21532">
        <ele>6.5</ele>
        <time>2017-05-25T14:07:46Z</time>
      </trkpt>
      <trkpt lat="49.27671" lon="-0.21532">
        <ele>5</ele>
        <time>2017-05-25T14:07:52Z</time>
      </trkpt>
      <trkpt lat="49.27678" lon="-0.21534">
        <ele>5</ele>
        <time>2017-05-25T14:07:58Z</time>
      </trkpt>
      <trkpt lat="49.27687" lon="-0.21538">
        <ele>4.5</ele>
        <time>2017-05-25T14:08:05Z</time>
      </trkpt>
      <trkpt lat="49.27693" lon="-0.21545">
        <ele>4.9</ele>
        <time>2017-05-25T14:08:12Z</time>
      </trkpt>
      <trkpt lat="49.277" lon="-0.21546">
        <ele>4.1</ele>
        <time>2017-05-25T14:08:17Z</time>
      </trkpt>
      <trkpt lat="49.27708" lon="-0.21548">
        <ele>4.4</ele>
        <time>2017-05-25T14:08:24Z</time>
      </trkpt>
      <trkpt lat="49.27715" lon="-0.2155">
        <ele>6.3</ele>
        <time>2017-05-25T14:08:31Z</time>
      </trkpt>
      <trkpt lat="49.27721" lon="-0.21548">
        <ele>9.1</ele>
        <time>2017-05-25T14:08:38Z</time>
      </trkpt>
      <trkpt lat="49.27728" lon="-0.2155">
        <ele>11.5</ele>
        <time>2017-05-25T14:08:45Z</time>
      </trkpt>
      <trkpt lat="49.27735" lon="-0.21552">
        <ele>12.1</ele>
        <time>2017-05-25T14:08:52Z</time>
      </trkpt>
      <trkpt lat="49.27743" lon="-0.21552">
        <ele>10.8</ele>
        <time>2017-05-25T14:08:58Z</time>
      </trkpt>
      <trkpt lat="49.27749" lon="-0.21555">
        <ele>11.8</ele>
        <time>2017-05-25T14:09:05Z</time>
      </trkpt>
      <trkpt lat="49.27755" lon="-0.21557">
        <ele>13.6</ele>
        <time>2017-05-25T14:09:12Z</time>
      </trkpt>
      <trkpt lat="49.27761" lon="-0.21564">
        <ele>13</ele>
        <time>2017-05-25T14:09:18Z</time>
      </trkpt>
      <trkpt lat="49.27769" lon="-0.2157">
        <ele>11.5</ele>
        <time>2017-05-25T14:09:24Z</time>
      </trkpt>
      <trkpt lat="49.27775" lon="-0.21577">
        <ele>11</ele>
        <time>2017-05-25T14:09:30Z</time>
      </trkpt>
      <trkpt lat="49.27782" lon="-0.21584">
        <ele>10.7</ele>
        <time>2017-05-25T14:09:37Z</time>
      </trkpt>
      <trkpt lat="49.2779" lon="-0.21589">
        <ele>11.9</ele>
        <time>2017-05-25T14:09:44Z</time>
      </trkpt>
      <trkpt lat="49.27797" lon="-0.21594">
        <ele>8.7</ele>
        <time>2017-05-25T14:09:51Z</time>
      </trkpt>
      <trkpt lat="49.27804" lon="-0.21598">
        <ele>7.3</ele>
        <time>2017-05-25T14:09:58Z</time>
      </trkpt>
      <trkpt lat="49.27811" lon="-0.21604">
        <ele>6.7</ele>
        <time>2017-05-25T14:10:05Z</time>
      </trkpt>
      <trkpt lat="49.27818" lon="-0.2161">
        <ele>5.9</ele>
        <time>2017-05-25T14:10:12Z</time>
      </trkpt>
      <trkpt lat="49.27826" lon="-0.21613">
        <ele>4.3</ele>
        <time>2017-05-25T14:10:18Z</time>
      </trkpt>
      <trkpt lat="49.27833" lon="-0.2162">
        <ele>1.8</ele>
        <time>2017-05-25T14:10:24Z</time>
      </trkpt>
      <trkpt lat="49.27839" lon="-0.21626">
        <ele>1.1</ele>
        <time>2017-05-25T14:10:31Z</time>
      </trkpt>
      <trkpt lat="49.27845" lon="-0.21635">
        <ele>3</ele>
        <time>2017-05-25T14:10:38Z</time>
      </trkpt>
      <trkpt lat="49.27852" lon="-0.2164">
        <ele>3.9</ele>
        <time>2017-05-25T14:10:45Z</time>
      </trkpt>
      <trkpt lat="49.2786" lon="-0.21645">
        <ele>7.2</ele>
        <time>2017-05-25T14:10:52Z</time>
      </trkpt>
      <trkpt lat="49.27867" lon="-0.21651">
        <ele>8.5</ele>
        <time>2017-05-25T14:10:58Z</time>
      </trkpt>
      <trkpt lat="49.27873" lon="-0.21658">
        <ele>9</ele>
        <time>2017-05-25T14:11:05Z</time>
      </trkpt>
      <trkpt lat="49.27881" lon="-0.21662">
        <ele>6.6</ele>
        <time>2017-05-25T14:11:11Z</time>
      </trkpt>
      <trkpt lat="49.27889" lon="-0.21667">
        <ele>6.5</ele>
        <time>2017-05-25T14:11:17Z</time>
      </trkpt>
      <trkpt lat="49.27896" lon="-0.21671">
        <ele>6</ele>
        <time>2017-05-25T14:11:23Z</time>
      </trkpt>
      <trkpt lat="49.27903" lon="-0.21676">
        <ele>5.3</ele>
        <time>2017-05-25T14:11:30Z</time>
      </trkpt>
      <trkpt lat="49.27911" lon="-0.21679">
        <ele>3.7</ele>
        <time>2017-05-25T14:11:36Z</time>
      </trkpt>
      <trkpt lat="49.2792" lon="-0.21681">
        <ele>1.8</ele>
        <time>2017-05-25T14:11:42Z</time>
      </trkpt>
      <trkpt lat="49.27928" lon="-0.21681">
        <ele>0.9</ele>
        <time>2017-05-25T14:11:49Z</time>
      </trkpt>
      <trkpt lat="49.27935" lon="-0.21682">
        <ele>4.3</ele>
        <time>2017-05-25T14:11:55Z</time>
      </trkpt>
      <trkpt lat="49.27943" lon="-0.21685">
        <ele>0.1</ele>
        <time>2017-05-25T14:12:02Z</time>
      </trkpt>
      <trkpt lat="49.2795" lon="-0.21691">
        <ele>0.4</ele>
        <time>2017-05-25T14:12:09Z</time>
      </trkpt>
      <trkpt lat="49.27957" lon="-0.21696">
        <ele>1.1</ele>
        <time>2017-05-25T14:12:16Z</time>
      </trkpt>
      <trkpt lat="49.27963" lon="-0.21703">
        <ele>2.3</ele>
        <time>2017-05-25T14:12:23Z</time>
      </trkpt>
      <trkpt lat="49.2797" lon="-0.21709">
        <ele>0.9</ele>
        <time>2017-05-25T14:12:30Z</time>
      </trkpt>
      <trkpt lat="49.27977" lon="-0.21713">
        <ele>0.2</ele>
        <time>2017-05-25T14:12:37Z</time>
      </trkpt>
      <trkpt lat="49.27985" lon="-0.21718">
        <ele>-0.7</ele>
        <time>2017-05-25T14:12:43Z</time>
      </trkpt>
      <trkpt lat="49.27992" lon="-0.21723">
        <ele>-0.9</ele>
        <time>2017-05-25T14:12:50Z</time>
      </trkpt>
      <trkpt lat="49.27999" lon="-0.21731">
        <ele>-0.2</ele>
        <time>2017-05-25T14:12:57Z</time>
      </trkpt>
      <trkpt lat="49.28005" lon="-0.21737">
        <ele>-1</ele>
        <time>2017-05-25T14:13:03Z</time>
      </trkpt>
      <trkpt lat="49.28012" lon="-0.21744">
        <ele>-0.8</ele>
        <time>2017-05-25T14:13:10Z</time>
      </trkpt>
      <trkpt lat="49.28018" lon="-0.21748">
        <ele>-0.4</ele>
        <time>2017-05-25T14:13:16Z</time>
      </trkpt>
      <trkpt lat="49.28026" lon="-0.21751">
        <ele>-0.5</ele>
        <time>2017-05-25T14:13:23Z</time>
      </trkpt>
      <trkpt lat="49.28033" lon="-0.21758">
        <ele>0.7</ele>
        <time>2017-05-25T14:13:29Z</time>
      </trkpt>
      <trkpt lat="49.28039" lon="-0.21764">
        <ele>0.9</ele>
        <time>2017-05-25T14:13:35Z</time>
      </trkpt>
      <trkpt lat="49.28046" lon="-0.2177">
        <ele>-0.4</ele>
        <time>2017-05-25T14:13:41Z</time>
      </trkpt>
      <trkpt lat="49.28053" lon="-0.21778">
        <ele>-2.4</ele>
        <time>2017-05-25T14:13:48Z</time>
      </trkpt>
      <trkpt lat="49.2806" lon="-0.21781">
        <ele>-2</ele>
        <time>2017-05-25T14:13:55Z</time>
      </trkpt>
      <trkpt lat="49.28067" lon="-0.2179">
        <ele>-1</ele>
        <time>2017-05-25T14:14:02Z</time>
      </trkpt>
      <trkpt lat="49.28074" lon="-0.21797">
        <ele>-1.5</ele>
        <time>2017-05-25T14:14:09Z</time>
      </trkpt>
      <trkpt lat="49.28078" lon="-0.21806">
        <ele>-0.9</ele>
        <time>2017-05-25T14:14:15Z</time>
      </trkpt>
      <trkpt lat="49.28082" lon="-0.21815">
        <ele>1.2</ele>
        <time>2017-05-25T14:14:20Z</time>
      </trkpt>
      <trkpt lat="49.28087" lon="-0.21825">
        <ele>1.1</ele>
        <time>2017-05-25T14:14:26Z</time>
      </trkpt>
      <trkpt lat="49.28089" lon="-0.21837">
        <ele>2.4</ele>
        <time>2017-05-25T14:14:32Z</time>
      </trkpt>
      <trkpt lat="49.28093" lon="-0.21844">
        <ele>4</ele>
        <time>2017-05-25T14:14:39Z</time>
      </trkpt>
      <trkpt lat="49.28096" lon="-0.21854">
        <ele>4.6</ele>
        <time>2017-05-25T14:14:46Z</time>
      </trkpt>
      <trkpt lat="49.28103" lon="-0.21863">
        <ele>5.3</ele>
        <time>2017-05-25T14:14:53Z</time>
      </trkpt>
      <trkpt lat="49.28107" lon="-0.21872">
        <ele>7.5</ele>
        <time>2017-05-25T14:14:59Z</time>
      </trkpt>
      <trkpt lat="49.28111" lon="-0.21883">
        <ele>7.8</ele>
        <time>2017-05-25T14:15:06Z</time>
      </trkpt>
      <trkpt lat="49.28117" lon="-0.21891">
        <ele>6.3</ele>
        <time>2017-05-25T14:15:12Z</time>
      </trkpt>
      <trkpt lat="49.28123" lon="-0.21898">
        <ele>3.8</ele>
        <time>2017-05-25T14:15:19Z</time>
      </trkpt>
      <trkpt lat="49.28129" lon="-0.21907">
        <ele>3</ele>
        <time>2017-05-25T14:15:26Z</time>
      </trkpt>
      <trkpt lat="49.28132" lon="-0.21917">
        <ele>2.1</ele>
        <time>2017-05-25T14:15:33Z</time>
      </trkpt>
      <trkpt lat="49.28132" lon="-0.21929">
        <ele>4.2</ele>
        <time>2017-05-25T14:15:39Z</time>
      </trkpt>
      <trkpt lat="49.28132" lon="-0.21939">
        <ele>5.2</ele>
        <time>2017-05-25T14:15:46Z</time>
      </trkpt>
      <trkpt lat="49.2813" lon="-0.21951">
        <ele>5.4</ele>
        <time>2017-05-25T14:15:53Z</time>
      </trkpt>
      <trkpt lat="49.28126" lon="-0.21961">
        <ele>6.4</ele>
        <time>2017-05-25T14:15:59Z</time>
      </trkpt>
      <trkpt lat="49.28125" lon="-0.21972">
        <ele>4.4</ele>
        <time>2017-05-25T14:16:05Z</time>
      </trkpt>
      <trkpt lat="49.28127" lon="-0.21984">
        <ele>0.4</ele>
        <time>2017-05-25T14:16:11Z</time>
      </trkpt>
      <trkpt lat="49.28131" lon="-0.21994">
        <ele>-1.3</ele>
        <time>2017-05-25T14:16:17Z</time>
      </trkpt>
      <trkpt lat="49.28139" lon="-0.21995">
        <ele>-0.5</ele>
        <time>2017-05-25T14:16:24Z</time>
      </trkpt>
      <trkpt lat="49.28146" lon="-0.2199">
        <ele>0.3</ele>
        <time>2017-05-25T14:16:31Z</time>
      </trkpt>
      <trkpt lat="49.28152" lon="-0.21983">
        <ele>1.1</ele>
        <time>2017-05-25T14:16:38Z</time>
      </trkpt>
      <trkpt lat="49.28158" lon="-0.21976">
        <ele>0.7</ele>
        <time>2017-05-25T14:16:44Z</time>
      </trkpt>
      <trkpt lat="49.28164" lon="-0.21967">
        <ele>-1.1</ele>
        <time>2017-05-25T14:16:51Z</time>
      </trkpt>
      <trkpt lat="49.2817" lon="-0.21964">
        <ele>-1.7</ele>
        <time>2017-05-25T14:16:58Z</time>
      </trkpt>
      <trkpt lat="49.28174" lon="-0.21973">
        <ele>-0.7</ele>
        <time>2017-05-25T14:17:05Z</time>
      </trkpt>
      <trkpt lat="49.28176" lon="-0.2198">
        <ele>-1.9</ele>
        <time>2017-05-25T14:17:12Z</time>
      </trkpt>
      <trkpt lat="49.28175" lon="-0.21981">
        <ele>-2.9</ele>
        <time>2017-05-25T14:17:19Z</time>
      </trkpt>
      <trkpt lat="49.28175" lon="-0.21986">
        <ele>0.4</ele>
        <time>2017-05-25T14:17:39Z</time>
      </trkpt>
      <trkpt lat="49.28177" lon="-0.21991">
        <ele>0.3</ele>
        <time>2017-05-25T14:17:46Z</time>
      </trkpt>
      <trkpt lat="49.28183" lon="-0.2199">
        <ele>-0.3</ele>
        <time>2017-05-25T14:17:53Z</time>
      </trkpt>
      <trkpt lat="49.28188" lon="-0.21989">
        <ele>-0.3</ele>
        <time>2017-05-25T14:18:00Z</time>
      </trkpt>
      <trkpt lat="49.28193" lon="-0.21985">
        <ele>1.7</ele>
        <time>2017-05-25T14:18:07Z</time>
      </trkpt>
      <trkpt lat="49.28199" lon="-0.21979">
        <ele>2.9</ele>
        <time>2017-05-25T14:18:14Z</time>
      </trkpt>
      <trkpt lat="49.28205" lon="-0.21975">
        <ele>3.9</ele>
        <time>2017-05-25T14:18:21Z</time>
      </trkpt>
      <trkpt lat="49.2821" lon="-0.2197">
        <ele>4.9</ele>
        <time>2017-05-25T14:18:28Z</time>
      </trkpt>
      <trkpt lat="49.28217" lon="-0.21967">
        <ele>4.8</ele>
        <time>2017-05-25T14:18:35Z</time>
      </trkpt>
      <trkpt lat="49.28224" lon="-0.21962">
        <ele>4.8</ele>
        <time>2017-05-25T14:18:42Z</time>
      </trkpt>
      <trkpt lat="49.28233" lon="-0.21959">
        <ele>2.5</ele>
        <time>2017-05-25T14:18:49Z</time>
      </trkpt>
      <trkpt lat="49.2824" lon="-0.21958">
        <ele>2.4</ele>
        <time>2017-05-25T14:18:56Z</time>
      </trkpt>
      <trkpt lat="49.28248" lon="-0.21956">
        <ele>1.4</ele>
        <time>2017-05-25T14:19:03Z</time>
      </trkpt>
      <trkpt lat="49.28255" lon="-0.21954">
        <ele>1</ele>
        <time>2017-05-25T14:19:10Z</time>
      </trkpt>
      <trkpt lat="49.28263" lon="-0.21952">
        <ele>-0.8</ele>
        <time>2017-05-25T14:19:16Z</time>
      </trkpt>
      <trkpt lat="49.28271" lon="-0.21956">
        <ele>-2.7</ele>
        <time>2017-05-25T14:19:23Z</time>
      </trkpt>
      <trkpt lat="49.28276" lon="-0.21962">
        <ele>-1.1</ele>
        <time>2017-05-25T14:19:30Z</time>
      </trkpt>
      <trkpt lat="49.28282" lon="-0.21967">
        <ele>-0.2</ele>
        <time>2017-05-25T14:19:37Z</time>
      </trkpt>
      <trkpt lat="49.28289" lon="-0.2197">
        <ele>0.8</ele>
        <time>2017-05-25T14:19:44Z</time>
      </trkpt>
      <trkpt lat="49.28296" lon="-0.21967">
        <ele>1.9</ele>
        <time>2017-05-25T14:19:51Z</time>
      </trkpt>
      <trkpt lat="49.28302" lon="-0.21961">
        <ele>2.3</ele>
        <time>2017-05-25T14:19:58Z</time>
      </trkpt>
      <trkpt lat="49.28307" lon="-0.21953">
        <ele>5.6</ele>
        <time>2017-05-25T14:20:05Z</time>
      </trkpt>
      <trkpt lat="49.28311" lon="-0.21943">
        <ele>7.2</ele>
        <time>2017-05-25T14:20:12Z</time>
      </trkpt>
      <trkpt lat="49.28315" lon="-0.21934">
        <ele>4.8</ele>
        <time>2017-05-25T14:20:19Z</time>
      </trkpt>
      <trkpt lat="49.28322" lon="-0.21927">
        <ele>4.4</ele>
        <time>2017-05-25T14:20:26Z</time>
      </trkpt>
      <trkpt lat="49.28329" lon="-0.21921">
        <ele>3.4</ele>
        <time>2017-05-25T14:20:33Z</time>
      </trkpt>
      <trkpt lat="49.28336" lon="-0.21916">
        <ele>3.7</ele>
        <time>2017-05-25T14:20:39Z</time>
      </trkpt>
      <trkpt lat="49.28343" lon="-0.21909">
        <ele>2.6</ele>
        <time>2017-05-25T14:20:46Z</time>
      </trkpt>
      <trkpt lat="49.28349" lon="-0.21903">
        <ele>0.8</ele>
        <time>2017-05-25T14:20:53Z</time>
      </trkpt>
      <trkpt lat="49.28355" lon="-0.21894">
        <ele>1.1</ele>
        <time>2017-05-25T14:21:00Z</time>
      </trkpt>
      <trkpt lat="49.28362" lon="-0.21887">
        <ele>0.2</ele>
        <time>2017-05-25T14:21:07Z</time>
      </trkpt>
      <trkpt lat="49.28367" lon="-0.21878">
        <ele>0.2</ele>
        <time>2017-05-25T14:21:14Z</time>
      </trkpt>
      <trkpt lat="49.28371" lon="-0.2187">
        <ele>0.1</ele>
        <time>2017-05-25T14:21:21Z</time>
      </trkpt>
      <trkpt lat="49.28373" lon="-0.21861">
        <ele>0.2</ele>
        <time>2017-05-25T14:21:28Z</time>
      </trkpt>
      <trkpt lat="49.28373" lon="-0.2185">
        <ele>0.1</ele>
        <time>2017-05-25T14:21:35Z</time>
      </trkpt>
      <trkpt lat="49.28372" lon="-0.21839">
        <ele>-0.1</ele>
        <time>2017-05-25T14:21:41Z</time>
      </trkpt>
      <trkpt lat="49.28372" lon="-0.21828">
        <ele>-0.8</ele>
        <time>2017-05-25T14:21:47Z</time>
      </trkpt>
      <trkpt lat="49.28373" lon="-0.21816">
        <ele>-2.1</ele>
        <time>2017-05-25T14:21:53Z</time>
      </trkpt>
      <trkpt lat="49.28377" lon="-0.21806">
        <ele>-0.6</ele>
        <time>2017-05-25T14:22:00Z</time>
      </trkpt>
      <trkpt lat="49.28382" lon="-0.21795">
        <ele>0.8</ele>
        <time>2017-05-25T14:22:07Z</time>
      </trkpt>
      <trkpt lat="49.28385" lon="-0.21787">
        <ele>0.5</ele>
        <time>2017-05-25T14:22:14Z</time>
      </trkpt>
      <trkpt lat="49.28391" lon="-0.21778">
        <ele>3.2</ele>
        <time>2017-05-25T14:22:20Z</time>
      </trkpt>
      <trkpt lat="49.28395" lon="-0.21768">
        <ele>3.3</ele>
        <time>2017-05-25T14:22:27Z</time>
      </trkpt>
      <trkpt lat="49.28394" lon="-0.21759">
        <ele>0.3</ele>
        <time>2017-05-25T14:22:34Z</time>
      </trkpt>
      <trkpt lat="49.28393" lon="-0.21746">
        <ele>-1.2</ele>
        <time>2017-05-25T14:22:41Z</time>
      </trkpt>
      <trkpt lat="49.28392" lon="-0.21736">
        <ele>0.9</ele>
        <time>2017-05-25T14:22:47Z</time>
      </trkpt>
      <trkpt lat="49.28394" lon="-0.21725">
        <ele>-0.4</ele>
        <time>2017-05-25T14:22:53Z</time>
      </trkpt>
      <trkpt lat="49.28395" lon="-0.21713">
        <ele>-2.9</ele>
        <time>2017-05-25T14:22:59Z</time>
      </trkpt>
      <trkpt lat="49.28396" lon="-0.217">
        <ele>-3.8</ele>
        <time>2017-05-25T14:23:06Z</time>
      </trkpt>
      <trkpt lat="49.28396" lon="-0.21689">
        <ele>-2.5</ele>
        <time>2017-05-25T14:23:13Z</time>
      </trkpt>
      <trkpt lat="49.28394" lon="-0.21676">
        <ele>-0.7</ele>
        <time>2017-05-25T14:23:20Z</time>
      </trkpt>
      <trkpt lat="49.28391" lon="-0.21666">
        <ele>-0.3</ele>
        <time>2017-05-25T14:23:26Z</time>
      </trkpt>
      <trkpt lat="49.2839" lon="-0.21654">
        <ele>0.3</ele>
        <time>2017-05-25T14:23:32Z</time>
      </trkpt>
      <trkpt lat="49.28393" lon="-0.21644">
        <ele>0.7</ele>
        <time>2017-05-25T14:23:39Z</time>
      </trkpt>
      <trkpt lat="49.28395" lon="-0.21634">
        <ele>7</ele>
        <time>2017-05-25T14:23:46Z</time>
      </trkpt>
      <trkpt lat="49.28398" lon="-0.21622">
        <ele>0.6</ele>
        <time>2017-05-25T14:23:53Z</time>
      </trkpt>
      <trkpt lat="49.28401" lon="-0.21612">
        <ele>2.4</ele>
        <time>2017-05-25T14:23:59Z</time>
      </trkpt>
      <trkpt lat="49.28405" lon="-0.21602">
        <ele>2</ele>
        <time>2017-05-25T14:24:05Z</time>
      </trkpt>
      <trkpt lat="49.28408" lon="-0.21591">
        <ele>2.2</ele>
        <time>2017-05-25T14:24:12Z</time>
      </trkpt>
      <trkpt lat="49.2841" lon="-0.21579">
        <ele>2</ele>
        <time>2017-05-25T14:24:19Z</time>
      </trkpt>
      <trkpt lat="49.28409" lon="-0.21567">
        <ele>0.4</ele>
        <time>2017-05-25T14:24:25Z</time>
      </trkpt>
      <trkpt lat="49.28409" lon="-0.21556">
        <ele>0.9</ele>
        <time>2017-05-25T14:24:31Z</time>
      </trkpt>
      <trkpt lat="49.28409" lon="-0.21543">
        <ele>-0.9</ele>
        <time>2017-05-25T14:24:37Z</time>
      </trkpt>
      <trkpt lat="49.28411" lon="-0.21532">
        <ele>-1.5</ele>
        <time>2017-05-25T14:24:43Z</time>
      </trkpt>
      <trkpt lat="49.28414" lon="-0.2152">
        <ele>-2.4</ele>
        <time>2017-05-25T14:24:50Z</time>
      </trkpt>
      <trkpt lat="49.28414" lon="-0.21509">
        <ele>-3.5</ele>
        <time>2017-05-25T14:24:57Z</time>
      </trkpt>
      <trkpt lat="49.28417" lon="-0.21497">
        <ele>-3.1</ele>
        <time>2017-05-25T14:25:03Z</time>
      </trkpt>
      <trkpt lat="49.28419" lon="-0.21487">
        <ele>-4.1</ele>
        <time>2017-05-25T14:25:09Z</time>
      </trkpt>
      <trkpt lat="49.28421" lon="-0.21476">
        <ele>-4.9</ele>
        <time>2017-05-25T14:25:15Z</time>
      </trkpt>
      <trkpt lat="49.28424" lon="-0.21465">
        <ele>-6.8</ele>
        <time>2017-05-25T14:25:22Z</time>
      </trkpt>
      <trkpt lat="49.28427" lon="-0.21455">
        <ele>-8.3</ele>
        <time>2017-05-25T14:25:29Z</time>
      </trkpt>
      <trkpt lat="49.2843" lon="-0.21445">
        <ele>-7.5</ele>
        <time>2017-05-25T14:25:35Z</time>
      </trkpt>
      <trkpt lat="49.28433" lon="-0.21434">
        <ele>-7.4</ele>
        <time>2017-05-25T14:25:42Z</time>
      </trkpt>
      <trkpt lat="49.28434" lon="-0.21422">
        <ele>-7.6</ele>
        <time>2017-05-25T14:25:48Z</time>
      </trkpt>
      <trkpt lat="49.28436" lon="-0.21412">
        <ele>-6.1</ele>
        <time>2017-05-25T14:25:54Z</time>
      </trkpt>
      <trkpt lat="49.28438" lon="-0.21398">
        <ele>-5</ele>
        <time>2017-05-25T14:26:01Z</time>
      </trkpt>
      <trkpt lat="49.2844" lon="-0.21387">
        <ele>-4.7</ele>
        <time>2017-05-25T14:26:08Z</time>
      </trkpt>
      <trkpt lat="49.28442" lon="-0.21376">
        <ele>-4.2</ele>
        <time>2017-05-25T14:26:15Z</time>
      </trkpt>
      <trkpt lat="49.28441" lon="-0.21365">
        <ele>-2.4</ele>
        <time>2017-05-25T14:26:22Z</time>
      </trkpt>
      <trkpt lat="49.2844" lon="-0.21353">
        <ele>-0.4</ele>
        <time>2017-05-25T14:26:28Z</time>
      </trkpt>
      <trkpt lat="49.28441" lon="-0.21342">
        <ele>0.3</ele>
        <time>2017-05-25T14:26:34Z</time>
      </trkpt>
      <trkpt lat="49.28444" lon="-0.21331">
        <ele>0.1</ele>
        <time>2017-05-25T14:26:40Z</time>
      </trkpt>
      <trkpt lat="49.28448" lon="-0.21323">
        <ele>0.9</ele>
        <time>2017-05-25T14:26:46Z</time>
      </trkpt>
      <trkpt lat="49.28452" lon="-0.21312">
        <ele>-0.6</ele>
        <time>2017-05-25T14:26:52Z</time>
      </trkpt>
      <trkpt lat="49.28456" lon="-0.21302">
        <ele>-0.9</ele>
        <time>2017-05-25T14:26:58Z</time>
      </trkpt>
      <trkpt lat="49.28458" lon="-0.21291">
        <ele>-2.1</ele>
        <time>2017-05-25T14:27:05Z</time>
      </trkpt>
      <trkpt lat="49.28458" lon="-0.21278">
        <ele>-3</ele>
        <time>2017-05-25T14:27:11Z</time>
      </trkpt>
      <trkpt lat="49.28457" lon="-0.21268">
        <ele>-1.6</ele>
        <time>2017-05-25T14:27:17Z</time>
      </trkpt>
      <trkpt lat="49.28455" lon="-0.21255">
        <ele>-1.7</ele>
        <time>2017-05-25T14:27:23Z</time>
      </trkpt>
      <trkpt lat="49.28455" lon="-0.21242">
        <ele>0.5</ele>
        <time>2017-05-25T14:27:30Z</time>
      </trkpt>
      <trkpt lat="49.28458" lon="-0.21231">
        <ele>1.4</ele>
        <time>2017-05-25T14:27:37Z</time>
      </trkpt>
      <trkpt lat="49.28459" lon="-0.2122">
        <ele>-2.6</ele>
        <time>2017-05-25T14:27:44Z</time>
      </trkpt>
      <trkpt lat="49.28463" lon="-0.21209">
        <ele>-1.2</ele>
        <time>2017-05-25T14:27:51Z</time>
      </trkpt>
      <trkpt lat="49.28463" lon="-0.21208">
        <ele>-2.1</ele>
        <time>2017-05-25T14:27:58Z</time>
      </trkpt>
      <trkpt lat="49.28464" lon="-0.21196">
        <ele>-1.5</ele>
        <time>2017-05-25T14:28:05Z</time>
      </trkpt>
      <trkpt lat="49.28466" lon="-0.21184">
        <ele>-1.4</ele>
        <time>2017-05-25T14:28:12Z</time>
      </trkpt>
      <trkpt lat="49.28467" lon="-0.21173">
        <ele>0.6</ele>
        <time>2017-05-25T14:28:18Z</time>
      </trkpt>
      <trkpt lat="49.28469" lon="-0.21163">
        <ele>3</ele>
        <time>2017-05-25T14:28:25Z</time>
      </trkpt>
      <trkpt lat="49.28471" lon="-0.21155">
        <ele>2.2</ele>
        <time>2017-05-25T14:28:32Z</time>
      </trkpt>
      <trkpt lat="49.28472" lon="-0.21146">
        <ele>4.5</ele>
        <time>2017-05-25T14:28:39Z</time>
      </trkpt>
      <trkpt lat="49.28473" lon="-0.21136">
        <ele>6.3</ele>
        <time>2017-05-25T14:28:46Z</time>
      </trkpt>
      <trkpt lat="49.28473" lon="-0.21125">
        <ele>8.4</ele>
        <time>2017-05-25T14:28:53Z</time>
      </trkpt>
      <trkpt lat="49.28473" lon="-0.21115">
        <ele>7.4</ele>
        <time>2017-05-25T14:29:00Z</time>
      </trkpt>
      <trkpt lat="49.28476" lon="-0.21104">
        <ele>6.6</ele>
        <time>2017-05-25T14:29:07Z</time>
      </trkpt>
      <trkpt lat="49.28477" lon="-0.21099">
        <ele>8.3</ele>
        <time>2017-05-25T14:29:14Z</time>
      </trkpt>
      <trkpt lat="49.28476" lon="-0.21093">
        <ele>8.4</ele>
        <time>2017-05-25T14:29:21Z</time>
      </trkpt>
      <trkpt lat="49.28477" lon="-0.21089">
        <ele>9</ele>
        <time>2017-05-25T14:29:28Z</time>
      </trkpt>
      <trkpt lat="49.28477" lon="-0.21079">
        <ele>0.4</ele>
        <time>2017-05-25T14:32:32Z</time>
      </trkpt>
      <trkpt lat="49.28477" lon="-0.21068">
        <ele>-0.5</ele>
        <time>2017-05-25T14:32:39Z</time>
      </trkpt>
      <trkpt lat="49.28478" lon="-0.21057">
        <ele>0.4</ele>
        <time>2017-05-25T14:32:45Z</time>
      </trkpt>
      <trkpt lat="49.2848" lon="-0.21046">
        <ele>1.1</ele>
        <time>2017-05-25T14:32:51Z</time>
      </trkpt>
      <trkpt lat="49.28481" lon="-0.21034">
        <ele>0.7</ele>
        <time>2017-05-25T14:32:57Z</time>
      </trkpt>
      <trkpt lat="49.28483" lon="-0.21023">
        <ele>0.6</ele>
        <time>2017-05-25T14:33:03Z</time>
      </trkpt>
      <trkpt lat="49.28485" lon="-0.21012">
        <ele>1.5</ele>
        <time>2017-05-25T14:33:09Z</time>
      </trkpt>
      <trkpt lat="49.28486" lon="-0.21001">
        <ele>0.8</ele>
        <time>2017-05-25T14:33:16Z</time>
      </trkpt>
      <trkpt lat="49.28487" lon="-0.20988">
        <ele>2.5</ele>
        <time>2017-05-25T14:33:23Z</time>
      </trkpt>
      <trkpt lat="49.28487" lon="-0.20976">
        <ele>2</ele>
        <time>2017-05-25T14:33:30Z</time>
      </trkpt>
      <trkpt lat="49.28488" lon="-0.20965">
        <ele>2</ele>
        <time>2017-05-25T14:33:36Z</time>
      </trkpt>
      <trkpt lat="49.28488" lon="-0.20955">
        <ele>-1.7</ele>
        <time>2017-05-25T14:33:43Z</time>
      </trkpt>
      <trkpt lat="49.2849" lon="-0.20944">
        <ele>-2.9</ele>
        <time>2017-05-25T14:33:50Z</time>
      </trkpt>
      <trkpt lat="49.28491" lon="-0.20933">
        <ele>-5</ele>
        <time>2017-05-25T14:33:57Z</time>
      </trkpt>
      <trkpt lat="49.28493" lon="-0.20925">
        <ele>-10.2</ele>
        <time>2017-05-25T14:34:04Z</time>
      </trkpt>
      <trkpt lat="49.28495" lon="-0.20912">
        <ele>-10.2</ele>
        <time>2017-05-25T14:34:11Z</time>
      </trkpt>
      <trkpt lat="49.28496" lon="-0.209">
        <ele>-6.8</ele>
        <time>2017-05-25T14:34:17Z</time>
      </trkpt>
      <trkpt lat="49.28499" lon="-0.20889">
        <ele>-6.2</ele>
        <time>2017-05-25T14:34:23Z</time>
      </trkpt>
      <trkpt lat="49.285" lon="-0.20876">
        <ele>-2.7</ele>
        <time>2017-05-25T14:34:29Z</time>
      </trkpt>
      <trkpt lat="49.28503" lon="-0.20866">
        <ele>1.2</ele>
        <time>2017-05-25T14:34:34Z</time>
      </trkpt>
      <trkpt lat="49.28508" lon="-0.20856">
        <ele>6.2</ele>
        <time>2017-05-25T14:34:40Z</time>
      </trkpt>
      <trkpt lat="49.28514" lon="-0.20851">
        <ele>10.6</ele>
        <time>2017-05-25T14:34:47Z</time>
      </trkpt>
      <trkpt lat="49.28522" lon="-0.20851">
        <ele>13.4</ele>
        <time>2017-05-25T14:34:54Z</time>
      </trkpt>
      <trkpt lat="49.28529" lon="-0.20853">
        <ele>13.7</ele>
        <time>2017-05-25T14:35:01Z</time>
      </trkpt>
      <trkpt lat="49.28536" lon="-0.20857">
        <ele>11.6</ele>
        <time>2017-05-25T14:35:07Z</time>
      </trkpt>
      <trkpt lat="49.28542" lon="-0.2086">
        <ele>9.1</ele>
        <time>2017-05-25T14:35:14Z</time>
      </trkpt>
      <trkpt lat="49.28548" lon="-0.20864">
        <ele>7.2</ele>
        <time>2017-05-25T14:35:21Z</time>
      </trkpt>
      <trkpt lat="49.28554" lon="-0.20864">
        <ele>5.9</ele>
        <time>2017-05-25T14:35:28Z</time>
      </trkpt>
      <trkpt lat="49.28559" lon="-0.2086">
        <ele>3.9</ele>
        <time>2017-05-25T14:35:35Z</time>
      </trkpt>
      <trkpt lat="49.28562" lon="-0.20853">
        <ele>1.5</ele>
        <time>2017-05-25T14:35:42Z</time>
      </trkpt>
      <trkpt lat="49.28564" lon="-0.20843">
        <ele>0.1</ele>
        <time>2017-05-25T14:35:49Z</time>
      </trkpt>
      <trkpt lat="49.28565" lon="-0.20831">
        <ele>-0.9</ele>
        <time>2017-05-25T14:35:56Z</time>
      </trkpt>
      <trkpt lat="49.28566" lon="-0.20819">
        <ele>-0.4</ele>
        <time>2017-05-25T14:36:03Z</time>
      </trkpt>
      <trkpt lat="49.28567" lon="-0.20807">
        <ele>1.1</ele>
        <time>2017-05-25T14:36:10Z</time>
      </trkpt>
      <trkpt lat="49.28566" lon="-0.20798">
        <ele>1.6</ele>
        <time>2017-05-25T14:36:17Z</time>
      </trkpt>
      <trkpt lat="49.28567" lon="-0.20787">
        <ele>1.4</ele>
        <time>2017-05-25T14:36:24Z</time>
      </trkpt>
      <trkpt lat="49.28566" lon="-0.20774">
        <ele>-2.1</ele>
        <time>2017-05-25T14:36:31Z</time>
      </trkpt>
      <trkpt lat="49.28569" lon="-0.20762">
        <ele>-3.5</ele>
        <time>2017-05-25T14:36:38Z</time>
      </trkpt>
      <trkpt lat="49.28572" lon="-0.20751">
        <ele>-3.2</ele>
        <time>2017-05-25T14:36:44Z</time>
      </trkpt>
      <trkpt lat="49.28574" lon="-0.20739">
        <ele>-3</ele>
        <time>2017-05-25T14:36:51Z</time>
      </trkpt>
      <trkpt lat="49.28576" lon="-0.20727">
        <ele>-1.5</ele>
        <time>2017-05-25T14:36:58Z</time>
      </trkpt>
      <trkpt lat="49.28578" lon="-0.20717">
        <ele>-1.7</ele>
        <time>2017-05-25T14:37:05Z</time>
      </trkpt>
      <trkpt lat="49.28579" lon="-0.20704">
        <ele>-1.7</ele>
        <time>2017-05-25T14:37:11Z</time>
      </trkpt>
      <trkpt lat="49.2858" lon="-0.20692">
        <ele>-1.7</ele>
        <time>2017-05-25T14:37:18Z</time>
      </trkpt>
      <trkpt lat="49.28582" lon="-0.20681">
        <ele>-0.7</ele>
        <time>2017-05-25T14:37:25Z</time>
      </trkpt>
      <trkpt lat="49.28584" lon="-0.20668">
        <ele>8</ele>
        <time>2017-05-25T14:37:32Z</time>
      </trkpt>
      <trkpt lat="49.28585" lon="-0.20657">
        <ele>-0.3</ele>
        <time>2017-05-25T14:37:39Z</time>
      </trkpt>
      <trkpt lat="49.28588" lon="-0.20646">
        <ele>0.1</ele>
        <time>2017-05-25T14:37:46Z</time>
      </trkpt>
      <trkpt lat="49.2859" lon="-0.20635">
        <ele>-0.3</ele>
        <time>2017-05-25T14:37:52Z</time>
      </trkpt>
      <trkpt lat="49.28592" lon="-0.20623">
        <ele>6.8</ele>
        <time>2017-05-25T14:37:59Z</time>
      </trkpt>
      <trkpt lat="49.28593" lon="-0.20614">
        <ele>1.7</ele>
        <time>2017-05-25T14:38:06Z</time>
      </trkpt>
      <trkpt lat="49.28594" lon="-0.20613">
        <ele>0.5</ele>
        <time>2017-05-25T14:38:13Z</time>
      </trkpt>
      <trkpt lat="49.28597" lon="-0.20607">
        <ele>-1.7</ele>
        <time>2017-05-25T14:38:42Z</time>
      </trkpt>
      <trkpt lat="49.28597" lon="-0.206">
        <ele>-2.8</ele>
        <time>2017-05-25T14:38:49Z</time>
      </trkpt>
      <trkpt lat="49.28595" lon="-0.20589">
        <ele>-2.9</ele>
        <time>2017-05-25T14:39:02Z</time>
      </trkpt>
      <trkpt lat="49.28596" lon="-0.20579">
        <ele>-1.4</ele>
        <time>2017-05-25T14:39:09Z</time>
      </trkpt>
      <trkpt lat="49.28597" lon="-0.20569">
        <ele>-1.6</ele>
        <time>2017-05-25T14:39:16Z</time>
      </trkpt>
      <trkpt lat="49.28598" lon="-0.20558">
        <ele>0.2</ele>
        <time>2017-05-25T14:39:23Z</time>
      </trkpt>
      <trkpt lat="49.28598" lon="-0.20546">
        <ele>-0.1</ele>
        <time>2017-05-25T14:39:30Z</time>
      </trkpt>
      <trkpt lat="49.28598" lon="-0.20537">
        <ele>-0.1</ele>
        <time>2017-05-25T14:39:37Z</time>
      </trkpt>
      <trkpt lat="49.28598" lon="-0.20527">
        <ele>1.3</ele>
        <time>2017-05-25T14:39:44Z</time>
      </trkpt>
      <trkpt lat="49.28599" lon="-0.20517">
        <ele>1.3</ele>
        <time>2017-05-25T14:39:51Z</time>
      </trkpt>
      <trkpt lat="49.28599" lon="-0.20509">
        <ele>1.7</ele>
        <time>2017-05-25T14:39:58Z</time>
      </trkpt>
      <trkpt lat="49.28599" lon="-0.205">
        <ele>0.8</ele>
        <time>2017-05-25T14:40:05Z</time>
      </trkpt>
      <trkpt lat="49.28601" lon="-0.20491">
        <ele>1.3</ele>
        <time>2017-05-25T14:40:12Z</time>
      </trkpt>
      <trkpt lat="49.28603" lon="-0.20482">
        <ele>-0.5</ele>
        <time>2017-05-25T14:40:19Z</time>
      </trkpt>
      <trkpt lat="49.28604" lon="-0.20471">
        <ele>-1.9</ele>
        <time>2017-05-25T14:40:26Z</time>
      </trkpt>
      <trkpt lat="49.28604" lon="-0.20463">
        <ele>-1.3</ele>
        <time>2017-05-25T14:40:33Z</time>
      </trkpt>
      <trkpt lat="49.28606" lon="-0.20452">
        <ele>0.6</ele>
        <time>2017-05-25T14:40:40Z</time>
      </trkpt>
      <trkpt lat="49.28608" lon="-0.20441">
        <ele>3.4</ele>
        <time>2017-05-25T14:40:47Z</time>
      </trkpt>
      <trkpt lat="49.28607" lon="-0.2043">
        <ele>3.9</ele>
        <time>2017-05-25T14:40:54Z</time>
      </trkpt>
      <trkpt lat="49.28607" lon="-0.20418">
        <ele>4.2</ele>
        <time>2017-05-25T14:41:01Z</time>
      </trkpt>
      <trkpt lat="49.28606" lon="-0.20407">
        <ele>3.7</ele>
        <time>2017-05-25T14:41:08Z</time>
      </trkpt>
      <trkpt lat="49.28606" lon="-0.20396">
        <ele>3.6</ele>
        <time>2017-05-25T14:41:15Z</time>
      </trkpt>
      <trkpt lat="49.28604" lon="-0.20385">
        <ele>3.6</ele>
        <time>2017-05-25T14:41:22Z</time>
      </trkpt>
      <trkpt lat="49.28602" lon="-0.20378">
        <ele>2.6</ele>
        <time>2017-05-25T14:41:29Z</time>
      </trkpt>
      <trkpt lat="49.28599" lon="-0.20375">
        <ele>0.2</ele>
        <time>2017-05-25T14:41:36Z</time>
      </trkpt>
      <trkpt lat="49.28595" lon="-0.20368">
        <ele>0.9</ele>
        <time>2017-05-25T14:41:43Z</time>
      </trkpt>
      <trkpt lat="49.28592" lon="-0.20359">
        <ele>3.2</ele>
        <time>2017-05-25T14:41:50Z</time>
      </trkpt>
      <trkpt lat="49.28594" lon="-0.20347">
        <ele>7.5</ele>
        <time>2017-05-25T14:41:57Z</time>
      </trkpt>
      <trkpt lat="49.28597" lon="-0.20336">
        <ele>9.9</ele>
        <time>2017-05-25T14:42:04Z</time>
      </trkpt>
      <trkpt lat="49.28598" lon="-0.20329">
        <ele>11</ele>
        <time>2017-05-25T14:42:11Z</time>
      </trkpt>
      <trkpt lat="49.28599" lon="-0.20317">
        <ele>13.9</ele>
        <time>2017-05-25T14:42:18Z</time>
      </trkpt>
      <trkpt lat="49.286" lon="-0.20308">
        <ele>14.6</ele>
        <time>2017-05-25T14:42:25Z</time>
      </trkpt>
      <trkpt lat="49.286" lon="-0.20297">
        <ele>14.1</ele>
        <time>2017-05-25T14:42:31Z</time>
      </trkpt>
      <trkpt lat="49.28601" lon="-0.20286">
        <ele>12.6</ele>
        <time>2017-05-25T14:42:37Z</time>
      </trkpt>
      <trkpt lat="49.28601" lon="-0.20275">
        <ele>11.6</ele>
        <time>2017-05-25T14:42:43Z</time>
      </trkpt>
      <trkpt lat="49.28602" lon="-0.20263">
        <ele>11.4</ele>
        <time>2017-05-25T14:42:50Z</time>
      </trkpt>
      <trkpt lat="49.28602" lon="-0.20252">
        <ele>10.3</ele>
        <time>2017-05-25T14:42:56Z</time>
      </trkpt>
      <trkpt lat="49.28601" lon="-0.20241">
        <ele>8.8</ele>
        <time>2017-05-25T14:43:02Z</time>
      </trkpt>
      <trkpt lat="49.28601" lon="-0.20229">
        <ele>7.8</ele>
        <time>2017-05-25T14:43:08Z</time>
      </trkpt>
      <trkpt lat="49.28602" lon="-0.20218">
        <ele>8.5</ele>
        <time>2017-05-25T14:43:14Z</time>
      </trkpt>
      <trkpt lat="49.28603" lon="-0.20205">
        <ele>8.8</ele>
        <time>2017-05-25T14:43:21Z</time>
      </trkpt>
      <trkpt lat="49.28604" lon="-0.20194">
        <ele>9.6</ele>
        <time>2017-05-25T14:43:27Z</time>
      </trkpt>
      <trkpt lat="49.28604" lon="-0.20183">
        <ele>8.5</ele>
        <time>2017-05-25T14:43:33Z</time>
      </trkpt>
      <trkpt lat="49.28606" lon="-0.20172">
        <ele>7.8</ele>
        <time>2017-05-25T14:43:39Z</time>
      </trkpt>
      <trkpt lat="49.28605" lon="-0.2016">
        <ele>7.3</ele>
        <time>2017-05-25T14:43:45Z</time>
      </trkpt>
      <trkpt lat="49.28606" lon="-0.20155">
        <ele>6.2</ele>
        <time>2017-05-25T14:43:52Z</time>
      </trkpt>
      <trkpt lat="49.28604" lon="-0.20143">
        <ele>3.3</ele>
        <time>2017-05-25T14:43:58Z</time>
      </trkpt>
      <trkpt lat="49.28606" lon="-0.20131">
        <ele>2.9</ele>
        <time>2017-05-25T14:44:05Z</time>
      </trkpt>
      <trkpt lat="49.28607" lon="-0.2012">
        <ele>3.7</ele>
        <time>2017-05-25T14:44:11Z</time>
      </trkpt>
      <trkpt lat="49.28607" lon="-0.20108">
        <ele>5.4</ele>
        <time>2017-05-25T14:44:17Z</time>
      </trkpt>
      <trkpt lat="49.28609" lon="-0.20098">
        <ele>7.7</ele>
        <time>2017-05-25T14:44:24Z</time>
      </trkpt>
      <trkpt lat="49.28609" lon="-0.20089">
        <ele>6.7</ele>
        <time>2017-05-25T14:44:31Z</time>
      </trkpt>
      <trkpt lat="49.28611" lon="-0.20079">
        <ele>8.3</ele>
        <time>2017-05-25T14:44:45Z</time>
      </trkpt>
      <trkpt lat="49.28618" lon="-0.20076">
        <ele>1.5</ele>
        <time>2017-05-25T14:46:42Z</time>
      </trkpt>
      <trkpt lat="49.28618" lon="-0.20066">
        <ele>1.7</ele>
        <time>2017-05-25T14:46:49Z</time>
      </trkpt>
      <trkpt lat="49.28618" lon="-0.20056">
        <ele>2.1</ele>
        <time>2017-05-25T14:46:56Z</time>
      </trkpt>
      <trkpt lat="49.2862" lon="-0.20047">
        <ele>1.8</ele>
        <time>2017-05-25T14:47:03Z</time>
      </trkpt>
      <trkpt lat="49.28622" lon="-0.20038">
        <ele>2.9</ele>
        <time>2017-05-25T14:47:10Z</time>
      </trkpt>
      <trkpt lat="49.28622" lon="-0.20031">
        <ele>3.2</ele>
        <time>2017-05-25T14:47:17Z</time>
      </trkpt>
      <trkpt lat="49.28621" lon="-0.20021">
        <ele>2.6</ele>
        <time>2017-05-25T14:47:24Z</time>
      </trkpt>
      <trkpt lat="49.2862" lon="-0.2001">
        <ele>2.3</ele>
        <time>2017-05-25T14:47:31Z</time>
      </trkpt>
      <trkpt lat="49.2862" lon="-0.20001">
        <ele>2.2</ele>
        <time>2017-05-25T14:47:38Z</time>
      </trkpt>
      <trkpt lat="49.2862" lon="-0.19992">
        <ele>3.5</ele>
        <time>2017-05-25T14:47:45Z</time>
      </trkpt>
      <trkpt lat="49.28621" lon="-0.19984">
        <ele>3.6</ele>
        <time>2017-05-25T14:47:52Z</time>
      </trkpt>
      <trkpt lat="49.28621" lon="-0.19978">
        <ele>2.8</ele>
        <time>2017-05-25T14:47:59Z</time>
      </trkpt>
      <trkpt lat="49.28621" lon="-0.1997">
        <ele>3.1</ele>
        <time>2017-05-25T14:48:06Z</time>
      </trkpt>
      <trkpt lat="49.28621" lon="-0.19963">
        <ele>3.7</ele>
        <time>2017-05-25T14:48:13Z</time>
      </trkpt>
      <trkpt lat="49.28621" lon="-0.19956">
        <ele>3.1</ele>
        <time>2017-05-25T14:48:20Z</time>
      </trkpt>
      <trkpt lat="49.28622" lon="-0.19952">
        <ele>2.5</ele>
        <time>2017-05-25T14:48:27Z</time>
      </trkpt>
      <trkpt lat="49.28625" lon="-0.19943">
        <ele>-0.2</ele>
        <time>2017-05-25T14:48:38Z</time>
      </trkpt>
      <trkpt lat="49.2863" lon="-0.19934">
        <ele>-2.5</ele>
        <time>2017-05-25T14:48:45Z</time>
      </trkpt>
      <trkpt lat="49.28632" lon="-0.19924">
        <ele>-1.8</ele>
        <time>2017-05-25T14:48:52Z</time>
      </trkpt>
      <trkpt lat="49.28634" lon="-0.19913">
        <ele>-1.3</ele>
        <time>2017-05-25T14:48:58Z</time>
      </trkpt>
      <trkpt lat="49.28635" lon="-0.19901">
        <ele>-2</ele>
        <time>2017-05-25T14:49:04Z</time>
      </trkpt>
      <trkpt lat="49.28635" lon="-0.19888">
        <ele>-3.1</ele>
        <time>2017-05-25T14:49:11Z</time>
      </trkpt>
      <trkpt lat="49.28635" lon="-0.19877">
        <ele>-3.3</ele>
        <time>2017-05-25T14:49:17Z</time>
      </trkpt>
      <trkpt lat="49.28635" lon="-0.19866">
        <ele>-1.9</ele>
        <time>2017-05-25T14:49:24Z</time>
      </trkpt>
      <trkpt lat="49.28635" lon="-0.19855">
        <ele>-1.2</ele>
        <time>2017-05-25T14:49:31Z</time>
      </trkpt>
      <trkpt lat="49.28636" lon="-0.19844">
        <ele>0.6</ele>
        <time>2017-05-25T14:49:38Z</time>
      </trkpt>
      <trkpt lat="49.28636" lon="-0.19832">
        <ele>0.7</ele>
        <time>2017-05-25T14:49:45Z</time>
      </trkpt>
      <trkpt lat="49.28636" lon="-0.19821">
        <ele>0.7</ele>
        <time>2017-05-25T14:49:52Z</time>
      </trkpt>
      <trkpt lat="49.28637" lon="-0.19809">
        <ele>-0.2</ele>
        <time>2017-05-25T14:49:59Z</time>
      </trkpt>
      <trkpt lat="49.28637" lon="-0.19799">
        <ele>0.3</ele>
        <time>2017-05-25T14:50:05Z</time>
      </trkpt>
      <trkpt lat="49.28638" lon="-0.19791">
        <ele>-0.5</ele>
        <time>2017-05-25T14:50:12Z</time>
      </trkpt>
      <trkpt lat="49.28638" lon="-0.19779">
        <ele>0.3</ele>
        <time>2017-05-25T14:50:19Z</time>
      </trkpt>
      <trkpt lat="49.28637" lon="-0.19769">
        <ele>0.5</ele>
        <time>2017-05-25T14:50:26Z</time>
      </trkpt>
      <trkpt lat="49.28636" lon="-0.19756">
        <ele>1.9</ele>
        <time>2017-05-25T14:50:33Z</time>
      </trkpt>
      <trkpt lat="49.28636" lon="-0.19746">
        <ele>2.9</ele>
        <time>2017-05-25T14:50:40Z</time>
      </trkpt>
      <trkpt lat="49.28637" lon="-0.19734">
        <ele>1.2</ele>
        <time>2017-05-25T14:50:47Z</time>
      </trkpt>
      <trkpt lat="49.28636" lon="-0.19722">
        <ele>0.5</ele>
        <time>2017-05-25T14:50:54Z</time>
      </trkpt>
      <trkpt lat="49.28636" lon="-0.19709">
        <ele>0.4</ele>
        <time>2017-05-25T14:51:01Z</time>
      </trkpt>
      <trkpt lat="49.28636" lon="-0.19698">
        <ele>0.7</ele>
        <time>2017-05-25T14:51:07Z</time>
      </trkpt>
      <trkpt lat="49.28635" lon="-0.19686">
        <ele>2.2</ele>
        <time>2017-05-25T14:51:13Z</time>
      </trkpt>
      <trkpt lat="49.28634" lon="-0.19675">
        <ele>1.6</ele>
        <time>2017-05-25T14:51:20Z</time>
      </trkpt>
      <trkpt lat="49.28632" lon="-0.19663">
        <ele>0.9</ele>
        <time>2017-05-25T14:51:27Z</time>
      </trkpt>
      <trkpt lat="49.28633" lon="-0.19658">
        <ele>-0.7</ele>
        <time>2017-05-25T14:51:34Z</time>
      </trkpt>
      <trkpt lat="49.28632" lon="-0.19648">
        <ele>-1.9</ele>
        <time>2017-05-25T14:51:47Z</time>
      </trkpt>
      <trkpt lat="49.2863" lon="-0.19637">
        <ele>-2</ele>
        <time>2017-05-25T14:51:54Z</time>
      </trkpt>
      <trkpt lat="49.28627" lon="-0.19626">
        <ele>-2.1</ele>
        <time>2017-05-25T14:51:59Z</time>
      </trkpt>
      <trkpt lat="49.28624" lon="-0.19615">
        <ele>-2</ele>
        <time>2017-05-25T14:52:05Z</time>
      </trkpt>
      <trkpt lat="49.28622" lon="-0.19603">
        <ele>-0.4</ele>
        <time>2017-05-25T14:52:11Z</time>
      </trkpt>
      <trkpt lat="49.28618" lon="-0.19593">
        <ele>2</ele>
        <time>2017-05-25T14:52:17Z</time>
      </trkpt>
      <trkpt lat="49.28618" lon="-0.19582">
        <ele>2.4</ele>
        <time>2017-05-25T14:52:24Z</time>
      </trkpt>
      <trkpt lat="49.28618" lon="-0.19573">
        <ele>3.7</ele>
        <time>2017-05-25T14:52:31Z</time>
      </trkpt>
      <trkpt lat="49.28615" lon="-0.19566">
        <ele>1.7</ele>
        <time>2017-05-25T14:52:38Z</time>
      </trkpt>
      <trkpt lat="49.28615" lon="-0.19556">
        <ele>2.8</ele>
        <time>2017-05-25T14:52:45Z</time>
      </trkpt>
      <trkpt lat="49.28615" lon="-0.19556">
        <ele>3</ele>
        <time>2017-05-25T14:52:52Z</time>
      </trkpt>
      <trkpt lat="49.28609" lon="-0.19553">
        <ele>1.7</ele>
        <time>2017-05-25T14:52:59Z</time>
      </trkpt>
      <trkpt lat="49.28602" lon="-0.19552">
        <ele>0.5</ele>
        <time>2017-05-25T14:53:06Z</time>
      </trkpt>
      <trkpt lat="49.28596" lon="-0.19554">
        <ele>1.2</ele>
        <time>2017-05-25T14:53:13Z</time>
      </trkpt>
      <trkpt lat="49.28588" lon="-0.19553">
        <ele>2.2</ele>
        <time>2017-05-25T14:53:19Z</time>
      </trkpt>
      <trkpt lat="49.28581" lon="-0.19547">
        <ele>3.7</ele>
        <time>2017-05-25T14:53:26Z</time>
      </trkpt>
      <trkpt lat="49.2858" lon="-0.19543">
        <ele>6.5</ele>
        <time>2017-05-25T14:53:33Z</time>
      </trkpt>
      <trkpt lat="49.28573" lon="-0.1954">
        <ele>6.1</ele>
        <time>2017-05-25T14:53:55Z</time>
      </trkpt>
      <trkpt lat="49.2857" lon="-0.1954">
        <ele>4.2</ele>
        <time>2017-05-25T14:54:02Z</time>
      </trkpt>
      <trkpt lat="49.28569" lon="-0.1954">
        <ele>4.1</ele>
        <time>2017-05-25T14:54:09Z</time>
      </trkpt>
      <trkpt lat="49.28558" lon="-0.19543">
        <ele>0.3</ele>
        <time>2017-05-25T14:55:24Z</time>
      </trkpt>
      <trkpt lat="49.28555" lon="-0.19545">
        <ele>-1.2</ele>
        <time>2017-05-25T14:55:31Z</time>
      </trkpt>
      <trkpt lat="49.28553" lon="-0.19553">
        <ele>-3.7</ele>
        <time>2017-05-25T14:55:38Z</time>
      </trkpt>
      <trkpt lat="49.28551" lon="-0.19557">
        <ele>-4</ele>
        <time>2017-05-25T14:55:45Z</time>
      </trkpt>
      <trkpt lat="49.28549" lon="-0.19557">
        <ele>-1.6</ele>
        <time>2017-05-25T14:55:52Z</time>
      </trkpt>
      <trkpt lat="49.28547" lon="-0.19556">
        <ele>1</ele>
        <time>2017-05-25T14:56:08Z</time>
      </trkpt>
      <trkpt lat="49.28546" lon="-0.19567">
        <ele>0.4</ele>
        <time>2017-05-25T14:56:22Z</time>
      </trkpt>
      <trkpt lat="49.28544" lon="-0.19571">
        <ele>-0.5</ele>
        <time>2017-05-25T14:56:29Z</time>
      </trkpt>
      <trkpt lat="49.2859" lon="-0.19559">
        <ele>-89.4</ele>
        <time>2017-05-25T14:58:29Z</time>
      </trkpt>
      <trkpt lat="49.28606" lon="-0.19557">
        <ele>-121.1</ele>
        <time>2017-05-25T14:58:32Z</time>
      </trkpt>
    </trkseg>
  </trk>
</gpx>